<?xml version="1.0" encoding="UTF-8" standalone="no" ?>
<gpx xmlns="http://www.topografix.com/GPX/1/1" xmlns:xsi="http://www.w3.org/2001/XMLSchema-instance" xsi:schemaLocation="http://www.topografix.com/GPX/1/1 http://www.topografix.com/GPX/1/1/gpx.xsd" version="1.1" creator="VisuGPX - https://www.visugpx.com">
  <metadata>
    <name>Fuont Pentch 2014 (parcours initial)</name>
    <desc><![CDATA[Attention nous allons apporté quelques modifications sur ce parcours pour l\'alléger un peu. ]]></desc>
  </metadata>
  <trk>
    <name><![CDATA[Fuont Pentch 2014 (parcours initial)_1]]></name>
    <trkseg>
      <trkpt lat="43.85194" lon="7.27287">
        <ele>1184.7220458984</ele>
        <time>2014-03-09T09:09:40Z</time>
      </trkpt>
      <trkpt lat="43.85199" lon="7.27284">
        <ele>1184.4816894531</ele>
        <time>2014-03-09T09:09:43Z</time>
      </trkpt>
      <trkpt lat="43.85213" lon="7.27267">
        <ele>1184.9624023438</ele>
        <time>2014-03-09T09:09:52Z</time>
      </trkpt>
      <trkpt lat="43.85231" lon="7.2726">
        <ele>1186.884765625</ele>
        <time>2014-03-09T09:10:01Z</time>
      </trkpt>
      <trkpt lat="43.85247" lon="7.2725">
        <ele>1188.8076171875</ele>
        <time>2014-03-09T09:10:09Z</time>
      </trkpt>
      <trkpt lat="43.85257" lon="7.27243">
        <ele>1189.7687988281</ele>
        <time>2014-03-09T09:10:15Z</time>
      </trkpt>
      <trkpt lat="43.85273" lon="7.27231">
        <ele>1191.2106933594</ele>
        <time>2014-03-09T09:10:24Z</time>
      </trkpt>
      <trkpt lat="43.85287" lon="7.27214">
        <ele>1192.6528320312</ele>
        <time>2014-03-09T09:10:33Z</time>
      </trkpt>
      <trkpt lat="43.85302" lon="7.27199">
        <ele>1194.5751953125</ele>
        <time>2014-03-09T09:10:42Z</time>
      </trkpt>
      <trkpt lat="43.85311" lon="7.27188">
        <ele>1195.0559082031</ele>
        <time>2014-03-09T09:10:48Z</time>
      </trkpt>
      <trkpt lat="43.85326" lon="7.27177">
        <ele>1196.017578125</ele>
        <time>2014-03-09T09:10:56Z</time>
      </trkpt>
      <trkpt lat="43.85339" lon="7.27167">
        <ele>1195.5366210938</ele>
        <time>2014-03-09T09:11:03Z</time>
      </trkpt>
      <trkpt lat="43.85351" lon="7.27155">
        <ele>1196.9787597656</ele>
        <time>2014-03-09T09:11:10Z</time>
      </trkpt>
      <trkpt lat="43.85363" lon="7.27143">
        <ele>1199.3820800781</ele>
        <time>2014-03-09T09:11:17Z</time>
      </trkpt>
      <trkpt lat="43.85378" lon="7.27137">
        <ele>1201.3046875</ele>
        <time>2014-03-09T09:11:24Z</time>
      </trkpt>
      <trkpt lat="43.85392" lon="7.27134">
        <ele>1203.7080078125</ele>
        <time>2014-03-09T09:11:31Z</time>
      </trkpt>
      <trkpt lat="43.85406" lon="7.27132">
        <ele>1205.1499023438</ele>
        <time>2014-03-09T09:11:37Z</time>
      </trkpt>
      <trkpt lat="43.85421" lon="7.2712">
        <ele>1207.0725097656</ele>
        <time>2014-03-09T09:11:45Z</time>
      </trkpt>
      <trkpt lat="43.85434" lon="7.27112">
        <ele>1208.5144042969</ele>
        <time>2014-03-09T09:11:51Z</time>
      </trkpt>
      <trkpt lat="43.85446" lon="7.27108">
        <ele>1210.4370117188</ele>
        <time>2014-03-09T09:11:57Z</time>
      </trkpt>
      <trkpt lat="43.85466" lon="7.27107">
        <ele>1215.2438964844</ele>
        <time>2014-03-09T09:12:07Z</time>
      </trkpt>
      <trkpt lat="43.85483" lon="7.27107">
        <ele>1218.1276855469</ele>
        <time>2014-03-09T09:12:15Z</time>
      </trkpt>
      <trkpt lat="43.85499" lon="7.27105">
        <ele>1222.9343261719</ele>
        <time>2014-03-09T09:12:23Z</time>
      </trkpt>
      <trkpt lat="43.85514" lon="7.27105">
        <ele>1225.3374023438</ele>
        <time>2014-03-09T09:12:30Z</time>
      </trkpt>
      <trkpt lat="43.85531" lon="7.27105">
        <ele>1229.1828613281</ele>
        <time>2014-03-09T09:12:39Z</time>
      </trkpt>
      <trkpt lat="43.8555" lon="7.27103">
        <ele>1231.5861816406</ele>
        <time>2014-03-09T09:12:48Z</time>
      </trkpt>
      <trkpt lat="43.85569" lon="7.27102">
        <ele>1232.5476074219</ele>
        <time>2014-03-09T09:12:56Z</time>
      </trkpt>
      <trkpt lat="43.8559" lon="7.27099">
        <ele>1233.5087890625</ele>
        <time>2014-03-09T09:13:05Z</time>
      </trkpt>
      <trkpt lat="43.85612" lon="7.27102">
        <ele>1234.9509277344</ele>
        <time>2014-03-09T09:13:14Z</time>
      </trkpt>
      <trkpt lat="43.85629" lon="7.27106">
        <ele>1234.9509277344</ele>
        <time>2014-03-09T09:13:21Z</time>
      </trkpt>
      <trkpt lat="43.85642" lon="7.27107">
        <ele>1236.3928222656</ele>
        <time>2014-03-09T09:13:27Z</time>
      </trkpt>
      <trkpt lat="43.85657" lon="7.27107">
        <ele>1238.7961425781</ele>
        <time>2014-03-09T09:13:34Z</time>
      </trkpt>
      <trkpt lat="43.85677" lon="7.27106">
        <ele>1240.7185058594</ele>
        <time>2014-03-09T09:13:43Z</time>
      </trkpt>
      <trkpt lat="43.85693" lon="7.27105">
        <ele>1241.6799316406</ele>
        <time>2014-03-09T09:13:50Z</time>
      </trkpt>
      <trkpt lat="43.85706" lon="7.27104">
        <ele>1243.1218261719</ele>
        <time>2014-03-09T09:13:56Z</time>
      </trkpt>
      <trkpt lat="43.85722" lon="7.27105">
        <ele>1245.0446777344</ele>
        <time>2014-03-09T09:14:04Z</time>
      </trkpt>
      <trkpt lat="43.85737" lon="7.27103">
        <ele>1246.4868164062</ele>
        <time>2014-03-09T09:14:11Z</time>
      </trkpt>
      <trkpt lat="43.85756" lon="7.271">
        <ele>1248.4091796875</ele>
        <time>2014-03-09T09:14:20Z</time>
      </trkpt>
      <trkpt lat="43.85773" lon="7.271">
        <ele>1249.8513183594</ele>
        <time>2014-03-09T09:14:28Z</time>
      </trkpt>
      <trkpt lat="43.85791" lon="7.27098">
        <ele>1252.2543945312</ele>
        <time>2014-03-09T09:14:36Z</time>
      </trkpt>
      <trkpt lat="43.85804" lon="7.27102">
        <ele>1253.2158203125</ele>
        <time>2014-03-09T09:14:42Z</time>
      </trkpt>
      <trkpt lat="43.85817" lon="7.271">
        <ele>1253.6965332031</ele>
        <time>2014-03-09T09:14:48Z</time>
      </trkpt>
      <trkpt lat="43.85838" lon="7.27101">
        <ele>1254.6577148438</ele>
        <time>2014-03-09T09:14:57Z</time>
      </trkpt>
      <trkpt lat="43.85855" lon="7.27104">
        <ele>1256.099609375</ele>
        <time>2014-03-09T09:15:05Z</time>
      </trkpt>
      <trkpt lat="43.85875" lon="7.27116">
        <ele>1258.0224609375</ele>
        <time>2014-03-09T09:15:14Z</time>
      </trkpt>
      <trkpt lat="43.85889" lon="7.27127">
        <ele>1257.5417480469</ele>
        <time>2014-03-09T09:15:21Z</time>
      </trkpt>
      <trkpt lat="43.85903" lon="7.27137">
        <ele>1256.099609375</ele>
        <time>2014-03-09T09:15:29Z</time>
      </trkpt>
      <trkpt lat="43.8591" lon="7.27142">
        <ele>1255.1384277344</ele>
        <time>2014-03-09T09:15:36Z</time>
      </trkpt>
      <trkpt lat="43.85921" lon="7.27145">
        <ele>1256.099609375</ele>
        <time>2014-03-09T09:15:47Z</time>
      </trkpt>
      <trkpt lat="43.85932" lon="7.27148">
        <ele>1257.0610351562</ele>
        <time>2014-03-09T09:15:56Z</time>
      </trkpt>
      <trkpt lat="43.85939" lon="7.27151">
        <ele>1257.0610351562</ele>
        <time>2014-03-09T09:16:02Z</time>
      </trkpt>
      <trkpt lat="43.85951" lon="7.27161">
        <ele>1258.5029296875</ele>
        <time>2014-03-09T09:16:09Z</time>
      </trkpt>
      <trkpt lat="43.85955" lon="7.27171">
        <ele>1258.9836425781</ele>
        <time>2014-03-09T09:16:14Z</time>
      </trkpt>
      <trkpt lat="43.85956" lon="7.27179">
        <ele>1261.3872070312</ele>
        <time>2014-03-09T09:16:17Z</time>
      </trkpt>
      <trkpt lat="43.85956" lon="7.27188">
        <ele>1261.3872070312</ele>
        <time>2014-03-09T09:16:21Z</time>
      </trkpt>
      <trkpt lat="43.85957" lon="7.27204">
        <ele>1259.4643554688</ele>
        <time>2014-03-09T09:16:27Z</time>
      </trkpt>
      <trkpt lat="43.85956" lon="7.27212">
        <ele>1258.5029296875</ele>
        <time>2014-03-09T09:16:30Z</time>
      </trkpt>
      <trkpt lat="43.85948" lon="7.27218">
        <ele>1256.099609375</ele>
        <time>2014-03-09T09:16:35Z</time>
      </trkpt>
      <trkpt lat="43.85923" lon="7.2722">
        <ele>1256.5803222656</ele>
        <time>2014-03-09T09:16:42Z</time>
      </trkpt>
      <trkpt lat="43.8591" lon="7.27214">
        <ele>1256.099609375</ele>
        <time>2014-03-09T09:16:47Z</time>
      </trkpt>
      <trkpt lat="43.859" lon="7.27208">
        <ele>1254.6577148438</ele>
        <time>2014-03-09T09:16:51Z</time>
      </trkpt>
      <trkpt lat="43.8589" lon="7.27208">
        <ele>1253.6965332031</ele>
        <time>2014-03-09T09:16:55Z</time>
      </trkpt>
      <trkpt lat="43.85882" lon="7.27209">
        <ele>1255.1384277344</ele>
        <time>2014-03-09T09:17:03Z</time>
      </trkpt>
      <trkpt lat="43.85869" lon="7.27211">
        <ele>1255.1384277344</ele>
        <time>2014-03-09T09:17:08Z</time>
      </trkpt>
      <trkpt lat="43.85848" lon="7.27209">
        <ele>1252.7351074219</ele>
        <time>2014-03-09T09:17:14Z</time>
      </trkpt>
      <trkpt lat="43.85826" lon="7.27209">
        <ele>1251.7739257812</ele>
        <time>2014-03-09T09:17:20Z</time>
      </trkpt>
      <trkpt lat="43.85805" lon="7.27211">
        <ele>1251.2932128906</ele>
        <time>2014-03-09T09:17:25Z</time>
      </trkpt>
      <trkpt lat="43.85794" lon="7.27214">
        <ele>1249.3706054688</ele>
        <time>2014-03-09T09:17:30Z</time>
      </trkpt>
      <trkpt lat="43.85785" lon="7.27215">
        <ele>1247.4479980469</ele>
        <time>2014-03-09T09:17:35Z</time>
      </trkpt>
      <trkpt lat="43.85764" lon="7.27213">
        <ele>1243.6025390625</ele>
        <time>2014-03-09T09:17:41Z</time>
      </trkpt>
      <trkpt lat="43.85741" lon="7.27212">
        <ele>1242.6413574219</ele>
        <time>2014-03-09T09:17:46Z</time>
      </trkpt>
      <trkpt lat="43.85731" lon="7.27208">
        <ele>1242.6413574219</ele>
        <time>2014-03-09T09:17:48Z</time>
      </trkpt>
      <trkpt lat="43.85713" lon="7.27199">
        <ele>1241.6799316406</ele>
        <time>2014-03-09T09:17:52Z</time>
      </trkpt>
      <trkpt lat="43.85693" lon="7.27195">
        <ele>1240.7185058594</ele>
        <time>2014-03-09T09:17:56Z</time>
      </trkpt>
      <trkpt lat="43.85684" lon="7.27208">
        <ele>1240.2380371094</ele>
        <time>2014-03-09T09:18:00Z</time>
      </trkpt>
      <trkpt lat="43.85674" lon="7.27217">
        <ele>1239.7573242188</ele>
        <time>2014-03-09T09:18:03Z</time>
      </trkpt>
      <trkpt lat="43.85649" lon="7.27228">
        <ele>1237.3540039062</ele>
        <time>2014-03-09T09:18:09Z</time>
      </trkpt>
      <trkpt lat="43.85641" lon="7.27232">
        <ele>1236.8732910156</ele>
        <time>2014-03-09T09:18:11Z</time>
      </trkpt>
      <trkpt lat="43.8563" lon="7.27234">
        <ele>1235.4313964844</ele>
        <time>2014-03-09T09:18:14Z</time>
      </trkpt>
      <trkpt lat="43.85617" lon="7.27236">
        <ele>1235.912109375</ele>
        <time>2014-03-09T09:18:20Z</time>
      </trkpt>
      <trkpt lat="43.8561" lon="7.27235">
        <ele>1236.8732910156</ele>
        <time>2014-03-09T09:18:23Z</time>
      </trkpt>
      <trkpt lat="43.85596" lon="7.27229">
        <ele>1238.7961425781</ele>
        <time>2014-03-09T09:18:30Z</time>
      </trkpt>
      <trkpt lat="43.85592" lon="7.27228">
        <ele>1239.7573242188</ele>
        <time>2014-03-09T09:18:32Z</time>
      </trkpt>
      <trkpt lat="43.85578" lon="7.27229">
        <ele>1241.19921875</ele>
        <time>2014-03-09T09:18:38Z</time>
      </trkpt>
      <trkpt lat="43.85568" lon="7.2723">
        <ele>1241.19921875</ele>
        <time>2014-03-09T09:18:42Z</time>
      </trkpt>
      <trkpt lat="43.85555" lon="7.27237">
        <ele>1240.7185058594</ele>
        <time>2014-03-09T09:18:47Z</time>
      </trkpt>
      <trkpt lat="43.8555" lon="7.27239">
        <ele>1240.7185058594</ele>
        <time>2014-03-09T09:18:49Z</time>
      </trkpt>
      <trkpt lat="43.85544" lon="7.2724">
        <ele>1241.19921875</ele>
        <time>2014-03-09T09:18:55Z</time>
      </trkpt>
      <trkpt lat="43.85543" lon="7.2724">
        <ele>1241.6799316406</ele>
        <time>2014-03-09T09:18:56Z</time>
      </trkpt>
      <trkpt lat="43.85534" lon="7.27244">
        <ele>1243.1218261719</ele>
        <time>2014-03-09T09:19:05Z</time>
      </trkpt>
      <trkpt lat="43.85527" lon="7.27246">
        <ele>1242.6413574219</ele>
        <time>2014-03-09T09:19:11Z</time>
      </trkpt>
      <trkpt lat="43.85522" lon="7.27246">
        <ele>1242.1606445312</ele>
        <time>2014-03-09T09:19:15Z</time>
      </trkpt>
      <trkpt lat="43.85513" lon="7.27249">
        <ele>1241.6799316406</ele>
        <time>2014-03-09T09:19:19Z</time>
      </trkpt>
      <trkpt lat="43.85506" lon="7.27251">
        <ele>1241.6799316406</ele>
        <time>2014-03-09T09:19:22Z</time>
      </trkpt>
      <trkpt lat="43.85498" lon="7.27255">
        <ele>1240.7185058594</ele>
        <time>2014-03-09T09:19:26Z</time>
      </trkpt>
      <trkpt lat="43.85484" lon="7.27255">
        <ele>1238.7961425781</ele>
        <time>2014-03-09T09:19:31Z</time>
      </trkpt>
      <trkpt lat="43.85477" lon="7.27249">
        <ele>1236.8732910156</ele>
        <time>2014-03-09T09:19:34Z</time>
      </trkpt>
      <trkpt lat="43.85461" lon="7.27248">
        <ele>1233.5087890625</ele>
        <time>2014-03-09T09:19:39Z</time>
      </trkpt>
      <trkpt lat="43.8545" lon="7.27249">
        <ele>1230.1442871094</ele>
        <time>2014-03-09T09:19:44Z</time>
      </trkpt>
      <trkpt lat="43.85441" lon="7.27256">
        <ele>1226.298828125</ele>
        <time>2014-03-09T09:19:49Z</time>
      </trkpt>
      <trkpt lat="43.8543" lon="7.27256">
        <ele>1223.4150390625</ele>
        <time>2014-03-09T09:19:53Z</time>
      </trkpt>
      <trkpt lat="43.85426" lon="7.27257">
        <ele>1222.4536132812</ele>
        <time>2014-03-09T09:19:54Z</time>
      </trkpt>
      <trkpt lat="43.85415" lon="7.27259">
        <ele>1221.01171875</ele>
        <time>2014-03-09T09:19:58Z</time>
      </trkpt>
      <trkpt lat="43.8541" lon="7.27262">
        <ele>1219.5698242188</ele>
        <time>2014-03-09T09:20:02Z</time>
      </trkpt>
      <trkpt lat="43.85396" lon="7.27261">
        <ele>1216.205078125</ele>
        <time>2014-03-09T09:20:09Z</time>
      </trkpt>
      <trkpt lat="43.85391" lon="7.27263">
        <ele>1215.2438964844</ele>
        <time>2014-03-09T09:20:11Z</time>
      </trkpt>
      <trkpt lat="43.85382" lon="7.27264">
        <ele>1213.8017578125</ele>
        <time>2014-03-09T09:20:15Z</time>
      </trkpt>
      <trkpt lat="43.85374" lon="7.27268">
        <ele>1213.3212890625</ele>
        <time>2014-03-09T09:20:18Z</time>
      </trkpt>
      <trkpt lat="43.85368" lon="7.27271">
        <ele>1213.3212890625</ele>
        <time>2014-03-09T09:20:20Z</time>
      </trkpt>
      <trkpt lat="43.85363" lon="7.27272">
        <ele>1212.8405761719</ele>
        <time>2014-03-09T09:20:22Z</time>
      </trkpt>
      <trkpt lat="43.85355" lon="7.27278">
        <ele>1212.8405761719</ele>
        <time>2014-03-09T09:20:25Z</time>
      </trkpt>
      <trkpt lat="43.85345" lon="7.27291">
        <ele>1211.8791503906</ele>
        <time>2014-03-09T09:20:30Z</time>
      </trkpt>
      <trkpt lat="43.85334" lon="7.27296">
        <ele>1209.9562988281</ele>
        <time>2014-03-09T09:20:34Z</time>
      </trkpt>
      <trkpt lat="43.85314" lon="7.27295">
        <ele>1208.0339355469</ele>
        <time>2014-03-09T09:20:39Z</time>
      </trkpt>
      <trkpt lat="43.853" lon="7.27299">
        <ele>1205.6306152344</ele>
        <time>2014-03-09T09:20:44Z</time>
      </trkpt>
      <trkpt lat="43.85286" lon="7.27304">
        <ele>1203.2272949219</ele>
        <time>2014-03-09T09:20:49Z</time>
      </trkpt>
      <trkpt lat="43.85272" lon="7.27308">
        <ele>1200.8239746094</ele>
        <time>2014-03-09T09:20:54Z</time>
      </trkpt>
      <trkpt lat="43.85258" lon="7.27302">
        <ele>1197.4594726562</ele>
        <time>2014-03-09T09:20:59Z</time>
      </trkpt>
      <trkpt lat="43.85252" lon="7.273">
        <ele>1196.017578125</ele>
        <time>2014-03-09T09:21:01Z</time>
      </trkpt>
      <trkpt lat="43.8524" lon="7.273">
        <ele>1193.6140136719</ele>
        <time>2014-03-09T09:21:06Z</time>
      </trkpt>
      <trkpt lat="43.85231" lon="7.27301">
        <ele>1191.2106933594</ele>
        <time>2014-03-09T09:21:10Z</time>
      </trkpt>
      <trkpt lat="43.85228" lon="7.273">
        <ele>1190.2495117188</ele>
        <time>2014-03-09T09:21:11Z</time>
      </trkpt>
      <trkpt lat="43.85213" lon="7.27296">
        <ele>1188.3269042969</ele>
        <time>2014-03-09T09:21:16Z</time>
      </trkpt>
      <trkpt lat="43.85202" lon="7.273">
        <ele>1186.404296875</ele>
        <time>2014-03-09T09:21:20Z</time>
      </trkpt>
      <trkpt lat="43.8519" lon="7.27303">
        <ele>1183.5202636719</ele>
        <time>2014-03-09T09:21:24Z</time>
      </trkpt>
      <trkpt lat="43.85174" lon="7.27299">
        <ele>1180.6364746094</ele>
        <time>2014-03-09T09:21:28Z</time>
      </trkpt>
      <trkpt lat="43.85154" lon="7.27302">
        <ele>1176.3103027344</ele>
        <time>2014-03-09T09:21:32Z</time>
      </trkpt>
      <trkpt lat="43.85149" lon="7.27304">
        <ele>1175.3488769531</ele>
        <time>2014-03-09T09:21:33Z</time>
      </trkpt>
      <trkpt lat="43.85131" lon="7.27309">
        <ele>1173.9069824219</ele>
        <time>2014-03-09T09:21:38Z</time>
      </trkpt>
      <trkpt lat="43.85113" lon="7.27301">
        <ele>1171.5036621094</ele>
        <time>2014-03-09T09:21:44Z</time>
      </trkpt>
      <trkpt lat="43.85099" lon="7.27302">
        <ele>1168.6198730469</ele>
        <time>2014-03-09T09:21:48Z</time>
      </trkpt>
      <trkpt lat="43.85084" lon="7.27301">
        <ele>1165.7360839844</ele>
        <time>2014-03-09T09:21:52Z</time>
      </trkpt>
      <trkpt lat="43.85068" lon="7.27299">
        <ele>1162.8518066406</ele>
        <time>2014-03-09T09:21:56Z</time>
      </trkpt>
      <trkpt lat="43.85051" lon="7.27289">
        <ele>1159.9677734375</ele>
        <time>2014-03-09T09:22:01Z</time>
      </trkpt>
      <trkpt lat="43.85043" lon="7.27287">
        <ele>1159.4873046875</ele>
        <time>2014-03-09T09:22:03Z</time>
      </trkpt>
      <trkpt lat="43.85027" lon="7.27292">
        <ele>1158.5258789062</ele>
        <time>2014-03-09T09:22:08Z</time>
      </trkpt>
      <trkpt lat="43.85018" lon="7.27295">
        <ele>1158.0454101562</ele>
        <time>2014-03-09T09:22:11Z</time>
      </trkpt>
      <trkpt lat="43.85013" lon="7.27296">
        <ele>1157.5646972656</ele>
        <time>2014-03-09T09:22:13Z</time>
      </trkpt>
      <trkpt lat="43.85007" lon="7.27296">
        <ele>1156.6032714844</ele>
        <time>2014-03-09T09:22:15Z</time>
      </trkpt>
      <trkpt lat="43.84992" lon="7.27303">
        <ele>1155.6420898438</ele>
        <time>2014-03-09T09:22:21Z</time>
      </trkpt>
      <trkpt lat="43.8499" lon="7.27304">
        <ele>1155.1613769531</ele>
        <time>2014-03-09T09:22:22Z</time>
      </trkpt>
      <trkpt lat="43.84977" lon="7.27302">
        <ele>1153.7194824219</ele>
        <time>2014-03-09T09:22:26Z</time>
      </trkpt>
      <trkpt lat="43.84963" lon="7.27299">
        <ele>1151.796875</ele>
        <time>2014-03-09T09:22:31Z</time>
      </trkpt>
      <trkpt lat="43.8495" lon="7.273">
        <ele>1150.8354492188</ele>
        <time>2014-03-09T09:22:36Z</time>
      </trkpt>
      <trkpt lat="43.8494" lon="7.27296">
        <ele>1148.9128417969</ele>
        <time>2014-03-09T09:22:41Z</time>
      </trkpt>
      <trkpt lat="43.84925" lon="7.27292">
        <ele>1146.0288085938</ele>
        <time>2014-03-09T09:22:47Z</time>
      </trkpt>
      <trkpt lat="43.84918" lon="7.2729">
        <ele>1144.5866699219</ele>
        <time>2014-03-09T09:22:50Z</time>
      </trkpt>
      <trkpt lat="43.84906" lon="7.27292">
        <ele>1142.6643066406</ele>
        <time>2014-03-09T09:22:55Z</time>
      </trkpt>
      <trkpt lat="43.84904" lon="7.27292">
        <ele>1141.7028808594</ele>
        <time>2014-03-09T09:22:56Z</time>
      </trkpt>
      <trkpt lat="43.8489" lon="7.27289">
        <ele>1139.7802734375</ele>
        <time>2014-03-09T09:23:01Z</time>
      </trkpt>
      <trkpt lat="43.84879" lon="7.27282">
        <ele>1136.8962402344</ele>
        <time>2014-03-09T09:23:06Z</time>
      </trkpt>
      <trkpt lat="43.84864" lon="7.2728">
        <ele>1133.0510253906</ele>
        <time>2014-03-09T09:23:11Z</time>
      </trkpt>
      <trkpt lat="43.8485" lon="7.27277">
        <ele>1130.6477050781</ele>
        <time>2014-03-09T09:23:15Z</time>
      </trkpt>
      <trkpt lat="43.84826" lon="7.2728">
        <ele>1126.3217773438</ele>
        <time>2014-03-09T09:23:21Z</time>
      </trkpt>
      <trkpt lat="43.84813" lon="7.27283">
        <ele>1124.3991699219</ele>
        <time>2014-03-09T09:23:25Z</time>
      </trkpt>
      <trkpt lat="43.84803" lon="7.27287">
        <ele>1122.9572753906</ele>
        <time>2014-03-09T09:23:28Z</time>
      </trkpt>
      <trkpt lat="43.84789" lon="7.27286">
        <ele>1120.0732421875</ele>
        <time>2014-03-09T09:23:33Z</time>
      </trkpt>
      <trkpt lat="43.84779" lon="7.27285">
        <ele>1117.669921875</ele>
        <time>2014-03-09T09:23:37Z</time>
      </trkpt>
      <trkpt lat="43.84771" lon="7.27281">
        <ele>1115.7473144531</ele>
        <time>2014-03-09T09:23:41Z</time>
      </trkpt>
      <trkpt lat="43.84756" lon="7.27282">
        <ele>1112.86328125</ele>
        <time>2014-03-09T09:23:48Z</time>
      </trkpt>
      <trkpt lat="43.84746" lon="7.27281">
        <ele>1111.9020996094</ele>
        <time>2014-03-09T09:23:52Z</time>
      </trkpt>
      <trkpt lat="43.84742" lon="7.27283">
        <ele>1110.9406738281</ele>
        <time>2014-03-09T09:23:54Z</time>
      </trkpt>
      <trkpt lat="43.84728" lon="7.27275">
        <ele>1109.0180664062</ele>
        <time>2014-03-09T09:23:59Z</time>
      </trkpt>
      <trkpt lat="43.84715" lon="7.27272">
        <ele>1107.0954589844</ele>
        <time>2014-03-09T09:24:03Z</time>
      </trkpt>
      <trkpt lat="43.847" lon="7.27266">
        <ele>1103.7309570312</ele>
        <time>2014-03-09T09:24:08Z</time>
      </trkpt>
      <trkpt lat="43.84694" lon="7.27264">
        <ele>1102.2888183594</ele>
        <time>2014-03-09T09:24:10Z</time>
      </trkpt>
      <trkpt lat="43.84687" lon="7.27253">
        <ele>1098.443359375</ele>
        <time>2014-03-09T09:24:15Z</time>
      </trkpt>
      <trkpt lat="43.84686" lon="7.27254">
        <ele>1097.962890625</ele>
        <time>2014-03-09T09:24:16Z</time>
      </trkpt>
      <trkpt lat="43.84682" lon="7.27261">
        <ele>1095.5595703125</ele>
        <time>2014-03-09T09:24:22Z</time>
      </trkpt>
      <trkpt lat="43.84682" lon="7.27264">
        <ele>1094.5981445312</ele>
        <time>2014-03-09T09:24:29Z</time>
      </trkpt>
      <trkpt lat="43.84681" lon="7.27269">
        <ele>1094.1176757812</ele>
        <time>2014-03-09T09:24:33Z</time>
      </trkpt>
      <trkpt lat="43.84679" lon="7.2727">
        <ele>1093.6369628906</ele>
        <time>2014-03-09T09:24:34Z</time>
      </trkpt>
      <trkpt lat="43.84669" lon="7.27264">
        <ele>1091.2336425781</ele>
        <time>2014-03-09T09:24:39Z</time>
      </trkpt>
      <trkpt lat="43.84658" lon="7.27262">
        <ele>1090.2724609375</ele>
        <time>2014-03-09T09:24:43Z</time>
      </trkpt>
      <trkpt lat="43.84655" lon="7.27264">
        <ele>1090.2724609375</ele>
        <time>2014-03-09T09:24:44Z</time>
      </trkpt>
      <trkpt lat="43.84648" lon="7.27283">
        <ele>1087.3884277344</ele>
        <time>2014-03-09T09:24:51Z</time>
      </trkpt>
      <trkpt lat="43.84638" lon="7.27281">
        <ele>1086.4272460938</ele>
        <time>2014-03-09T09:24:54Z</time>
      </trkpt>
      <trkpt lat="43.84631" lon="7.27278">
        <ele>1085.9465332031</ele>
        <time>2014-03-09T09:24:56Z</time>
      </trkpt>
      <trkpt lat="43.84615" lon="7.27277">
        <ele>1084.5046386719</ele>
        <time>2014-03-09T09:25:01Z</time>
      </trkpt>
      <trkpt lat="43.84598" lon="7.27278">
        <ele>1080.6591796875</ele>
        <time>2014-03-09T09:25:06Z</time>
      </trkpt>
      <trkpt lat="43.84594" lon="7.27277">
        <ele>1079.6977539062</ele>
        <time>2014-03-09T09:25:07Z</time>
      </trkpt>
      <trkpt lat="43.84578" lon="7.27282">
        <ele>1079.2170410156</ele>
        <time>2014-03-09T09:25:11Z</time>
      </trkpt>
      <trkpt lat="43.8457" lon="7.27274">
        <ele>1077.7751464844</ele>
        <time>2014-03-09T09:25:15Z</time>
      </trkpt>
      <trkpt lat="43.84568" lon="7.27272">
        <ele>1077.2946777344</ele>
        <time>2014-03-09T09:25:16Z</time>
      </trkpt>
      <trkpt lat="43.8456" lon="7.27253">
        <ele>1075.3718261719</ele>
        <time>2014-03-09T09:25:22Z</time>
      </trkpt>
      <trkpt lat="43.84561" lon="7.27239">
        <ele>1074.4106445312</ele>
        <time>2014-03-09T09:25:25Z</time>
      </trkpt>
      <trkpt lat="43.84555" lon="7.27225">
        <ele>1072.0073242188</ele>
        <time>2014-03-09T09:25:29Z</time>
      </trkpt>
      <trkpt lat="43.8454" lon="7.27219">
        <ele>1071.0461425781</ele>
        <time>2014-03-09T09:25:33Z</time>
      </trkpt>
      <trkpt lat="43.84537" lon="7.27216">
        <ele>1071.0461425781</ele>
        <time>2014-03-09T09:25:34Z</time>
      </trkpt>
      <trkpt lat="43.84525" lon="7.272">
        <ele>1070.5654296875</ele>
        <time>2014-03-09T09:25:38Z</time>
      </trkpt>
      <trkpt lat="43.84516" lon="7.27206">
        <ele>1071.5266113281</ele>
        <time>2014-03-09T09:25:42Z</time>
      </trkpt>
      <trkpt lat="43.84513" lon="7.27213">
        <ele>1072.4880371094</ele>
        <time>2014-03-09T09:25:46Z</time>
      </trkpt>
      <trkpt lat="43.84511" lon="7.27217">
        <ele>1073.4494628906</ele>
        <time>2014-03-09T09:25:48Z</time>
      </trkpt>
      <trkpt lat="43.84499" lon="7.27221">
        <ele>1073.9299316406</ele>
        <time>2014-03-09T09:25:53Z</time>
      </trkpt>
      <trkpt lat="43.84476" lon="7.27229">
        <ele>1072.96875</ele>
        <time>2014-03-09T09:25:59Z</time>
      </trkpt>
      <trkpt lat="43.8446" lon="7.27229">
        <ele>1071.5266113281</ele>
        <time>2014-03-09T09:26:03Z</time>
      </trkpt>
      <trkpt lat="43.84455" lon="7.27229">
        <ele>1071.0461425781</ele>
        <time>2014-03-09T09:26:04Z</time>
      </trkpt>
      <trkpt lat="43.84431" lon="7.27227">
        <ele>1069.1235351562</ele>
        <time>2014-03-09T09:26:09Z</time>
      </trkpt>
      <trkpt lat="43.84409" lon="7.27233">
        <ele>1065.2780761719</ele>
        <time>2014-03-09T09:26:13Z</time>
      </trkpt>
      <trkpt lat="43.84394" lon="7.27229">
        <ele>1063.8359375</ele>
        <time>2014-03-09T09:26:15Z</time>
      </trkpt>
      <trkpt lat="43.84386" lon="7.27228">
        <ele>1059.9907226562</ele>
        <time>2014-03-09T09:26:18Z</time>
      </trkpt>
      <trkpt lat="43.84369" lon="7.27236">
        <ele>1056.6262207031</ele>
        <time>2014-03-09T09:26:23Z</time>
      </trkpt>
      <trkpt lat="43.8436" lon="7.27241">
        <ele>1052.7810058594</ele>
        <time>2014-03-09T09:26:27Z</time>
      </trkpt>
      <trkpt lat="43.84352" lon="7.27248">
        <ele>1051.3388671875</ele>
        <time>2014-03-09T09:26:31Z</time>
      </trkpt>
      <trkpt lat="43.84334" lon="7.27272">
        <ele>1046.0517578125</ele>
        <time>2014-03-09T09:26:38Z</time>
      </trkpt>
      <trkpt lat="43.84321" lon="7.27285">
        <ele>1045.0903320312</ele>
        <time>2014-03-09T09:26:42Z</time>
      </trkpt>
      <trkpt lat="43.84314" lon="7.2729">
        <ele>1045.0903320312</ele>
        <time>2014-03-09T09:26:44Z</time>
      </trkpt>
      <trkpt lat="43.84298" lon="7.27301">
        <ele>1041.7258300781</ele>
        <time>2014-03-09T09:26:49Z</time>
      </trkpt>
      <trkpt lat="43.84287" lon="7.27313">
        <ele>1039.8032226562</ele>
        <time>2014-03-09T09:26:53Z</time>
      </trkpt>
      <trkpt lat="43.8428" lon="7.27318">
        <ele>1035.4770507812</ele>
        <time>2014-03-09T09:26:57Z</time>
      </trkpt>
      <trkpt lat="43.84275" lon="7.27322">
        <ele>1033.5544433594</ele>
        <time>2014-03-09T09:27:00Z</time>
      </trkpt>
      <trkpt lat="43.84267" lon="7.27325">
        <ele>1028.748046875</ele>
        <time>2014-03-09T09:27:04Z</time>
      </trkpt>
      <trkpt lat="43.84263" lon="7.27337">
        <ele>1024.9028320312</ele>
        <time>2014-03-09T09:27:08Z</time>
      </trkpt>
      <trkpt lat="43.84261" lon="7.27346">
        <ele>1022.0187988281</ele>
        <time>2014-03-09T09:27:11Z</time>
      </trkpt>
      <trkpt lat="43.84247" lon="7.27352">
        <ele>1019.134765625</ele>
        <time>2014-03-09T09:27:15Z</time>
      </trkpt>
      <trkpt lat="43.84243" lon="7.27359">
        <ele>1017.6926269531</ele>
        <time>2014-03-09T09:27:18Z</time>
      </trkpt>
      <trkpt lat="43.84238" lon="7.27363">
        <ele>1015.2895507812</ele>
        <time>2014-03-09T09:27:21Z</time>
      </trkpt>
      <trkpt lat="43.84234" lon="7.27359">
        <ele>1013.3669433594</ele>
        <time>2014-03-09T09:27:23Z</time>
      </trkpt>
      <trkpt lat="43.8423" lon="7.27354">
        <ele>1009.5217285156</ele>
        <time>2014-03-09T09:27:27Z</time>
      </trkpt>
      <trkpt lat="43.84228" lon="7.2736">
        <ele>1006.1569824219</ele>
        <time>2014-03-09T09:27:33Z</time>
      </trkpt>
      <trkpt lat="43.84226" lon="7.27359">
        <ele>1005.1958007812</ele>
        <time>2014-03-09T09:27:36Z</time>
      </trkpt>
      <trkpt lat="43.84216" lon="7.27353">
        <ele>1001.3503417969</ele>
        <time>2014-03-09T09:27:41Z</time>
      </trkpt>
      <trkpt lat="43.842" lon="7.27351">
        <ele>998.46630859375</ele>
        <time>2014-03-09T09:27:45Z</time>
      </trkpt>
      <trkpt lat="43.8418" lon="7.27341">
        <ele>993.65991210938</ele>
        <time>2014-03-09T09:27:49Z</time>
      </trkpt>
      <trkpt lat="43.84169" lon="7.27334">
        <ele>990.29541015625</ele>
        <time>2014-03-09T09:27:53Z</time>
      </trkpt>
      <trkpt lat="43.84166" lon="7.27334">
        <ele>989.333984375</ele>
        <time>2014-03-09T09:27:54Z</time>
      </trkpt>
      <trkpt lat="43.84151" lon="7.27331">
        <ele>986.44995117188</ele>
        <time>2014-03-09T09:27:58Z</time>
      </trkpt>
      <trkpt lat="43.84138" lon="7.2734">
        <ele>983.08520507812</ele>
        <time>2014-03-09T09:28:02Z</time>
      </trkpt>
      <trkpt lat="43.84132" lon="7.27329">
        <ele>979.720703125</ele>
        <time>2014-03-09T09:28:05Z</time>
      </trkpt>
      <trkpt lat="43.84127" lon="7.27323">
        <ele>977.79809570312</ele>
        <time>2014-03-09T09:28:07Z</time>
      </trkpt>
      <trkpt lat="43.84108" lon="7.27324">
        <ele>972.99169921875</ele>
        <time>2014-03-09T09:28:11Z</time>
      </trkpt>
      <trkpt lat="43.84084" lon="7.2732">
        <ele>970.58813476562</ele>
        <time>2014-03-09T09:28:15Z</time>
      </trkpt>
      <trkpt lat="43.84064" lon="7.27322">
        <ele>967.7041015625</ele>
        <time>2014-03-09T09:28:19Z</time>
      </trkpt>
      <trkpt lat="43.84047" lon="7.27326">
        <ele>964.33959960938</ele>
        <time>2014-03-09T09:28:23Z</time>
      </trkpt>
      <trkpt lat="43.84034" lon="7.27332">
        <ele>961.9365234375</ele>
        <time>2014-03-09T09:28:26Z</time>
      </trkpt>
      <trkpt lat="43.84019" lon="7.27339">
        <ele>960.013671875</ele>
        <time>2014-03-09T09:28:30Z</time>
      </trkpt>
      <trkpt lat="43.84003" lon="7.27343">
        <ele>956.64916992188</ele>
        <time>2014-03-09T09:28:35Z</time>
      </trkpt>
      <trkpt lat="43.83983" lon="7.27342">
        <ele>953.76513671875</ele>
        <time>2014-03-09T09:28:40Z</time>
      </trkpt>
      <trkpt lat="43.83969" lon="7.2735">
        <ele>952.32299804688</ele>
        <time>2014-03-09T09:28:44Z</time>
      </trkpt>
      <trkpt lat="43.83961" lon="7.27354">
        <ele>951.36181640625</ele>
        <time>2014-03-09T09:28:47Z</time>
      </trkpt>
      <trkpt lat="43.83958" lon="7.2735">
        <ele>949.43920898438</ele>
        <time>2014-03-09T09:28:50Z</time>
      </trkpt>
      <trkpt lat="43.83948" lon="7.27349">
        <ele>947.03588867188</ele>
        <time>2014-03-09T09:28:54Z</time>
      </trkpt>
      <trkpt lat="43.83942" lon="7.27352">
        <ele>945.11328125</ele>
        <time>2014-03-09T09:28:57Z</time>
      </trkpt>
      <trkpt lat="43.83928" lon="7.27354">
        <ele>939.82592773438</ele>
        <time>2014-03-09T09:29:03Z</time>
      </trkpt>
      <trkpt lat="43.83926" lon="7.27359">
        <ele>938.86474609375</ele>
        <time>2014-03-09T09:29:04Z</time>
      </trkpt>
      <trkpt lat="43.83923" lon="7.27366">
        <ele>937.9033203125</ele>
        <time>2014-03-09T09:29:06Z</time>
      </trkpt>
      <trkpt lat="43.83917" lon="7.27369">
        <ele>935.01953125</ele>
        <time>2014-03-09T09:29:10Z</time>
      </trkpt>
      <trkpt lat="43.8391" lon="7.27373">
        <ele>932.6162109375</ele>
        <time>2014-03-09T09:29:14Z</time>
      </trkpt>
      <trkpt lat="43.83902" lon="7.27374">
        <ele>931.65478515625</ele>
        <time>2014-03-09T09:29:17Z</time>
      </trkpt>
      <trkpt lat="43.83894" lon="7.27376">
        <ele>929.25146484375</ele>
        <time>2014-03-09T09:29:21Z</time>
      </trkpt>
      <trkpt lat="43.83885" lon="7.27383">
        <ele>925.40625</ele>
        <time>2014-03-09T09:29:26Z</time>
      </trkpt>
      <trkpt lat="43.83879" lon="7.27378">
        <ele>923.96411132812</ele>
        <time>2014-03-09T09:29:29Z</time>
      </trkpt>
      <trkpt lat="43.8387" lon="7.27378">
        <ele>922.04150390625</ele>
        <time>2014-03-09T09:29:32Z</time>
      </trkpt>
      <trkpt lat="43.83851" lon="7.2736">
        <ele>917.23510742188</ele>
        <time>2014-03-09T09:29:37Z</time>
      </trkpt>
      <trkpt lat="43.83847" lon="7.27354">
        <ele>916.27368164062</ele>
        <time>2014-03-09T09:29:38Z</time>
      </trkpt>
      <trkpt lat="43.83842" lon="7.27325">
        <ele>912.42846679688</ele>
        <time>2014-03-09T09:29:43Z</time>
      </trkpt>
      <trkpt lat="43.83842" lon="7.2732">
        <ele>911.46728515625</ele>
        <time>2014-03-09T09:29:44Z</time>
      </trkpt>
      <trkpt lat="43.83843" lon="7.27296">
        <ele>908.10278320312</ele>
        <time>2014-03-09T09:29:48Z</time>
      </trkpt>
      <trkpt lat="43.83844" lon="7.27285">
        <ele>907.14111328125</ele>
        <time>2014-03-09T09:29:50Z</time>
      </trkpt>
      <trkpt lat="43.83844" lon="7.27268">
        <ele>905.21850585938</ele>
        <time>2014-03-09T09:29:53Z</time>
      </trkpt>
      <trkpt lat="43.83847" lon="7.27254">
        <ele>900.892578125</ele>
        <time>2014-03-09T09:29:57Z</time>
      </trkpt>
      <trkpt lat="43.83845" lon="7.27238">
        <ele>896.08618164062</ele>
        <time>2014-03-09T09:30:01Z</time>
      </trkpt>
      <trkpt lat="43.83843" lon="7.27226">
        <ele>891.76000976562</ele>
        <time>2014-03-09T09:30:05Z</time>
      </trkpt>
      <trkpt lat="43.83849" lon="7.27211">
        <ele>889.35668945312</ele>
        <time>2014-03-09T09:30:09Z</time>
      </trkpt>
      <trkpt lat="43.83862" lon="7.27192">
        <ele>886.47290039062</ele>
        <time>2014-03-09T09:30:13Z</time>
      </trkpt>
      <trkpt lat="43.83875" lon="7.27177">
        <ele>885.03100585938</ele>
        <time>2014-03-09T09:30:16Z</time>
      </trkpt>
      <trkpt lat="43.83882" lon="7.27168">
        <ele>884.06958007812</ele>
        <time>2014-03-09T09:30:18Z</time>
      </trkpt>
      <trkpt lat="43.83894" lon="7.27155">
        <ele>882.14697265625</ele>
        <time>2014-03-09T09:30:21Z</time>
      </trkpt>
      <trkpt lat="43.83904" lon="7.27141">
        <ele>880.705078125</ele>
        <time>2014-03-09T09:30:24Z</time>
      </trkpt>
      <trkpt lat="43.83916" lon="7.27126">
        <ele>877.82104492188</ele>
        <time>2014-03-09T09:30:28Z</time>
      </trkpt>
      <trkpt lat="43.83924" lon="7.27118">
        <ele>875.89819335938</ele>
        <time>2014-03-09T09:30:33Z</time>
      </trkpt>
      <trkpt lat="43.83926" lon="7.27114">
        <ele>875.41748046875</ele>
        <time>2014-03-09T09:30:38Z</time>
      </trkpt>
      <trkpt lat="43.83925" lon="7.27111">
        <ele>872.53369140625</ele>
        <time>2014-03-09T09:30:45Z</time>
      </trkpt>
      <trkpt lat="43.83931" lon="7.27104">
        <ele>872.05297851562</ele>
        <time>2014-03-09T09:30:49Z</time>
      </trkpt>
      <trkpt lat="43.83932" lon="7.27102">
        <ele>872.05297851562</ele>
        <time>2014-03-09T09:30:50Z</time>
      </trkpt>
      <trkpt lat="43.8393" lon="7.27096">
        <ele>871.572265625</ele>
        <time>2014-03-09T09:30:55Z</time>
      </trkpt>
      <trkpt lat="43.8393" lon="7.27096">
        <ele>870.13037109375</ele>
        <time>2014-03-09T09:31:03Z</time>
      </trkpt>
      <trkpt lat="43.83931" lon="7.27097">
        <ele>865.8046875</ele>
        <time>2014-03-09T09:31:31Z</time>
      </trkpt>
      <trkpt lat="43.83934" lon="7.27101">
        <ele>870.13037109375</ele>
        <time>2014-03-09T09:32:28Z</time>
      </trkpt>
      <trkpt lat="43.83934" lon="7.27101">
        <ele>870.13037109375</ele>
        <time>2014-03-09T09:32:29Z</time>
      </trkpt>
      <trkpt lat="43.83933" lon="7.27103">
        <ele>871.572265625</ele>
        <time>2014-03-09T09:33:00Z</time>
      </trkpt>
      <trkpt lat="43.83932" lon="7.27103">
        <ele>871.572265625</ele>
        <time>2014-03-09T09:33:02Z</time>
      </trkpt>
      <trkpt lat="43.83919" lon="7.27106">
        <ele>869.16918945312</ele>
        <time>2014-03-09T09:33:08Z</time>
      </trkpt>
      <trkpt lat="43.83906" lon="7.27112">
        <ele>868.20776367188</ele>
        <time>2014-03-09T09:33:13Z</time>
      </trkpt>
      <trkpt lat="43.83891" lon="7.27119">
        <ele>868.20776367188</ele>
        <time>2014-03-09T09:33:18Z</time>
      </trkpt>
      <trkpt lat="43.8387" lon="7.27127">
        <ele>867.72705078125</ele>
        <time>2014-03-09T09:33:23Z</time>
      </trkpt>
      <trkpt lat="43.83857" lon="7.27135">
        <ele>867.72705078125</ele>
        <time>2014-03-09T09:33:26Z</time>
      </trkpt>
      <trkpt lat="43.83833" lon="7.27131">
        <ele>867.24658203125</ele>
        <time>2014-03-09T09:33:32Z</time>
      </trkpt>
      <trkpt lat="43.83822" lon="7.27122">
        <ele>866.76586914062</ele>
        <time>2014-03-09T09:33:36Z</time>
      </trkpt>
      <trkpt lat="43.83814" lon="7.27107">
        <ele>867.72705078125</ele>
        <time>2014-03-09T09:33:42Z</time>
      </trkpt>
      <trkpt lat="43.83802" lon="7.27099">
        <ele>867.72705078125</ele>
        <time>2014-03-09T09:33:48Z</time>
      </trkpt>
      <trkpt lat="43.83788" lon="7.27094">
        <ele>869.16918945312</ele>
        <time>2014-03-09T09:33:54Z</time>
      </trkpt>
      <trkpt lat="43.83776" lon="7.2709">
        <ele>870.13037109375</ele>
        <time>2014-03-09T09:33:59Z</time>
      </trkpt>
      <trkpt lat="43.83765" lon="7.2709">
        <ele>872.05297851562</ele>
        <time>2014-03-09T09:34:05Z</time>
      </trkpt>
      <trkpt lat="43.8376" lon="7.27089">
        <ele>872.05297851562</ele>
        <time>2014-03-09T09:34:08Z</time>
      </trkpt>
      <trkpt lat="43.83753" lon="7.27092">
        <ele>874.45629882812</ele>
        <time>2014-03-09T09:34:13Z</time>
      </trkpt>
      <trkpt lat="43.83751" lon="7.27092">
        <ele>874.93701171875</ele>
        <time>2014-03-09T09:34:14Z</time>
      </trkpt>
      <trkpt lat="43.8374" lon="7.27092">
        <ele>877.82104492188</ele>
        <time>2014-03-09T09:34:21Z</time>
      </trkpt>
      <trkpt lat="43.83732" lon="7.27096">
        <ele>879.74365234375</ele>
        <time>2014-03-09T09:34:26Z</time>
      </trkpt>
      <trkpt lat="43.83724" lon="7.27095">
        <ele>879.74365234375</ele>
        <time>2014-03-09T09:34:31Z</time>
      </trkpt>
      <trkpt lat="43.83718" lon="7.27097">
        <ele>879.74365234375</ele>
        <time>2014-03-09T09:34:35Z</time>
      </trkpt>
      <trkpt lat="43.83709" lon="7.27106">
        <ele>881.18579101562</ele>
        <time>2014-03-09T09:34:42Z</time>
      </trkpt>
      <trkpt lat="43.83706" lon="7.27108">
        <ele>881.66625976562</ele>
        <time>2014-03-09T09:34:45Z</time>
      </trkpt>
      <trkpt lat="43.83696" lon="7.2711">
        <ele>883.10815429688</ele>
        <time>2014-03-09T09:34:54Z</time>
      </trkpt>
      <trkpt lat="43.83693" lon="7.27111">
        <ele>883.10815429688</ele>
        <time>2014-03-09T09:34:59Z</time>
      </trkpt>
      <trkpt lat="43.83684" lon="7.27113">
        <ele>884.55029296875</ele>
        <time>2014-03-09T09:35:05Z</time>
      </trkpt>
      <trkpt lat="43.83673" lon="7.27114">
        <ele>885.03100585938</ele>
        <time>2014-03-09T09:35:11Z</time>
      </trkpt>
      <trkpt lat="43.83664" lon="7.27119">
        <ele>885.9921875</ele>
        <time>2014-03-09T09:35:18Z</time>
      </trkpt>
      <trkpt lat="43.83661" lon="7.27121">
        <ele>886.95336914062</ele>
        <time>2014-03-09T09:35:23Z</time>
      </trkpt>
      <trkpt lat="43.83651" lon="7.27124">
        <ele>887.43408203125</ele>
        <time>2014-03-09T09:35:29Z</time>
      </trkpt>
      <trkpt lat="43.83644" lon="7.27131">
        <ele>888.87622070312</ele>
        <time>2014-03-09T09:35:34Z</time>
      </trkpt>
      <trkpt lat="43.83641" lon="7.27135">
        <ele>888.87622070312</ele>
        <time>2014-03-09T09:35:36Z</time>
      </trkpt>
      <trkpt lat="43.83633" lon="7.27144">
        <ele>889.35668945312</ele>
        <time>2014-03-09T09:35:42Z</time>
      </trkpt>
      <trkpt lat="43.83617" lon="7.2715">
        <ele>890.31811523438</ele>
        <time>2014-03-09T09:35:48Z</time>
      </trkpt>
      <trkpt lat="43.83608" lon="7.27158">
        <ele>890.79858398438</ele>
        <time>2014-03-09T09:35:53Z</time>
      </trkpt>
      <trkpt lat="43.83592" lon="7.27161">
        <ele>890.31811523438</ele>
        <time>2014-03-09T09:35:59Z</time>
      </trkpt>
      <trkpt lat="43.83579" lon="7.27161">
        <ele>891.279296875</ele>
        <time>2014-03-09T09:36:05Z</time>
      </trkpt>
      <trkpt lat="43.83562" lon="7.27162">
        <ele>891.279296875</ele>
        <time>2014-03-09T09:36:11Z</time>
      </trkpt>
      <trkpt lat="43.83544" lon="7.27164">
        <ele>890.31811523438</ele>
        <time>2014-03-09T09:36:17Z</time>
      </trkpt>
      <trkpt lat="43.83533" lon="7.27164">
        <ele>891.76000976562</ele>
        <time>2014-03-09T09:36:21Z</time>
      </trkpt>
      <trkpt lat="43.83524" lon="7.27163">
        <ele>891.279296875</ele>
        <time>2014-03-09T09:36:25Z</time>
      </trkpt>
      <trkpt lat="43.83513" lon="7.27169">
        <ele>891.279296875</ele>
        <time>2014-03-09T09:36:31Z</time>
      </trkpt>
      <trkpt lat="43.83503" lon="7.27172">
        <ele>893.2021484375</ele>
        <time>2014-03-09T09:36:37Z</time>
      </trkpt>
      <trkpt lat="43.83499" lon="7.27175">
        <ele>893.2021484375</ele>
        <time>2014-03-09T09:36:39Z</time>
      </trkpt>
      <trkpt lat="43.83487" lon="7.27178">
        <ele>895.12475585938</ele>
        <time>2014-03-09T09:36:45Z</time>
      </trkpt>
      <trkpt lat="43.8347" lon="7.27186">
        <ele>896.08618164062</ele>
        <time>2014-03-09T09:36:54Z</time>
      </trkpt>
      <trkpt lat="43.83469" lon="7.27186">
        <ele>895.60546875</ele>
        <time>2014-03-09T09:36:55Z</time>
      </trkpt>
      <trkpt lat="43.83466" lon="7.2719">
        <ele>895.60546875</ele>
        <time>2014-03-09T09:36:59Z</time>
      </trkpt>
      <trkpt lat="43.83457" lon="7.27194">
        <ele>896.56689453125</ele>
        <time>2014-03-09T09:37:04Z</time>
      </trkpt>
      <trkpt lat="43.83455" lon="7.27195">
        <ele>896.56689453125</ele>
        <time>2014-03-09T09:37:05Z</time>
      </trkpt>
      <trkpt lat="43.83445" lon="7.27203">
        <ele>897.04736328125</ele>
        <time>2014-03-09T09:37:11Z</time>
      </trkpt>
      <trkpt lat="43.83438" lon="7.27206">
        <ele>898.96997070312</ele>
        <time>2014-03-09T09:37:14Z</time>
      </trkpt>
      <trkpt lat="43.83435" lon="7.27209">
        <ele>899.45068359375</ele>
        <time>2014-03-09T09:37:16Z</time>
      </trkpt>
      <trkpt lat="43.8343" lon="7.27217">
        <ele>899.45068359375</ele>
        <time>2014-03-09T09:37:20Z</time>
      </trkpt>
      <trkpt lat="43.83418" lon="7.27231">
        <ele>898.0087890625</ele>
        <time>2014-03-09T09:37:26Z</time>
      </trkpt>
      <trkpt lat="43.83407" lon="7.27243">
        <ele>897.04736328125</ele>
        <time>2014-03-09T09:37:30Z</time>
      </trkpt>
      <trkpt lat="43.83395" lon="7.27263">
        <ele>895.60546875</ele>
        <time>2014-03-09T09:37:35Z</time>
      </trkpt>
      <trkpt lat="43.8338" lon="7.27281">
        <ele>893.2021484375</ele>
        <time>2014-03-09T09:37:39Z</time>
      </trkpt>
      <trkpt lat="43.83366" lon="7.27309">
        <ele>890.31811523438</ele>
        <time>2014-03-09T09:37:44Z</time>
      </trkpt>
      <trkpt lat="43.83364" lon="7.27317">
        <ele>888.87622070312</ele>
        <time>2014-03-09T09:37:47Z</time>
      </trkpt>
      <trkpt lat="43.83363" lon="7.27318">
        <ele>888.3955078125</ele>
        <time>2014-03-09T09:37:48Z</time>
      </trkpt>
      <trkpt lat="43.83348" lon="7.27335">
        <ele>888.3955078125</ele>
        <time>2014-03-09T09:37:54Z</time>
      </trkpt>
      <trkpt lat="43.83344" lon="7.27349">
        <ele>885.51147460938</ele>
        <time>2014-03-09T09:37:58Z</time>
      </trkpt>
      <trkpt lat="43.83343" lon="7.27362">
        <ele>882.62768554688</ele>
        <time>2014-03-09T09:38:02Z</time>
      </trkpt>
      <trkpt lat="43.83341" lon="7.27378">
        <ele>879.74365234375</ele>
        <time>2014-03-09T09:38:06Z</time>
      </trkpt>
      <trkpt lat="43.83338" lon="7.2739">
        <ele>880.22436523438</ele>
        <time>2014-03-09T09:38:11Z</time>
      </trkpt>
      <trkpt lat="43.83341" lon="7.27392">
        <ele>880.705078125</ele>
        <time>2014-03-09T09:38:13Z</time>
      </trkpt>
      <trkpt lat="43.83357" lon="7.27389">
        <ele>880.705078125</ele>
        <time>2014-03-09T09:38:19Z</time>
      </trkpt>
      <trkpt lat="43.83372" lon="7.27389">
        <ele>881.18579101562</ele>
        <time>2014-03-09T09:38:23Z</time>
      </trkpt>
      <trkpt lat="43.83376" lon="7.27389">
        <ele>881.18579101562</ele>
        <time>2014-03-09T09:38:24Z</time>
      </trkpt>
      <trkpt lat="43.83381" lon="7.27388">
        <ele>880.22436523438</ele>
        <time>2014-03-09T09:38:27Z</time>
      </trkpt>
      <trkpt lat="43.83388" lon="7.2739">
        <ele>878.78247070312</ele>
        <time>2014-03-09T09:38:32Z</time>
      </trkpt>
      <trkpt lat="43.83399" lon="7.27388">
        <ele>877.82104492188</ele>
        <time>2014-03-09T09:38:36Z</time>
      </trkpt>
      <trkpt lat="43.83413" lon="7.27391">
        <ele>876.37915039062</ele>
        <time>2014-03-09T09:38:41Z</time>
      </trkpt>
      <trkpt lat="43.83416" lon="7.27398">
        <ele>873.01440429688</ele>
        <time>2014-03-09T09:38:46Z</time>
      </trkpt>
      <trkpt lat="43.83406" lon="7.27408">
        <ele>868.6884765625</ele>
        <time>2014-03-09T09:38:51Z</time>
      </trkpt>
      <trkpt lat="43.83405" lon="7.27411">
        <ele>868.20776367188</ele>
        <time>2014-03-09T09:38:53Z</time>
      </trkpt>
      <trkpt lat="43.83412" lon="7.2742">
        <ele>864.36254882812</ele>
        <time>2014-03-09T09:38:59Z</time>
      </trkpt>
      <trkpt lat="43.83419" lon="7.27432">
        <ele>861.47875976562</ele>
        <time>2014-03-09T09:39:03Z</time>
      </trkpt>
      <trkpt lat="43.83422" lon="7.27434">
        <ele>859.55590820312</ele>
        <time>2014-03-09T09:39:06Z</time>
      </trkpt>
      <trkpt lat="43.83421" lon="7.27439">
        <ele>859.0751953125</ele>
        <time>2014-03-09T09:39:12Z</time>
      </trkpt>
      <trkpt lat="43.83418" lon="7.2745">
        <ele>858.11401367188</ele>
        <time>2014-03-09T09:39:17Z</time>
      </trkpt>
      <trkpt lat="43.83419" lon="7.27466">
        <ele>856.19116210938</ele>
        <time>2014-03-09T09:39:21Z</time>
      </trkpt>
      <trkpt lat="43.83422" lon="7.27474">
        <ele>853.30737304688</ele>
        <time>2014-03-09T09:39:23Z</time>
      </trkpt>
      <trkpt lat="43.8343" lon="7.27491">
        <ele>847.53955078125</ele>
        <time>2014-03-09T09:39:27Z</time>
      </trkpt>
      <trkpt lat="43.83444" lon="7.27496">
        <ele>844.65551757812</ele>
        <time>2014-03-09T09:39:31Z</time>
      </trkpt>
      <trkpt lat="43.83448" lon="7.27508">
        <ele>843.69409179688</ele>
        <time>2014-03-09T09:39:36Z</time>
      </trkpt>
      <trkpt lat="43.83456" lon="7.27516">
        <ele>843.21337890625</ele>
        <time>2014-03-09T09:39:40Z</time>
      </trkpt>
      <trkpt lat="43.83458" lon="7.27518">
        <ele>843.69409179688</ele>
        <time>2014-03-09T09:39:41Z</time>
      </trkpt>
      <trkpt lat="43.83472" lon="7.27531">
        <ele>842.25219726562</ele>
        <time>2014-03-09T09:39:47Z</time>
      </trkpt>
      <trkpt lat="43.83484" lon="7.27538">
        <ele>840.32958984375</ele>
        <time>2014-03-09T09:39:51Z</time>
      </trkpt>
      <trkpt lat="43.83498" lon="7.27544">
        <ele>838.40698242188</ele>
        <time>2014-03-09T09:39:55Z</time>
      </trkpt>
      <trkpt lat="43.83507" lon="7.27554">
        <ele>836.96484375</ele>
        <time>2014-03-09T09:39:58Z</time>
      </trkpt>
      <trkpt lat="43.83519" lon="7.27571">
        <ele>835.04248046875</ele>
        <time>2014-03-09T09:40:03Z</time>
      </trkpt>
      <trkpt lat="43.83536" lon="7.27589">
        <ele>830.71655273438</ele>
        <time>2014-03-09T09:40:08Z</time>
      </trkpt>
      <trkpt lat="43.83546" lon="7.27601">
        <ele>827.83227539062</ele>
        <time>2014-03-09T09:40:12Z</time>
      </trkpt>
      <trkpt lat="43.83556" lon="7.27613">
        <ele>825.90966796875</ele>
        <time>2014-03-09T09:40:15Z</time>
      </trkpt>
      <trkpt lat="43.83574" lon="7.27637">
        <ele>820.14184570312</ele>
        <time>2014-03-09T09:40:21Z</time>
      </trkpt>
      <trkpt lat="43.83582" lon="7.27643">
        <ele>818.21923828125</ele>
        <time>2014-03-09T09:40:24Z</time>
      </trkpt>
      <trkpt lat="43.83587" lon="7.27658">
        <ele>816.29663085938</ele>
        <time>2014-03-09T09:40:28Z</time>
      </trkpt>
      <trkpt lat="43.83581" lon="7.27662">
        <ele>813.41284179688</ele>
        <time>2014-03-09T09:40:31Z</time>
      </trkpt>
      <trkpt lat="43.8357" lon="7.27661">
        <ele>809.08666992188</ele>
        <time>2014-03-09T09:40:36Z</time>
      </trkpt>
      <trkpt lat="43.83569" lon="7.27662">
        <ele>808.60595703125</ele>
        <time>2014-03-09T09:40:38Z</time>
      </trkpt>
      <trkpt lat="43.83573" lon="7.27672">
        <ele>807.1640625</ele>
        <time>2014-03-09T09:40:43Z</time>
      </trkpt>
      <trkpt lat="43.83576" lon="7.27683">
        <ele>806.20263671875</ele>
        <time>2014-03-09T09:40:47Z</time>
      </trkpt>
      <trkpt lat="43.83576" lon="7.27686">
        <ele>804.7607421875</ele>
        <time>2014-03-09T09:40:48Z</time>
      </trkpt>
      <trkpt lat="43.83575" lon="7.27692">
        <ele>802.83813476562</ele>
        <time>2014-03-09T09:40:50Z</time>
      </trkpt>
      <trkpt lat="43.8358" lon="7.27703">
        <ele>800.43505859375</ele>
        <time>2014-03-09T09:40:56Z</time>
      </trkpt>
      <trkpt lat="43.83582" lon="7.27708">
        <ele>795.1474609375</ele>
        <time>2014-03-09T09:41:00Z</time>
      </trkpt>
      <trkpt lat="43.83576" lon="7.27714">
        <ele>794.66674804688</ele>
        <time>2014-03-09T09:41:04Z</time>
      </trkpt>
      <trkpt lat="43.83576" lon="7.27717">
        <ele>795.1474609375</ele>
        <time>2014-03-09T09:41:12Z</time>
      </trkpt>
      <trkpt lat="43.83578" lon="7.27719">
        <ele>794.66674804688</ele>
        <time>2014-03-09T09:41:15Z</time>
      </trkpt>
      <trkpt lat="43.83581" lon="7.27723">
        <ele>795.1474609375</ele>
        <time>2014-03-09T09:41:18Z</time>
      </trkpt>
      <trkpt lat="43.83579" lon="7.27725">
        <ele>794.18627929688</ele>
        <time>2014-03-09T09:41:20Z</time>
      </trkpt>
      <trkpt lat="43.83568" lon="7.27732">
        <ele>793.22485351562</ele>
        <time>2014-03-09T09:41:25Z</time>
      </trkpt>
      <trkpt lat="43.8356" lon="7.27737">
        <ele>791.30224609375</ele>
        <time>2014-03-09T09:41:29Z</time>
      </trkpt>
      <trkpt lat="43.83558" lon="7.2774">
        <ele>789.8603515625</ele>
        <time>2014-03-09T09:41:30Z</time>
      </trkpt>
      <trkpt lat="43.83548" lon="7.27747">
        <ele>786.97631835938</ele>
        <time>2014-03-09T09:41:34Z</time>
      </trkpt>
      <trkpt lat="43.83546" lon="7.27751">
        <ele>784.09252929688</ele>
        <time>2014-03-09T09:41:38Z</time>
      </trkpt>
      <trkpt lat="43.83548" lon="7.27752">
        <ele>783.13110351562</ele>
        <time>2014-03-09T09:41:40Z</time>
      </trkpt>
      <trkpt lat="43.8355" lon="7.27755">
        <ele>781.20874023438</ele>
        <time>2014-03-09T09:41:45Z</time>
      </trkpt>
      <trkpt lat="43.83547" lon="7.27755">
        <ele>781.68920898438</ele>
        <time>2014-03-09T09:41:51Z</time>
      </trkpt>
      <trkpt lat="43.83539" lon="7.27762">
        <ele>779.76635742188</ele>
        <time>2014-03-09T09:41:56Z</time>
      </trkpt>
      <trkpt lat="43.83535" lon="7.27768">
        <ele>779.76635742188</ele>
        <time>2014-03-09T09:41:59Z</time>
      </trkpt>
      <trkpt lat="43.83524" lon="7.2777">
        <ele>778.32446289062</ele>
        <time>2014-03-09T09:42:05Z</time>
      </trkpt>
      <trkpt lat="43.83505" lon="7.27771">
        <ele>777.36328125</ele>
        <time>2014-03-09T09:42:12Z</time>
      </trkpt>
      <trkpt lat="43.83492" lon="7.27766">
        <ele>777.84375</ele>
        <time>2014-03-09T09:42:17Z</time>
      </trkpt>
      <trkpt lat="43.83484" lon="7.27763">
        <ele>777.84375</ele>
        <time>2014-03-09T09:42:21Z</time>
      </trkpt>
      <trkpt lat="43.83466" lon="7.27766">
        <ele>777.36328125</ele>
        <time>2014-03-09T09:42:28Z</time>
      </trkpt>
      <trkpt lat="43.83455" lon="7.27764">
        <ele>777.36328125</ele>
        <time>2014-03-09T09:42:33Z</time>
      </trkpt>
      <trkpt lat="43.83446" lon="7.27765">
        <ele>777.84375</ele>
        <time>2014-03-09T09:42:38Z</time>
      </trkpt>
      <trkpt lat="43.83444" lon="7.27754">
        <ele>779.76635742188</ele>
        <time>2014-03-09T09:42:44Z</time>
      </trkpt>
      <trkpt lat="43.8344" lon="7.27748">
        <ele>781.68920898438</ele>
        <time>2014-03-09T09:42:50Z</time>
      </trkpt>
      <trkpt lat="43.83435" lon="7.27754">
        <ele>780.24731445312</ele>
        <time>2014-03-09T09:42:56Z</time>
      </trkpt>
      <trkpt lat="43.83433" lon="7.27754">
        <ele>780.24731445312</ele>
        <time>2014-03-09T09:43:01Z</time>
      </trkpt>
      <trkpt lat="43.83429" lon="7.27755">
        <ele>781.68920898438</ele>
        <time>2014-03-09T09:43:06Z</time>
      </trkpt>
      <trkpt lat="43.83424" lon="7.27755">
        <ele>782.65063476562</ele>
        <time>2014-03-09T09:43:12Z</time>
      </trkpt>
      <trkpt lat="43.83418" lon="7.27758">
        <ele>785.05395507812</ele>
        <time>2014-03-09T09:43:19Z</time>
      </trkpt>
      <trkpt lat="43.8341" lon="7.27762">
        <ele>786.97631835938</ele>
        <time>2014-03-09T09:43:26Z</time>
      </trkpt>
      <trkpt lat="43.83406" lon="7.27758">
        <ele>788.89916992188</ele>
        <time>2014-03-09T09:43:31Z</time>
      </trkpt>
      <trkpt lat="43.83405" lon="7.27756">
        <ele>789.8603515625</ele>
        <time>2014-03-09T09:43:33Z</time>
      </trkpt>
      <trkpt lat="43.83402" lon="7.27748">
        <ele>793.22485351562</ele>
        <time>2014-03-09T09:43:40Z</time>
      </trkpt>
      <trkpt lat="43.83403" lon="7.27736">
        <ele>792.263671875</ele>
        <time>2014-03-09T09:43:49Z</time>
      </trkpt>
      <trkpt lat="43.83403" lon="7.27733">
        <ele>791.78295898438</ele>
        <time>2014-03-09T09:43:51Z</time>
      </trkpt>
      <trkpt lat="43.83402" lon="7.27723">
        <ele>789.37963867188</ele>
        <time>2014-03-09T09:43:56Z</time>
      </trkpt>
      <trkpt lat="43.83395" lon="7.277">
        <ele>790.82153320312</ele>
        <time>2014-03-09T09:44:05Z</time>
      </trkpt>
      <trkpt lat="43.83391" lon="7.27685">
        <ele>795.1474609375</ele>
        <time>2014-03-09T09:44:12Z</time>
      </trkpt>
      <trkpt lat="43.83386" lon="7.27672">
        <ele>797.55102539062</ele>
        <time>2014-03-09T09:44:18Z</time>
      </trkpt>
      <trkpt lat="43.83381" lon="7.27656">
        <ele>793.70556640625</ele>
        <time>2014-03-09T09:44:25Z</time>
      </trkpt>
      <trkpt lat="43.83372" lon="7.27644">
        <ele>794.18627929688</ele>
        <time>2014-03-09T09:44:31Z</time>
      </trkpt>
      <trkpt lat="43.83358" lon="7.27628">
        <ele>796.10913085938</ele>
        <time>2014-03-09T09:44:40Z</time>
      </trkpt>
      <trkpt lat="43.83342" lon="7.27615">
        <ele>798.99291992188</ele>
        <time>2014-03-09T09:44:47Z</time>
      </trkpt>
      <trkpt lat="43.83324" lon="7.27609">
        <ele>799.4736328125</ele>
        <time>2014-03-09T09:44:54Z</time>
      </trkpt>
      <trkpt lat="43.83311" lon="7.27614">
        <ele>800.43505859375</ele>
        <time>2014-03-09T09:45:00Z</time>
      </trkpt>
      <trkpt lat="43.833" lon="7.27622">
        <ele>800.91552734375</ele>
        <time>2014-03-09T09:45:06Z</time>
      </trkpt>
      <trkpt lat="43.83296" lon="7.2762">
        <ele>802.357421875</ele>
        <time>2014-03-09T09:45:11Z</time>
      </trkpt>
      <trkpt lat="43.8329" lon="7.27621">
        <ele>803.79956054688</ele>
        <time>2014-03-09T09:45:18Z</time>
      </trkpt>
      <trkpt lat="43.83284" lon="7.27619">
        <ele>804.7607421875</ele>
        <time>2014-03-09T09:45:26Z</time>
      </trkpt>
      <trkpt lat="43.83279" lon="7.27617">
        <ele>804.7607421875</ele>
        <time>2014-03-09T09:45:34Z</time>
      </trkpt>
      <trkpt lat="43.83274" lon="7.27615">
        <ele>808.12548828125</ele>
        <time>2014-03-09T09:45:42Z</time>
      </trkpt>
      <trkpt lat="43.83267" lon="7.27614">
        <ele>810.0478515625</ele>
        <time>2014-03-09T09:45:50Z</time>
      </trkpt>
      <trkpt lat="43.83259" lon="7.27612">
        <ele>809.08666992188</ele>
        <time>2014-03-09T09:45:55Z</time>
      </trkpt>
      <trkpt lat="43.83244" lon="7.27613">
        <ele>811.48999023438</ele>
        <time>2014-03-09T09:46:02Z</time>
      </trkpt>
      <trkpt lat="43.83232" lon="7.27612">
        <ele>813.41284179688</ele>
        <time>2014-03-09T09:46:08Z</time>
      </trkpt>
      <trkpt lat="43.83224" lon="7.2761">
        <ele>815.33544921875</ele>
        <time>2014-03-09T09:46:14Z</time>
      </trkpt>
      <trkpt lat="43.8322" lon="7.27608">
        <ele>818.21923828125</ele>
        <time>2014-03-09T09:46:21Z</time>
      </trkpt>
      <trkpt lat="43.83216" lon="7.27607">
        <ele>819.66137695312</ele>
        <time>2014-03-09T09:46:26Z</time>
      </trkpt>
      <trkpt lat="43.8321" lon="7.27607">
        <ele>822.54516601562</ele>
        <time>2014-03-09T09:46:34Z</time>
      </trkpt>
      <trkpt lat="43.83202" lon="7.27608">
        <ele>825.90966796875</ele>
        <time>2014-03-09T09:46:44Z</time>
      </trkpt>
      <trkpt lat="43.83195" lon="7.27611">
        <ele>826.87109375</ele>
        <time>2014-03-09T09:46:53Z</time>
      </trkpt>
      <trkpt lat="43.83191" lon="7.27615">
        <ele>825.90966796875</ele>
        <time>2014-03-09T09:47:00Z</time>
      </trkpt>
      <trkpt lat="43.83186" lon="7.2762">
        <ele>828.7939453125</ele>
        <time>2014-03-09T09:47:06Z</time>
      </trkpt>
      <trkpt lat="43.83181" lon="7.27626">
        <ele>827.83227539062</ele>
        <time>2014-03-09T09:47:13Z</time>
      </trkpt>
      <trkpt lat="43.83179" lon="7.2763">
        <ele>828.7939453125</ele>
        <time>2014-03-09T09:47:16Z</time>
      </trkpt>
      <trkpt lat="43.83178" lon="7.27637">
        <ele>831.197265625</ele>
        <time>2014-03-09T09:47:22Z</time>
      </trkpt>
      <trkpt lat="43.8318" lon="7.27647">
        <ele>834.56176757812</ele>
        <time>2014-03-09T09:47:28Z</time>
      </trkpt>
      <trkpt lat="43.83181" lon="7.2765">
        <ele>836.00366210938</ele>
        <time>2014-03-09T09:47:30Z</time>
      </trkpt>
      <trkpt lat="43.83178" lon="7.27661">
        <ele>837.92626953125</ele>
        <time>2014-03-09T09:47:38Z</time>
      </trkpt>
      <trkpt lat="43.83173" lon="7.2767">
        <ele>837.44555664062</ele>
        <time>2014-03-09T09:47:46Z</time>
      </trkpt>
      <trkpt lat="43.8317" lon="7.27675">
        <ele>838.40698242188</ele>
        <time>2014-03-09T09:47:53Z</time>
      </trkpt>
      <trkpt lat="43.83165" lon="7.27682">
        <ele>839.84887695312</ele>
        <time>2014-03-09T09:48:01Z</time>
      </trkpt>
      <trkpt lat="43.83162" lon="7.27686">
        <ele>841.29077148438</ele>
        <time>2014-03-09T09:48:07Z</time>
      </trkpt>
      <trkpt lat="43.83157" lon="7.27694">
        <ele>842.73291015625</ele>
        <time>2014-03-09T09:48:17Z</time>
      </trkpt>
      <trkpt lat="43.83154" lon="7.277">
        <ele>844.17504882812</ele>
        <time>2014-03-09T09:48:24Z</time>
      </trkpt>
      <trkpt lat="43.83149" lon="7.27707">
        <ele>843.69409179688</ele>
        <time>2014-03-09T09:48:32Z</time>
      </trkpt>
      <trkpt lat="43.83147" lon="7.27711">
        <ele>843.21337890625</ele>
        <time>2014-03-09T09:48:37Z</time>
      </trkpt>
      <trkpt lat="43.83146" lon="7.27712">
        <ele>843.21337890625</ele>
        <time>2014-03-09T09:48:38Z</time>
      </trkpt>
      <trkpt lat="43.83133" lon="7.27723">
        <ele>840.81005859375</ele>
        <time>2014-03-09T09:48:46Z</time>
      </trkpt>
      <trkpt lat="43.83122" lon="7.27737">
        <ele>838.8876953125</ele>
        <time>2014-03-09T09:48:50Z</time>
      </trkpt>
      <trkpt lat="43.83104" lon="7.27757">
        <ele>837.44555664062</ele>
        <time>2014-03-09T09:48:54Z</time>
      </trkpt>
      <trkpt lat="43.83081" lon="7.27763">
        <ele>840.32958984375</ele>
        <time>2014-03-09T09:48:59Z</time>
      </trkpt>
      <trkpt lat="43.83076" lon="7.27762">
        <ele>840.81005859375</ele>
        <time>2014-03-09T09:49:00Z</time>
      </trkpt>
      <trkpt lat="43.83063" lon="7.2776">
        <ele>841.771484375</ele>
        <time>2014-03-09T09:49:03Z</time>
      </trkpt>
      <trkpt lat="43.83048" lon="7.27762">
        <ele>842.73291015625</ele>
        <time>2014-03-09T09:49:07Z</time>
      </trkpt>
      <trkpt lat="43.83027" lon="7.27764">
        <ele>845.13623046875</ele>
        <time>2014-03-09T09:49:14Z</time>
      </trkpt>
      <trkpt lat="43.83015" lon="7.27771">
        <ele>846.57836914062</ele>
        <time>2014-03-09T09:49:20Z</time>
      </trkpt>
      <trkpt lat="43.83007" lon="7.27778">
        <ele>846.09765625</ele>
        <time>2014-03-09T09:49:25Z</time>
      </trkpt>
      <trkpt lat="43.83001" lon="7.27782">
        <ele>845.13623046875</ele>
        <time>2014-03-09T09:49:29Z</time>
      </trkpt>
      <trkpt lat="43.8299" lon="7.27791">
        <ele>843.69409179688</ele>
        <time>2014-03-09T09:49:35Z</time>
      </trkpt>
      <trkpt lat="43.82978" lon="7.27801">
        <ele>842.73291015625</ele>
        <time>2014-03-09T09:49:40Z</time>
      </trkpt>
      <trkpt lat="43.82965" lon="7.27807">
        <ele>842.73291015625</ele>
        <time>2014-03-09T09:49:45Z</time>
      </trkpt>
      <trkpt lat="43.82948" lon="7.27814">
        <ele>847.05883789062</ele>
        <time>2014-03-09T09:49:52Z</time>
      </trkpt>
      <trkpt lat="43.82938" lon="7.27826">
        <ele>848.02026367188</ele>
        <time>2014-03-09T09:49:58Z</time>
      </trkpt>
      <trkpt lat="43.82925" lon="7.27831">
        <ele>848.50073242188</ele>
        <time>2014-03-09T09:50:04Z</time>
      </trkpt>
      <trkpt lat="43.82906" lon="7.27836">
        <ele>852.82666015625</ele>
        <time>2014-03-09T09:50:11Z</time>
      </trkpt>
      <trkpt lat="43.82883" lon="7.27842">
        <ele>853.7880859375</ele>
        <time>2014-03-09T09:50:18Z</time>
      </trkpt>
      <trkpt lat="43.82853" lon="7.27845">
        <ele>857.15258789062</ele>
        <time>2014-03-09T09:50:27Z</time>
      </trkpt>
      <trkpt lat="43.82832" lon="7.2785">
        <ele>858.59448242188</ele>
        <time>2014-03-09T09:50:34Z</time>
      </trkpt>
      <trkpt lat="43.8281" lon="7.2785">
        <ele>856.671875</ele>
        <time>2014-03-09T09:50:42Z</time>
      </trkpt>
      <trkpt lat="43.82796" lon="7.2785">
        <ele>855.22998046875</ele>
        <time>2014-03-09T09:50:47Z</time>
      </trkpt>
      <trkpt lat="43.82771" lon="7.27857">
        <ele>851.86547851562</ele>
        <time>2014-03-09T09:50:51Z</time>
      </trkpt>
      <trkpt lat="43.82764" lon="7.27859">
        <ele>850.90405273438</ele>
        <time>2014-03-09T09:50:52Z</time>
      </trkpt>
      <trkpt lat="43.82746" lon="7.27854">
        <ele>848.50073242188</ele>
        <time>2014-03-09T09:50:56Z</time>
      </trkpt>
      <trkpt lat="43.82742" lon="7.2785">
        <ele>847.53955078125</ele>
        <time>2014-03-09T09:50:58Z</time>
      </trkpt>
      <trkpt lat="43.82733" lon="7.27834">
        <ele>845.61694335938</ele>
        <time>2014-03-09T09:51:05Z</time>
      </trkpt>
      <trkpt lat="43.8273" lon="7.2783">
        <ele>846.57836914062</ele>
        <time>2014-03-09T09:51:07Z</time>
      </trkpt>
      <trkpt lat="43.82728" lon="7.27815">
        <ele>848.9814453125</ele>
        <time>2014-03-09T09:51:13Z</time>
      </trkpt>
      <trkpt lat="43.82723" lon="7.2779">
        <ele>847.53955078125</ele>
        <time>2014-03-09T09:51:19Z</time>
      </trkpt>
      <trkpt lat="43.82718" lon="7.27766">
        <ele>847.05883789062</ele>
        <time>2014-03-09T09:51:25Z</time>
      </trkpt>
      <trkpt lat="43.82716" lon="7.27745">
        <ele>849.46215820312</ele>
        <time>2014-03-09T09:51:31Z</time>
      </trkpt>
      <trkpt lat="43.82715" lon="7.27727">
        <ele>848.9814453125</ele>
        <time>2014-03-09T09:51:37Z</time>
      </trkpt>
      <trkpt lat="43.8271" lon="7.27713">
        <ele>850.90405273438</ele>
        <time>2014-03-09T09:51:42Z</time>
      </trkpt>
      <trkpt lat="43.82699" lon="7.27706">
        <ele>851.86547851562</ele>
        <time>2014-03-09T09:51:46Z</time>
      </trkpt>
      <trkpt lat="43.82688" lon="7.27707">
        <ele>852.34594726562</ele>
        <time>2014-03-09T09:51:50Z</time>
      </trkpt>
      <trkpt lat="43.82685" lon="7.27708">
        <ele>852.82666015625</ele>
        <time>2014-03-09T09:51:51Z</time>
      </trkpt>
      <trkpt lat="43.82669" lon="7.27712">
        <ele>852.34594726562</ele>
        <time>2014-03-09T09:51:57Z</time>
      </trkpt>
      <trkpt lat="43.82665" lon="7.27711">
        <ele>853.30737304688</ele>
        <time>2014-03-09T09:51:59Z</time>
      </trkpt>
      <trkpt lat="43.82656" lon="7.27716">
        <ele>853.7880859375</ele>
        <time>2014-03-09T09:52:05Z</time>
      </trkpt>
      <trkpt lat="43.82654" lon="7.27716">
        <ele>853.30737304688</ele>
        <time>2014-03-09T09:52:06Z</time>
      </trkpt>
      <trkpt lat="43.82649" lon="7.27716">
        <ele>856.671875</ele>
        <time>2014-03-09T09:52:12Z</time>
      </trkpt>
      <trkpt lat="43.82648" lon="7.27716">
        <ele>858.11401367188</ele>
        <time>2014-03-09T09:52:17Z</time>
      </trkpt>
      <trkpt lat="43.82644" lon="7.27713">
        <ele>860.51733398438</ele>
        <time>2014-03-09T09:52:23Z</time>
      </trkpt>
      <trkpt lat="43.82639" lon="7.27714">
        <ele>858.59448242188</ele>
        <time>2014-03-09T09:52:30Z</time>
      </trkpt>
      <trkpt lat="43.82631" lon="7.27718">
        <ele>860.03662109375</ele>
        <time>2014-03-09T09:52:38Z</time>
      </trkpt>
      <trkpt lat="43.8263" lon="7.27717">
        <ele>860.03662109375</ele>
        <time>2014-03-09T09:52:39Z</time>
      </trkpt>
      <trkpt lat="43.82626" lon="7.27715">
        <ele>861.47875976562</ele>
        <time>2014-03-09T09:52:43Z</time>
      </trkpt>
      <trkpt lat="43.82618" lon="7.27713">
        <ele>862.92065429688</ele>
        <time>2014-03-09T09:52:52Z</time>
      </trkpt>
      <trkpt lat="43.82616" lon="7.27711">
        <ele>863.8818359375</ele>
        <time>2014-03-09T09:52:59Z</time>
      </trkpt>
      <trkpt lat="43.82613" lon="7.2771">
        <ele>865.32397460938</ele>
        <time>2014-03-09T09:53:05Z</time>
      </trkpt>
      <trkpt lat="43.82608" lon="7.27708">
        <ele>866.28515625</ele>
        <time>2014-03-09T09:53:11Z</time>
      </trkpt>
      <trkpt lat="43.82607" lon="7.27707">
        <ele>866.28515625</ele>
        <time>2014-03-09T09:53:12Z</time>
      </trkpt>
      <trkpt lat="43.82595" lon="7.27702">
        <ele>867.24658203125</ele>
        <time>2014-03-09T09:53:22Z</time>
      </trkpt>
      <trkpt lat="43.82587" lon="7.27697">
        <ele>868.20776367188</ele>
        <time>2014-03-09T09:53:29Z</time>
      </trkpt>
      <trkpt lat="43.82581" lon="7.27692">
        <ele>869.16918945312</ele>
        <time>2014-03-09T09:53:34Z</time>
      </trkpt>
      <trkpt lat="43.82576" lon="7.27693">
        <ele>870.61108398438</ele>
        <time>2014-03-09T09:53:39Z</time>
      </trkpt>
      <trkpt lat="43.8257" lon="7.2769">
        <ele>871.091796875</ele>
        <time>2014-03-09T09:53:46Z</time>
      </trkpt>
      <trkpt lat="43.82565" lon="7.27691">
        <ele>871.572265625</ele>
        <time>2014-03-09T09:53:52Z</time>
      </trkpt>
      <trkpt lat="43.82561" lon="7.27693">
        <ele>873.01440429688</ele>
        <time>2014-03-09T09:53:58Z</time>
      </trkpt>
      <trkpt lat="43.82558" lon="7.27692">
        <ele>875.89819335938</ele>
        <time>2014-03-09T09:54:04Z</time>
      </trkpt>
      <trkpt lat="43.82556" lon="7.27693">
        <ele>878.3017578125</ele>
        <time>2014-03-09T09:54:09Z</time>
      </trkpt>
      <trkpt lat="43.82555" lon="7.27696">
        <ele>879.74365234375</ele>
        <time>2014-03-09T09:54:14Z</time>
      </trkpt>
      <trkpt lat="43.82552" lon="7.27701">
        <ele>881.18579101562</ele>
        <time>2014-03-09T09:54:20Z</time>
      </trkpt>
      <trkpt lat="43.82549" lon="7.27708">
        <ele>883.5888671875</ele>
        <time>2014-03-09T09:54:28Z</time>
      </trkpt>
      <trkpt lat="43.82542" lon="7.27713">
        <ele>885.51147460938</ele>
        <time>2014-03-09T09:54:36Z</time>
      </trkpt>
      <trkpt lat="43.82533" lon="7.27718">
        <ele>886.95336914062</ele>
        <time>2014-03-09T09:54:46Z</time>
      </trkpt>
      <trkpt lat="43.82528" lon="7.27724">
        <ele>888.3955078125</ele>
        <time>2014-03-09T09:54:55Z</time>
      </trkpt>
      <trkpt lat="43.82521" lon="7.2773">
        <ele>890.31811523438</ele>
        <time>2014-03-09T09:55:05Z</time>
      </trkpt>
      <trkpt lat="43.82516" lon="7.27737">
        <ele>891.279296875</ele>
        <time>2014-03-09T09:55:13Z</time>
      </trkpt>
      <trkpt lat="43.8251" lon="7.27742">
        <ele>891.279296875</ele>
        <time>2014-03-09T09:55:20Z</time>
      </trkpt>
      <trkpt lat="43.82506" lon="7.27745">
        <ele>891.279296875</ele>
        <time>2014-03-09T09:55:24Z</time>
      </trkpt>
      <trkpt lat="43.82495" lon="7.27749">
        <ele>891.76000976562</ele>
        <time>2014-03-09T09:55:30Z</time>
      </trkpt>
      <trkpt lat="43.8249" lon="7.27753">
        <ele>891.76000976562</ele>
        <time>2014-03-09T09:55:33Z</time>
      </trkpt>
      <trkpt lat="43.82474" lon="7.27767">
        <ele>890.79858398438</ele>
        <time>2014-03-09T09:55:41Z</time>
      </trkpt>
      <trkpt lat="43.82457" lon="7.27776">
        <ele>890.79858398438</ele>
        <time>2014-03-09T09:55:48Z</time>
      </trkpt>
      <trkpt lat="43.82445" lon="7.27779">
        <ele>890.79858398438</ele>
        <time>2014-03-09T09:55:53Z</time>
      </trkpt>
      <trkpt lat="43.82436" lon="7.27786">
        <ele>890.31811523438</ele>
        <time>2014-03-09T09:55:58Z</time>
      </trkpt>
      <trkpt lat="43.82428" lon="7.27777">
        <ele>890.31811523438</ele>
        <time>2014-03-09T09:56:03Z</time>
      </trkpt>
      <trkpt lat="43.82417" lon="7.2778">
        <ele>891.279296875</ele>
        <time>2014-03-09T09:56:07Z</time>
      </trkpt>
      <trkpt lat="43.82399" lon="7.27786">
        <ele>891.279296875</ele>
        <time>2014-03-09T09:56:12Z</time>
      </trkpt>
      <trkpt lat="43.82389" lon="7.27787">
        <ele>891.279296875</ele>
        <time>2014-03-09T09:56:16Z</time>
      </trkpt>
      <trkpt lat="43.82381" lon="7.27781">
        <ele>890.79858398438</ele>
        <time>2014-03-09T09:56:19Z</time>
      </trkpt>
      <trkpt lat="43.82364" lon="7.27769">
        <ele>887.43408203125</ele>
        <time>2014-03-09T09:56:25Z</time>
      </trkpt>
      <trkpt lat="43.82362" lon="7.27772">
        <ele>886.95336914062</ele>
        <time>2014-03-09T09:56:26Z</time>
      </trkpt>
      <trkpt lat="43.82345" lon="7.27783">
        <ele>885.9921875</ele>
        <time>2014-03-09T09:56:32Z</time>
      </trkpt>
      <trkpt lat="43.82324" lon="7.27782">
        <ele>885.9921875</ele>
        <time>2014-03-09T09:56:39Z</time>
      </trkpt>
      <trkpt lat="43.82321" lon="7.27782">
        <ele>885.9921875</ele>
        <time>2014-03-09T09:56:40Z</time>
      </trkpt>
      <trkpt lat="43.82304" lon="7.27782">
        <ele>884.55029296875</ele>
        <time>2014-03-09T09:56:45Z</time>
      </trkpt>
      <trkpt lat="43.82298" lon="7.27779">
        <ele>883.5888671875</ele>
        <time>2014-03-09T09:56:47Z</time>
      </trkpt>
      <trkpt lat="43.82277" lon="7.27776">
        <ele>879.74365234375</ele>
        <time>2014-03-09T09:56:52Z</time>
      </trkpt>
      <trkpt lat="43.8227" lon="7.27776">
        <ele>879.26293945312</ele>
        <time>2014-03-09T09:56:53Z</time>
      </trkpt>
      <trkpt lat="43.82252" lon="7.27782">
        <ele>876.37915039062</ele>
        <time>2014-03-09T09:56:56Z</time>
      </trkpt>
      <trkpt lat="43.82219" lon="7.27797">
        <ele>873.01440429688</ele>
        <time>2014-03-09T09:57:02Z</time>
      </trkpt>
      <trkpt lat="43.82213" lon="7.27799">
        <ele>873.01440429688</ele>
        <time>2014-03-09T09:57:03Z</time>
      </trkpt>
      <trkpt lat="43.82187" lon="7.27805">
        <ele>871.091796875</ele>
        <time>2014-03-09T09:57:08Z</time>
      </trkpt>
      <trkpt lat="43.82163" lon="7.2781">
        <ele>868.20776367188</ele>
        <time>2014-03-09T09:57:13Z</time>
      </trkpt>
      <trkpt lat="43.82159" lon="7.27813">
        <ele>867.72705078125</ele>
        <time>2014-03-09T09:57:14Z</time>
      </trkpt>
      <trkpt lat="43.82151" lon="7.27822">
        <ele>865.32397460938</ele>
        <time>2014-03-09T09:57:17Z</time>
      </trkpt>
      <trkpt lat="43.82137" lon="7.27834">
        <ele>864.36254882812</ele>
        <time>2014-03-09T09:57:21Z</time>
      </trkpt>
      <trkpt lat="43.82123" lon="7.27852">
        <ele>863.4013671875</ele>
        <time>2014-03-09T09:57:25Z</time>
      </trkpt>
      <trkpt lat="43.82109" lon="7.27871">
        <ele>860.998046875</ele>
        <time>2014-03-09T09:57:30Z</time>
      </trkpt>
      <trkpt lat="43.82105" lon="7.27873">
        <ele>861.47875976562</ele>
        <time>2014-03-09T09:57:31Z</time>
      </trkpt>
      <trkpt lat="43.82094" lon="7.27878">
        <ele>863.8818359375</ele>
        <time>2014-03-09T09:57:34Z</time>
      </trkpt>
      <trkpt lat="43.82081" lon="7.27889">
        <ele>865.32397460938</ele>
        <time>2014-03-09T09:57:39Z</time>
      </trkpt>
      <trkpt lat="43.82073" lon="7.27902">
        <ele>866.28515625</ele>
        <time>2014-03-09T09:57:43Z</time>
      </trkpt>
      <trkpt lat="43.82066" lon="7.27913">
        <ele>865.8046875</ele>
        <time>2014-03-09T09:57:47Z</time>
      </trkpt>
      <trkpt lat="43.8206" lon="7.2792">
        <ele>867.24658203125</ele>
        <time>2014-03-09T09:57:51Z</time>
      </trkpt>
      <trkpt lat="43.82048" lon="7.27927">
        <ele>869.64990234375</ele>
        <time>2014-03-09T09:57:58Z</time>
      </trkpt>
      <trkpt lat="43.82039" lon="7.27932">
        <ele>870.61108398438</ele>
        <time>2014-03-09T09:58:02Z</time>
      </trkpt>
      <trkpt lat="43.8203" lon="7.27941">
        <ele>871.572265625</ele>
        <time>2014-03-09T09:58:07Z</time>
      </trkpt>
      <trkpt lat="43.8203" lon="7.27942">
        <ele>871.572265625</ele>
        <time>2014-03-09T09:58:08Z</time>
      </trkpt>
      <trkpt lat="43.82021" lon="7.27945">
        <ele>872.05297851562</ele>
        <time>2014-03-09T09:58:14Z</time>
      </trkpt>
      <trkpt lat="43.82012" lon="7.27952">
        <ele>872.53369140625</ele>
        <time>2014-03-09T09:58:18Z</time>
      </trkpt>
      <trkpt lat="43.82006" lon="7.27966">
        <ele>872.05297851562</ele>
        <time>2014-03-09T09:58:24Z</time>
      </trkpt>
      <trkpt lat="43.81999" lon="7.27983">
        <ele>871.572265625</ele>
        <time>2014-03-09T09:58:30Z</time>
      </trkpt>
      <trkpt lat="43.81989" lon="7.27997">
        <ele>872.05297851562</ele>
        <time>2014-03-09T09:58:36Z</time>
      </trkpt>
      <trkpt lat="43.81987" lon="7.28009">
        <ele>874.45629882812</ele>
        <time>2014-03-09T09:58:40Z</time>
      </trkpt>
      <trkpt lat="43.81984" lon="7.28013">
        <ele>876.37915039062</ele>
        <time>2014-03-09T09:58:43Z</time>
      </trkpt>
      <trkpt lat="43.8198" lon="7.28021">
        <ele>878.3017578125</ele>
        <time>2014-03-09T09:58:49Z</time>
      </trkpt>
      <trkpt lat="43.81977" lon="7.28026">
        <ele>880.22436523438</ele>
        <time>2014-03-09T09:58:55Z</time>
      </trkpt>
      <trkpt lat="43.81973" lon="7.2803">
        <ele>882.14697265625</ele>
        <time>2014-03-09T09:59:01Z</time>
      </trkpt>
      <trkpt lat="43.81971" lon="7.28038">
        <ele>882.14697265625</ele>
        <time>2014-03-09T09:59:07Z</time>
      </trkpt>
      <trkpt lat="43.81968" lon="7.28041">
        <ele>883.5888671875</ele>
        <time>2014-03-09T09:59:14Z</time>
      </trkpt>
      <trkpt lat="43.81964" lon="7.28044">
        <ele>884.06958007812</ele>
        <time>2014-03-09T09:59:17Z</time>
      </trkpt>
      <trkpt lat="43.81955" lon="7.28051">
        <ele>885.03100585938</ele>
        <time>2014-03-09T09:59:23Z</time>
      </trkpt>
      <trkpt lat="43.81953" lon="7.28053">
        <ele>884.55029296875</ele>
        <time>2014-03-09T09:59:24Z</time>
      </trkpt>
      <trkpt lat="43.81943" lon="7.28067">
        <ele>882.62768554688</ele>
        <time>2014-03-09T09:59:31Z</time>
      </trkpt>
      <trkpt lat="43.81935" lon="7.28072">
        <ele>884.06958007812</ele>
        <time>2014-03-09T09:59:35Z</time>
      </trkpt>
      <trkpt lat="43.81923" lon="7.28085">
        <ele>883.5888671875</ele>
        <time>2014-03-09T09:59:41Z</time>
      </trkpt>
      <trkpt lat="43.8191" lon="7.28101">
        <ele>883.5888671875</ele>
        <time>2014-03-09T09:59:47Z</time>
      </trkpt>
      <trkpt lat="43.81887" lon="7.28115">
        <ele>886.95336914062</ele>
        <time>2014-03-09T09:59:55Z</time>
      </trkpt>
      <trkpt lat="43.81884" lon="7.28116">
        <ele>887.43408203125</ele>
        <time>2014-03-09T09:59:56Z</time>
      </trkpt>
      <trkpt lat="43.81877" lon="7.28128">
        <ele>887.91479492188</ele>
        <time>2014-03-09T10:00:00Z</time>
      </trkpt>
      <trkpt lat="43.81861" lon="7.2814">
        <ele>887.43408203125</ele>
        <time>2014-03-09T10:00:06Z</time>
      </trkpt>
      <trkpt lat="43.81845" lon="7.28144">
        <ele>886.95336914062</ele>
        <time>2014-03-09T10:00:10Z</time>
      </trkpt>
      <trkpt lat="43.81831" lon="7.28145">
        <ele>887.43408203125</ele>
        <time>2014-03-09T10:00:13Z</time>
      </trkpt>
      <trkpt lat="43.81819" lon="7.2815">
        <ele>886.95336914062</ele>
        <time>2014-03-09T10:00:16Z</time>
      </trkpt>
      <trkpt lat="43.81805" lon="7.28154">
        <ele>888.87622070312</ele>
        <time>2014-03-09T10:00:20Z</time>
      </trkpt>
      <trkpt lat="43.8179" lon="7.28153">
        <ele>890.31811523438</ele>
        <time>2014-03-09T10:00:26Z</time>
      </trkpt>
      <trkpt lat="43.81778" lon="7.28152">
        <ele>890.79858398438</ele>
        <time>2014-03-09T10:00:31Z</time>
      </trkpt>
      <trkpt lat="43.81776" lon="7.2815">
        <ele>890.79858398438</ele>
        <time>2014-03-09T10:00:32Z</time>
      </trkpt>
      <trkpt lat="43.81765" lon="7.28151">
        <ele>891.279296875</ele>
        <time>2014-03-09T10:00:37Z</time>
      </trkpt>
      <trkpt lat="43.81761" lon="7.28152">
        <ele>891.279296875</ele>
        <time>2014-03-09T10:00:39Z</time>
      </trkpt>
      <trkpt lat="43.81751" lon="7.28157">
        <ele>891.76000976562</ele>
        <time>2014-03-09T10:00:44Z</time>
      </trkpt>
      <trkpt lat="43.81741" lon="7.28159">
        <ele>892.7216796875</ele>
        <time>2014-03-09T10:00:48Z</time>
      </trkpt>
      <trkpt lat="43.81728" lon="7.28156">
        <ele>893.2021484375</ele>
        <time>2014-03-09T10:00:53Z</time>
      </trkpt>
      <trkpt lat="43.81712" lon="7.28158">
        <ele>893.2021484375</ele>
        <time>2014-03-09T10:00:59Z</time>
      </trkpt>
      <trkpt lat="43.81701" lon="7.28162">
        <ele>892.24096679688</ele>
        <time>2014-03-09T10:01:02Z</time>
      </trkpt>
      <trkpt lat="43.81697" lon="7.28162">
        <ele>891.76000976562</ele>
        <time>2014-03-09T10:01:03Z</time>
      </trkpt>
      <trkpt lat="43.81681" lon="7.28174">
        <ele>887.91479492188</ele>
        <time>2014-03-09T10:01:08Z</time>
      </trkpt>
      <trkpt lat="43.81667" lon="7.28179">
        <ele>885.51147460938</ele>
        <time>2014-03-09T10:01:12Z</time>
      </trkpt>
      <trkpt lat="43.81656" lon="7.2818">
        <ele>883.10815429688</ele>
        <time>2014-03-09T10:01:15Z</time>
      </trkpt>
      <trkpt lat="43.81652" lon="7.28183">
        <ele>882.14697265625</ele>
        <time>2014-03-09T10:01:16Z</time>
      </trkpt>
      <trkpt lat="43.81643" lon="7.28185">
        <ele>879.26293945312</ele>
        <time>2014-03-09T10:01:18Z</time>
      </trkpt>
      <trkpt lat="43.81625" lon="7.28185">
        <ele>876.37915039062</ele>
        <time>2014-03-09T10:01:22Z</time>
      </trkpt>
      <trkpt lat="43.81613" lon="7.28194">
        <ele>873.4951171875</ele>
        <time>2014-03-09T10:01:25Z</time>
      </trkpt>
      <trkpt lat="43.81587" lon="7.28199">
        <ele>873.9755859375</ele>
        <time>2014-03-09T10:01:31Z</time>
      </trkpt>
      <trkpt lat="43.81575" lon="7.28212">
        <ele>872.53369140625</ele>
        <time>2014-03-09T10:01:35Z</time>
      </trkpt>
      <trkpt lat="43.81572" lon="7.28215">
        <ele>872.53369140625</ele>
        <time>2014-03-09T10:01:36Z</time>
      </trkpt>
      <trkpt lat="43.81557" lon="7.28226">
        <ele>872.05297851562</ele>
        <time>2014-03-09T10:01:40Z</time>
      </trkpt>
      <trkpt lat="43.81533" lon="7.2824">
        <ele>872.05297851562</ele>
        <time>2014-03-09T10:01:46Z</time>
      </trkpt>
      <trkpt lat="43.81524" lon="7.28251">
        <ele>871.091796875</ele>
        <time>2014-03-09T10:01:49Z</time>
      </trkpt>
      <trkpt lat="43.81508" lon="7.28255">
        <ele>871.091796875</ele>
        <time>2014-03-09T10:01:53Z</time>
      </trkpt>
      <trkpt lat="43.81492" lon="7.2826">
        <ele>870.13037109375</ele>
        <time>2014-03-09T10:01:57Z</time>
      </trkpt>
      <trkpt lat="43.81487" lon="7.28259">
        <ele>870.61108398438</ele>
        <time>2014-03-09T10:01:58Z</time>
      </trkpt>
      <trkpt lat="43.81465" lon="7.28257">
        <ele>868.20776367188</ele>
        <time>2014-03-09T10:02:03Z</time>
      </trkpt>
      <trkpt lat="43.81452" lon="7.28255">
        <ele>866.28515625</ele>
        <time>2014-03-09T10:02:07Z</time>
      </trkpt>
      <trkpt lat="43.81438" lon="7.28259">
        <ele>865.32397460938</ele>
        <time>2014-03-09T10:02:10Z</time>
      </trkpt>
      <trkpt lat="43.81427" lon="7.2826">
        <ele>864.36254882812</ele>
        <time>2014-03-09T10:02:14Z</time>
      </trkpt>
      <trkpt lat="43.81424" lon="7.28263">
        <ele>867.72705078125</ele>
        <time>2014-03-09T10:02:19Z</time>
      </trkpt>
      <trkpt lat="43.81422" lon="7.28265">
        <ele>867.72705078125</ele>
        <time>2014-03-09T10:02:23Z</time>
      </trkpt>
      <trkpt lat="43.81417" lon="7.28265">
        <ele>870.13037109375</ele>
        <time>2014-03-09T10:02:28Z</time>
      </trkpt>
      <trkpt lat="43.81411" lon="7.28267">
        <ele>870.13037109375</ele>
        <time>2014-03-09T10:02:35Z</time>
      </trkpt>
      <trkpt lat="43.81408" lon="7.28268">
        <ele>870.61108398438</ele>
        <time>2014-03-09T10:02:40Z</time>
      </trkpt>
      <trkpt lat="43.81401" lon="7.28268">
        <ele>872.53369140625</ele>
        <time>2014-03-09T10:02:47Z</time>
      </trkpt>
      <trkpt lat="43.81397" lon="7.28267">
        <ele>875.89819335938</ele>
        <time>2014-03-09T10:02:53Z</time>
      </trkpt>
      <trkpt lat="43.81395" lon="7.2826">
        <ele>876.37915039062</ele>
        <time>2014-03-09T10:02:59Z</time>
      </trkpt>
      <trkpt lat="43.81392" lon="7.28253">
        <ele>874.45629882812</ele>
        <time>2014-03-09T10:03:06Z</time>
      </trkpt>
      <trkpt lat="43.8139" lon="7.28249">
        <ele>872.53369140625</ele>
        <time>2014-03-09T10:03:12Z</time>
      </trkpt>
      <trkpt lat="43.8139" lon="7.28243">
        <ele>872.05297851562</ele>
        <time>2014-03-09T10:03:18Z</time>
      </trkpt>
      <trkpt lat="43.8139" lon="7.28238">
        <ele>870.13037109375</ele>
        <time>2014-03-09T10:03:24Z</time>
      </trkpt>
      <trkpt lat="43.81382" lon="7.28233">
        <ele>868.6884765625</ele>
        <time>2014-03-09T10:03:29Z</time>
      </trkpt>
      <trkpt lat="43.81368" lon="7.28227">
        <ele>868.20776367188</ele>
        <time>2014-03-09T10:03:33Z</time>
      </trkpt>
      <trkpt lat="43.81358" lon="7.28214">
        <ele>865.32397460938</ele>
        <time>2014-03-09T10:03:38Z</time>
      </trkpt>
      <trkpt lat="43.81356" lon="7.28213">
        <ele>864.84326171875</ele>
        <time>2014-03-09T10:03:39Z</time>
      </trkpt>
      <trkpt lat="43.81349" lon="7.2821">
        <ele>864.84326171875</ele>
        <time>2014-03-09T10:03:42Z</time>
      </trkpt>
      <trkpt lat="43.81342" lon="7.28198">
        <ele>862.92065429688</ele>
        <time>2014-03-09T10:03:46Z</time>
      </trkpt>
      <trkpt lat="43.8134" lon="7.28192">
        <ele>860.998046875</ele>
        <time>2014-03-09T10:03:48Z</time>
      </trkpt>
      <trkpt lat="43.8133" lon="7.28165">
        <ele>859.0751953125</ele>
        <time>2014-03-09T10:03:55Z</time>
      </trkpt>
      <trkpt lat="43.81329" lon="7.28157">
        <ele>859.0751953125</ele>
        <time>2014-03-09T10:03:57Z</time>
      </trkpt>
      <trkpt lat="43.81324" lon="7.2815">
        <ele>857.63330078125</ele>
        <time>2014-03-09T10:04:01Z</time>
      </trkpt>
      <trkpt lat="43.81319" lon="7.28147">
        <ele>856.671875</ele>
        <time>2014-03-09T10:04:04Z</time>
      </trkpt>
      <trkpt lat="43.81313" lon="7.28147">
        <ele>855.22998046875</ele>
        <time>2014-03-09T10:04:08Z</time>
      </trkpt>
      <trkpt lat="43.81308" lon="7.28142">
        <ele>854.26879882812</ele>
        <time>2014-03-09T10:04:13Z</time>
      </trkpt>
      <trkpt lat="43.81308" lon="7.28139">
        <ele>853.7880859375</ele>
        <time>2014-03-09T10:04:14Z</time>
      </trkpt>
      <trkpt lat="43.81311" lon="7.28115">
        <ele>851.384765625</ele>
        <time>2014-03-09T10:04:20Z</time>
      </trkpt>
      <trkpt lat="43.8131" lon="7.28107">
        <ele>850.90405273438</ele>
        <time>2014-03-09T10:04:22Z</time>
      </trkpt>
      <trkpt lat="43.81315" lon="7.28092">
        <ele>849.46215820312</ele>
        <time>2014-03-09T10:04:27Z</time>
      </trkpt>
      <trkpt lat="43.81322" lon="7.2808">
        <ele>848.9814453125</ele>
        <time>2014-03-09T10:04:31Z</time>
      </trkpt>
      <trkpt lat="43.81323" lon="7.28075">
        <ele>848.9814453125</ele>
        <time>2014-03-09T10:04:32Z</time>
      </trkpt>
      <trkpt lat="43.81331" lon="7.28041">
        <ele>849.46215820312</ele>
        <time>2014-03-09T10:04:39Z</time>
      </trkpt>
      <trkpt lat="43.81337" lon="7.28023">
        <ele>849.46215820312</ele>
        <time>2014-03-09T10:04:43Z</time>
      </trkpt>
      <trkpt lat="43.81331" lon="7.28002">
        <ele>849.94287109375</ele>
        <time>2014-03-09T10:04:47Z</time>
      </trkpt>
      <trkpt lat="43.81328" lon="7.27986">
        <ele>851.86547851562</ele>
        <time>2014-03-09T10:04:52Z</time>
      </trkpt>
      <trkpt lat="43.81329" lon="7.27966">
        <ele>855.71069335938</ele>
        <time>2014-03-09T10:05:00Z</time>
      </trkpt>
      <trkpt lat="43.81334" lon="7.27952">
        <ele>856.671875</ele>
        <time>2014-03-09T10:05:06Z</time>
      </trkpt>
      <trkpt lat="43.81337" lon="7.27942">
        <ele>859.55590820312</ele>
        <time>2014-03-09T10:05:11Z</time>
      </trkpt>
      <trkpt lat="43.81337" lon="7.27936">
        <ele>860.998046875</ele>
        <time>2014-03-09T10:05:15Z</time>
      </trkpt>
      <trkpt lat="43.81342" lon="7.27929">
        <ele>858.59448242188</ele>
        <time>2014-03-09T10:05:22Z</time>
      </trkpt>
      <trkpt lat="43.81343" lon="7.27926">
        <ele>858.11401367188</ele>
        <time>2014-03-09T10:05:23Z</time>
      </trkpt>
      <trkpt lat="43.81344" lon="7.27919">
        <ele>856.671875</ele>
        <time>2014-03-09T10:05:25Z</time>
      </trkpt>
      <trkpt lat="43.81355" lon="7.27904">
        <ele>851.384765625</ele>
        <time>2014-03-09T10:05:30Z</time>
      </trkpt>
      <trkpt lat="43.81361" lon="7.27894">
        <ele>848.02026367188</ele>
        <time>2014-03-09T10:05:33Z</time>
      </trkpt>
      <trkpt lat="43.81385" lon="7.27864">
        <ele>839.3681640625</ele>
        <time>2014-03-09T10:05:40Z</time>
      </trkpt>
      <trkpt lat="43.81399" lon="7.27845">
        <ele>833.60034179688</ele>
        <time>2014-03-09T10:05:45Z</time>
      </trkpt>
      <trkpt lat="43.81407" lon="7.27832">
        <ele>830.23583984375</ele>
        <time>2014-03-09T10:05:49Z</time>
      </trkpt>
      <trkpt lat="43.81407" lon="7.27822">
        <ele>826.39038085938</ele>
        <time>2014-03-09T10:05:52Z</time>
      </trkpt>
      <trkpt lat="43.81408" lon="7.27808">
        <ele>822.064453125</ele>
        <time>2014-03-09T10:05:56Z</time>
      </trkpt>
      <trkpt lat="43.81411" lon="7.27791">
        <ele>817.25805664062</ele>
        <time>2014-03-09T10:06:00Z</time>
      </trkpt>
      <trkpt lat="43.81416" lon="7.27783">
        <ele>815.33544921875</ele>
        <time>2014-03-09T10:06:02Z</time>
      </trkpt>
      <trkpt lat="43.81429" lon="7.27763">
        <ele>812.93212890625</ele>
        <time>2014-03-09T10:06:06Z</time>
      </trkpt>
      <trkpt lat="43.81433" lon="7.27761">
        <ele>812.93212890625</ele>
        <time>2014-03-09T10:06:07Z</time>
      </trkpt>
      <trkpt lat="43.81446" lon="7.27741">
        <ele>811.00927734375</ele>
        <time>2014-03-09T10:06:11Z</time>
      </trkpt>
      <trkpt lat="43.81453" lon="7.27729">
        <ele>810.0478515625</ele>
        <time>2014-03-09T10:06:13Z</time>
      </trkpt>
      <trkpt lat="43.8146" lon="7.27709">
        <ele>808.60595703125</ele>
        <time>2014-03-09T10:06:16Z</time>
      </trkpt>
      <trkpt lat="43.81469" lon="7.27688">
        <ele>807.1640625</ele>
        <time>2014-03-09T10:06:20Z</time>
      </trkpt>
      <trkpt lat="43.81477" lon="7.27674">
        <ele>806.20263671875</ele>
        <time>2014-03-09T10:06:23Z</time>
      </trkpt>
      <trkpt lat="43.81482" lon="7.27662">
        <ele>805.72216796875</ele>
        <time>2014-03-09T10:06:25Z</time>
      </trkpt>
      <trkpt lat="43.81485" lon="7.2765">
        <ele>805.72216796875</ele>
        <time>2014-03-09T10:06:27Z</time>
      </trkpt>
      <trkpt lat="43.81488" lon="7.27638">
        <ele>805.24145507812</ele>
        <time>2014-03-09T10:06:30Z</time>
      </trkpt>
      <trkpt lat="43.81491" lon="7.27631">
        <ele>806.20263671875</ele>
        <time>2014-03-09T10:06:36Z</time>
      </trkpt>
      <trkpt lat="43.81493" lon="7.27625">
        <ele>807.1640625</ele>
        <time>2014-03-09T10:06:39Z</time>
      </trkpt>
      <trkpt lat="43.815" lon="7.2761">
        <ele>807.1640625</ele>
        <time>2014-03-09T10:06:45Z</time>
      </trkpt>
      <trkpt lat="43.81509" lon="7.27601">
        <ele>804.2802734375</ele>
        <time>2014-03-09T10:06:50Z</time>
      </trkpt>
      <trkpt lat="43.81522" lon="7.27583">
        <ele>798.51220703125</ele>
        <time>2014-03-09T10:06:57Z</time>
      </trkpt>
      <trkpt lat="43.8153" lon="7.27572">
        <ele>795.1474609375</ele>
        <time>2014-03-09T10:07:01Z</time>
      </trkpt>
      <trkpt lat="43.81535" lon="7.27566">
        <ele>793.22485351562</ele>
        <time>2014-03-09T10:07:04Z</time>
      </trkpt>
      <trkpt lat="43.81546" lon="7.27563">
        <ele>787.93774414062</ele>
        <time>2014-03-09T10:07:09Z</time>
      </trkpt>
      <trkpt lat="43.81554" lon="7.27555">
        <ele>785.05395507812</ele>
        <time>2014-03-09T10:07:12Z</time>
      </trkpt>
      <trkpt lat="43.81569" lon="7.27541">
        <ele>778.80517578125</ele>
        <time>2014-03-09T10:07:18Z</time>
      </trkpt>
      <trkpt lat="43.81578" lon="7.27528">
        <ele>774.47924804688</ele>
        <time>2014-03-09T10:07:22Z</time>
      </trkpt>
      <trkpt lat="43.81588" lon="7.27523">
        <ele>770.1533203125</ele>
        <time>2014-03-09T10:07:26Z</time>
      </trkpt>
      <trkpt lat="43.81591" lon="7.27521">
        <ele>769.19213867188</ele>
        <time>2014-03-09T10:07:27Z</time>
      </trkpt>
      <trkpt lat="43.81599" lon="7.27504">
        <ele>765.34692382812</ele>
        <time>2014-03-09T10:07:33Z</time>
      </trkpt>
      <trkpt lat="43.81617" lon="7.27488">
        <ele>760.5400390625</ele>
        <time>2014-03-09T10:07:37Z</time>
      </trkpt>
      <trkpt lat="43.81629" lon="7.27479">
        <ele>758.13696289062</ele>
        <time>2014-03-09T10:07:39Z</time>
      </trkpt>
      <trkpt lat="43.81644" lon="7.27458">
        <ele>754.29174804688</ele>
        <time>2014-03-09T10:07:43Z</time>
      </trkpt>
      <trkpt lat="43.8165" lon="7.27453">
        <ele>753.81103515625</ele>
        <time>2014-03-09T10:07:44Z</time>
      </trkpt>
      <trkpt lat="43.81675" lon="7.27425">
        <ele>750.92700195312</ele>
        <time>2014-03-09T10:07:49Z</time>
      </trkpt>
      <trkpt lat="43.81691" lon="7.27404">
        <ele>749.9658203125</ele>
        <time>2014-03-09T10:07:53Z</time>
      </trkpt>
      <trkpt lat="43.81699" lon="7.27393">
        <ele>751.40771484375</ele>
        <time>2014-03-09T10:07:57Z</time>
      </trkpt>
      <trkpt lat="43.81713" lon="7.27374">
        <ele>752.849609375</ele>
        <time>2014-03-09T10:08:04Z</time>
      </trkpt>
      <trkpt lat="43.81721" lon="7.27354">
        <ele>753.33032226562</ele>
        <time>2014-03-09T10:08:08Z</time>
      </trkpt>
      <trkpt lat="43.81732" lon="7.27333">
        <ele>752.849609375</ele>
        <time>2014-03-09T10:08:12Z</time>
      </trkpt>
      <trkpt lat="43.81743" lon="7.27309">
        <ele>752.849609375</ele>
        <time>2014-03-09T10:08:17Z</time>
      </trkpt>
      <trkpt lat="43.8175" lon="7.27297">
        <ele>752.849609375</ele>
        <time>2014-03-09T10:08:20Z</time>
      </trkpt>
      <trkpt lat="43.81765" lon="7.27271">
        <ele>749.9658203125</ele>
        <time>2014-03-09T10:08:25Z</time>
      </trkpt>
      <trkpt lat="43.81781" lon="7.27241">
        <ele>742.27514648438</ele>
        <time>2014-03-09T10:08:32Z</time>
      </trkpt>
      <trkpt lat="43.81795" lon="7.27224">
        <ele>736.02661132812</ele>
        <time>2014-03-09T10:08:37Z</time>
      </trkpt>
      <trkpt lat="43.81797" lon="7.2722">
        <ele>734.58471679688</ele>
        <time>2014-03-09T10:08:38Z</time>
      </trkpt>
      <trkpt lat="43.8181" lon="7.272">
        <ele>729.29711914062</ele>
        <time>2014-03-09T10:08:42Z</time>
      </trkpt>
      <trkpt lat="43.81817" lon="7.2719">
        <ele>726.89404296875</ele>
        <time>2014-03-09T10:08:44Z</time>
      </trkpt>
      <trkpt lat="43.81829" lon="7.27177">
        <ele>722.08740234375</ele>
        <time>2014-03-09T10:08:47Z</time>
      </trkpt>
      <trkpt lat="43.81846" lon="7.27157">
        <ele>717.76147460938</ele>
        <time>2014-03-09T10:08:51Z</time>
      </trkpt>
      <trkpt lat="43.81857" lon="7.2714">
        <ele>714.39672851562</ele>
        <time>2014-03-09T10:08:54Z</time>
      </trkpt>
      <trkpt lat="43.81875" lon="7.2711">
        <ele>710.55151367188</ele>
        <time>2014-03-09T10:08:59Z</time>
      </trkpt>
      <trkpt lat="43.81897" lon="7.27082">
        <ele>706.70629882812</ele>
        <time>2014-03-09T10:09:04Z</time>
      </trkpt>
      <trkpt lat="43.81902" lon="7.27075">
        <ele>706.70629882812</ele>
        <time>2014-03-09T10:09:05Z</time>
      </trkpt>
      <trkpt lat="43.81913" lon="7.27061">
        <ele>705.7451171875</ele>
        <time>2014-03-09T10:09:07Z</time>
      </trkpt>
      <trkpt lat="43.81928" lon="7.27042">
        <ele>704.30322265625</ele>
        <time>2014-03-09T10:09:10Z</time>
      </trkpt>
      <trkpt lat="43.81946" lon="7.27028">
        <ele>702.86108398438</ele>
        <time>2014-03-09T10:09:14Z</time>
      </trkpt>
      <trkpt lat="43.81949" lon="7.27023">
        <ele>702.38037109375</ele>
        <time>2014-03-09T10:09:16Z</time>
      </trkpt>
      <trkpt lat="43.81955" lon="7.27007">
        <ele>700.9384765625</ele>
        <time>2014-03-09T10:09:22Z</time>
      </trkpt>
      <trkpt lat="43.81963" lon="7.27">
        <ele>698.05444335938</ele>
        <time>2014-03-09T10:09:26Z</time>
      </trkpt>
      <trkpt lat="43.81971" lon="7.26994">
        <ele>695.65112304688</ele>
        <time>2014-03-09T10:09:29Z</time>
      </trkpt>
      <trkpt lat="43.81977" lon="7.26992">
        <ele>693.24780273438</ele>
        <time>2014-03-09T10:09:33Z</time>
      </trkpt>
      <trkpt lat="43.8198" lon="7.26982">
        <ele>691.80590820312</ele>
        <time>2014-03-09T10:09:37Z</time>
      </trkpt>
      <trkpt lat="43.81983" lon="7.26978">
        <ele>690.84448242188</ele>
        <time>2014-03-09T10:09:39Z</time>
      </trkpt>
      <trkpt lat="43.8199" lon="7.26969">
        <ele>688.44140625</ele>
        <time>2014-03-09T10:09:43Z</time>
      </trkpt>
      <trkpt lat="43.81995" lon="7.26967">
        <ele>687.47998046875</ele>
        <time>2014-03-09T10:09:45Z</time>
      </trkpt>
      <trkpt lat="43.82002" lon="7.26955">
        <ele>683.63452148438</ele>
        <time>2014-03-09T10:09:50Z</time>
      </trkpt>
      <trkpt lat="43.82009" lon="7.26951">
        <ele>681.2314453125</ele>
        <time>2014-03-09T10:09:53Z</time>
      </trkpt>
      <trkpt lat="43.8201" lon="7.26952">
        <ele>680.75073242188</ele>
        <time>2014-03-09T10:09:54Z</time>
      </trkpt>
      <trkpt lat="43.82013" lon="7.26957">
        <ele>678.828125</ele>
        <time>2014-03-09T10:09:56Z</time>
      </trkpt>
      <trkpt lat="43.82022" lon="7.26951">
        <ele>674.98291015625</ele>
        <time>2014-03-09T10:10:01Z</time>
      </trkpt>
      <trkpt lat="43.82025" lon="7.26949">
        <ele>674.50219726562</ele>
        <time>2014-03-09T10:10:02Z</time>
      </trkpt>
      <trkpt lat="43.82033" lon="7.26942">
        <ele>670.65698242188</ele>
        <time>2014-03-09T10:10:06Z</time>
      </trkpt>
      <trkpt lat="43.82037" lon="7.26932">
        <ele>668.25366210938</ele>
        <time>2014-03-09T10:10:10Z</time>
      </trkpt>
      <trkpt lat="43.82038" lon="7.26931">
        <ele>667.29223632812</ele>
        <time>2014-03-09T10:10:11Z</time>
      </trkpt>
      <trkpt lat="43.82043" lon="7.26933">
        <ele>664.408203125</ele>
        <time>2014-03-09T10:10:14Z</time>
      </trkpt>
      <trkpt lat="43.8205" lon="7.2693">
        <ele>662.00512695312</ele>
        <time>2014-03-09T10:10:18Z</time>
      </trkpt>
      <trkpt lat="43.82051" lon="7.26922">
        <ele>660.56298828125</ele>
        <time>2014-03-09T10:10:21Z</time>
      </trkpt>
      <trkpt lat="43.82054" lon="7.26911">
        <ele>657.67919921875</ele>
        <time>2014-03-09T10:10:24Z</time>
      </trkpt>
      <trkpt lat="43.8205" lon="7.26887">
        <ele>653.35327148438</ele>
        <time>2014-03-09T10:10:29Z</time>
      </trkpt>
      <trkpt lat="43.82045" lon="7.26876">
        <ele>650.94970703125</ele>
        <time>2014-03-09T10:10:32Z</time>
      </trkpt>
      <trkpt lat="43.82044" lon="7.26865">
        <ele>647.1044921875</ele>
        <time>2014-03-09T10:10:36Z</time>
      </trkpt>
      <trkpt lat="43.82047" lon="7.26859">
        <ele>645.18188476562</ele>
        <time>2014-03-09T10:10:39Z</time>
      </trkpt>
      <trkpt lat="43.82038" lon="7.26838">
        <ele>639.89477539062</ele>
        <time>2014-03-09T10:10:44Z</time>
      </trkpt>
      <trkpt lat="43.82031" lon="7.26829">
        <ele>637.0107421875</ele>
        <time>2014-03-09T10:10:47Z</time>
      </trkpt>
      <trkpt lat="43.82033" lon="7.26822">
        <ele>635.56860351562</ele>
        <time>2014-03-09T10:10:51Z</time>
      </trkpt>
      <trkpt lat="43.82036" lon="7.26821">
        <ele>634.607421875</ele>
        <time>2014-03-09T10:10:52Z</time>
      </trkpt>
      <trkpt lat="43.82046" lon="7.26816">
        <ele>632.2041015625</ele>
        <time>2014-03-09T10:10:55Z</time>
      </trkpt>
      <trkpt lat="43.82056" lon="7.26814">
        <ele>629.80078125</ele>
        <time>2014-03-09T10:10:59Z</time>
      </trkpt>
      <trkpt lat="43.82055" lon="7.2681">
        <ele>629.32006835938</ele>
        <time>2014-03-09T10:11:04Z</time>
      </trkpt>
      <trkpt lat="43.82046" lon="7.26796">
        <ele>626.43627929688</ele>
        <time>2014-03-09T10:11:08Z</time>
      </trkpt>
      <trkpt lat="43.82039" lon="7.26788">
        <ele>624.99438476562</ele>
        <time>2014-03-09T10:11:11Z</time>
      </trkpt>
      <trkpt lat="43.82041" lon="7.26781">
        <ele>623.55249023438</ele>
        <time>2014-03-09T10:11:15Z</time>
      </trkpt>
      <trkpt lat="43.82055" lon="7.26773">
        <ele>620.66845703125</ele>
        <time>2014-03-09T10:11:19Z</time>
      </trkpt>
      <trkpt lat="43.82064" lon="7.26768">
        <ele>619.70703125</ele>
        <time>2014-03-09T10:11:23Z</time>
      </trkpt>
      <trkpt lat="43.82074" lon="7.26764">
        <ele>617.3037109375</ele>
        <time>2014-03-09T10:11:27Z</time>
      </trkpt>
      <trkpt lat="43.82077" lon="7.26755">
        <ele>615.38110351562</ele>
        <time>2014-03-09T10:11:30Z</time>
      </trkpt>
      <trkpt lat="43.82072" lon="7.26742">
        <ele>612.0166015625</ele>
        <time>2014-03-09T10:11:34Z</time>
      </trkpt>
      <trkpt lat="43.82066" lon="7.26733">
        <ele>609.13256835938</ele>
        <time>2014-03-09T10:11:38Z</time>
      </trkpt>
      <trkpt lat="43.82064" lon="7.26724">
        <ele>605.76806640625</ele>
        <time>2014-03-09T10:11:42Z</time>
      </trkpt>
      <trkpt lat="43.82063" lon="7.26717">
        <ele>603.84521484375</ele>
        <time>2014-03-09T10:11:45Z</time>
      </trkpt>
      <trkpt lat="43.82065" lon="7.26707">
        <ele>601.44189453125</ele>
        <time>2014-03-09T10:11:49Z</time>
      </trkpt>
      <trkpt lat="43.82064" lon="7.26702">
        <ele>600</ele>
        <time>2014-03-09T10:11:52Z</time>
      </trkpt>
      <trkpt lat="43.82073" lon="7.26696">
        <ele>598.55786132812</ele>
        <time>2014-03-09T10:11:56Z</time>
      </trkpt>
      <trkpt lat="43.82093" lon="7.26691">
        <ele>593.27075195312</ele>
        <time>2014-03-09T10:12:01Z</time>
      </trkpt>
      <trkpt lat="43.82108" lon="7.26691">
        <ele>589.42553710938</ele>
        <time>2014-03-09T10:12:05Z</time>
      </trkpt>
      <trkpt lat="43.8211" lon="7.26686">
        <ele>587.02197265625</ele>
        <time>2014-03-09T10:12:09Z</time>
      </trkpt>
      <trkpt lat="43.82114" lon="7.26682">
        <ele>585.099609375</ele>
        <time>2014-03-09T10:12:13Z</time>
      </trkpt>
      <trkpt lat="43.82126" lon="7.26683">
        <ele>582.21557617188</ele>
        <time>2014-03-09T10:12:17Z</time>
      </trkpt>
      <trkpt lat="43.82129" lon="7.26687">
        <ele>582.21557617188</ele>
        <time>2014-03-09T10:12:20Z</time>
      </trkpt>
      <trkpt lat="43.8213" lon="7.26703">
        <ele>581.25439453125</ele>
        <time>2014-03-09T10:12:26Z</time>
      </trkpt>
      <trkpt lat="43.82132" lon="7.26733">
        <ele>583.1767578125</ele>
        <time>2014-03-09T10:12:32Z</time>
      </trkpt>
      <trkpt lat="43.82132" lon="7.26752">
        <ele>583.1767578125</ele>
        <time>2014-03-09T10:12:37Z</time>
      </trkpt>
      <trkpt lat="43.82127" lon="7.26767">
        <ele>582.6962890625</ele>
        <time>2014-03-09T10:12:43Z</time>
      </trkpt>
      <trkpt lat="43.82125" lon="7.26778">
        <ele>582.6962890625</ele>
        <time>2014-03-09T10:12:48Z</time>
      </trkpt>
      <trkpt lat="43.82124" lon="7.26796">
        <ele>582.6962890625</ele>
        <time>2014-03-09T10:12:55Z</time>
      </trkpt>
      <trkpt lat="43.82127" lon="7.26818">
        <ele>586.06079101562</ele>
        <time>2014-03-09T10:13:03Z</time>
      </trkpt>
      <trkpt lat="43.82131" lon="7.26831">
        <ele>586.54150390625</ele>
        <time>2014-03-09T10:13:08Z</time>
      </trkpt>
      <trkpt lat="43.82137" lon="7.26844">
        <ele>587.9833984375</ele>
        <time>2014-03-09T10:13:13Z</time>
      </trkpt>
      <trkpt lat="43.82138" lon="7.26861">
        <ele>586.54150390625</ele>
        <time>2014-03-09T10:13:18Z</time>
      </trkpt>
      <trkpt lat="43.82142" lon="7.26875">
        <ele>589.90625</ele>
        <time>2014-03-09T10:13:23Z</time>
      </trkpt>
      <trkpt lat="43.82145" lon="7.26887">
        <ele>591.82885742188</ele>
        <time>2014-03-09T10:13:27Z</time>
      </trkpt>
      <trkpt lat="43.8215" lon="7.26899">
        <ele>594.23217773438</ele>
        <time>2014-03-09T10:13:32Z</time>
      </trkpt>
      <trkpt lat="43.82152" lon="7.26906">
        <ele>594.71264648438</ele>
        <time>2014-03-09T10:13:35Z</time>
      </trkpt>
      <trkpt lat="43.82154" lon="7.26927">
        <ele>592.79028320312</ele>
        <time>2014-03-09T10:13:43Z</time>
      </trkpt>
      <trkpt lat="43.82157" lon="7.26944">
        <ele>593.75146484375</ele>
        <time>2014-03-09T10:13:49Z</time>
      </trkpt>
      <trkpt lat="43.82159" lon="7.26962">
        <ele>596.15478515625</ele>
        <time>2014-03-09T10:13:54Z</time>
      </trkpt>
      <trkpt lat="43.82161" lon="7.26978">
        <ele>596.63549804688</ele>
        <time>2014-03-09T10:13:59Z</time>
      </trkpt>
      <trkpt lat="43.82164" lon="7.26994">
        <ele>600</ele>
        <time>2014-03-09T10:14:04Z</time>
      </trkpt>
      <trkpt lat="43.82167" lon="7.27005">
        <ele>600</ele>
        <time>2014-03-09T10:14:10Z</time>
      </trkpt>
      <trkpt lat="43.82168" lon="7.27007">
        <ele>597.5966796875</ele>
        <time>2014-03-09T10:14:12Z</time>
      </trkpt>
      <trkpt lat="43.82172" lon="7.27004">
        <ele>592.3095703125</ele>
        <time>2014-03-09T10:14:16Z</time>
      </trkpt>
      <trkpt lat="43.82176" lon="7.27003">
        <ele>590.86743164062</ele>
        <time>2014-03-09T10:14:21Z</time>
      </trkpt>
      <trkpt lat="43.82179" lon="7.27003">
        <ele>590.86743164062</ele>
        <time>2014-03-09T10:14:26Z</time>
      </trkpt>
      <trkpt lat="43.82184" lon="7.27001">
        <ele>591.34814453125</ele>
        <time>2014-03-09T10:14:33Z</time>
      </trkpt>
      <trkpt lat="43.82191" lon="7.27001">
        <ele>592.3095703125</ele>
        <time>2014-03-09T10:14:40Z</time>
      </trkpt>
      <trkpt lat="43.82192" lon="7.27004">
        <ele>592.3095703125</ele>
        <time>2014-03-09T10:14:44Z</time>
      </trkpt>
      <trkpt lat="43.82187" lon="7.27008">
        <ele>594.71264648438</ele>
        <time>2014-03-09T10:14:50Z</time>
      </trkpt>
      <trkpt lat="43.82183" lon="7.27015">
        <ele>595.193359375</ele>
        <time>2014-03-09T10:14:56Z</time>
      </trkpt>
      <trkpt lat="43.82182" lon="7.27021">
        <ele>597.11596679688</ele>
        <time>2014-03-09T10:15:00Z</time>
      </trkpt>
      <trkpt lat="43.82185" lon="7.27022">
        <ele>600.48071289062</ele>
        <time>2014-03-09T10:15:06Z</time>
      </trkpt>
      <trkpt lat="43.8219" lon="7.27018">
        <ele>602.8837890625</ele>
        <time>2014-03-09T10:15:13Z</time>
      </trkpt>
      <trkpt lat="43.82195" lon="7.27015">
        <ele>603.36450195312</ele>
        <time>2014-03-09T10:15:20Z</time>
      </trkpt>
      <trkpt lat="43.82202" lon="7.2701">
        <ele>603.36450195312</ele>
        <time>2014-03-09T10:15:27Z</time>
      </trkpt>
      <trkpt lat="43.82203" lon="7.2701">
        <ele>602.8837890625</ele>
        <time>2014-03-09T10:15:28Z</time>
      </trkpt>
      <trkpt lat="43.82209" lon="7.27007">
        <ele>602.8837890625</ele>
        <time>2014-03-09T10:15:35Z</time>
      </trkpt>
      <trkpt lat="43.82217" lon="7.27001">
        <ele>603.36450195312</ele>
        <time>2014-03-09T10:15:45Z</time>
      </trkpt>
      <trkpt lat="43.82224" lon="7.26998">
        <ele>604.806640625</ele>
        <time>2014-03-09T10:15:52Z</time>
      </trkpt>
      <trkpt lat="43.82232" lon="7.26995">
        <ele>606.72924804688</ele>
        <time>2014-03-09T10:16:01Z</time>
      </trkpt>
      <trkpt lat="43.82237" lon="7.26994">
        <ele>605.28735351562</ele>
        <time>2014-03-09T10:16:09Z</time>
      </trkpt>
      <trkpt lat="43.82241" lon="7.26998">
        <ele>607.69067382812</ele>
        <time>2014-03-09T10:16:16Z</time>
      </trkpt>
      <trkpt lat="43.82246" lon="7.27001">
        <ele>612.0166015625</ele>
        <time>2014-03-09T10:16:24Z</time>
      </trkpt>
      <trkpt lat="43.82251" lon="7.27001">
        <ele>614.41967773438</ele>
        <time>2014-03-09T10:16:30Z</time>
      </trkpt>
      <trkpt lat="43.82256" lon="7.27001">
        <ele>615.38110351562</ele>
        <time>2014-03-09T10:16:37Z</time>
      </trkpt>
      <trkpt lat="43.8226" lon="7.27">
        <ele>616.34228515625</ele>
        <time>2014-03-09T10:16:44Z</time>
      </trkpt>
      <trkpt lat="43.82262" lon="7.27003">
        <ele>618.74560546875</ele>
        <time>2014-03-09T10:16:49Z</time>
      </trkpt>
      <trkpt lat="43.82259" lon="7.27006">
        <ele>622.1103515625</ele>
        <time>2014-03-09T10:16:55Z</time>
      </trkpt>
      <trkpt lat="43.82254" lon="7.27013">
        <ele>624.99438476562</ele>
        <time>2014-03-09T10:17:04Z</time>
      </trkpt>
      <trkpt lat="43.8225" lon="7.2702">
        <ele>625.47485351562</ele>
        <time>2014-03-09T10:17:10Z</time>
      </trkpt>
      <trkpt lat="43.8225" lon="7.27021">
        <ele>625.47485351562</ele>
        <time>2014-03-09T10:17:11Z</time>
      </trkpt>
      <trkpt lat="43.82246" lon="7.2703">
        <ele>625.47485351562</ele>
        <time>2014-03-09T10:17:20Z</time>
      </trkpt>
      <trkpt lat="43.82245" lon="7.27034">
        <ele>625.95556640625</ele>
        <time>2014-03-09T10:17:25Z</time>
      </trkpt>
      <trkpt lat="43.82249" lon="7.27031">
        <ele>626.9169921875</ele>
        <time>2014-03-09T10:17:33Z</time>
      </trkpt>
      <trkpt lat="43.82254" lon="7.2703">
        <ele>628.35888671875</ele>
        <time>2014-03-09T10:17:40Z</time>
      </trkpt>
      <trkpt lat="43.82259" lon="7.27027">
        <ele>629.32006835938</ele>
        <time>2014-03-09T10:17:48Z</time>
      </trkpt>
      <trkpt lat="43.82265" lon="7.27026">
        <ele>630.76220703125</ele>
        <time>2014-03-09T10:17:57Z</time>
      </trkpt>
      <trkpt lat="43.82269" lon="7.27025">
        <ele>631.72338867188</ele>
        <time>2014-03-09T10:18:04Z</time>
      </trkpt>
      <trkpt lat="43.82275" lon="7.27022">
        <ele>629.80078125</ele>
        <time>2014-03-09T10:18:13Z</time>
      </trkpt>
      <trkpt lat="43.82281" lon="7.27017">
        <ele>630.28149414062</ele>
        <time>2014-03-09T10:18:22Z</time>
      </trkpt>
      <trkpt lat="43.82287" lon="7.2701">
        <ele>631.24291992188</ele>
        <time>2014-03-09T10:18:31Z</time>
      </trkpt>
      <trkpt lat="43.82293" lon="7.27005">
        <ele>631.24291992188</ele>
        <time>2014-03-09T10:18:37Z</time>
      </trkpt>
      <trkpt lat="43.82294" lon="7.27001">
        <ele>633.16528320312</ele>
        <time>2014-03-09T10:18:41Z</time>
      </trkpt>
      <trkpt lat="43.823" lon="7.26989">
        <ele>635.56860351562</ele>
        <time>2014-03-09T10:18:50Z</time>
      </trkpt>
      <trkpt lat="43.82304" lon="7.26983">
        <ele>638.93359375</ele>
        <time>2014-03-09T10:18:57Z</time>
      </trkpt>
      <trkpt lat="43.82311" lon="7.26975">
        <ele>638.93359375</ele>
        <time>2014-03-09T10:19:05Z</time>
      </trkpt>
      <trkpt lat="43.82314" lon="7.26971">
        <ele>639.89477539062</ele>
        <time>2014-03-09T10:19:09Z</time>
      </trkpt>
      <trkpt lat="43.8232" lon="7.26963">
        <ele>640.37548828125</ele>
        <time>2014-03-09T10:19:18Z</time>
      </trkpt>
      <trkpt lat="43.82323" lon="7.2696">
        <ele>640.37548828125</ele>
        <time>2014-03-09T10:19:21Z</time>
      </trkpt>
      <trkpt lat="43.82332" lon="7.26956">
        <ele>641.33666992188</ele>
        <time>2014-03-09T10:19:31Z</time>
      </trkpt>
      <trkpt lat="43.82339" lon="7.26956">
        <ele>642.29809570312</ele>
        <time>2014-03-09T10:19:38Z</time>
      </trkpt>
      <trkpt lat="43.82346" lon="7.26958">
        <ele>645.66259765625</ele>
        <time>2014-03-09T10:19:45Z</time>
      </trkpt>
      <trkpt lat="43.8235" lon="7.26962">
        <ele>647.58520507812</ele>
        <time>2014-03-09T10:19:51Z</time>
      </trkpt>
      <trkpt lat="43.82358" lon="7.26967">
        <ele>650.94970703125</ele>
        <time>2014-03-09T10:20:00Z</time>
      </trkpt>
      <trkpt lat="43.82364" lon="7.26972">
        <ele>654.31469726562</ele>
        <time>2014-03-09T10:20:07Z</time>
      </trkpt>
      <trkpt lat="43.82365" lon="7.26973">
        <ele>654.31469726562</ele>
        <time>2014-03-09T10:20:08Z</time>
      </trkpt>
      <trkpt lat="43.82368" lon="7.26983">
        <ele>655.27587890625</ele>
        <time>2014-03-09T10:20:15Z</time>
      </trkpt>
      <trkpt lat="43.82371" lon="7.26995">
        <ele>655.27587890625</ele>
        <time>2014-03-09T10:20:20Z</time>
      </trkpt>
      <trkpt lat="43.82377" lon="7.2701">
        <ele>654.31469726562</ele>
        <time>2014-03-09T10:20:25Z</time>
      </trkpt>
      <trkpt lat="43.82388" lon="7.27017">
        <ele>651.43041992188</ele>
        <time>2014-03-09T10:20:29Z</time>
      </trkpt>
      <trkpt lat="43.82404" lon="7.27026">
        <ele>649.5078125</ele>
        <time>2014-03-09T10:20:34Z</time>
      </trkpt>
      <trkpt lat="43.82418" lon="7.27037">
        <ele>647.1044921875</ele>
        <time>2014-03-09T10:20:39Z</time>
      </trkpt>
      <trkpt lat="43.82434" lon="7.27037">
        <ele>645.18188476562</ele>
        <time>2014-03-09T10:20:43Z</time>
      </trkpt>
      <trkpt lat="43.8246" lon="7.27027">
        <ele>644.701171875</ele>
        <time>2014-03-09T10:20:49Z</time>
      </trkpt>
      <trkpt lat="43.82466" lon="7.27024">
        <ele>644.701171875</ele>
        <time>2014-03-09T10:20:50Z</time>
      </trkpt>
      <trkpt lat="43.82477" lon="7.27022">
        <ele>645.66259765625</ele>
        <time>2014-03-09T10:20:52Z</time>
      </trkpt>
      <trkpt lat="43.82489" lon="7.27014">
        <ele>646.6240234375</ele>
        <time>2014-03-09T10:20:55Z</time>
      </trkpt>
      <trkpt lat="43.82497" lon="7.27009">
        <ele>646.14331054688</ele>
        <time>2014-03-09T10:21:00Z</time>
      </trkpt>
      <trkpt lat="43.825" lon="7.27011">
        <ele>646.6240234375</ele>
        <time>2014-03-09T10:21:03Z</time>
      </trkpt>
      <trkpt lat="43.8251" lon="7.27006">
        <ele>648.54638671875</ele>
        <time>2014-03-09T10:21:10Z</time>
      </trkpt>
      <trkpt lat="43.82513" lon="7.27004">
        <ele>649.5078125</ele>
        <time>2014-03-09T10:21:17Z</time>
      </trkpt>
      <trkpt lat="43.82519" lon="7.27004">
        <ele>650.46923828125</ele>
        <time>2014-03-09T10:21:24Z</time>
      </trkpt>
      <trkpt lat="43.82525" lon="7.27007">
        <ele>650.94970703125</ele>
        <time>2014-03-09T10:21:29Z</time>
      </trkpt>
      <trkpt lat="43.82532" lon="7.27009">
        <ele>652.87255859375</ele>
        <time>2014-03-09T10:21:36Z</time>
      </trkpt>
      <trkpt lat="43.82541" lon="7.27009">
        <ele>654.79516601562</ele>
        <time>2014-03-09T10:21:44Z</time>
      </trkpt>
      <trkpt lat="43.8255" lon="7.27007">
        <ele>656.23706054688</ele>
        <time>2014-03-09T10:21:51Z</time>
      </trkpt>
      <trkpt lat="43.8256" lon="7.26997">
        <ele>658.15991210938</ele>
        <time>2014-03-09T10:21:57Z</time>
      </trkpt>
      <trkpt lat="43.82571" lon="7.26987">
        <ele>660.08227539062</ele>
        <time>2014-03-09T10:22:03Z</time>
      </trkpt>
      <trkpt lat="43.82572" lon="7.26985">
        <ele>659.60180664062</ele>
        <time>2014-03-09T10:22:04Z</time>
      </trkpt>
      <trkpt lat="43.82582" lon="7.2698">
        <ele>660.08227539062</ele>
        <time>2014-03-09T10:22:09Z</time>
      </trkpt>
      <trkpt lat="43.8259" lon="7.26972">
        <ele>660.56298828125</ele>
        <time>2014-03-09T10:22:13Z</time>
      </trkpt>
      <trkpt lat="43.826" lon="7.2696">
        <ele>660.56298828125</ele>
        <time>2014-03-09T10:22:17Z</time>
      </trkpt>
      <trkpt lat="43.82613" lon="7.26956">
        <ele>660.56298828125</ele>
        <time>2014-03-09T10:22:21Z</time>
      </trkpt>
      <trkpt lat="43.82627" lon="7.26958">
        <ele>662.00512695312</ele>
        <time>2014-03-09T10:22:28Z</time>
      </trkpt>
      <trkpt lat="43.82631" lon="7.26958">
        <ele>663.44702148438</ele>
        <time>2014-03-09T10:22:33Z</time>
      </trkpt>
      <trkpt lat="43.82633" lon="7.2696">
        <ele>663.44702148438</ele>
        <time>2014-03-09T10:22:39Z</time>
      </trkpt>
      <trkpt lat="43.82635" lon="7.26961">
        <ele>665.85034179688</ele>
        <time>2014-03-09T10:22:47Z</time>
      </trkpt>
      <trkpt lat="43.82638" lon="7.26964">
        <ele>667.29223632812</ele>
        <time>2014-03-09T10:22:53Z</time>
      </trkpt>
      <trkpt lat="43.82641" lon="7.26973">
        <ele>667.77270507812</ele>
        <time>2014-03-09T10:23:01Z</time>
      </trkpt>
      <trkpt lat="43.82642" lon="7.26975">
        <ele>669.21508789062</ele>
        <time>2014-03-09T10:23:06Z</time>
      </trkpt>
      <trkpt lat="43.82645" lon="7.26978">
        <ele>670.17626953125</ele>
        <time>2014-03-09T10:23:12Z</time>
      </trkpt>
      <trkpt lat="43.82647" lon="7.2698">
        <ele>671.6181640625</ele>
        <time>2014-03-09T10:23:18Z</time>
      </trkpt>
      <trkpt lat="43.82649" lon="7.26981">
        <ele>673.06030273438</ele>
        <time>2014-03-09T10:23:24Z</time>
      </trkpt>
      <trkpt lat="43.82651" lon="7.26983">
        <ele>675.46337890625</ele>
        <time>2014-03-09T10:23:29Z</time>
      </trkpt>
      <trkpt lat="43.82649" lon="7.26985">
        <ele>677.38623046875</ele>
        <time>2014-03-09T10:23:35Z</time>
      </trkpt>
      <trkpt lat="43.82648" lon="7.26987">
        <ele>678.828125</ele>
        <time>2014-03-09T10:23:40Z</time>
      </trkpt>
      <trkpt lat="43.82647" lon="7.26988">
        <ele>680.27001953125</ele>
        <time>2014-03-09T10:23:47Z</time>
      </trkpt>
      <trkpt lat="43.82649" lon="7.26987">
        <ele>682.19262695312</ele>
        <time>2014-03-09T10:23:53Z</time>
      </trkpt>
      <trkpt lat="43.82656" lon="7.26986">
        <ele>683.63452148438</ele>
        <time>2014-03-09T10:24:00Z</time>
      </trkpt>
      <trkpt lat="43.82667" lon="7.26984">
        <ele>683.15380859375</ele>
        <time>2014-03-09T10:24:08Z</time>
      </trkpt>
      <trkpt lat="43.82677" lon="7.2698">
        <ele>683.15380859375</ele>
        <time>2014-03-09T10:24:17Z</time>
      </trkpt>
      <trkpt lat="43.82685" lon="7.26976">
        <ele>683.15380859375</ele>
        <time>2014-03-09T10:24:25Z</time>
      </trkpt>
      <trkpt lat="43.82693" lon="7.2697">
        <ele>683.15380859375</ele>
        <time>2014-03-09T10:24:32Z</time>
      </trkpt>
      <trkpt lat="43.82695" lon="7.26968">
        <ele>683.15380859375</ele>
        <time>2014-03-09T10:24:34Z</time>
      </trkpt>
      <trkpt lat="43.827" lon="7.26969">
        <ele>683.15380859375</ele>
        <time>2014-03-09T10:24:40Z</time>
      </trkpt>
      <trkpt lat="43.82707" lon="7.26959">
        <ele>685.07690429688</ele>
        <time>2014-03-09T10:24:45Z</time>
      </trkpt>
      <trkpt lat="43.82723" lon="7.26943">
        <ele>684.59619140625</ele>
        <time>2014-03-09T10:24:50Z</time>
      </trkpt>
      <trkpt lat="43.82748" lon="7.26924">
        <ele>682.19262695312</ele>
        <time>2014-03-09T10:24:57Z</time>
      </trkpt>
      <trkpt lat="43.8276" lon="7.26914">
        <ele>680.75073242188</ele>
        <time>2014-03-09T10:25:00Z</time>
      </trkpt>
      <trkpt lat="43.82772" lon="7.26902">
        <ele>679.78930664062</ele>
        <time>2014-03-09T10:25:03Z</time>
      </trkpt>
      <trkpt lat="43.82797" lon="7.26888">
        <ele>677.38623046875</ele>
        <time>2014-03-09T10:25:08Z</time>
      </trkpt>
      <trkpt lat="43.82831" lon="7.26877">
        <ele>673.06030273438</ele>
        <time>2014-03-09T10:25:14Z</time>
      </trkpt>
      <trkpt lat="43.82857" lon="7.2688">
        <ele>668.25366210938</ele>
        <time>2014-03-09T10:25:19Z</time>
      </trkpt>
      <trkpt lat="43.82861" lon="7.26881">
        <ele>667.29223632812</ele>
        <time>2014-03-09T10:25:20Z</time>
      </trkpt>
      <trkpt lat="43.82873" lon="7.26887">
        <ele>665.36962890625</ele>
        <time>2014-03-09T10:25:25Z</time>
      </trkpt>
      <trkpt lat="43.82877" lon="7.2689">
        <ele>664.408203125</ele>
        <time>2014-03-09T10:25:27Z</time>
      </trkpt>
      <trkpt lat="43.82881" lon="7.26888">
        <ele>663.44702148438</ele>
        <time>2014-03-09T10:25:31Z</time>
      </trkpt>
      <trkpt lat="43.82878" lon="7.26882">
        <ele>660.08227539062</ele>
        <time>2014-03-09T10:25:36Z</time>
      </trkpt>
      <trkpt lat="43.82878" lon="7.2688">
        <ele>659.12109375</ele>
        <time>2014-03-09T10:25:37Z</time>
      </trkpt>
      <trkpt lat="43.82872" lon="7.26863">
        <ele>654.31469726562</ele>
        <time>2014-03-09T10:25:42Z</time>
      </trkpt>
      <trkpt lat="43.82865" lon="7.26845">
        <ele>649.5078125</ele>
        <time>2014-03-09T10:25:46Z</time>
      </trkpt>
      <trkpt lat="43.82859" lon="7.26828">
        <ele>643.25927734375</ele>
        <time>2014-03-09T10:25:50Z</time>
      </trkpt>
      <trkpt lat="43.82857" lon="7.26825">
        <ele>642.29809570312</ele>
        <time>2014-03-09T10:25:51Z</time>
      </trkpt>
      <trkpt lat="43.82859" lon="7.26812">
        <ele>640.85595703125</ele>
        <time>2014-03-09T10:25:55Z</time>
      </trkpt>
      <trkpt lat="43.82875" lon="7.2681">
        <ele>635.56860351562</ele>
        <time>2014-03-09T10:25:59Z</time>
      </trkpt>
      <trkpt lat="43.82879" lon="7.26811">
        <ele>634.607421875</ele>
        <time>2014-03-09T10:26:00Z</time>
      </trkpt>
      <trkpt lat="43.82898" lon="7.26816">
        <ele>627.87817382812</ele>
        <time>2014-03-09T10:26:05Z</time>
      </trkpt>
      <trkpt lat="43.82911" lon="7.26819">
        <ele>623.55249023438</ele>
        <time>2014-03-09T10:26:08Z</time>
      </trkpt>
      <trkpt lat="43.82927" lon="7.26823">
        <ele>616.82299804688</ele>
        <time>2014-03-09T10:26:13Z</time>
      </trkpt>
      <trkpt lat="43.8293" lon="7.26824">
        <ele>615.38110351562</ele>
        <time>2014-03-09T10:26:14Z</time>
      </trkpt>
      <trkpt lat="43.82932" lon="7.26817">
        <ele>612.4970703125</ele>
        <time>2014-03-09T10:26:18Z</time>
      </trkpt>
      <trkpt lat="43.82935" lon="7.26811">
        <ele>610.09375</ele>
        <time>2014-03-09T10:26:21Z</time>
      </trkpt>
      <trkpt lat="43.82938" lon="7.26808">
        <ele>607.69067382812</ele>
        <time>2014-03-09T10:26:24Z</time>
      </trkpt>
      <trkpt lat="43.82932" lon="7.26799">
        <ele>605.76806640625</ele>
        <time>2014-03-09T10:26:28Z</time>
      </trkpt>
      <trkpt lat="43.82928" lon="7.26791">
        <ele>602.8837890625</ele>
        <time>2014-03-09T10:26:32Z</time>
      </trkpt>
      <trkpt lat="43.82924" lon="7.26787">
        <ele>602.8837890625</ele>
        <time>2014-03-09T10:26:36Z</time>
      </trkpt>
      <trkpt lat="43.82923" lon="7.26787">
        <ele>602.8837890625</ele>
        <time>2014-03-09T10:26:37Z</time>
      </trkpt>
      <trkpt lat="43.82918" lon="7.26776">
        <ele>604.806640625</ele>
        <time>2014-03-09T10:26:43Z</time>
      </trkpt>
      <trkpt lat="43.82916" lon="7.26773">
        <ele>605.28735351562</ele>
        <time>2014-03-09T10:26:46Z</time>
      </trkpt>
      <trkpt lat="43.82916" lon="7.2677">
        <ele>607.2099609375</ele>
        <time>2014-03-09T10:26:48Z</time>
      </trkpt>
      <trkpt lat="43.82919" lon="7.26761">
        <ele>602.8837890625</ele>
        <time>2014-03-09T10:26:53Z</time>
      </trkpt>
      <trkpt lat="43.8292" lon="7.26755">
        <ele>601.44189453125</ele>
        <time>2014-03-09T10:26:56Z</time>
      </trkpt>
      <trkpt lat="43.82915" lon="7.2675">
        <ele>599.51928710938</ele>
        <time>2014-03-09T10:27:01Z</time>
      </trkpt>
      <trkpt lat="43.82914" lon="7.26747">
        <ele>597.11596679688</ele>
        <time>2014-03-09T10:27:16Z</time>
      </trkpt>
      <trkpt lat="43.82918" lon="7.2674">
        <ele>593.27075195312</ele>
        <time>2014-03-09T10:27:24Z</time>
      </trkpt>
      <trkpt lat="43.82918" lon="7.26734">
        <ele>591.34814453125</ele>
        <time>2014-03-09T10:27:28Z</time>
      </trkpt>
      <trkpt lat="43.82917" lon="7.2672">
        <ele>586.06079101562</ele>
        <time>2014-03-09T10:27:33Z</time>
      </trkpt>
      <trkpt lat="43.82924" lon="7.26714">
        <ele>582.21557617188</ele>
        <time>2014-03-09T10:27:37Z</time>
      </trkpt>
      <trkpt lat="43.82933" lon="7.2671">
        <ele>577.8896484375</ele>
        <time>2014-03-09T10:27:41Z</time>
      </trkpt>
      <trkpt lat="43.82935" lon="7.26707">
        <ele>576.44775390625</ele>
        <time>2014-03-09T10:27:42Z</time>
      </trkpt>
      <trkpt lat="43.8294" lon="7.26691">
        <ele>573.08325195312</ele>
        <time>2014-03-09T10:27:47Z</time>
      </trkpt>
      <trkpt lat="43.82942" lon="7.26682">
        <ele>572.6025390625</ele>
        <time>2014-03-09T10:27:49Z</time>
      </trkpt>
      <trkpt lat="43.82942" lon="7.26671">
        <ele>567.79565429688</ele>
        <time>2014-03-09T10:27:54Z</time>
      </trkpt>
      <trkpt lat="43.82943" lon="7.26669">
        <ele>567.79565429688</ele>
        <time>2014-03-09T10:27:56Z</time>
      </trkpt>
      <trkpt lat="43.82946" lon="7.26659">
        <ele>565.87329101562</ele>
        <time>2014-03-09T10:28:01Z</time>
      </trkpt>
      <trkpt lat="43.82942" lon="7.26651">
        <ele>563.46997070312</ele>
        <time>2014-03-09T10:28:05Z</time>
      </trkpt>
      <trkpt lat="43.82943" lon="7.26641">
        <ele>560.10522460938</ele>
        <time>2014-03-09T10:28:09Z</time>
      </trkpt>
      <trkpt lat="43.82944" lon="7.26638">
        <ele>559.62475585938</ele>
        <time>2014-03-09T10:28:10Z</time>
      </trkpt>
      <trkpt lat="43.82954" lon="7.26625">
        <ele>558.66333007812</ele>
        <time>2014-03-09T10:28:15Z</time>
      </trkpt>
      <trkpt lat="43.82961" lon="7.26612">
        <ele>556.26000976562</ele>
        <time>2014-03-09T10:28:19Z</time>
      </trkpt>
      <trkpt lat="43.82972" lon="7.266">
        <ele>554.81787109375</ele>
        <time>2014-03-09T10:28:23Z</time>
      </trkpt>
      <trkpt lat="43.82977" lon="7.26597">
        <ele>555.29858398438</ele>
        <time>2014-03-09T10:28:27Z</time>
      </trkpt>
      <trkpt lat="43.82985" lon="7.26592">
        <ele>558.18286132812</ele>
        <time>2014-03-09T10:28:36Z</time>
      </trkpt>
      <trkpt lat="43.82986" lon="7.26592">
        <ele>558.18286132812</ele>
        <time>2014-03-09T10:28:37Z</time>
      </trkpt>
      <trkpt lat="43.8299" lon="7.26588">
        <ele>558.66333007812</ele>
        <time>2014-03-09T10:28:43Z</time>
      </trkpt>
      <trkpt lat="43.8299" lon="7.26587">
        <ele>558.66333007812</ele>
        <time>2014-03-09T10:28:44Z</time>
      </trkpt>
      <trkpt lat="43.83004" lon="7.26579">
        <ele>559.14404296875</ele>
        <time>2014-03-09T10:28:51Z</time>
      </trkpt>
      <trkpt lat="43.83013" lon="7.2657">
        <ele>558.18286132812</ele>
        <time>2014-03-09T10:28:56Z</time>
      </trkpt>
      <trkpt lat="43.83024" lon="7.26561">
        <ele>556.74072265625</ele>
        <time>2014-03-09T10:29:00Z</time>
      </trkpt>
      <trkpt lat="43.83044" lon="7.26552">
        <ele>555.779296875</ele>
        <time>2014-03-09T10:29:06Z</time>
      </trkpt>
      <trkpt lat="43.83051" lon="7.2655">
        <ele>555.779296875</ele>
        <time>2014-03-09T10:29:09Z</time>
      </trkpt>
      <trkpt lat="43.83058" lon="7.26548">
        <ele>555.29858398438</ele>
        <time>2014-03-09T10:29:14Z</time>
      </trkpt>
      <trkpt lat="43.83061" lon="7.26548">
        <ele>555.29858398438</ele>
        <time>2014-03-09T10:29:19Z</time>
      </trkpt>
      <trkpt lat="43.83064" lon="7.26548">
        <ele>555.29858398438</ele>
        <time>2014-03-09T10:29:24Z</time>
      </trkpt>
      <trkpt lat="43.8307" lon="7.26547">
        <ele>555.779296875</ele>
        <time>2014-03-09T10:29:29Z</time>
      </trkpt>
      <trkpt lat="43.83081" lon="7.26544">
        <ele>555.779296875</ele>
        <time>2014-03-09T10:29:36Z</time>
      </trkpt>
      <trkpt lat="43.83091" lon="7.26547">
        <ele>556.26000976562</ele>
        <time>2014-03-09T10:29:42Z</time>
      </trkpt>
      <trkpt lat="43.83095" lon="7.26549">
        <ele>556.26000976562</ele>
        <time>2014-03-09T10:29:44Z</time>
      </trkpt>
      <trkpt lat="43.83104" lon="7.26546">
        <ele>555.779296875</ele>
        <time>2014-03-09T10:29:50Z</time>
      </trkpt>
      <trkpt lat="43.83108" lon="7.26546">
        <ele>555.779296875</ele>
        <time>2014-03-09T10:29:53Z</time>
      </trkpt>
      <trkpt lat="43.83118" lon="7.26548">
        <ele>557.7021484375</ele>
        <time>2014-03-09T10:29:59Z</time>
      </trkpt>
      <trkpt lat="43.83119" lon="7.26548">
        <ele>557.7021484375</ele>
        <time>2014-03-09T10:30:00Z</time>
      </trkpt>
      <trkpt lat="43.83122" lon="7.26548">
        <ele>558.18286132812</ele>
        <time>2014-03-09T10:30:02Z</time>
      </trkpt>
      <trkpt lat="43.83128" lon="7.26551">
        <ele>558.66333007812</ele>
        <time>2014-03-09T10:30:06Z</time>
      </trkpt>
      <trkpt lat="43.83134" lon="7.26552">
        <ele>560.5859375</ele>
        <time>2014-03-09T10:30:12Z</time>
      </trkpt>
      <trkpt lat="43.83139" lon="7.26555">
        <ele>562.50854492188</ele>
        <time>2014-03-09T10:30:19Z</time>
      </trkpt>
      <trkpt lat="43.83141" lon="7.26556">
        <ele>564.43115234375</ele>
        <time>2014-03-09T10:30:24Z</time>
      </trkpt>
      <trkpt lat="43.83143" lon="7.26556">
        <ele>565.392578125</ele>
        <time>2014-03-09T10:30:30Z</time>
      </trkpt>
      <trkpt lat="43.83143" lon="7.26555">
        <ele>571.16040039062</ele>
        <time>2014-03-09T10:30:46Z</time>
      </trkpt>
      <trkpt lat="43.83143" lon="7.26557">
        <ele>575.005859375</ele>
        <time>2014-03-09T10:30:58Z</time>
      </trkpt>
      <trkpt lat="43.83142" lon="7.26558">
        <ele>571.64086914062</ele>
        <time>2014-03-09T10:31:07Z</time>
      </trkpt>
      <trkpt lat="43.83142" lon="7.26558">
        <ele>573.08325195312</ele>
        <time>2014-03-09T10:31:13Z</time>
      </trkpt>
      <trkpt lat="43.83153" lon="7.26553">
        <ele>573.56396484375</ele>
        <time>2014-03-09T10:31:20Z</time>
      </trkpt>
      <trkpt lat="43.83158" lon="7.26552">
        <ele>573.08325195312</ele>
        <time>2014-03-09T10:31:23Z</time>
      </trkpt>
      <trkpt lat="43.83162" lon="7.26551">
        <ele>572.6025390625</ele>
        <time>2014-03-09T10:31:28Z</time>
      </trkpt>
      <trkpt lat="43.83165" lon="7.2655">
        <ele>572.6025390625</ele>
        <time>2014-03-09T10:31:31Z</time>
      </trkpt>
      <trkpt lat="43.83173" lon="7.26549">
        <ele>573.08325195312</ele>
        <time>2014-03-09T10:31:38Z</time>
      </trkpt>
      <trkpt lat="43.83179" lon="7.26552">
        <ele>573.56396484375</ele>
        <time>2014-03-09T10:31:45Z</time>
      </trkpt>
      <trkpt lat="43.83183" lon="7.26552">
        <ele>573.56396484375</ele>
        <time>2014-03-09T10:31:50Z</time>
      </trkpt>
      <trkpt lat="43.83191" lon="7.26551">
        <ele>574.04443359375</ele>
        <time>2014-03-09T10:31:58Z</time>
      </trkpt>
      <trkpt lat="43.83199" lon="7.26553">
        <ele>574.04443359375</ele>
        <time>2014-03-09T10:32:06Z</time>
      </trkpt>
      <trkpt lat="43.83206" lon="7.26556">
        <ele>568.75708007812</ele>
        <time>2014-03-09T10:32:13Z</time>
      </trkpt>
      <trkpt lat="43.83216" lon="7.26557">
        <ele>566.83447265625</ele>
        <time>2014-03-09T10:32:21Z</time>
      </trkpt>
      <trkpt lat="43.83229" lon="7.2656">
        <ele>565.87329101562</ele>
        <time>2014-03-09T10:32:31Z</time>
      </trkpt>
      <trkpt lat="43.83235" lon="7.26556">
        <ele>568.2763671875</ele>
        <time>2014-03-09T10:32:39Z</time>
      </trkpt>
      <trkpt lat="43.83241" lon="7.26552">
        <ele>568.75708007812</ele>
        <time>2014-03-09T10:32:44Z</time>
      </trkpt>
      <trkpt lat="43.83251" lon="7.26545">
        <ele>567.79565429688</ele>
        <time>2014-03-09T10:32:52Z</time>
      </trkpt>
      <trkpt lat="43.83253" lon="7.26544">
        <ele>567.79565429688</ele>
        <time>2014-03-09T10:32:54Z</time>
      </trkpt>
      <trkpt lat="43.83263" lon="7.26545">
        <ele>569.71850585938</ele>
        <time>2014-03-09T10:33:02Z</time>
      </trkpt>
      <trkpt lat="43.8327" lon="7.26547">
        <ele>576.92846679688</ele>
        <time>2014-03-09T10:33:09Z</time>
      </trkpt>
      <trkpt lat="43.83276" lon="7.26547">
        <ele>583.1767578125</ele>
        <time>2014-03-09T10:33:17Z</time>
      </trkpt>
      <trkpt lat="43.83282" lon="7.26546">
        <ele>586.06079101562</ele>
        <time>2014-03-09T10:33:24Z</time>
      </trkpt>
      <trkpt lat="43.83286" lon="7.26542">
        <ele>586.54150390625</ele>
        <time>2014-03-09T10:33:28Z</time>
      </trkpt>
      <trkpt lat="43.83294" lon="7.26539">
        <ele>586.06079101562</ele>
        <time>2014-03-09T10:33:35Z</time>
      </trkpt>
      <trkpt lat="43.83303" lon="7.26537">
        <ele>588.94506835938</ele>
        <time>2014-03-09T10:33:45Z</time>
      </trkpt>
      <trkpt lat="43.83313" lon="7.26534">
        <ele>590.86743164062</ele>
        <time>2014-03-09T10:33:54Z</time>
      </trkpt>
      <trkpt lat="43.83316" lon="7.26533">
        <ele>590.38696289062</ele>
        <time>2014-03-09T10:34:01Z</time>
      </trkpt>
      <trkpt lat="43.83321" lon="7.26526">
        <ele>591.34814453125</ele>
        <time>2014-03-09T10:34:06Z</time>
      </trkpt>
      <trkpt lat="43.83324" lon="7.26524">
        <ele>591.34814453125</ele>
        <time>2014-03-09T10:34:07Z</time>
      </trkpt>
      <trkpt lat="43.83332" lon="7.26519">
        <ele>591.82885742188</ele>
        <time>2014-03-09T10:34:12Z</time>
      </trkpt>
      <trkpt lat="43.83336" lon="7.26517">
        <ele>593.75146484375</ele>
        <time>2014-03-09T10:34:18Z</time>
      </trkpt>
      <trkpt lat="43.83342" lon="7.26518">
        <ele>597.11596679688</ele>
        <time>2014-03-09T10:34:25Z</time>
      </trkpt>
      <trkpt lat="43.83342" lon="7.26518">
        <ele>598.07739257812</ele>
        <time>2014-03-09T10:34:30Z</time>
      </trkpt>
      <trkpt lat="43.83345" lon="7.26518">
        <ele>597.5966796875</ele>
        <time>2014-03-09T10:34:35Z</time>
      </trkpt>
      <trkpt lat="43.83352" lon="7.26517">
        <ele>595.193359375</ele>
        <time>2014-03-09T10:34:40Z</time>
      </trkpt>
      <trkpt lat="43.83361" lon="7.26513">
        <ele>598.07739257812</ele>
        <time>2014-03-09T10:34:49Z</time>
      </trkpt>
      <trkpt lat="43.83366" lon="7.26511">
        <ele>597.11596679688</ele>
        <time>2014-03-09T10:34:53Z</time>
      </trkpt>
      <trkpt lat="43.83372" lon="7.26508">
        <ele>597.5966796875</ele>
        <time>2014-03-09T10:34:59Z</time>
      </trkpt>
      <trkpt lat="43.83373" lon="7.26508">
        <ele>597.5966796875</ele>
        <time>2014-03-09T10:35:00Z</time>
      </trkpt>
      <trkpt lat="43.83375" lon="7.26507">
        <ele>598.07739257812</ele>
        <time>2014-03-09T10:35:02Z</time>
      </trkpt>
      <trkpt lat="43.83378" lon="7.26505">
        <ele>597.11596679688</ele>
        <time>2014-03-09T10:35:09Z</time>
      </trkpt>
      <trkpt lat="43.83387" lon="7.265">
        <ele>595.193359375</ele>
        <time>2014-03-09T10:35:14Z</time>
      </trkpt>
      <trkpt lat="43.83398" lon="7.26494">
        <ele>594.71264648438</ele>
        <time>2014-03-09T10:35:18Z</time>
      </trkpt>
      <trkpt lat="43.83405" lon="7.26491">
        <ele>593.27075195312</ele>
        <time>2014-03-09T10:35:22Z</time>
      </trkpt>
      <trkpt lat="43.83407" lon="7.26491">
        <ele>593.75146484375</ele>
        <time>2014-03-09T10:35:23Z</time>
      </trkpt>
      <trkpt lat="43.83423" lon="7.26472">
        <ele>599.51928710938</ele>
        <time>2014-03-09T10:35:30Z</time>
      </trkpt>
      <trkpt lat="43.83438" lon="7.26453">
        <ele>601.92260742188</ele>
        <time>2014-03-09T10:35:37Z</time>
      </trkpt>
      <trkpt lat="43.83443" lon="7.2645">
        <ele>602.8837890625</ele>
        <time>2014-03-09T10:35:39Z</time>
      </trkpt>
      <trkpt lat="43.83453" lon="7.26437">
        <ele>603.36450195312</ele>
        <time>2014-03-09T10:35:45Z</time>
      </trkpt>
      <trkpt lat="43.83456" lon="7.26433">
        <ele>603.84521484375</ele>
        <time>2014-03-09T10:35:49Z</time>
      </trkpt>
      <trkpt lat="43.83457" lon="7.26431">
        <ele>604.326171875</ele>
        <time>2014-03-09T10:35:50Z</time>
      </trkpt>
      <trkpt lat="43.83458" lon="7.26429">
        <ele>605.76806640625</ele>
        <time>2014-03-09T10:35:57Z</time>
      </trkpt>
      <trkpt lat="43.83458" lon="7.26429">
        <ele>605.76806640625</ele>
        <time>2014-03-09T10:36:03Z</time>
      </trkpt>
      <trkpt lat="43.83458" lon="7.2643">
        <ele>606.24853515625</ele>
        <time>2014-03-09T10:36:10Z</time>
      </trkpt>
      <trkpt lat="43.83457" lon="7.26435">
        <ele>607.69067382812</ele>
        <time>2014-03-09T10:36:21Z</time>
      </trkpt>
      <trkpt lat="43.83459" lon="7.26435">
        <ele>606.72924804688</ele>
        <time>2014-03-09T10:36:28Z</time>
      </trkpt>
      <trkpt lat="43.83466" lon="7.26427">
        <ele>605.28735351562</ele>
        <time>2014-03-09T10:36:34Z</time>
      </trkpt>
      <trkpt lat="43.83471" lon="7.26424">
        <ele>605.76806640625</ele>
        <time>2014-03-09T10:36:39Z</time>
      </trkpt>
      <trkpt lat="43.8348" lon="7.26416">
        <ele>605.28735351562</ele>
        <time>2014-03-09T10:36:48Z</time>
      </trkpt>
      <trkpt lat="43.83487" lon="7.26413">
        <ele>604.806640625</ele>
        <time>2014-03-09T10:36:55Z</time>
      </trkpt>
      <trkpt lat="43.83488" lon="7.26411">
        <ele>604.326171875</ele>
        <time>2014-03-09T10:36:57Z</time>
      </trkpt>
      <trkpt lat="43.83495" lon="7.26406">
        <ele>601.92260742188</ele>
        <time>2014-03-09T10:37:03Z</time>
      </trkpt>
      <trkpt lat="43.83502" lon="7.264">
        <ele>604.806640625</ele>
        <time>2014-03-09T10:37:11Z</time>
      </trkpt>
      <trkpt lat="43.83508" lon="7.26401">
        <ele>606.72924804688</ele>
        <time>2014-03-09T10:37:16Z</time>
      </trkpt>
      <trkpt lat="43.83513" lon="7.26396">
        <ele>609.13256835938</ele>
        <time>2014-03-09T10:37:21Z</time>
      </trkpt>
      <trkpt lat="43.83515" lon="7.2639">
        <ele>610.57446289062</ele>
        <time>2014-03-09T10:37:25Z</time>
      </trkpt>
      <trkpt lat="43.83515" lon="7.26379">
        <ele>612.0166015625</ele>
        <time>2014-03-09T10:37:31Z</time>
      </trkpt>
      <trkpt lat="43.8352" lon="7.26371">
        <ele>612.4970703125</ele>
        <time>2014-03-09T10:37:37Z</time>
      </trkpt>
      <trkpt lat="43.83527" lon="7.26367">
        <ele>613.93896484375</ele>
        <time>2014-03-09T10:37:44Z</time>
      </trkpt>
      <trkpt lat="43.83532" lon="7.26367">
        <ele>612.0166015625</ele>
        <time>2014-03-09T10:37:49Z</time>
      </trkpt>
      <trkpt lat="43.83536" lon="7.26371">
        <ele>612.97778320312</ele>
        <time>2014-03-09T10:37:53Z</time>
      </trkpt>
      <trkpt lat="43.83546" lon="7.26385">
        <ele>614.900390625</ele>
        <time>2014-03-09T10:38:03Z</time>
      </trkpt>
      <trkpt lat="43.83559" lon="7.26394">
        <ele>616.82299804688</ele>
        <time>2014-03-09T10:38:13Z</time>
      </trkpt>
      <trkpt lat="43.83565" lon="7.26404">
        <ele>616.82299804688</ele>
        <time>2014-03-09T10:38:20Z</time>
      </trkpt>
      <trkpt lat="43.83575" lon="7.26407">
        <ele>616.82299804688</ele>
        <time>2014-03-09T10:38:28Z</time>
      </trkpt>
      <trkpt lat="43.83587" lon="7.26406">
        <ele>615.86181640625</ele>
        <time>2014-03-09T10:38:35Z</time>
      </trkpt>
      <trkpt lat="43.83601" lon="7.26404">
        <ele>613.93896484375</ele>
        <time>2014-03-09T10:38:41Z</time>
      </trkpt>
      <trkpt lat="43.83615" lon="7.26408">
        <ele>610.57446289062</ele>
        <time>2014-03-09T10:38:46Z</time>
      </trkpt>
      <trkpt lat="43.83625" lon="7.26415">
        <ele>613.45849609375</ele>
        <time>2014-03-09T10:38:51Z</time>
      </trkpt>
      <trkpt lat="43.83629" lon="7.26418">
        <ele>612.97778320312</ele>
        <time>2014-03-09T10:38:54Z</time>
      </trkpt>
      <trkpt lat="43.83636" lon="7.26419">
        <ele>613.93896484375</ele>
        <time>2014-03-09T10:38:58Z</time>
      </trkpt>
      <trkpt lat="43.83652" lon="7.26421">
        <ele>613.45849609375</ele>
        <time>2014-03-09T10:39:06Z</time>
      </trkpt>
      <trkpt lat="43.83665" lon="7.26423">
        <ele>614.41967773438</ele>
        <time>2014-03-09T10:39:11Z</time>
      </trkpt>
      <trkpt lat="43.83678" lon="7.26424">
        <ele>612.0166015625</ele>
        <time>2014-03-09T10:39:16Z</time>
      </trkpt>
      <trkpt lat="43.83689" lon="7.26429">
        <ele>612.0166015625</ele>
        <time>2014-03-09T10:39:21Z</time>
      </trkpt>
      <trkpt lat="43.83705" lon="7.26429">
        <ele>611.05517578125</ele>
        <time>2014-03-09T10:39:27Z</time>
      </trkpt>
      <trkpt lat="43.83724" lon="7.26428">
        <ele>609.13256835938</ele>
        <time>2014-03-09T10:39:34Z</time>
      </trkpt>
      <trkpt lat="43.83738" lon="7.2643">
        <ele>606.72924804688</ele>
        <time>2014-03-09T10:39:40Z</time>
      </trkpt>
      <trkpt lat="43.8376" lon="7.26431">
        <ele>602.40307617188</ele>
        <time>2014-03-09T10:39:47Z</time>
      </trkpt>
      <trkpt lat="43.83777" lon="7.26433">
        <ele>601.44189453125</ele>
        <time>2014-03-09T10:39:53Z</time>
      </trkpt>
      <trkpt lat="43.83804" lon="7.26437">
        <ele>602.40307617188</ele>
        <time>2014-03-09T10:40:01Z</time>
      </trkpt>
      <trkpt lat="43.83826" lon="7.26437">
        <ele>605.76806640625</ele>
        <time>2014-03-09T10:40:08Z</time>
      </trkpt>
      <trkpt lat="43.83841" lon="7.26432">
        <ele>611.53588867188</ele>
        <time>2014-03-09T10:40:12Z</time>
      </trkpt>
      <trkpt lat="43.83857" lon="7.26422">
        <ele>614.900390625</ele>
        <time>2014-03-09T10:40:17Z</time>
      </trkpt>
      <trkpt lat="43.83871" lon="7.2642">
        <ele>615.38110351562</ele>
        <time>2014-03-09T10:40:21Z</time>
      </trkpt>
      <trkpt lat="43.8389" lon="7.26407">
        <ele>616.82299804688</ele>
        <time>2014-03-09T10:40:26Z</time>
      </trkpt>
      <trkpt lat="43.83906" lon="7.26402">
        <ele>617.7841796875</ele>
        <time>2014-03-09T10:40:33Z</time>
      </trkpt>
      <trkpt lat="43.83916" lon="7.26396">
        <ele>618.26489257812</ele>
        <time>2014-03-09T10:40:37Z</time>
      </trkpt>
      <trkpt lat="43.83925" lon="7.26396">
        <ele>617.7841796875</ele>
        <time>2014-03-09T10:40:41Z</time>
      </trkpt>
      <trkpt lat="43.83926" lon="7.26396">
        <ele>618.74560546875</ele>
        <time>2014-03-09T10:40:42Z</time>
      </trkpt>
      <trkpt lat="43.83929" lon="7.26397">
        <ele>621.62963867188</ele>
        <time>2014-03-09T10:40:48Z</time>
      </trkpt>
      <trkpt lat="43.83933" lon="7.26392">
        <ele>623.07177734375</ele>
        <time>2014-03-09T10:40:54Z</time>
      </trkpt>
      <trkpt lat="43.83937" lon="7.2639">
        <ele>621.14916992188</ele>
        <time>2014-03-09T10:40:59Z</time>
      </trkpt>
      <trkpt lat="43.8394" lon="7.26388">
        <ele>619.22631835938</ele>
        <time>2014-03-09T10:41:03Z</time>
      </trkpt>
      <trkpt lat="43.83945" lon="7.26383">
        <ele>620.66845703125</ele>
        <time>2014-03-09T10:41:09Z</time>
      </trkpt>
      <trkpt lat="43.83948" lon="7.26383">
        <ele>622.1103515625</ele>
        <time>2014-03-09T10:41:12Z</time>
      </trkpt>
      <trkpt lat="43.83955" lon="7.2638">
        <ele>624.513671875</ele>
        <time>2014-03-09T10:41:19Z</time>
      </trkpt>
      <trkpt lat="43.83956" lon="7.26378">
        <ele>629.80078125</ele>
        <time>2014-03-09T10:41:27Z</time>
      </trkpt>
      <trkpt lat="43.83959" lon="7.26377">
        <ele>635.08813476562</ele>
        <time>2014-03-09T10:41:33Z</time>
      </trkpt>
      <trkpt lat="43.83967" lon="7.26375">
        <ele>635.56860351562</ele>
        <time>2014-03-09T10:41:41Z</time>
      </trkpt>
      <trkpt lat="43.83971" lon="7.26377">
        <ele>635.08813476562</ele>
        <time>2014-03-09T10:41:45Z</time>
      </trkpt>
      <trkpt lat="43.83975" lon="7.26378">
        <ele>634.607421875</ele>
        <time>2014-03-09T10:41:49Z</time>
      </trkpt>
      <trkpt lat="43.83983" lon="7.26382">
        <ele>634.12670898438</ele>
        <time>2014-03-09T10:41:57Z</time>
      </trkpt>
      <trkpt lat="43.83989" lon="7.26381">
        <ele>636.5302734375</ele>
        <time>2014-03-09T10:42:04Z</time>
      </trkpt>
      <trkpt lat="43.83991" lon="7.26381">
        <ele>636.5302734375</ele>
        <time>2014-03-09T10:42:13Z</time>
      </trkpt>
      <trkpt lat="43.83995" lon="7.26383">
        <ele>634.607421875</ele>
        <time>2014-03-09T10:42:20Z</time>
      </trkpt>
      <trkpt lat="43.84001" lon="7.26383">
        <ele>637.49145507812</ele>
        <time>2014-03-09T10:42:26Z</time>
      </trkpt>
      <trkpt lat="43.8401" lon="7.26385">
        <ele>639.4140625</ele>
        <time>2014-03-09T10:42:35Z</time>
      </trkpt>
      <trkpt lat="43.84016" lon="7.26389">
        <ele>640.37548828125</ele>
        <time>2014-03-09T10:42:42Z</time>
      </trkpt>
      <trkpt lat="43.84022" lon="7.2639">
        <ele>641.33666992188</ele>
        <time>2014-03-09T10:42:48Z</time>
      </trkpt>
      <trkpt lat="43.84024" lon="7.26394">
        <ele>640.85595703125</ele>
        <time>2014-03-09T10:42:53Z</time>
      </trkpt>
      <trkpt lat="43.84024" lon="7.26396">
        <ele>640.85595703125</ele>
        <time>2014-03-09T10:42:54Z</time>
      </trkpt>
      <trkpt lat="43.84024" lon="7.26403">
        <ele>640.85595703125</ele>
        <time>2014-03-09T10:43:00Z</time>
      </trkpt>
      <trkpt lat="43.84026" lon="7.26404">
        <ele>641.33666992188</ele>
        <time>2014-03-09T10:43:02Z</time>
      </trkpt>
      <trkpt lat="43.84034" lon="7.26403">
        <ele>642.77880859375</ele>
        <time>2014-03-09T10:43:10Z</time>
      </trkpt>
      <trkpt lat="43.84044" lon="7.264">
        <ele>638.93359375</ele>
        <time>2014-03-09T10:43:19Z</time>
      </trkpt>
      <trkpt lat="43.84051" lon="7.26396">
        <ele>637.97216796875</ele>
        <time>2014-03-09T10:43:25Z</time>
      </trkpt>
      <trkpt lat="43.84056" lon="7.26398">
        <ele>641.8173828125</ele>
        <time>2014-03-09T10:43:31Z</time>
      </trkpt>
      <trkpt lat="43.84058" lon="7.264">
        <ele>645.18188476562</ele>
        <time>2014-03-09T10:43:36Z</time>
      </trkpt>
      <trkpt lat="43.84058" lon="7.26401">
        <ele>646.6240234375</ele>
        <time>2014-03-09T10:43:41Z</time>
      </trkpt>
      <trkpt lat="43.84059" lon="7.26403">
        <ele>649.5078125</ele>
        <time>2014-03-09T10:43:50Z</time>
      </trkpt>
      <trkpt lat="43.84062" lon="7.26404">
        <ele>650.94970703125</ele>
        <time>2014-03-09T10:43:56Z</time>
      </trkpt>
      <trkpt lat="43.84063" lon="7.26403">
        <ele>650.94970703125</ele>
        <time>2014-03-09T10:43:57Z</time>
      </trkpt>
      <trkpt lat="43.84073" lon="7.26394">
        <ele>649.98852539062</ele>
        <time>2014-03-09T10:44:05Z</time>
      </trkpt>
      <trkpt lat="43.84082" lon="7.2638">
        <ele>649.02709960938</ele>
        <time>2014-03-09T10:44:11Z</time>
      </trkpt>
      <trkpt lat="43.84092" lon="7.26377">
        <ele>648.54638671875</ele>
        <time>2014-03-09T10:44:15Z</time>
      </trkpt>
      <trkpt lat="43.84095" lon="7.26378">
        <ele>648.54638671875</ele>
        <time>2014-03-09T10:44:17Z</time>
      </trkpt>
      <trkpt lat="43.84101" lon="7.2638">
        <ele>649.5078125</ele>
        <time>2014-03-09T10:44:23Z</time>
      </trkpt>
      <trkpt lat="43.84103" lon="7.26381">
        <ele>649.98852539062</ele>
        <time>2014-03-09T10:44:25Z</time>
      </trkpt>
      <trkpt lat="43.84111" lon="7.2638">
        <ele>650.46923828125</ele>
        <time>2014-03-09T10:44:29Z</time>
      </trkpt>
      <trkpt lat="43.84129" lon="7.26373">
        <ele>651.9111328125</ele>
        <time>2014-03-09T10:44:38Z</time>
      </trkpt>
      <trkpt lat="43.84139" lon="7.26366">
        <ele>654.79516601562</ele>
        <time>2014-03-09T10:44:44Z</time>
      </trkpt>
      <trkpt lat="43.84145" lon="7.26362">
        <ele>657.67919921875</ele>
        <time>2014-03-09T10:44:49Z</time>
      </trkpt>
      <trkpt lat="43.84148" lon="7.26363">
        <ele>658.64038085938</ele>
        <time>2014-03-09T10:44:53Z</time>
      </trkpt>
      <trkpt lat="43.84153" lon="7.26362">
        <ele>660.08227539062</ele>
        <time>2014-03-09T10:45:00Z</time>
      </trkpt>
      <trkpt lat="43.84158" lon="7.2636">
        <ele>661.5244140625</ele>
        <time>2014-03-09T10:45:07Z</time>
      </trkpt>
      <trkpt lat="43.84165" lon="7.26359">
        <ele>663.44702148438</ele>
        <time>2014-03-09T10:45:17Z</time>
      </trkpt>
      <trkpt lat="43.84168" lon="7.26358">
        <ele>662.48559570312</ele>
        <time>2014-03-09T10:45:25Z</time>
      </trkpt>
      <trkpt lat="43.84175" lon="7.26357">
        <ele>663.44702148438</ele>
        <time>2014-03-09T10:45:35Z</time>
      </trkpt>
      <trkpt lat="43.8418" lon="7.26355">
        <ele>663.92749023438</ele>
        <time>2014-03-09T10:45:43Z</time>
      </trkpt>
      <trkpt lat="43.84183" lon="7.26353">
        <ele>666.33081054688</ele>
        <time>2014-03-09T10:45:50Z</time>
      </trkpt>
      <trkpt lat="43.84189" lon="7.26349">
        <ele>667.77270507812</ele>
        <time>2014-03-09T10:45:58Z</time>
      </trkpt>
      <trkpt lat="43.84192" lon="7.26344">
        <ele>663.44702148438</ele>
        <time>2014-03-09T10:46:05Z</time>
      </trkpt>
      <trkpt lat="43.84193" lon="7.26342">
        <ele>663.44702148438</ele>
        <time>2014-03-09T10:46:06Z</time>
      </trkpt>
      <trkpt lat="43.84203" lon="7.26332">
        <ele>665.85034179688</ele>
        <time>2014-03-09T10:46:14Z</time>
      </trkpt>
      <trkpt lat="43.8421" lon="7.26334">
        <ele>666.8115234375</ele>
        <time>2014-03-09T10:46:18Z</time>
      </trkpt>
      <trkpt lat="43.84215" lon="7.26338">
        <ele>666.8115234375</ele>
        <time>2014-03-09T10:46:23Z</time>
      </trkpt>
      <trkpt lat="43.84217" lon="7.26338">
        <ele>666.8115234375</ele>
        <time>2014-03-09T10:46:24Z</time>
      </trkpt>
      <trkpt lat="43.8423" lon="7.26338">
        <ele>666.33081054688</ele>
        <time>2014-03-09T10:46:32Z</time>
      </trkpt>
      <trkpt lat="43.84237" lon="7.26337">
        <ele>670.65698242188</ele>
        <time>2014-03-09T10:46:37Z</time>
      </trkpt>
      <trkpt lat="43.84237" lon="7.26338">
        <ele>672.57958984375</ele>
        <time>2014-03-09T10:46:39Z</time>
      </trkpt>
      <trkpt lat="43.84237" lon="7.26342">
        <ele>673.06030273438</ele>
        <time>2014-03-09T10:46:42Z</time>
      </trkpt>
      <trkpt lat="43.84235" lon="7.2635">
        <ele>674.50219726562</ele>
        <time>2014-03-09T10:46:50Z</time>
      </trkpt>
      <trkpt lat="43.84232" lon="7.26357">
        <ele>675.46337890625</ele>
        <time>2014-03-09T10:46:57Z</time>
      </trkpt>
      <trkpt lat="43.84229" lon="7.26361">
        <ele>676.4248046875</ele>
        <time>2014-03-09T10:47:03Z</time>
      </trkpt>
      <trkpt lat="43.8423" lon="7.26363">
        <ele>677.86669921875</ele>
        <time>2014-03-09T10:47:10Z</time>
      </trkpt>
      <trkpt lat="43.8423" lon="7.26362">
        <ele>676.4248046875</ele>
        <time>2014-03-09T10:47:16Z</time>
      </trkpt>
      <trkpt lat="43.84234" lon="7.2636">
        <ele>675.46337890625</ele>
        <time>2014-03-09T10:47:22Z</time>
      </trkpt>
      <trkpt lat="43.8424" lon="7.26359">
        <ele>676.4248046875</ele>
        <time>2014-03-09T10:47:28Z</time>
      </trkpt>
      <trkpt lat="43.84245" lon="7.26359">
        <ele>676.4248046875</ele>
        <time>2014-03-09T10:47:36Z</time>
      </trkpt>
      <trkpt lat="43.8425" lon="7.26359">
        <ele>673.06030273438</ele>
        <time>2014-03-09T10:47:43Z</time>
      </trkpt>
      <trkpt lat="43.84254" lon="7.26361">
        <ele>669.21508789062</ele>
        <time>2014-03-09T10:47:48Z</time>
      </trkpt>
      <trkpt lat="43.8426" lon="7.26358">
        <ele>672.09887695312</ele>
        <time>2014-03-09T10:47:56Z</time>
      </trkpt>
      <trkpt lat="43.84267" lon="7.26357">
        <ele>675.46337890625</ele>
        <time>2014-03-09T10:48:05Z</time>
      </trkpt>
      <trkpt lat="43.84273" lon="7.26356">
        <ele>675.94409179688</ele>
        <time>2014-03-09T10:48:11Z</time>
      </trkpt>
      <trkpt lat="43.84277" lon="7.26356">
        <ele>674.50219726562</ele>
        <time>2014-03-09T10:48:15Z</time>
      </trkpt>
      <trkpt lat="43.84278" lon="7.26355">
        <ele>675.94409179688</ele>
        <time>2014-03-09T10:48:16Z</time>
      </trkpt>
      <trkpt lat="43.84287" lon="7.2635">
        <ele>680.27001953125</ele>
        <time>2014-03-09T10:48:25Z</time>
      </trkpt>
      <trkpt lat="43.84289" lon="7.26351">
        <ele>681.2314453125</ele>
        <time>2014-03-09T10:48:27Z</time>
      </trkpt>
      <trkpt lat="43.84291" lon="7.26354">
        <ele>686.99926757812</ele>
        <time>2014-03-09T10:48:31Z</time>
      </trkpt>
      <trkpt lat="43.84297" lon="7.26352">
        <ele>689.40258789062</ele>
        <time>2014-03-09T10:48:39Z</time>
      </trkpt>
      <trkpt lat="43.84301" lon="7.26349">
        <ele>691.80590820312</ele>
        <time>2014-03-09T10:48:46Z</time>
      </trkpt>
      <trkpt lat="43.84307" lon="7.26345">
        <ele>693.24780273438</ele>
        <time>2014-03-09T10:48:54Z</time>
      </trkpt>
      <trkpt lat="43.84313" lon="7.26344">
        <ele>693.728515625</ele>
        <time>2014-03-09T10:48:59Z</time>
      </trkpt>
      <trkpt lat="43.8432" lon="7.26342">
        <ele>692.28662109375</ele>
        <time>2014-03-09T10:49:06Z</time>
      </trkpt>
      <trkpt lat="43.84322" lon="7.26342">
        <ele>691.80590820312</ele>
        <time>2014-03-09T10:49:07Z</time>
      </trkpt>
      <trkpt lat="43.84333" lon="7.26341">
        <ele>687.47998046875</ele>
        <time>2014-03-09T10:49:17Z</time>
      </trkpt>
      <trkpt lat="43.84338" lon="7.26335">
        <ele>695.17041015625</ele>
        <time>2014-03-09T10:49:26Z</time>
      </trkpt>
      <trkpt lat="43.84342" lon="7.26329">
        <ele>699.49633789062</ele>
        <time>2014-03-09T10:49:32Z</time>
      </trkpt>
      <trkpt lat="43.84348" lon="7.26327">
        <ele>703.82250976562</ele>
        <time>2014-03-09T10:49:40Z</time>
      </trkpt>
      <trkpt lat="43.84353" lon="7.26325">
        <ele>703.82250976562</ele>
        <time>2014-03-09T10:49:46Z</time>
      </trkpt>
      <trkpt lat="43.84362" lon="7.2632">
        <ele>699.97705078125</ele>
        <time>2014-03-09T10:49:53Z</time>
      </trkpt>
      <trkpt lat="43.84367" lon="7.26319">
        <ele>697.09301757812</ele>
        <time>2014-03-09T10:49:57Z</time>
      </trkpt>
      <trkpt lat="43.84372" lon="7.2632">
        <ele>697.09301757812</ele>
        <time>2014-03-09T10:50:01Z</time>
      </trkpt>
      <trkpt lat="43.84376" lon="7.26319">
        <ele>694.68969726562</ele>
        <time>2014-03-09T10:50:05Z</time>
      </trkpt>
      <trkpt lat="43.84382" lon="7.26314">
        <ele>699.49633789062</ele>
        <time>2014-03-09T10:50:13Z</time>
      </trkpt>
      <trkpt lat="43.84387" lon="7.26311">
        <ele>701.89990234375</ele>
        <time>2014-03-09T10:50:19Z</time>
      </trkpt>
      <trkpt lat="43.8439" lon="7.26308">
        <ele>702.38037109375</ele>
        <time>2014-03-09T10:50:25Z</time>
      </trkpt>
      <trkpt lat="43.84391" lon="7.26304">
        <ele>703.82250976562</ele>
        <time>2014-03-09T10:50:28Z</time>
      </trkpt>
      <trkpt lat="43.84394" lon="7.26287">
        <ele>706.70629882812</ele>
        <time>2014-03-09T10:50:36Z</time>
      </trkpt>
      <trkpt lat="43.844" lon="7.26279">
        <ele>710.07080078125</ele>
        <time>2014-03-09T10:50:40Z</time>
      </trkpt>
      <trkpt lat="43.84402" lon="7.26279">
        <ele>710.55151367188</ele>
        <time>2014-03-09T10:50:41Z</time>
      </trkpt>
      <trkpt lat="43.84409" lon="7.26273">
        <ele>713.435546875</ele>
        <time>2014-03-09T10:50:49Z</time>
      </trkpt>
      <trkpt lat="43.8441" lon="7.26272">
        <ele>713.435546875</ele>
        <time>2014-03-09T10:50:50Z</time>
      </trkpt>
      <trkpt lat="43.84415" lon="7.26268">
        <ele>716.80029296875</ele>
        <time>2014-03-09T10:50:56Z</time>
      </trkpt>
      <trkpt lat="43.84418" lon="7.26267">
        <ele>717.28100585938</ele>
        <time>2014-03-09T10:51:02Z</time>
      </trkpt>
      <trkpt lat="43.84425" lon="7.26265">
        <ele>718.2421875</ele>
        <time>2014-03-09T10:51:11Z</time>
      </trkpt>
      <trkpt lat="43.84429" lon="7.2626">
        <ele>721.60668945312</ele>
        <time>2014-03-09T10:51:20Z</time>
      </trkpt>
      <trkpt lat="43.84433" lon="7.26258">
        <ele>722.08740234375</ele>
        <time>2014-03-09T10:51:26Z</time>
      </trkpt>
      <trkpt lat="43.84438" lon="7.26255">
        <ele>721.60668945312</ele>
        <time>2014-03-09T10:51:33Z</time>
      </trkpt>
      <trkpt lat="43.84443" lon="7.2625">
        <ele>722.08740234375</ele>
        <time>2014-03-09T10:51:40Z</time>
      </trkpt>
      <trkpt lat="43.84446" lon="7.26247">
        <ele>721.60668945312</ele>
        <time>2014-03-09T10:51:45Z</time>
      </trkpt>
      <trkpt lat="43.84452" lon="7.26242">
        <ele>722.56811523438</ele>
        <time>2014-03-09T10:51:52Z</time>
      </trkpt>
      <trkpt lat="43.84454" lon="7.2624">
        <ele>722.56811523438</ele>
        <time>2014-03-09T10:51:54Z</time>
      </trkpt>
      <trkpt lat="43.8446" lon="7.26231">
        <ele>724.49072265625</ele>
        <time>2014-03-09T10:52:02Z</time>
      </trkpt>
      <trkpt lat="43.84464" lon="7.26229">
        <ele>724.49072265625</ele>
        <time>2014-03-09T10:52:07Z</time>
      </trkpt>
      <trkpt lat="43.84467" lon="7.26228">
        <ele>724.01000976562</ele>
        <time>2014-03-09T10:52:11Z</time>
      </trkpt>
      <trkpt lat="43.84472" lon="7.26222">
        <ele>726.41333007812</ele>
        <time>2014-03-09T10:52:19Z</time>
      </trkpt>
      <trkpt lat="43.84475" lon="7.26221">
        <ele>726.41333007812</ele>
        <time>2014-03-09T10:52:26Z</time>
      </trkpt>
      <trkpt lat="43.84481" lon="7.26223">
        <ele>728.3359375</ele>
        <time>2014-03-09T10:52:32Z</time>
      </trkpt>
      <trkpt lat="43.84485" lon="7.26225">
        <ele>727.85522460938</ele>
        <time>2014-03-09T10:52:36Z</time>
      </trkpt>
      <trkpt lat="43.84491" lon="7.26225">
        <ele>728.81665039062</ele>
        <time>2014-03-09T10:52:42Z</time>
      </trkpt>
      <trkpt lat="43.84499" lon="7.26222">
        <ele>730.25854492188</ele>
        <time>2014-03-09T10:52:49Z</time>
      </trkpt>
      <trkpt lat="43.84503" lon="7.26214">
        <ele>730.7392578125</ele>
        <time>2014-03-09T10:52:56Z</time>
      </trkpt>
      <trkpt lat="43.84507" lon="7.26204">
        <ele>732.18139648438</ele>
        <time>2014-03-09T10:53:04Z</time>
      </trkpt>
      <trkpt lat="43.84512" lon="7.26197">
        <ele>735.0654296875</ele>
        <time>2014-03-09T10:53:12Z</time>
      </trkpt>
      <trkpt lat="43.84516" lon="7.26188">
        <ele>737.94921875</ele>
        <time>2014-03-09T10:53:19Z</time>
      </trkpt>
      <trkpt lat="43.84524" lon="7.26182">
        <ele>738.91064453125</ele>
        <time>2014-03-09T10:53:26Z</time>
      </trkpt>
      <trkpt lat="43.84527" lon="7.26179">
        <ele>741.79443359375</ele>
        <time>2014-03-09T10:53:31Z</time>
      </trkpt>
      <trkpt lat="43.84534" lon="7.26182">
        <ele>744.67822265625</ele>
        <time>2014-03-09T10:53:39Z</time>
      </trkpt>
      <trkpt lat="43.84536" lon="7.2618">
        <ele>744.67822265625</ele>
        <time>2014-03-09T10:53:41Z</time>
      </trkpt>
      <trkpt lat="43.84541" lon="7.26177">
        <ele>745.15893554688</ele>
        <time>2014-03-09T10:53:46Z</time>
      </trkpt>
      <trkpt lat="43.84547" lon="7.26177">
        <ele>746.60107421875</ele>
        <time>2014-03-09T10:53:53Z</time>
      </trkpt>
      <trkpt lat="43.84551" lon="7.26172">
        <ele>746.12036132812</ele>
        <time>2014-03-09T10:53:59Z</time>
      </trkpt>
      <trkpt lat="43.84555" lon="7.2617">
        <ele>749.00439453125</ele>
        <time>2014-03-09T10:54:07Z</time>
      </trkpt>
      <trkpt lat="43.84558" lon="7.26165">
        <ele>750.44653320312</ele>
        <time>2014-03-09T10:54:13Z</time>
      </trkpt>
      <trkpt lat="43.84565" lon="7.26156">
        <ele>749.00439453125</ele>
        <time>2014-03-09T10:54:23Z</time>
      </trkpt>
      <trkpt lat="43.84567" lon="7.26153">
        <ele>751.40771484375</ele>
        <time>2014-03-09T10:54:29Z</time>
      </trkpt>
      <trkpt lat="43.8457" lon="7.26149">
        <ele>753.33032226562</ele>
        <time>2014-03-09T10:54:34Z</time>
      </trkpt>
      <trkpt lat="43.84575" lon="7.26142">
        <ele>757.17553710938</ele>
        <time>2014-03-09T10:54:43Z</time>
      </trkpt>
      <trkpt lat="43.84582" lon="7.26138">
        <ele>760.05932617188</ele>
        <time>2014-03-09T10:54:51Z</time>
      </trkpt>
      <trkpt lat="43.84592" lon="7.26135">
        <ele>761.02075195312</ele>
        <time>2014-03-09T10:55:00Z</time>
      </trkpt>
      <trkpt lat="43.84594" lon="7.26132">
        <ele>761.02075195312</ele>
        <time>2014-03-09T10:55:06Z</time>
      </trkpt>
      <trkpt lat="43.84593" lon="7.26134">
        <ele>760.05932617188</ele>
        <time>2014-03-09T10:55:19Z</time>
      </trkpt>
      <trkpt lat="43.84593" lon="7.26136">
        <ele>759.57885742188</ele>
        <time>2014-03-09T10:55:35Z</time>
      </trkpt>
      <trkpt lat="43.84593" lon="7.26136">
        <ele>759.57885742188</ele>
        <time>2014-03-09T10:55:44Z</time>
      </trkpt>
      <trkpt lat="43.84594" lon="7.26135">
        <ele>760.5400390625</ele>
        <time>2014-03-09T10:55:53Z</time>
      </trkpt>
      <trkpt lat="43.84594" lon="7.26135">
        <ele>760.5400390625</ele>
        <time>2014-03-09T10:55:56Z</time>
      </trkpt>
      <trkpt lat="43.84595" lon="7.26135">
        <ele>761.02075195312</ele>
        <time>2014-03-09T10:56:07Z</time>
      </trkpt>
      <trkpt lat="43.84594" lon="7.26137">
        <ele>760.05932617188</ele>
        <time>2014-03-09T10:56:16Z</time>
      </trkpt>
      <trkpt lat="43.84593" lon="7.26139">
        <ele>759.57885742188</ele>
        <time>2014-03-09T10:56:25Z</time>
      </trkpt>
      <trkpt lat="43.84592" lon="7.26141">
        <ele>758.13696289062</ele>
        <time>2014-03-09T10:56:37Z</time>
      </trkpt>
      <trkpt lat="43.84592" lon="7.26141">
        <ele>758.13696289062</ele>
        <time>2014-03-09T10:56:40Z</time>
      </trkpt>
      <trkpt lat="43.84592" lon="7.2614">
        <ele>758.13696289062</ele>
        <time>2014-03-09T10:56:41Z</time>
      </trkpt>
      <trkpt lat="43.84591" lon="7.26135">
        <ele>758.61743164062</ele>
        <time>2014-03-09T10:56:53Z</time>
      </trkpt>
      <trkpt lat="43.84584" lon="7.26127">
        <ele>757.65625</ele>
        <time>2014-03-09T10:56:58Z</time>
      </trkpt>
      <trkpt lat="43.8456" lon="7.26117">
        <ele>757.17553710938</ele>
        <time>2014-03-09T10:57:07Z</time>
      </trkpt>
      <trkpt lat="43.84534" lon="7.26106">
        <ele>758.13696289062</ele>
        <time>2014-03-09T10:57:16Z</time>
      </trkpt>
      <trkpt lat="43.84517" lon="7.26097">
        <ele>758.61743164062</ele>
        <time>2014-03-09T10:57:22Z</time>
      </trkpt>
      <trkpt lat="43.84502" lon="7.26091">
        <ele>758.13696289062</ele>
        <time>2014-03-09T10:57:27Z</time>
      </trkpt>
      <trkpt lat="43.8448" lon="7.26089">
        <ele>761.02075195312</ele>
        <time>2014-03-09T10:57:33Z</time>
      </trkpt>
      <trkpt lat="43.84449" lon="7.26083">
        <ele>762.943359375</ele>
        <time>2014-03-09T10:57:41Z</time>
      </trkpt>
      <trkpt lat="43.84427" lon="7.26078">
        <ele>762.46264648438</ele>
        <time>2014-03-09T10:57:46Z</time>
      </trkpt>
      <trkpt lat="43.84408" lon="7.26077">
        <ele>761.98217773438</ele>
        <time>2014-03-09T10:57:50Z</time>
      </trkpt>
      <trkpt lat="43.84379" lon="7.26074">
        <ele>759.09814453125</ele>
        <time>2014-03-09T10:57:55Z</time>
      </trkpt>
      <trkpt lat="43.84354" lon="7.2607">
        <ele>758.13696289062</ele>
        <time>2014-03-09T10:57:59Z</time>
      </trkpt>
      <trkpt lat="43.84328" lon="7.2607">
        <ele>762.943359375</ele>
        <time>2014-03-09T10:58:04Z</time>
      </trkpt>
      <trkpt lat="43.84313" lon="7.26069">
        <ele>762.943359375</ele>
        <time>2014-03-09T10:58:08Z</time>
      </trkpt>
      <trkpt lat="43.84297" lon="7.26073">
        <ele>759.57885742188</ele>
        <time>2014-03-09T10:58:12Z</time>
      </trkpt>
      <trkpt lat="43.84282" lon="7.26076">
        <ele>755.2529296875</ele>
        <time>2014-03-09T10:58:15Z</time>
      </trkpt>
      <trkpt lat="43.84265" lon="7.2608">
        <ele>749.9658203125</ele>
        <time>2014-03-09T10:58:18Z</time>
      </trkpt>
      <trkpt lat="43.84247" lon="7.26086">
        <ele>746.60107421875</ele>
        <time>2014-03-09T10:58:22Z</time>
      </trkpt>
      <trkpt lat="43.84237" lon="7.26089">
        <ele>744.67822265625</ele>
        <time>2014-03-09T10:58:24Z</time>
      </trkpt>
      <trkpt lat="43.8422" lon="7.26089">
        <ele>739.39111328125</ele>
        <time>2014-03-09T10:58:28Z</time>
      </trkpt>
      <trkpt lat="43.84214" lon="7.26091">
        <ele>738.42993164062</ele>
        <time>2014-03-09T10:58:29Z</time>
      </trkpt>
      <trkpt lat="43.84204" lon="7.26094">
        <ele>736.50732421875</ele>
        <time>2014-03-09T10:58:31Z</time>
      </trkpt>
      <trkpt lat="43.84187" lon="7.26101">
        <ele>731.70043945312</ele>
        <time>2014-03-09T10:58:34Z</time>
      </trkpt>
      <trkpt lat="43.84156" lon="7.26105">
        <ele>726.41333007812</ele>
        <time>2014-03-09T10:58:39Z</time>
      </trkpt>
      <trkpt lat="43.84151" lon="7.26106">
        <ele>724.97143554688</ele>
        <time>2014-03-09T10:58:40Z</time>
      </trkpt>
      <trkpt lat="43.8413" lon="7.26109">
        <ele>718.2421875</ele>
        <time>2014-03-09T10:58:45Z</time>
      </trkpt>
      <trkpt lat="43.84116" lon="7.2611">
        <ele>712.95483398438</ele>
        <time>2014-03-09T10:58:48Z</time>
      </trkpt>
      <trkpt lat="43.84104" lon="7.2611">
        <ele>710.55151367188</ele>
        <time>2014-03-09T10:58:50Z</time>
      </trkpt>
      <trkpt lat="43.84065" lon="7.26114">
        <ele>701.41918945312</ele>
        <time>2014-03-09T10:58:56Z</time>
      </trkpt>
      <trkpt lat="43.84059" lon="7.26116">
        <ele>700.4580078125</ele>
        <time>2014-03-09T10:58:57Z</time>
      </trkpt>
      <trkpt lat="43.84044" lon="7.26116">
        <ele>696.1318359375</ele>
        <time>2014-03-09T10:59:00Z</time>
      </trkpt>
      <trkpt lat="43.84012" lon="7.26114">
        <ele>690.36401367188</ele>
        <time>2014-03-09T10:59:06Z</time>
      </trkpt>
      <trkpt lat="43.83997" lon="7.26108">
        <ele>688.92211914062</ele>
        <time>2014-03-09T10:59:09Z</time>
      </trkpt>
      <trkpt lat="43.83987" lon="7.26096">
        <ele>687.96069335938</ele>
        <time>2014-03-09T10:59:12Z</time>
      </trkpt>
      <trkpt lat="43.83984" lon="7.26086">
        <ele>686.0380859375</ele>
        <time>2014-03-09T10:59:14Z</time>
      </trkpt>
      <trkpt lat="43.83976" lon="7.26064">
        <ele>685.07690429688</ele>
        <time>2014-03-09T10:59:18Z</time>
      </trkpt>
      <trkpt lat="43.83966" lon="7.26047">
        <ele>686.51879882812</ele>
        <time>2014-03-09T10:59:22Z</time>
      </trkpt>
      <trkpt lat="43.83953" lon="7.26038">
        <ele>688.92211914062</ele>
        <time>2014-03-09T10:59:26Z</time>
      </trkpt>
      <trkpt lat="43.83952" lon="7.2603">
        <ele>689.88330078125</ele>
        <time>2014-03-09T10:59:28Z</time>
      </trkpt>
      <trkpt lat="43.83951" lon="7.26004">
        <ele>691.80590820312</ele>
        <time>2014-03-09T10:59:34Z</time>
      </trkpt>
      <trkpt lat="43.83947" lon="7.25984">
        <ele>691.3251953125</ele>
        <time>2014-03-09T10:59:38Z</time>
      </trkpt>
      <trkpt lat="43.83949" lon="7.25963">
        <ele>689.88330078125</ele>
        <time>2014-03-09T10:59:41Z</time>
      </trkpt>
      <trkpt lat="43.83949" lon="7.25954">
        <ele>689.88330078125</ele>
        <time>2014-03-09T10:59:42Z</time>
      </trkpt>
      <trkpt lat="43.83948" lon="7.25926">
        <ele>687.96069335938</ele>
        <time>2014-03-09T10:59:46Z</time>
      </trkpt>
      <trkpt lat="43.83943" lon="7.25912">
        <ele>686.0380859375</ele>
        <time>2014-03-09T10:59:49Z</time>
      </trkpt>
      <trkpt lat="43.83933" lon="7.25908">
        <ele>684.59619140625</ele>
        <time>2014-03-09T10:59:51Z</time>
      </trkpt>
      <trkpt lat="43.83909" lon="7.25884">
        <ele>682.67333984375</ele>
        <time>2014-03-09T10:59:57Z</time>
      </trkpt>
      <trkpt lat="43.83909" lon="7.25848">
        <ele>682.19262695312</ele>
        <time>2014-03-09T11:00:03Z</time>
      </trkpt>
      <trkpt lat="43.83913" lon="7.25802">
        <ele>679.30859375</ele>
        <time>2014-03-09T11:00:09Z</time>
      </trkpt>
      <trkpt lat="43.83914" lon="7.25794">
        <ele>678.828125</ele>
        <time>2014-03-09T11:00:10Z</time>
      </trkpt>
      <trkpt lat="43.83929" lon="7.25761">
        <ele>678.828125</ele>
        <time>2014-03-09T11:00:15Z</time>
      </trkpt>
      <trkpt lat="43.83931" lon="7.2575">
        <ele>678.828125</ele>
        <time>2014-03-09T11:00:18Z</time>
      </trkpt>
      <trkpt lat="43.8392" lon="7.25734">
        <ele>679.30859375</ele>
        <time>2014-03-09T11:00:23Z</time>
      </trkpt>
      <trkpt lat="43.83906" lon="7.25723">
        <ele>679.78930664062</ele>
        <time>2014-03-09T11:00:29Z</time>
      </trkpt>
      <trkpt lat="43.83898" lon="7.2572">
        <ele>680.27001953125</ele>
        <time>2014-03-09T11:00:33Z</time>
      </trkpt>
      <trkpt lat="43.83887" lon="7.25717">
        <ele>680.75073242188</ele>
        <time>2014-03-09T11:00:37Z</time>
      </trkpt>
      <trkpt lat="43.83868" lon="7.25709">
        <ele>678.828125</ele>
        <time>2014-03-09T11:00:42Z</time>
      </trkpt>
      <trkpt lat="43.83829" lon="7.25694">
        <ele>674.50219726562</ele>
        <time>2014-03-09T11:00:50Z</time>
      </trkpt>
      <trkpt lat="43.83807" lon="7.25694">
        <ele>679.30859375</ele>
        <time>2014-03-09T11:00:55Z</time>
      </trkpt>
      <trkpt lat="43.83792" lon="7.25692">
        <ele>682.67333984375</ele>
        <time>2014-03-09T11:01:00Z</time>
      </trkpt>
      <trkpt lat="43.83775" lon="7.25686">
        <ele>685.07690429688</ele>
        <time>2014-03-09T11:01:07Z</time>
      </trkpt>
      <trkpt lat="43.83753" lon="7.2568">
        <ele>683.63452148438</ele>
        <time>2014-03-09T11:01:13Z</time>
      </trkpt>
      <trkpt lat="43.83731" lon="7.25665">
        <ele>683.63452148438</ele>
        <time>2014-03-09T11:01:19Z</time>
      </trkpt>
      <trkpt lat="43.83717" lon="7.25659">
        <ele>685.07690429688</ele>
        <time>2014-03-09T11:01:24Z</time>
      </trkpt>
      <trkpt lat="43.837" lon="7.25652">
        <ele>686.0380859375</ele>
        <time>2014-03-09T11:01:29Z</time>
      </trkpt>
      <trkpt lat="43.83695" lon="7.25635">
        <ele>686.51879882812</ele>
        <time>2014-03-09T11:01:34Z</time>
      </trkpt>
      <trkpt lat="43.8369" lon="7.2562">
        <ele>686.51879882812</ele>
        <time>2014-03-09T11:01:38Z</time>
      </trkpt>
      <trkpt lat="43.83694" lon="7.25595">
        <ele>684.11547851562</ele>
        <time>2014-03-09T11:01:43Z</time>
      </trkpt>
      <trkpt lat="43.83704" lon="7.25569">
        <ele>680.27001953125</ele>
        <time>2014-03-09T11:01:48Z</time>
      </trkpt>
      <trkpt lat="43.83707" lon="7.25565">
        <ele>679.78930664062</ele>
        <time>2014-03-09T11:01:49Z</time>
      </trkpt>
      <trkpt lat="43.83725" lon="7.25548">
        <ele>676.90551757812</ele>
        <time>2014-03-09T11:01:53Z</time>
      </trkpt>
      <trkpt lat="43.8373" lon="7.25547">
        <ele>676.4248046875</ele>
        <time>2014-03-09T11:01:54Z</time>
      </trkpt>
      <trkpt lat="43.83757" lon="7.25541">
        <ele>677.38623046875</ele>
        <time>2014-03-09T11:02:01Z</time>
      </trkpt>
      <trkpt lat="43.83763" lon="7.25537">
        <ele>678.828125</ele>
        <time>2014-03-09T11:02:03Z</time>
      </trkpt>
      <trkpt lat="43.83781" lon="7.25515">
        <ele>682.67333984375</ele>
        <time>2014-03-09T11:02:10Z</time>
      </trkpt>
      <trkpt lat="43.83789" lon="7.25487">
        <ele>684.11547851562</ele>
        <time>2014-03-09T11:02:17Z</time>
      </trkpt>
      <trkpt lat="43.83792" lon="7.25464">
        <ele>683.63452148438</ele>
        <time>2014-03-09T11:02:23Z</time>
      </trkpt>
      <trkpt lat="43.83798" lon="7.25445">
        <ele>685.07690429688</ele>
        <time>2014-03-09T11:02:29Z</time>
      </trkpt>
      <trkpt lat="43.83811" lon="7.2542">
        <ele>687.96069335938</ele>
        <time>2014-03-09T11:02:38Z</time>
      </trkpt>
      <trkpt lat="43.83823" lon="7.25405">
        <ele>692.28662109375</ele>
        <time>2014-03-09T11:02:45Z</time>
      </trkpt>
      <trkpt lat="43.8383" lon="7.25396">
        <ele>692.76733398438</ele>
        <time>2014-03-09T11:02:51Z</time>
      </trkpt>
      <trkpt lat="43.83831" lon="7.25394">
        <ele>691.80590820312</ele>
        <time>2014-03-09T11:02:52Z</time>
      </trkpt>
      <trkpt lat="43.83832" lon="7.25375">
        <ele>688.44140625</ele>
        <time>2014-03-09T11:02:57Z</time>
      </trkpt>
      <trkpt lat="43.83825" lon="7.25354">
        <ele>683.63452148438</ele>
        <time>2014-03-09T11:03:01Z</time>
      </trkpt>
      <trkpt lat="43.83818" lon="7.2533">
        <ele>679.30859375</ele>
        <time>2014-03-09T11:03:05Z</time>
      </trkpt>
      <trkpt lat="43.83814" lon="7.25294">
        <ele>673.541015625</ele>
        <time>2014-03-09T11:03:09Z</time>
      </trkpt>
      <trkpt lat="43.83813" lon="7.25285">
        <ele>672.57958984375</ele>
        <time>2014-03-09T11:03:10Z</time>
      </trkpt>
      <trkpt lat="43.8381" lon="7.25236">
        <ele>665.85034179688</ele>
        <time>2014-03-09T11:03:15Z</time>
      </trkpt>
      <trkpt lat="43.83803" lon="7.25203">
        <ele>661.04370117188</ele>
        <time>2014-03-09T11:03:19Z</time>
      </trkpt>
      <trkpt lat="43.83802" lon="7.25189">
        <ele>658.64038085938</ele>
        <time>2014-03-09T11:03:21Z</time>
      </trkpt>
      <trkpt lat="43.8381" lon="7.25174">
        <ele>654.79516601562</ele>
        <time>2014-03-09T11:03:25Z</time>
      </trkpt>
      <trkpt lat="43.83813" lon="7.25163">
        <ele>652.87255859375</ele>
        <time>2014-03-09T11:03:27Z</time>
      </trkpt>
      <trkpt lat="43.8382" lon="7.25144">
        <ele>649.5078125</ele>
        <time>2014-03-09T11:03:30Z</time>
      </trkpt>
      <trkpt lat="43.83836" lon="7.25121">
        <ele>643.25927734375</ele>
        <time>2014-03-09T11:03:35Z</time>
      </trkpt>
      <trkpt lat="43.83838" lon="7.25117">
        <ele>641.8173828125</ele>
        <time>2014-03-09T11:03:36Z</time>
      </trkpt>
      <trkpt lat="43.83845" lon="7.25088">
        <ele>634.607421875</ele>
        <time>2014-03-09T11:03:42Z</time>
      </trkpt>
      <trkpt lat="43.8385" lon="7.25078">
        <ele>630.76220703125</ele>
        <time>2014-03-09T11:03:45Z</time>
      </trkpt>
      <trkpt lat="43.83859" lon="7.25076">
        <ele>626.9169921875</ele>
        <time>2014-03-09T11:03:48Z</time>
      </trkpt>
      <trkpt lat="43.83867" lon="7.25079">
        <ele>623.07177734375</ele>
        <time>2014-03-09T11:03:51Z</time>
      </trkpt>
      <trkpt lat="43.83873" lon="7.2508">
        <ele>619.70703125</ele>
        <time>2014-03-09T11:03:54Z</time>
      </trkpt>
      <trkpt lat="43.83876" lon="7.25067">
        <ele>616.34228515625</ele>
        <time>2014-03-09T11:03:57Z</time>
      </trkpt>
      <trkpt lat="43.83876" lon="7.25055">
        <ele>612.4970703125</ele>
        <time>2014-03-09T11:04:00Z</time>
      </trkpt>
      <trkpt lat="43.83878" lon="7.25054">
        <ele>611.53588867188</ele>
        <time>2014-03-09T11:04:02Z</time>
      </trkpt>
      <trkpt lat="43.8389" lon="7.25066">
        <ele>606.72924804688</ele>
        <time>2014-03-09T11:04:07Z</time>
      </trkpt>
      <trkpt lat="43.8389" lon="7.25055">
        <ele>603.84521484375</ele>
        <time>2014-03-09T11:04:11Z</time>
      </trkpt>
      <trkpt lat="43.83892" lon="7.25029">
        <ele>600</ele>
        <time>2014-03-09T11:04:16Z</time>
      </trkpt>
      <trkpt lat="43.83887" lon="7.25013">
        <ele>596.63549804688</ele>
        <time>2014-03-09T11:04:19Z</time>
      </trkpt>
      <trkpt lat="43.83886" lon="7.25011">
        <ele>596.15478515625</ele>
        <time>2014-03-09T11:04:20Z</time>
      </trkpt>
      <trkpt lat="43.83889" lon="7.25006">
        <ele>593.27075195312</ele>
        <time>2014-03-09T11:04:23Z</time>
      </trkpt>
      <trkpt lat="43.8389" lon="7.24996">
        <ele>590.38696289062</ele>
        <time>2014-03-09T11:04:28Z</time>
      </trkpt>
      <trkpt lat="43.83892" lon="7.24993">
        <ele>588.94506835938</ele>
        <time>2014-03-09T11:04:30Z</time>
      </trkpt>
      <trkpt lat="43.83899" lon="7.24993">
        <ele>585.580078125</ele>
        <time>2014-03-09T11:04:33Z</time>
      </trkpt>
      <trkpt lat="43.83907" lon="7.24993">
        <ele>583.1767578125</ele>
        <time>2014-03-09T11:04:38Z</time>
      </trkpt>
      <trkpt lat="43.83905" lon="7.24984">
        <ele>581.73486328125</ele>
        <time>2014-03-09T11:04:42Z</time>
      </trkpt>
      <trkpt lat="43.83911" lon="7.24988">
        <ele>579.33154296875</ele>
        <time>2014-03-09T11:04:45Z</time>
      </trkpt>
      <trkpt lat="43.83914" lon="7.24991">
        <ele>577.8896484375</ele>
        <time>2014-03-09T11:04:46Z</time>
      </trkpt>
      <trkpt lat="43.83921" lon="7.24996">
        <ele>575.486328125</ele>
        <time>2014-03-09T11:04:48Z</time>
      </trkpt>
      <trkpt lat="43.83931" lon="7.25005">
        <ele>572.12182617188</ele>
        <time>2014-03-09T11:04:53Z</time>
      </trkpt>
      <trkpt lat="43.83934" lon="7.25006">
        <ele>570.6796875</ele>
        <time>2014-03-09T11:04:56Z</time>
      </trkpt>
      <trkpt lat="43.83934" lon="7.25004">
        <ele>569.71850585938</ele>
        <time>2014-03-09T11:04:57Z</time>
      </trkpt>
      <trkpt lat="43.83932" lon="7.24993">
        <ele>568.2763671875</ele>
        <time>2014-03-09T11:05:00Z</time>
      </trkpt>
      <trkpt lat="43.83935" lon="7.24992">
        <ele>567.31518554688</ele>
        <time>2014-03-09T11:05:04Z</time>
      </trkpt>
      <trkpt lat="43.83937" lon="7.24995">
        <ele>567.31518554688</ele>
        <time>2014-03-09T11:05:05Z</time>
      </trkpt>
      <trkpt lat="43.83941" lon="7.25001">
        <ele>565.87329101562</ele>
        <time>2014-03-09T11:05:07Z</time>
      </trkpt>
      <trkpt lat="43.83944" lon="7.25002">
        <ele>564.91186523438</ele>
        <time>2014-03-09T11:05:11Z</time>
      </trkpt>
      <trkpt lat="43.83944" lon="7.24998">
        <ele>564.91186523438</ele>
        <time>2014-03-09T11:05:14Z</time>
      </trkpt>
      <trkpt lat="43.83945" lon="7.24986">
        <ele>562.9892578125</ele>
        <time>2014-03-09T11:05:19Z</time>
      </trkpt>
      <trkpt lat="43.83949" lon="7.2499">
        <ele>562.50854492188</ele>
        <time>2014-03-09T11:05:23Z</time>
      </trkpt>
      <trkpt lat="43.83959" lon="7.25004">
        <ele>560.5859375</ele>
        <time>2014-03-09T11:05:28Z</time>
      </trkpt>
      <trkpt lat="43.8396" lon="7.25008">
        <ele>560.10522460938</ele>
        <time>2014-03-09T11:05:29Z</time>
      </trkpt>
      <trkpt lat="43.83965" lon="7.25036">
        <ele>557.22143554688</ele>
        <time>2014-03-09T11:05:35Z</time>
      </trkpt>
      <trkpt lat="43.83974" lon="7.25051">
        <ele>554.33740234375</ele>
        <time>2014-03-09T11:05:39Z</time>
      </trkpt>
      <trkpt lat="43.8398" lon="7.25055">
        <ele>551.93408203125</ele>
        <time>2014-03-09T11:05:42Z</time>
      </trkpt>
      <trkpt lat="43.83988" lon="7.25054">
        <ele>550.01147460938</ele>
        <time>2014-03-09T11:05:46Z</time>
      </trkpt>
      <trkpt lat="43.83989" lon="7.25055">
        <ele>549.53076171875</ele>
        <time>2014-03-09T11:05:48Z</time>
      </trkpt>
      <trkpt lat="43.83991" lon="7.25057">
        <ele>546.64685058594</ele>
        <time>2014-03-09T11:05:56Z</time>
      </trkpt>
      <trkpt lat="43.83993" lon="7.25055">
        <ele>544.24365234375</ele>
        <time>2014-03-09T11:06:02Z</time>
      </trkpt>
      <trkpt lat="43.83994" lon="7.25055">
        <ele>541.35949707031</ele>
        <time>2014-03-09T11:06:10Z</time>
      </trkpt>
      <trkpt lat="43.83997" lon="7.25053">
        <ele>540.87890625</ele>
        <time>2014-03-09T11:06:15Z</time>
      </trkpt>
      <trkpt lat="43.83995" lon="7.25047">
        <ele>540.87890625</ele>
        <time>2014-03-09T11:06:21Z</time>
      </trkpt>
      <trkpt lat="43.83995" lon="7.25037">
        <ele>541.84020996094</ele>
        <time>2014-03-09T11:06:27Z</time>
      </trkpt>
      <trkpt lat="43.83996" lon="7.25034">
        <ele>542.32092285156</ele>
        <time>2014-03-09T11:06:32Z</time>
      </trkpt>
      <trkpt lat="43.83999" lon="7.25024">
        <ele>543.28210449219</ele>
        <time>2014-03-09T11:06:36Z</time>
      </trkpt>
      <trkpt lat="43.84006" lon="7.25008">
        <ele>543.76281738281</ele>
        <time>2014-03-09T11:06:41Z</time>
      </trkpt>
      <trkpt lat="43.84014" lon="7.2499">
        <ele>544.24365234375</ele>
        <time>2014-03-09T11:06:46Z</time>
      </trkpt>
      <trkpt lat="43.84015" lon="7.24978">
        <ele>544.24365234375</ele>
        <time>2014-03-09T11:06:50Z</time>
      </trkpt>
      <trkpt lat="43.84015" lon="7.24962">
        <ele>547.60815429688</ele>
        <time>2014-03-09T11:06:56Z</time>
      </trkpt>
      <trkpt lat="43.84015" lon="7.24959">
        <ele>547.12744140625</ele>
        <time>2014-03-09T11:06:59Z</time>
      </trkpt>
      <trkpt lat="43.84015" lon="7.2495">
        <ele>547.60815429688</ele>
        <time>2014-03-09T11:07:06Z</time>
      </trkpt>
      <trkpt lat="43.84013" lon="7.24943">
        <ele>547.12744140625</ele>
        <time>2014-03-09T11:07:12Z</time>
      </trkpt>
      <trkpt lat="43.8401" lon="7.24928">
        <ele>548.0888671875</ele>
        <time>2014-03-09T11:07:18Z</time>
      </trkpt>
      <trkpt lat="43.84007" lon="7.24909">
        <ele>548.5693359375</ele>
        <time>2014-03-09T11:07:25Z</time>
      </trkpt>
      <trkpt lat="43.84003" lon="7.24893">
        <ele>550.4921875</ele>
        <time>2014-03-09T11:07:30Z</time>
      </trkpt>
      <trkpt lat="43.83999" lon="7.24878">
        <ele>550.97265625</ele>
        <time>2014-03-09T11:07:35Z</time>
      </trkpt>
      <trkpt lat="43.83998" lon="7.24875">
        <ele>551.45336914062</ele>
        <time>2014-03-09T11:07:36Z</time>
      </trkpt>
      <trkpt lat="43.84002" lon="7.24862">
        <ele>551.93408203125</ele>
        <time>2014-03-09T11:07:40Z</time>
      </trkpt>
      <trkpt lat="43.8401" lon="7.24837">
        <ele>551.93408203125</ele>
        <time>2014-03-09T11:07:48Z</time>
      </trkpt>
      <trkpt lat="43.84015" lon="7.24837">
        <ele>551.45336914062</ele>
        <time>2014-03-09T11:07:54Z</time>
      </trkpt>
      <trkpt lat="43.84016" lon="7.24841">
        <ele>550.97265625</ele>
        <time>2014-03-09T11:07:59Z</time>
      </trkpt>
      <trkpt lat="43.84017" lon="7.24845">
        <ele>550.97265625</ele>
        <time>2014-03-09T11:08:01Z</time>
      </trkpt>
      <trkpt lat="43.84018" lon="7.24849">
        <ele>550.4921875</ele>
        <time>2014-03-09T11:08:03Z</time>
      </trkpt>
      <trkpt lat="43.84019" lon="7.2486">
        <ele>553.3759765625</ele>
        <time>2014-03-09T11:08:11Z</time>
      </trkpt>
      <trkpt lat="43.84021" lon="7.2486">
        <ele>554.33740234375</ele>
        <time>2014-03-09T11:08:12Z</time>
      </trkpt>
      <trkpt lat="43.84026" lon="7.24866">
        <ele>557.22143554688</ele>
        <time>2014-03-09T11:08:19Z</time>
      </trkpt>
      <trkpt lat="43.84028" lon="7.24871">
        <ele>559.62475585938</ele>
        <time>2014-03-09T11:08:26Z</time>
      </trkpt>
      <trkpt lat="43.84031" lon="7.24872">
        <ele>561.54736328125</ele>
        <time>2014-03-09T11:08:32Z</time>
      </trkpt>
      <trkpt lat="43.84033" lon="7.24874">
        <ele>561.54736328125</ele>
        <time>2014-03-09T11:08:39Z</time>
      </trkpt>
      <trkpt lat="43.84037" lon="7.24878">
        <ele>562.02807617188</ele>
        <time>2014-03-09T11:08:46Z</time>
      </trkpt>
      <trkpt lat="43.84042" lon="7.24883">
        <ele>564.91186523438</ele>
        <time>2014-03-09T11:08:53Z</time>
      </trkpt>
      <trkpt lat="43.84046" lon="7.24888">
        <ele>566.83447265625</ele>
        <time>2014-03-09T11:09:00Z</time>
      </trkpt>
      <trkpt lat="43.84051" lon="7.24896">
        <ele>566.83447265625</ele>
        <time>2014-03-09T11:09:07Z</time>
      </trkpt>
      <trkpt lat="43.84052" lon="7.24897">
        <ele>566.83447265625</ele>
        <time>2014-03-09T11:09:08Z</time>
      </trkpt>
      <trkpt lat="43.84056" lon="7.24901">
        <ele>566.83447265625</ele>
        <time>2014-03-09T11:09:13Z</time>
      </trkpt>
      <trkpt lat="43.84063" lon="7.24907">
        <ele>568.2763671875</ele>
        <time>2014-03-09T11:09:23Z</time>
      </trkpt>
      <trkpt lat="43.8407" lon="7.24915">
        <ele>571.16040039062</ele>
        <time>2014-03-09T11:09:31Z</time>
      </trkpt>
      <trkpt lat="43.84077" lon="7.24922">
        <ele>572.6025390625</ele>
        <time>2014-03-09T11:09:40Z</time>
      </trkpt>
      <trkpt lat="43.84087" lon="7.24927">
        <ele>575.96704101562</ele>
        <time>2014-03-09T11:09:49Z</time>
      </trkpt>
      <trkpt lat="43.84093" lon="7.24932">
        <ele>578.85107421875</ele>
        <time>2014-03-09T11:09:56Z</time>
      </trkpt>
      <trkpt lat="43.84095" lon="7.24933">
        <ele>578.85107421875</ele>
        <time>2014-03-09T11:10:02Z</time>
      </trkpt>
      <trkpt lat="43.841" lon="7.24937">
        <ele>577.4091796875</ele>
        <time>2014-03-09T11:10:06Z</time>
      </trkpt>
      <trkpt lat="43.84109" lon="7.24941">
        <ele>577.4091796875</ele>
        <time>2014-03-09T11:10:12Z</time>
      </trkpt>
      <trkpt lat="43.84124" lon="7.24944">
        <ele>578.85107421875</ele>
        <time>2014-03-09T11:10:20Z</time>
      </trkpt>
      <trkpt lat="43.84136" lon="7.24951">
        <ele>577.8896484375</ele>
        <time>2014-03-09T11:10:26Z</time>
      </trkpt>
      <trkpt lat="43.84156" lon="7.24957">
        <ele>578.37036132812</ele>
        <time>2014-03-09T11:10:33Z</time>
      </trkpt>
      <trkpt lat="43.84169" lon="7.2496">
        <ele>579.33154296875</ele>
        <time>2014-03-09T11:10:38Z</time>
      </trkpt>
      <trkpt lat="43.84188" lon="7.24963">
        <ele>582.21557617188</ele>
        <time>2014-03-09T11:10:45Z</time>
      </trkpt>
      <trkpt lat="43.842" lon="7.24967">
        <ele>581.73486328125</ele>
        <time>2014-03-09T11:10:50Z</time>
      </trkpt>
      <trkpt lat="43.84217" lon="7.24975">
        <ele>580.77368164062</ele>
        <time>2014-03-09T11:10:56Z</time>
      </trkpt>
      <trkpt lat="43.84235" lon="7.24982">
        <ele>581.25439453125</ele>
        <time>2014-03-09T11:11:02Z</time>
      </trkpt>
      <trkpt lat="43.84249" lon="7.24989">
        <ele>581.25439453125</ele>
        <time>2014-03-09T11:11:07Z</time>
      </trkpt>
      <trkpt lat="43.84266" lon="7.24994">
        <ele>581.73486328125</ele>
        <time>2014-03-09T11:11:12Z</time>
      </trkpt>
      <trkpt lat="43.84283" lon="7.24994">
        <ele>581.73486328125</ele>
        <time>2014-03-09T11:11:17Z</time>
      </trkpt>
      <trkpt lat="43.84299" lon="7.2499">
        <ele>582.21557617188</ele>
        <time>2014-03-09T11:11:22Z</time>
      </trkpt>
      <trkpt lat="43.84312" lon="7.24989">
        <ele>584.61889648438</ele>
        <time>2014-03-09T11:11:27Z</time>
      </trkpt>
      <trkpt lat="43.84322" lon="7.24984">
        <ele>583.65747070312</ele>
        <time>2014-03-09T11:11:31Z</time>
      </trkpt>
      <trkpt lat="43.84335" lon="7.2498">
        <ele>584.61889648438</ele>
        <time>2014-03-09T11:11:35Z</time>
      </trkpt>
      <trkpt lat="43.84351" lon="7.24977">
        <ele>587.02197265625</ele>
        <time>2014-03-09T11:11:41Z</time>
      </trkpt>
      <trkpt lat="43.84363" lon="7.24979">
        <ele>587.02197265625</ele>
        <time>2014-03-09T11:11:46Z</time>
      </trkpt>
      <trkpt lat="43.8437" lon="7.24981">
        <ele>585.099609375</ele>
        <time>2014-03-09T11:11:50Z</time>
      </trkpt>
      <trkpt lat="43.84374" lon="7.24983">
        <ele>579.81225585938</ele>
        <time>2014-03-09T11:11:58Z</time>
      </trkpt>
      <trkpt lat="43.84376" lon="7.24983">
        <ele>571.64086914062</ele>
        <time>2014-03-09T11:12:06Z</time>
      </trkpt>
      <trkpt lat="43.84376" lon="7.24983">
        <ele>573.08325195312</ele>
        <time>2014-03-09T11:12:12Z</time>
      </trkpt>
      <trkpt lat="43.84372" lon="7.2498">
        <ele>575.486328125</ele>
        <time>2014-03-09T11:12:19Z</time>
      </trkpt>
      <trkpt lat="43.84371" lon="7.24977">
        <ele>579.33154296875</ele>
        <time>2014-03-09T11:12:24Z</time>
      </trkpt>
      <trkpt lat="43.84373" lon="7.24967">
        <ele>587.9833984375</ele>
        <time>2014-03-09T11:12:31Z</time>
      </trkpt>
      <trkpt lat="43.84373" lon="7.24965">
        <ele>588.94506835938</ele>
        <time>2014-03-09T11:12:32Z</time>
      </trkpt>
      <trkpt lat="43.84375" lon="7.24955">
        <ele>592.3095703125</ele>
        <time>2014-03-09T11:12:41Z</time>
      </trkpt>
      <trkpt lat="43.84378" lon="7.24948">
        <ele>594.23217773438</ele>
        <time>2014-03-09T11:12:48Z</time>
      </trkpt>
      <trkpt lat="43.84381" lon="7.2494">
        <ele>594.23217773438</ele>
        <time>2014-03-09T11:12:56Z</time>
      </trkpt>
      <trkpt lat="43.84387" lon="7.24931">
        <ele>593.75146484375</ele>
        <time>2014-03-09T11:13:03Z</time>
      </trkpt>
      <trkpt lat="43.84393" lon="7.24927">
        <ele>593.75146484375</ele>
        <time>2014-03-09T11:13:10Z</time>
      </trkpt>
      <trkpt lat="43.84394" lon="7.24924">
        <ele>594.23217773438</ele>
        <time>2014-03-09T11:13:14Z</time>
      </trkpt>
      <trkpt lat="43.84396" lon="7.2492">
        <ele>594.23217773438</ele>
        <time>2014-03-09T11:13:19Z</time>
      </trkpt>
      <trkpt lat="43.84399" lon="7.24915">
        <ele>593.75146484375</ele>
        <time>2014-03-09T11:13:24Z</time>
      </trkpt>
      <trkpt lat="43.84407" lon="7.24909">
        <ele>593.75146484375</ele>
        <time>2014-03-09T11:13:28Z</time>
      </trkpt>
      <trkpt lat="43.84414" lon="7.24906">
        <ele>595.67407226562</ele>
        <time>2014-03-09T11:13:34Z</time>
      </trkpt>
      <trkpt lat="43.84415" lon="7.24907">
        <ele>595.193359375</ele>
        <time>2014-03-09T11:13:36Z</time>
      </trkpt>
      <trkpt lat="43.84423" lon="7.24902">
        <ele>597.5966796875</ele>
        <time>2014-03-09T11:13:45Z</time>
      </trkpt>
      <trkpt lat="43.8443" lon="7.24898">
        <ele>599.51928710938</ele>
        <time>2014-03-09T11:13:52Z</time>
      </trkpt>
      <trkpt lat="43.84433" lon="7.24896">
        <ele>600.96118164062</ele>
        <time>2014-03-09T11:13:56Z</time>
      </trkpt>
      <trkpt lat="43.84436" lon="7.24894">
        <ele>601.92260742188</ele>
        <time>2014-03-09T11:14:00Z</time>
      </trkpt>
      <trkpt lat="43.84442" lon="7.2489">
        <ele>602.8837890625</ele>
        <time>2014-03-09T11:14:07Z</time>
      </trkpt>
      <trkpt lat="43.84448" lon="7.24888">
        <ele>600.96118164062</ele>
        <time>2014-03-09T11:14:14Z</time>
      </trkpt>
      <trkpt lat="43.84449" lon="7.24886">
        <ele>600</ele>
        <time>2014-03-09T11:14:18Z</time>
      </trkpt>
      <trkpt lat="43.84449" lon="7.24883">
        <ele>599.51928710938</ele>
        <time>2014-03-09T11:14:20Z</time>
      </trkpt>
      <trkpt lat="43.84454" lon="7.24864">
        <ele>598.07739257812</ele>
        <time>2014-03-09T11:14:27Z</time>
      </trkpt>
      <trkpt lat="43.84455" lon="7.24856">
        <ele>598.55786132812</ele>
        <time>2014-03-09T11:14:29Z</time>
      </trkpt>
      <trkpt lat="43.84447" lon="7.24843">
        <ele>599.03857421875</ele>
        <time>2014-03-09T11:14:35Z</time>
      </trkpt>
      <trkpt lat="43.8444" lon="7.24841">
        <ele>599.51928710938</ele>
        <time>2014-03-09T11:14:39Z</time>
      </trkpt>
      <trkpt lat="43.84442" lon="7.24835">
        <ele>602.40307617188</ele>
        <time>2014-03-09T11:14:45Z</time>
      </trkpt>
      <trkpt lat="43.84443" lon="7.24833">
        <ele>603.36450195312</ele>
        <time>2014-03-09T11:14:50Z</time>
      </trkpt>
      <trkpt lat="43.84442" lon="7.24831">
        <ele>604.326171875</ele>
        <time>2014-03-09T11:14:54Z</time>
      </trkpt>
      <trkpt lat="43.84437" lon="7.24831">
        <ele>605.28735351562</ele>
        <time>2014-03-09T11:14:57Z</time>
      </trkpt>
      <trkpt lat="43.84415" lon="7.24831">
        <ele>605.28735351562</ele>
        <time>2014-03-09T11:15:05Z</time>
      </trkpt>
      <trkpt lat="43.84394" lon="7.24831">
        <ele>605.76806640625</ele>
        <time>2014-03-09T11:15:11Z</time>
      </trkpt>
      <trkpt lat="43.84385" lon="7.24826">
        <ele>607.69067382812</ele>
        <time>2014-03-09T11:15:15Z</time>
      </trkpt>
      <trkpt lat="43.84378" lon="7.24822">
        <ele>607.2099609375</ele>
        <time>2014-03-09T11:15:19Z</time>
      </trkpt>
      <trkpt lat="43.84372" lon="7.24815">
        <ele>606.72924804688</ele>
        <time>2014-03-09T11:15:24Z</time>
      </trkpt>
      <trkpt lat="43.84366" lon="7.24804">
        <ele>607.69067382812</ele>
        <time>2014-03-09T11:15:30Z</time>
      </trkpt>
      <trkpt lat="43.84365" lon="7.24795">
        <ele>610.09375</ele>
        <time>2014-03-09T11:15:34Z</time>
      </trkpt>
      <trkpt lat="43.84364" lon="7.24784">
        <ele>609.61328125</ele>
        <time>2014-03-09T11:15:40Z</time>
      </trkpt>
      <trkpt lat="43.84372" lon="7.24771">
        <ele>610.57446289062</ele>
        <time>2014-03-09T11:15:46Z</time>
      </trkpt>
      <trkpt lat="43.8438" lon="7.24762">
        <ele>612.97778320312</ele>
        <time>2014-03-09T11:15:52Z</time>
      </trkpt>
      <trkpt lat="43.84385" lon="7.24748">
        <ele>615.38110351562</ele>
        <time>2014-03-09T11:16:00Z</time>
      </trkpt>
      <trkpt lat="43.8438" lon="7.24742">
        <ele>615.38110351562</ele>
        <time>2014-03-09T11:16:06Z</time>
      </trkpt>
      <trkpt lat="43.8438" lon="7.24739">
        <ele>615.86181640625</ele>
        <time>2014-03-09T11:16:10Z</time>
      </trkpt>
      <trkpt lat="43.84382" lon="7.24737">
        <ele>617.3037109375</ele>
        <time>2014-03-09T11:16:13Z</time>
      </trkpt>
      <trkpt lat="43.84385" lon="7.2473">
        <ele>618.26489257812</ele>
        <time>2014-03-09T11:16:19Z</time>
      </trkpt>
      <trkpt lat="43.84386" lon="7.2473">
        <ele>617.3037109375</ele>
        <time>2014-03-09T11:16:26Z</time>
      </trkpt>
      <trkpt lat="43.84386" lon="7.24732">
        <ele>617.3037109375</ele>
        <time>2014-03-09T11:16:33Z</time>
      </trkpt>
      <trkpt lat="43.84386" lon="7.24733">
        <ele>611.05517578125</ele>
        <time>2014-03-09T11:17:03Z</time>
      </trkpt>
      <trkpt lat="43.84381" lon="7.24735">
        <ele>611.05517578125</ele>
        <time>2014-03-09T11:17:08Z</time>
      </trkpt>
      <trkpt lat="43.8438" lon="7.24735">
        <ele>611.05517578125</ele>
        <time>2014-03-09T11:17:09Z</time>
      </trkpt>
      <trkpt lat="43.8437" lon="7.24732">
        <ele>612.4970703125</ele>
        <time>2014-03-09T11:17:15Z</time>
      </trkpt>
      <trkpt lat="43.84368" lon="7.24726">
        <ele>612.4970703125</ele>
        <time>2014-03-09T11:17:18Z</time>
      </trkpt>
      <trkpt lat="43.84374" lon="7.2472">
        <ele>612.4970703125</ele>
        <time>2014-03-09T11:17:24Z</time>
      </trkpt>
      <trkpt lat="43.84377" lon="7.24718">
        <ele>612.4970703125</ele>
        <time>2014-03-09T11:17:26Z</time>
      </trkpt>
      <trkpt lat="43.84385" lon="7.24708">
        <ele>613.93896484375</ele>
        <time>2014-03-09T11:17:32Z</time>
      </trkpt>
      <trkpt lat="43.84387" lon="7.247">
        <ele>615.38110351562</ele>
        <time>2014-03-09T11:17:36Z</time>
      </trkpt>
      <trkpt lat="43.84397" lon="7.24686">
        <ele>616.82299804688</ele>
        <time>2014-03-09T11:17:42Z</time>
      </trkpt>
      <trkpt lat="43.8441" lon="7.24684">
        <ele>618.74560546875</ele>
        <time>2014-03-09T11:17:47Z</time>
      </trkpt>
      <trkpt lat="43.84423" lon="7.24686">
        <ele>619.70703125</ele>
        <time>2014-03-09T11:17:52Z</time>
      </trkpt>
      <trkpt lat="43.84442" lon="7.2469">
        <ele>621.14916992188</ele>
        <time>2014-03-09T11:17:57Z</time>
      </trkpt>
      <trkpt lat="43.84462" lon="7.24691">
        <ele>622.1103515625</ele>
        <time>2014-03-09T11:18:02Z</time>
      </trkpt>
      <trkpt lat="43.8448" lon="7.24688">
        <ele>621.62963867188</ele>
        <time>2014-03-09T11:18:06Z</time>
      </trkpt>
      <trkpt lat="43.84491" lon="7.2468">
        <ele>621.62963867188</ele>
        <time>2014-03-09T11:18:09Z</time>
      </trkpt>
      <trkpt lat="43.8451" lon="7.24658">
        <ele>620.66845703125</ele>
        <time>2014-03-09T11:18:15Z</time>
      </trkpt>
      <trkpt lat="43.84511" lon="7.24642">
        <ele>619.22631835938</ele>
        <time>2014-03-09T11:18:18Z</time>
      </trkpt>
      <trkpt lat="43.84516" lon="7.24604">
        <ele>617.3037109375</ele>
        <time>2014-03-09T11:18:25Z</time>
      </trkpt>
      <trkpt lat="43.84517" lon="7.24598">
        <ele>617.3037109375</ele>
        <time>2014-03-09T11:18:26Z</time>
      </trkpt>
      <trkpt lat="43.84529" lon="7.24577">
        <ele>617.3037109375</ele>
        <time>2014-03-09T11:18:31Z</time>
      </trkpt>
      <trkpt lat="43.84545" lon="7.24579">
        <ele>617.3037109375</ele>
        <time>2014-03-09T11:18:35Z</time>
      </trkpt>
      <trkpt lat="43.84558" lon="7.24581">
        <ele>618.74560546875</ele>
        <time>2014-03-09T11:18:39Z</time>
      </trkpt>
      <trkpt lat="43.84575" lon="7.24586">
        <ele>618.26489257812</ele>
        <time>2014-03-09T11:18:43Z</time>
      </trkpt>
      <trkpt lat="43.8459" lon="7.24594">
        <ele>618.74560546875</ele>
        <time>2014-03-09T11:18:47Z</time>
      </trkpt>
      <trkpt lat="43.84595" lon="7.24598">
        <ele>618.74560546875</ele>
        <time>2014-03-09T11:18:49Z</time>
      </trkpt>
      <trkpt lat="43.84607" lon="7.246">
        <ele>619.70703125</ele>
        <time>2014-03-09T11:18:54Z</time>
      </trkpt>
      <trkpt lat="43.84622" lon="7.24599">
        <ele>619.22631835938</ele>
        <time>2014-03-09T11:18:59Z</time>
      </trkpt>
      <trkpt lat="43.8464" lon="7.24602">
        <ele>618.26489257812</ele>
        <time>2014-03-09T11:19:04Z</time>
      </trkpt>
      <trkpt lat="43.84655" lon="7.24602">
        <ele>618.26489257812</ele>
        <time>2014-03-09T11:19:08Z</time>
      </trkpt>
      <trkpt lat="43.84674" lon="7.24593">
        <ele>617.7841796875</ele>
        <time>2014-03-09T11:19:13Z</time>
      </trkpt>
      <trkpt lat="43.84686" lon="7.2458">
        <ele>617.3037109375</ele>
        <time>2014-03-09T11:19:17Z</time>
      </trkpt>
      <trkpt lat="43.84694" lon="7.24567">
        <ele>616.82299804688</ele>
        <time>2014-03-09T11:19:21Z</time>
      </trkpt>
      <trkpt lat="43.84707" lon="7.24553">
        <ele>616.34228515625</ele>
        <time>2014-03-09T11:19:26Z</time>
      </trkpt>
      <trkpt lat="43.84715" lon="7.24552">
        <ele>616.82299804688</ele>
        <time>2014-03-09T11:19:29Z</time>
      </trkpt>
      <trkpt lat="43.84723" lon="7.24542">
        <ele>616.82299804688</ele>
        <time>2014-03-09T11:19:34Z</time>
      </trkpt>
      <trkpt lat="43.84734" lon="7.24527">
        <ele>616.34228515625</ele>
        <time>2014-03-09T11:19:39Z</time>
      </trkpt>
      <trkpt lat="43.8474" lon="7.24518">
        <ele>616.34228515625</ele>
        <time>2014-03-09T11:19:42Z</time>
      </trkpt>
      <trkpt lat="43.84743" lon="7.2451">
        <ele>615.86181640625</ele>
        <time>2014-03-09T11:19:45Z</time>
      </trkpt>
      <trkpt lat="43.84751" lon="7.24514">
        <ele>616.82299804688</ele>
        <time>2014-03-09T11:19:50Z</time>
      </trkpt>
      <trkpt lat="43.84752" lon="7.24517">
        <ele>616.82299804688</ele>
        <time>2014-03-09T11:19:51Z</time>
      </trkpt>
      <trkpt lat="43.84756" lon="7.24536">
        <ele>617.7841796875</ele>
        <time>2014-03-09T11:19:57Z</time>
      </trkpt>
      <trkpt lat="43.84758" lon="7.24539">
        <ele>618.26489257812</ele>
        <time>2014-03-09T11:19:58Z</time>
      </trkpt>
      <trkpt lat="43.84764" lon="7.2455">
        <ele>620.66845703125</ele>
        <time>2014-03-09T11:20:03Z</time>
      </trkpt>
      <trkpt lat="43.84769" lon="7.24558">
        <ele>622.1103515625</ele>
        <time>2014-03-09T11:20:07Z</time>
      </trkpt>
      <trkpt lat="43.84768" lon="7.24571">
        <ele>623.07177734375</ele>
        <time>2014-03-09T11:20:12Z</time>
      </trkpt>
      <trkpt lat="43.84769" lon="7.24583">
        <ele>623.07177734375</ele>
        <time>2014-03-09T11:20:16Z</time>
      </trkpt>
      <trkpt lat="43.84774" lon="7.24593">
        <ele>623.55249023438</ele>
        <time>2014-03-09T11:20:20Z</time>
      </trkpt>
      <trkpt lat="43.84786" lon="7.24615">
        <ele>625.47485351562</ele>
        <time>2014-03-09T11:20:29Z</time>
      </trkpt>
      <trkpt lat="43.84789" lon="7.24619">
        <ele>625.47485351562</ele>
        <time>2014-03-09T11:20:31Z</time>
      </trkpt>
      <trkpt lat="43.84802" lon="7.24624">
        <ele>627.39770507812</ele>
        <time>2014-03-09T11:20:38Z</time>
      </trkpt>
      <trkpt lat="43.84804" lon="7.24626">
        <ele>628.35888671875</ele>
        <time>2014-03-09T11:20:42Z</time>
      </trkpt>
      <trkpt lat="43.84805" lon="7.24628">
        <ele>628.35888671875</ele>
        <time>2014-03-09T11:20:49Z</time>
      </trkpt>
      <trkpt lat="43.84807" lon="7.24632">
        <ele>626.43627929688</ele>
        <time>2014-03-09T11:20:56Z</time>
      </trkpt>
      <trkpt lat="43.84808" lon="7.24635">
        <ele>625.95556640625</ele>
        <time>2014-03-09T11:20:58Z</time>
      </trkpt>
      <trkpt lat="43.84813" lon="7.24644">
        <ele>627.39770507812</ele>
        <time>2014-03-09T11:21:02Z</time>
      </trkpt>
      <trkpt lat="43.84814" lon="7.24659">
        <ele>627.87817382812</ele>
        <time>2014-03-09T11:21:06Z</time>
      </trkpt>
      <trkpt lat="43.84813" lon="7.24662">
        <ele>628.83959960938</ele>
        <time>2014-03-09T11:21:07Z</time>
      </trkpt>
      <trkpt lat="43.84805" lon="7.24685">
        <ele>631.72338867188</ele>
        <time>2014-03-09T11:21:13Z</time>
      </trkpt>
      <trkpt lat="43.84806" lon="7.24707">
        <ele>632.68481445312</ele>
        <time>2014-03-09T11:21:19Z</time>
      </trkpt>
      <trkpt lat="43.84807" lon="7.24716">
        <ele>632.68481445312</ele>
        <time>2014-03-09T11:21:21Z</time>
      </trkpt>
      <trkpt lat="43.84801" lon="7.2474">
        <ele>631.72338867188</ele>
        <time>2014-03-09T11:21:27Z</time>
      </trkpt>
      <trkpt lat="43.84795" lon="7.2475">
        <ele>633.64599609375</ele>
        <time>2014-03-09T11:21:30Z</time>
      </trkpt>
      <trkpt lat="43.84788" lon="7.24766">
        <ele>632.2041015625</ele>
        <time>2014-03-09T11:21:35Z</time>
      </trkpt>
      <trkpt lat="43.84777" lon="7.24783">
        <ele>631.72338867188</ele>
        <time>2014-03-09T11:21:39Z</time>
      </trkpt>
      <trkpt lat="43.8476" lon="7.24796">
        <ele>630.28149414062</ele>
        <time>2014-03-09T11:21:44Z</time>
      </trkpt>
      <trkpt lat="43.84743" lon="7.24812">
        <ele>629.80078125</ele>
        <time>2014-03-09T11:21:49Z</time>
      </trkpt>
      <trkpt lat="43.84726" lon="7.24819">
        <ele>630.28149414062</ele>
        <time>2014-03-09T11:21:53Z</time>
      </trkpt>
      <trkpt lat="43.84718" lon="7.24833">
        <ele>630.76220703125</ele>
        <time>2014-03-09T11:21:56Z</time>
      </trkpt>
      <trkpt lat="43.84711" lon="7.24856">
        <ele>630.28149414062</ele>
        <time>2014-03-09T11:22:00Z</time>
      </trkpt>
      <trkpt lat="43.84708" lon="7.24876">
        <ele>631.24291992188</ele>
        <time>2014-03-09T11:22:06Z</time>
      </trkpt>
      <trkpt lat="43.84707" lon="7.24878">
        <ele>633.16528320312</ele>
        <time>2014-03-09T11:22:10Z</time>
      </trkpt>
      <trkpt lat="43.84707" lon="7.24882">
        <ele>632.2041015625</ele>
        <time>2014-03-09T11:22:17Z</time>
      </trkpt>
      <trkpt lat="43.84706" lon="7.24882">
        <ele>632.2041015625</ele>
        <time>2014-03-09T11:22:24Z</time>
      </trkpt>
      <trkpt lat="43.84704" lon="7.24887">
        <ele>631.72338867188</ele>
        <time>2014-03-09T11:22:30Z</time>
      </trkpt>
      <trkpt lat="43.847" lon="7.24897">
        <ele>633.64599609375</ele>
        <time>2014-03-09T11:22:37Z</time>
      </trkpt>
      <trkpt lat="43.84695" lon="7.24903">
        <ele>635.08813476562</ele>
        <time>2014-03-09T11:22:43Z</time>
      </trkpt>
      <trkpt lat="43.84693" lon="7.24905">
        <ele>635.08813476562</ele>
        <time>2014-03-09T11:22:45Z</time>
      </trkpt>
      <trkpt lat="43.8469" lon="7.24908">
        <ele>635.56860351562</ele>
        <time>2014-03-09T11:22:49Z</time>
      </trkpt>
      <trkpt lat="43.84686" lon="7.2491">
        <ele>635.56860351562</ele>
        <time>2014-03-09T11:22:53Z</time>
      </trkpt>
      <trkpt lat="43.84684" lon="7.24917">
        <ele>637.0107421875</ele>
        <time>2014-03-09T11:23:01Z</time>
      </trkpt>
      <trkpt lat="43.8468" lon="7.24926">
        <ele>638.93359375</ele>
        <time>2014-03-09T11:23:08Z</time>
      </trkpt>
      <trkpt lat="43.84674" lon="7.24934">
        <ele>640.37548828125</ele>
        <time>2014-03-09T11:23:16Z</time>
      </trkpt>
      <trkpt lat="43.84674" lon="7.24935">
        <ele>640.37548828125</ele>
        <time>2014-03-09T11:23:17Z</time>
      </trkpt>
      <trkpt lat="43.8467" lon="7.24938">
        <ele>641.8173828125</ele>
        <time>2014-03-09T11:23:21Z</time>
      </trkpt>
      <trkpt lat="43.84666" lon="7.24942">
        <ele>644.701171875</ele>
        <time>2014-03-09T11:23:29Z</time>
      </trkpt>
      <trkpt lat="43.84664" lon="7.24944">
        <ele>646.6240234375</ele>
        <time>2014-03-09T11:23:35Z</time>
      </trkpt>
      <trkpt lat="43.8466" lon="7.24948">
        <ele>646.14331054688</ele>
        <time>2014-03-09T11:23:41Z</time>
      </trkpt>
      <trkpt lat="43.84653" lon="7.24951">
        <ele>645.66259765625</ele>
        <time>2014-03-09T11:23:46Z</time>
      </trkpt>
      <trkpt lat="43.84647" lon="7.24958">
        <ele>646.6240234375</ele>
        <time>2014-03-09T11:23:55Z</time>
      </trkpt>
      <trkpt lat="43.84644" lon="7.24965">
        <ele>646.6240234375</ele>
        <time>2014-03-09T11:24:01Z</time>
      </trkpt>
      <trkpt lat="43.84643" lon="7.24975">
        <ele>645.18188476562</ele>
        <time>2014-03-09T11:24:09Z</time>
      </trkpt>
      <trkpt lat="43.84645" lon="7.24983">
        <ele>646.14331054688</ele>
        <time>2014-03-09T11:24:15Z</time>
      </trkpt>
      <trkpt lat="43.84658" lon="7.24995">
        <ele>646.6240234375</ele>
        <time>2014-03-09T11:24:22Z</time>
      </trkpt>
      <trkpt lat="43.84666" lon="7.25">
        <ele>647.58520507812</ele>
        <time>2014-03-09T11:24:27Z</time>
      </trkpt>
      <trkpt lat="43.84673" lon="7.25">
        <ele>649.02709960938</ele>
        <time>2014-03-09T11:24:31Z</time>
      </trkpt>
      <trkpt lat="43.84682" lon="7.25">
        <ele>650.94970703125</ele>
        <time>2014-03-09T11:24:36Z</time>
      </trkpt>
      <trkpt lat="43.8469" lon="7.25007">
        <ele>651.43041992188</ele>
        <time>2014-03-09T11:24:41Z</time>
      </trkpt>
      <trkpt lat="43.84697" lon="7.25023">
        <ele>651.9111328125</ele>
        <time>2014-03-09T11:24:45Z</time>
      </trkpt>
      <trkpt lat="43.84699" lon="7.25026">
        <ele>651.43041992188</ele>
        <time>2014-03-09T11:24:46Z</time>
      </trkpt>
      <trkpt lat="43.84704" lon="7.25033">
        <ele>653.35327148438</ele>
        <time>2014-03-09T11:24:51Z</time>
      </trkpt>
      <trkpt lat="43.84707" lon="7.25037">
        <ele>656.7177734375</ele>
        <time>2014-03-09T11:24:59Z</time>
      </trkpt>
      <trkpt lat="43.84714" lon="7.25042">
        <ele>658.64038085938</ele>
        <time>2014-03-09T11:25:07Z</time>
      </trkpt>
      <trkpt lat="43.84722" lon="7.25048">
        <ele>658.64038085938</ele>
        <time>2014-03-09T11:25:15Z</time>
      </trkpt>
      <trkpt lat="43.84731" lon="7.25055">
        <ele>657.19848632812</ele>
        <time>2014-03-09T11:25:25Z</time>
      </trkpt>
      <trkpt lat="43.84738" lon="7.25056">
        <ele>660.56298828125</ele>
        <time>2014-03-09T11:25:32Z</time>
      </trkpt>
      <trkpt lat="43.84742" lon="7.25059">
        <ele>661.04370117188</ele>
        <time>2014-03-09T11:25:36Z</time>
      </trkpt>
      <trkpt lat="43.84747" lon="7.25058">
        <ele>661.5244140625</ele>
        <time>2014-03-09T11:25:41Z</time>
      </trkpt>
      <trkpt lat="43.84756" lon="7.2506">
        <ele>664.408203125</ele>
        <time>2014-03-09T11:25:49Z</time>
      </trkpt>
      <trkpt lat="43.84764" lon="7.25067">
        <ele>662.00512695312</ele>
        <time>2014-03-09T11:25:55Z</time>
      </trkpt>
      <trkpt lat="43.84764" lon="7.25076">
        <ele>659.60180664062</ele>
        <time>2014-03-09T11:26:01Z</time>
      </trkpt>
      <trkpt lat="43.8476" lon="7.25082">
        <ele>658.64038085938</ele>
        <time>2014-03-09T11:26:04Z</time>
      </trkpt>
      <trkpt lat="43.84745" lon="7.25097">
        <ele>658.15991210938</ele>
        <time>2014-03-09T11:26:12Z</time>
      </trkpt>
      <trkpt lat="43.84731" lon="7.25108">
        <ele>658.15991210938</ele>
        <time>2014-03-09T11:26:18Z</time>
      </trkpt>
      <trkpt lat="43.84724" lon="7.25117">
        <ele>660.08227539062</ele>
        <time>2014-03-09T11:26:23Z</time>
      </trkpt>
      <trkpt lat="43.84717" lon="7.25128">
        <ele>661.5244140625</ele>
        <time>2014-03-09T11:26:28Z</time>
      </trkpt>
      <trkpt lat="43.84713" lon="7.25133">
        <ele>661.5244140625</ele>
        <time>2014-03-09T11:26:30Z</time>
      </trkpt>
      <trkpt lat="43.84697" lon="7.25132">
        <ele>664.408203125</ele>
        <time>2014-03-09T11:26:36Z</time>
      </trkpt>
      <trkpt lat="43.8468" lon="7.25137">
        <ele>665.36962890625</ele>
        <time>2014-03-09T11:26:42Z</time>
      </trkpt>
      <trkpt lat="43.84666" lon="7.25141">
        <ele>665.85034179688</ele>
        <time>2014-03-09T11:26:48Z</time>
      </trkpt>
      <trkpt lat="43.84657" lon="7.25147">
        <ele>666.33081054688</ele>
        <time>2014-03-09T11:26:52Z</time>
      </trkpt>
      <trkpt lat="43.84647" lon="7.25149">
        <ele>666.33081054688</ele>
        <time>2014-03-09T11:26:56Z</time>
      </trkpt>
      <trkpt lat="43.84635" lon="7.25152">
        <ele>665.36962890625</ele>
        <time>2014-03-09T11:27:01Z</time>
      </trkpt>
      <trkpt lat="43.84627" lon="7.25155">
        <ele>666.33081054688</ele>
        <time>2014-03-09T11:27:05Z</time>
      </trkpt>
      <trkpt lat="43.84617" lon="7.2516">
        <ele>664.88891601562</ele>
        <time>2014-03-09T11:27:10Z</time>
      </trkpt>
      <trkpt lat="43.84601" lon="7.25166">
        <ele>662.96630859375</ele>
        <time>2014-03-09T11:27:15Z</time>
      </trkpt>
      <trkpt lat="43.84596" lon="7.25173">
        <ele>663.44702148438</ele>
        <time>2014-03-09T11:27:18Z</time>
      </trkpt>
      <trkpt lat="43.84594" lon="7.25186">
        <ele>663.92749023438</ele>
        <time>2014-03-09T11:27:23Z</time>
      </trkpt>
      <trkpt lat="43.84584" lon="7.25201">
        <ele>665.36962890625</ele>
        <time>2014-03-09T11:27:29Z</time>
      </trkpt>
      <trkpt lat="43.84577" lon="7.25207">
        <ele>665.36962890625</ele>
        <time>2014-03-09T11:27:32Z</time>
      </trkpt>
      <trkpt lat="43.84562" lon="7.25219">
        <ele>665.36962890625</ele>
        <time>2014-03-09T11:27:38Z</time>
      </trkpt>
      <trkpt lat="43.84544" lon="7.25226">
        <ele>664.408203125</ele>
        <time>2014-03-09T11:27:44Z</time>
      </trkpt>
      <trkpt lat="43.84532" lon="7.25233">
        <ele>665.85034179688</ele>
        <time>2014-03-09T11:27:49Z</time>
      </trkpt>
      <trkpt lat="43.84518" lon="7.25237">
        <ele>667.29223632812</ele>
        <time>2014-03-09T11:27:54Z</time>
      </trkpt>
      <trkpt lat="43.84514" lon="7.25241">
        <ele>668.734375</ele>
        <time>2014-03-09T11:27:56Z</time>
      </trkpt>
      <trkpt lat="43.84518" lon="7.25245">
        <ele>670.17626953125</ele>
        <time>2014-03-09T11:28:00Z</time>
      </trkpt>
      <trkpt lat="43.84532" lon="7.25245">
        <ele>674.50219726562</ele>
        <time>2014-03-09T11:28:08Z</time>
      </trkpt>
      <trkpt lat="43.84543" lon="7.25247">
        <ele>677.86669921875</ele>
        <time>2014-03-09T11:28:15Z</time>
      </trkpt>
      <trkpt lat="43.84544" lon="7.25248">
        <ele>678.34741210938</ele>
        <time>2014-03-09T11:28:16Z</time>
      </trkpt>
      <trkpt lat="43.84549" lon="7.25252">
        <ele>679.30859375</ele>
        <time>2014-03-09T11:28:20Z</time>
      </trkpt>
      <trkpt lat="43.84558" lon="7.25254">
        <ele>682.67333984375</ele>
        <time>2014-03-09T11:28:28Z</time>
      </trkpt>
      <trkpt lat="43.84561" lon="7.25254">
        <ele>683.63452148438</ele>
        <time>2014-03-09T11:28:30Z</time>
      </trkpt>
      <trkpt lat="43.8457" lon="7.25253">
        <ele>686.99926757812</ele>
        <time>2014-03-09T11:28:38Z</time>
      </trkpt>
      <trkpt lat="43.84581" lon="7.25252">
        <ele>689.40258789062</ele>
        <time>2014-03-09T11:28:46Z</time>
      </trkpt>
      <trkpt lat="43.8459" lon="7.25254">
        <ele>693.24780273438</ele>
        <time>2014-03-09T11:28:53Z</time>
      </trkpt>
      <trkpt lat="43.84599" lon="7.25257">
        <ele>695.17041015625</ele>
        <time>2014-03-09T11:29:00Z</time>
      </trkpt>
      <trkpt lat="43.84605" lon="7.25253">
        <ele>695.65112304688</ele>
        <time>2014-03-09T11:29:06Z</time>
      </trkpt>
      <trkpt lat="43.84614" lon="7.2525">
        <ele>698.53491210938</ele>
        <time>2014-03-09T11:29:12Z</time>
      </trkpt>
      <trkpt lat="43.84627" lon="7.2525">
        <ele>701.89990234375</ele>
        <time>2014-03-09T11:29:21Z</time>
      </trkpt>
      <trkpt lat="43.84641" lon="7.25252">
        <ele>700.9384765625</ele>
        <time>2014-03-09T11:29:29Z</time>
      </trkpt>
      <trkpt lat="43.84658" lon="7.25253">
        <ele>699.97705078125</ele>
        <time>2014-03-09T11:29:39Z</time>
      </trkpt>
      <trkpt lat="43.84673" lon="7.25258">
        <ele>699.49633789062</ele>
        <time>2014-03-09T11:29:47Z</time>
      </trkpt>
      <trkpt lat="43.84687" lon="7.25262">
        <ele>699.49633789062</ele>
        <time>2014-03-09T11:29:54Z</time>
      </trkpt>
      <trkpt lat="43.84691" lon="7.25265">
        <ele>700.4580078125</ele>
        <time>2014-03-09T11:29:57Z</time>
      </trkpt>
      <trkpt lat="43.84693" lon="7.25265">
        <ele>699.97705078125</ele>
        <time>2014-03-09T11:30:03Z</time>
      </trkpt>
      <trkpt lat="43.84694" lon="7.25265">
        <ele>699.97705078125</ele>
        <time>2014-03-09T11:30:08Z</time>
      </trkpt>
      <trkpt lat="43.84696" lon="7.25267">
        <ele>700.9384765625</ele>
        <time>2014-03-09T11:30:13Z</time>
      </trkpt>
      <trkpt lat="43.84711" lon="7.25268">
        <ele>700.9384765625</ele>
        <time>2014-03-09T11:30:21Z</time>
      </trkpt>
      <trkpt lat="43.84724" lon="7.25273">
        <ele>703.341796875</ele>
        <time>2014-03-09T11:30:28Z</time>
      </trkpt>
      <trkpt lat="43.84735" lon="7.25272">
        <ele>707.66772460938</ele>
        <time>2014-03-09T11:30:35Z</time>
      </trkpt>
      <trkpt lat="43.84745" lon="7.2527">
        <ele>711.51293945312</ele>
        <time>2014-03-09T11:30:42Z</time>
      </trkpt>
      <trkpt lat="43.84755" lon="7.25269">
        <ele>717.28100585938</ele>
        <time>2014-03-09T11:30:48Z</time>
      </trkpt>
      <trkpt lat="43.84764" lon="7.2527">
        <ele>719.68432617188</ele>
        <time>2014-03-09T11:30:54Z</time>
      </trkpt>
      <trkpt lat="43.84766" lon="7.2527">
        <ele>720.6455078125</ele>
        <time>2014-03-09T11:30:56Z</time>
      </trkpt>
      <trkpt lat="43.84777" lon="7.25268">
        <ele>723.048828125</ele>
        <time>2014-03-09T11:31:05Z</time>
      </trkpt>
      <trkpt lat="43.8479" lon="7.25271">
        <ele>725.9326171875</ele>
        <time>2014-03-09T11:31:15Z</time>
      </trkpt>
      <trkpt lat="43.84796" lon="7.2527">
        <ele>727.37475585938</ele>
        <time>2014-03-09T11:31:20Z</time>
      </trkpt>
      <trkpt lat="43.84804" lon="7.25266">
        <ele>728.81665039062</ele>
        <time>2014-03-09T11:31:27Z</time>
      </trkpt>
      <trkpt lat="43.84805" lon="7.25266">
        <ele>729.29711914062</ele>
        <time>2014-03-09T11:31:28Z</time>
      </trkpt>
      <trkpt lat="43.84814" lon="7.25263">
        <ele>730.25854492188</ele>
        <time>2014-03-09T11:31:35Z</time>
      </trkpt>
      <trkpt lat="43.84817" lon="7.25264">
        <ele>731.70043945312</ele>
        <time>2014-03-09T11:31:38Z</time>
      </trkpt>
      <trkpt lat="43.84826" lon="7.25269">
        <ele>732.662109375</ele>
        <time>2014-03-09T11:31:47Z</time>
      </trkpt>
      <trkpt lat="43.84836" lon="7.2527">
        <ele>734.58471679688</ele>
        <time>2014-03-09T11:31:55Z</time>
      </trkpt>
      <trkpt lat="43.84845" lon="7.2527">
        <ele>737.46850585938</ele>
        <time>2014-03-09T11:32:03Z</time>
      </trkpt>
      <trkpt lat="43.8485" lon="7.25273">
        <ele>738.91064453125</ele>
        <time>2014-03-09T11:32:08Z</time>
      </trkpt>
      <trkpt lat="43.84854" lon="7.25278">
        <ele>738.42993164062</ele>
        <time>2014-03-09T11:32:12Z</time>
      </trkpt>
      <trkpt lat="43.84861" lon="7.25281">
        <ele>739.87182617188</ele>
        <time>2014-03-09T11:32:20Z</time>
      </trkpt>
      <trkpt lat="43.8487" lon="7.25284">
        <ele>741.31372070312</ele>
        <time>2014-03-09T11:32:31Z</time>
      </trkpt>
      <trkpt lat="43.84878" lon="7.25285">
        <ele>745.15893554688</ele>
        <time>2014-03-09T11:32:40Z</time>
      </trkpt>
      <trkpt lat="43.84885" lon="7.25287">
        <ele>746.60107421875</ele>
        <time>2014-03-09T11:32:48Z</time>
      </trkpt>
      <trkpt lat="43.84893" lon="7.25288">
        <ele>749.48510742188</ele>
        <time>2014-03-09T11:32:57Z</time>
      </trkpt>
      <trkpt lat="43.84902" lon="7.2529">
        <ele>749.9658203125</ele>
        <time>2014-03-09T11:33:07Z</time>
      </trkpt>
      <trkpt lat="43.84914" lon="7.2529">
        <ele>751.40771484375</ele>
        <time>2014-03-09T11:33:18Z</time>
      </trkpt>
      <trkpt lat="43.84922" lon="7.25292">
        <ele>752.849609375</ele>
        <time>2014-03-09T11:33:25Z</time>
      </trkpt>
      <trkpt lat="43.8493" lon="7.25294">
        <ele>753.33032226562</ele>
        <time>2014-03-09T11:33:31Z</time>
      </trkpt>
      <trkpt lat="43.84944" lon="7.25302">
        <ele>750.44653320312</ele>
        <time>2014-03-09T11:33:38Z</time>
      </trkpt>
      <trkpt lat="43.84958" lon="7.25307">
        <ele>749.00439453125</ele>
        <time>2014-03-09T11:33:44Z</time>
      </trkpt>
      <trkpt lat="43.84979" lon="7.25309">
        <ele>747.08154296875</ele>
        <time>2014-03-09T11:33:52Z</time>
      </trkpt>
      <trkpt lat="43.85004" lon="7.25315">
        <ele>745.15893554688</ele>
        <time>2014-03-09T11:34:00Z</time>
      </trkpt>
      <trkpt lat="43.85032" lon="7.25325">
        <ele>744.19775390625</ele>
        <time>2014-03-09T11:34:09Z</time>
      </trkpt>
      <trkpt lat="43.85045" lon="7.25329">
        <ele>746.60107421875</ele>
        <time>2014-03-09T11:34:15Z</time>
      </trkpt>
      <trkpt lat="43.85066" lon="7.25334">
        <ele>750.92700195312</ele>
        <time>2014-03-09T11:34:23Z</time>
      </trkpt>
      <trkpt lat="43.85087" lon="7.25337">
        <ele>753.81103515625</ele>
        <time>2014-03-09T11:34:32Z</time>
      </trkpt>
      <trkpt lat="43.85106" lon="7.25338">
        <ele>753.81103515625</ele>
        <time>2014-03-09T11:34:40Z</time>
      </trkpt>
      <trkpt lat="43.85124" lon="7.25335">
        <ele>751.88842773438</ele>
        <time>2014-03-09T11:34:44Z</time>
      </trkpt>
      <trkpt lat="43.8515" lon="7.25332">
        <ele>748.04321289062</ele>
        <time>2014-03-09T11:34:48Z</time>
      </trkpt>
      <trkpt lat="43.85168" lon="7.2533">
        <ele>746.12036132812</ele>
        <time>2014-03-09T11:34:50Z</time>
      </trkpt>
      <trkpt lat="43.85198" lon="7.25341">
        <ele>741.31372070312</ele>
        <time>2014-03-09T11:34:54Z</time>
      </trkpt>
      <trkpt lat="43.85205" lon="7.25348">
        <ele>740.8330078125</ele>
        <time>2014-03-09T11:34:56Z</time>
      </trkpt>
      <trkpt lat="43.85208" lon="7.25354">
        <ele>741.31372070312</ele>
        <time>2014-03-09T11:34:58Z</time>
      </trkpt>
      <trkpt lat="43.85209" lon="7.25365">
        <ele>741.31372070312</ele>
        <time>2014-03-09T11:35:02Z</time>
      </trkpt>
      <trkpt lat="43.85215" lon="7.25382">
        <ele>741.79443359375</ele>
        <time>2014-03-09T11:35:09Z</time>
      </trkpt>
      <trkpt lat="43.85218" lon="7.25393">
        <ele>741.79443359375</ele>
        <time>2014-03-09T11:35:14Z</time>
      </trkpt>
      <trkpt lat="43.85222" lon="7.25402">
        <ele>743.71704101562</ele>
        <time>2014-03-09T11:35:19Z</time>
      </trkpt>
      <trkpt lat="43.85224" lon="7.25409">
        <ele>743.71704101562</ele>
        <time>2014-03-09T11:35:22Z</time>
      </trkpt>
      <trkpt lat="43.85223" lon="7.25421">
        <ele>745.15893554688</ele>
        <time>2014-03-09T11:35:27Z</time>
      </trkpt>
      <trkpt lat="43.85226" lon="7.25438">
        <ele>746.60107421875</ele>
        <time>2014-03-09T11:35:34Z</time>
      </trkpt>
      <trkpt lat="43.85229" lon="7.2545">
        <ele>748.52368164062</ele>
        <time>2014-03-09T11:35:40Z</time>
      </trkpt>
      <trkpt lat="43.85229" lon="7.25452">
        <ele>749.00439453125</ele>
        <time>2014-03-09T11:35:41Z</time>
      </trkpt>
      <trkpt lat="43.85238" lon="7.25465">
        <ele>751.88842773438</ele>
        <time>2014-03-09T11:35:49Z</time>
      </trkpt>
      <trkpt lat="43.85243" lon="7.25475">
        <ele>752.849609375</ele>
        <time>2014-03-09T11:35:55Z</time>
      </trkpt>
      <trkpt lat="43.85247" lon="7.25482">
        <ele>753.33032226562</ele>
        <time>2014-03-09T11:36:01Z</time>
      </trkpt>
      <trkpt lat="43.85249" lon="7.25487">
        <ele>752.849609375</ele>
        <time>2014-03-09T11:36:07Z</time>
      </trkpt>
      <trkpt lat="43.85254" lon="7.25494">
        <ele>753.33032226562</ele>
        <time>2014-03-09T11:36:14Z</time>
      </trkpt>
      <trkpt lat="43.85257" lon="7.25501">
        <ele>755.2529296875</ele>
        <time>2014-03-09T11:36:22Z</time>
      </trkpt>
      <trkpt lat="43.85258" lon="7.25511">
        <ele>758.13696289062</ele>
        <time>2014-03-09T11:36:30Z</time>
      </trkpt>
      <trkpt lat="43.85261" lon="7.25522">
        <ele>760.5400390625</ele>
        <time>2014-03-09T11:36:40Z</time>
      </trkpt>
      <trkpt lat="43.85263" lon="7.25529">
        <ele>761.02075195312</ele>
        <time>2014-03-09T11:36:47Z</time>
      </trkpt>
      <trkpt lat="43.85266" lon="7.25538">
        <ele>761.98217773438</ele>
        <time>2014-03-09T11:36:54Z</time>
      </trkpt>
      <trkpt lat="43.85272" lon="7.25548">
        <ele>763.42407226562</ele>
        <time>2014-03-09T11:37:05Z</time>
      </trkpt>
      <trkpt lat="43.85276" lon="7.25551">
        <ele>765.34692382812</ele>
        <time>2014-03-09T11:37:12Z</time>
      </trkpt>
      <trkpt lat="43.85282" lon="7.25558">
        <ele>762.46264648438</ele>
        <time>2014-03-09T11:37:20Z</time>
      </trkpt>
      <trkpt lat="43.85286" lon="7.25564">
        <ele>761.02075195312</ele>
        <time>2014-03-09T11:37:26Z</time>
      </trkpt>
      <trkpt lat="43.8529" lon="7.25568">
        <ele>765.34692382812</ele>
        <time>2014-03-09T11:37:34Z</time>
      </trkpt>
      <trkpt lat="43.85292" lon="7.25572">
        <ele>767.75</ele>
        <time>2014-03-09T11:37:40Z</time>
      </trkpt>
      <trkpt lat="43.85297" lon="7.2558">
        <ele>767.75</ele>
        <time>2014-03-09T11:37:48Z</time>
      </trkpt>
      <trkpt lat="43.85304" lon="7.25588">
        <ele>767.26953125</ele>
        <time>2014-03-09T11:37:57Z</time>
      </trkpt>
      <trkpt lat="43.85306" lon="7.25593">
        <ele>768.23071289062</ele>
        <time>2014-03-09T11:38:03Z</time>
      </trkpt>
      <trkpt lat="43.85308" lon="7.25598">
        <ele>769.19213867188</ele>
        <time>2014-03-09T11:38:07Z</time>
      </trkpt>
      <trkpt lat="43.85318" lon="7.2561">
        <ele>770.63403320312</ele>
        <time>2014-03-09T11:38:14Z</time>
      </trkpt>
      <trkpt lat="43.85326" lon="7.25621">
        <ele>773.03735351562</ele>
        <time>2014-03-09T11:38:21Z</time>
      </trkpt>
      <trkpt lat="43.85335" lon="7.25634">
        <ele>774.9599609375</ele>
        <time>2014-03-09T11:38:27Z</time>
      </trkpt>
      <trkpt lat="43.85344" lon="7.25643">
        <ele>775.92114257812</ele>
        <time>2014-03-09T11:38:32Z</time>
      </trkpt>
      <trkpt lat="43.85348" lon="7.25648">
        <ele>776.88256835938</ele>
        <time>2014-03-09T11:38:35Z</time>
      </trkpt>
      <trkpt lat="43.85359" lon="7.25658">
        <ele>778.32446289062</ele>
        <time>2014-03-09T11:38:41Z</time>
      </trkpt>
      <trkpt lat="43.85364" lon="7.25667">
        <ele>780.24731445312</ele>
        <time>2014-03-09T11:38:46Z</time>
      </trkpt>
      <trkpt lat="43.85369" lon="7.25674">
        <ele>781.68920898438</ele>
        <time>2014-03-09T11:38:50Z</time>
      </trkpt>
      <trkpt lat="43.85383" lon="7.25679">
        <ele>785.05395507812</ele>
        <time>2014-03-09T11:38:58Z</time>
      </trkpt>
      <trkpt lat="43.85391" lon="7.25684">
        <ele>787.45703125</ele>
        <time>2014-03-09T11:39:03Z</time>
      </trkpt>
      <trkpt lat="43.85397" lon="7.25689">
        <ele>788.41845703125</ele>
        <time>2014-03-09T11:39:07Z</time>
      </trkpt>
      <trkpt lat="43.85401" lon="7.25698">
        <ele>787.93774414062</ele>
        <time>2014-03-09T11:39:11Z</time>
      </trkpt>
      <trkpt lat="43.85411" lon="7.2571">
        <ele>789.8603515625</ele>
        <time>2014-03-09T11:39:17Z</time>
      </trkpt>
      <trkpt lat="43.85421" lon="7.25719">
        <ele>791.30224609375</ele>
        <time>2014-03-09T11:39:23Z</time>
      </trkpt>
      <trkpt lat="43.8543" lon="7.25726">
        <ele>792.263671875</ele>
        <time>2014-03-09T11:39:29Z</time>
      </trkpt>
      <trkpt lat="43.85436" lon="7.25728">
        <ele>794.18627929688</ele>
        <time>2014-03-09T11:39:33Z</time>
      </trkpt>
      <trkpt lat="43.85436" lon="7.25739">
        <ele>795.1474609375</ele>
        <time>2014-03-09T11:39:37Z</time>
      </trkpt>
      <trkpt lat="43.85429" lon="7.25759">
        <ele>795.1474609375</ele>
        <time>2014-03-09T11:39:44Z</time>
      </trkpt>
      <trkpt lat="43.85424" lon="7.25774">
        <ele>794.66674804688</ele>
        <time>2014-03-09T11:39:49Z</time>
      </trkpt>
      <trkpt lat="43.85419" lon="7.25787">
        <ele>795.1474609375</ele>
        <time>2014-03-09T11:39:54Z</time>
      </trkpt>
      <trkpt lat="43.85416" lon="7.25799">
        <ele>795.62817382812</ele>
        <time>2014-03-09T11:39:59Z</time>
      </trkpt>
      <trkpt lat="43.85407" lon="7.25807">
        <ele>799.95434570312</ele>
        <time>2014-03-09T11:40:05Z</time>
      </trkpt>
      <trkpt lat="43.854" lon="7.25813">
        <ele>800.43505859375</ele>
        <time>2014-03-09T11:40:09Z</time>
      </trkpt>
      <trkpt lat="43.85388" lon="7.25824">
        <ele>799.4736328125</ele>
        <time>2014-03-09T11:40:15Z</time>
      </trkpt>
      <trkpt lat="43.85388" lon="7.25831">
        <ele>801.39624023438</ele>
        <time>2014-03-09T11:40:19Z</time>
      </trkpt>
      <trkpt lat="43.85392" lon="7.25832">
        <ele>802.357421875</ele>
        <time>2014-03-09T11:40:21Z</time>
      </trkpt>
      <trkpt lat="43.85402" lon="7.25835">
        <ele>806.20263671875</ele>
        <time>2014-03-09T11:40:27Z</time>
      </trkpt>
      <trkpt lat="43.85415" lon="7.25842">
        <ele>810.0478515625</ele>
        <time>2014-03-09T11:40:34Z</time>
      </trkpt>
      <trkpt lat="43.85432" lon="7.25849">
        <ele>811.00927734375</ele>
        <time>2014-03-09T11:40:41Z</time>
      </trkpt>
      <trkpt lat="43.85448" lon="7.25852">
        <ele>810.52856445312</ele>
        <time>2014-03-09T11:40:47Z</time>
      </trkpt>
      <trkpt lat="43.85462" lon="7.25857">
        <ele>809.08666992188</ele>
        <time>2014-03-09T11:40:52Z</time>
      </trkpt>
      <trkpt lat="43.85465" lon="7.25857">
        <ele>808.60595703125</ele>
        <time>2014-03-09T11:40:53Z</time>
      </trkpt>
      <trkpt lat="43.8548" lon="7.2586">
        <ele>810.0478515625</ele>
        <time>2014-03-09T11:40:58Z</time>
      </trkpt>
      <trkpt lat="43.85494" lon="7.25864">
        <ele>811.970703125</ele>
        <time>2014-03-09T11:41:03Z</time>
      </trkpt>
      <trkpt lat="43.85501" lon="7.25868">
        <ele>812.45141601562</ele>
        <time>2014-03-09T11:41:06Z</time>
      </trkpt>
      <trkpt lat="43.85513" lon="7.25881">
        <ele>811.970703125</ele>
        <time>2014-03-09T11:41:12Z</time>
      </trkpt>
      <trkpt lat="43.8552" lon="7.25885">
        <ele>811.970703125</ele>
        <time>2014-03-09T11:41:14Z</time>
      </trkpt>
      <trkpt lat="43.85532" lon="7.25887">
        <ele>811.00927734375</ele>
        <time>2014-03-09T11:41:18Z</time>
      </trkpt>
      <trkpt lat="43.85546" lon="7.25887">
        <ele>815.33544921875</ele>
        <time>2014-03-09T11:41:24Z</time>
      </trkpt>
      <trkpt lat="43.85555" lon="7.25884">
        <ele>819.1806640625</ele>
        <time>2014-03-09T11:41:28Z</time>
      </trkpt>
      <trkpt lat="43.85563" lon="7.25884">
        <ele>819.66137695312</ele>
        <time>2014-03-09T11:41:33Z</time>
      </trkpt>
      <trkpt lat="43.85571" lon="7.25886">
        <ele>820.14184570312</ele>
        <time>2014-03-09T11:41:38Z</time>
      </trkpt>
      <trkpt lat="43.85574" lon="7.25886">
        <ele>818.69995117188</ele>
        <time>2014-03-09T11:41:41Z</time>
      </trkpt>
      <trkpt lat="43.85576" lon="7.25889">
        <ele>816.77734375</ele>
        <time>2014-03-09T11:41:44Z</time>
      </trkpt>
      <trkpt lat="43.85581" lon="7.25889">
        <ele>817.73852539062</ele>
        <time>2014-03-09T11:41:51Z</time>
      </trkpt>
      <trkpt lat="43.85584" lon="7.25889">
        <ele>818.69995117188</ele>
        <time>2014-03-09T11:41:57Z</time>
      </trkpt>
      <trkpt lat="43.85588" lon="7.25889">
        <ele>818.69995117188</ele>
        <time>2014-03-09T11:42:02Z</time>
      </trkpt>
      <trkpt lat="43.85592" lon="7.25892">
        <ele>818.69995117188</ele>
        <time>2014-03-09T11:42:05Z</time>
      </trkpt>
      <trkpt lat="43.85594" lon="7.25895">
        <ele>818.21923828125</ele>
        <time>2014-03-09T11:42:07Z</time>
      </trkpt>
      <trkpt lat="43.856" lon="7.25899">
        <ele>820.14184570312</ele>
        <time>2014-03-09T11:42:12Z</time>
      </trkpt>
      <trkpt lat="43.85611" lon="7.25905">
        <ele>823.50659179688</ele>
        <time>2014-03-09T11:42:19Z</time>
      </trkpt>
      <trkpt lat="43.85619" lon="7.25905">
        <ele>824.4677734375</ele>
        <time>2014-03-09T11:42:24Z</time>
      </trkpt>
      <trkpt lat="43.85627" lon="7.25912">
        <ele>826.39038085938</ele>
        <time>2014-03-09T11:42:29Z</time>
      </trkpt>
      <trkpt lat="43.85631" lon="7.2591">
        <ele>831.197265625</ele>
        <time>2014-03-09T11:42:37Z</time>
      </trkpt>
      <trkpt lat="43.85633" lon="7.25909">
        <ele>831.677734375</ele>
        <time>2014-03-09T11:42:39Z</time>
      </trkpt>
      <trkpt lat="43.85642" lon="7.25919">
        <ele>829.2744140625</ele>
        <time>2014-03-09T11:42:45Z</time>
      </trkpt>
      <trkpt lat="43.85645" lon="7.25917">
        <ele>830.71655273438</ele>
        <time>2014-03-09T11:42:48Z</time>
      </trkpt>
      <trkpt lat="43.85649" lon="7.25915">
        <ele>831.677734375</ele>
        <time>2014-03-09T11:42:55Z</time>
      </trkpt>
      <trkpt lat="43.85655" lon="7.25915">
        <ele>831.677734375</ele>
        <time>2014-03-09T11:43:02Z</time>
      </trkpt>
      <trkpt lat="43.85659" lon="7.25916">
        <ele>832.15844726562</ele>
        <time>2014-03-09T11:43:08Z</time>
      </trkpt>
      <trkpt lat="43.85666" lon="7.25921">
        <ele>832.63916015625</ele>
        <time>2014-03-09T11:43:16Z</time>
      </trkpt>
      <trkpt lat="43.85667" lon="7.25921">
        <ele>832.63916015625</ele>
        <time>2014-03-09T11:43:17Z</time>
      </trkpt>
      <trkpt lat="43.85675" lon="7.25928">
        <ele>834.0810546875</ele>
        <time>2014-03-09T11:43:24Z</time>
      </trkpt>
      <trkpt lat="43.85679" lon="7.25931">
        <ele>836.96484375</ele>
        <time>2014-03-09T11:43:28Z</time>
      </trkpt>
      <trkpt lat="43.85687" lon="7.25935">
        <ele>837.92626953125</ele>
        <time>2014-03-09T11:43:35Z</time>
      </trkpt>
      <trkpt lat="43.85694" lon="7.25936">
        <ele>842.73291015625</ele>
        <time>2014-03-09T11:43:43Z</time>
      </trkpt>
      <trkpt lat="43.85702" lon="7.25936">
        <ele>844.65551757812</ele>
        <time>2014-03-09T11:43:53Z</time>
      </trkpt>
      <trkpt lat="43.85706" lon="7.25937">
        <ele>845.61694335938</ele>
        <time>2014-03-09T11:43:59Z</time>
      </trkpt>
      <trkpt lat="43.85711" lon="7.25935">
        <ele>848.02026367188</ele>
        <time>2014-03-09T11:44:05Z</time>
      </trkpt>
      <trkpt lat="43.85709" lon="7.25933">
        <ele>847.05883789062</ele>
        <time>2014-03-09T11:44:11Z</time>
      </trkpt>
      <trkpt lat="43.85713" lon="7.25933">
        <ele>849.46215820312</ele>
        <time>2014-03-09T11:44:16Z</time>
      </trkpt>
      <trkpt lat="43.8572" lon="7.25934">
        <ele>852.34594726562</ele>
        <time>2014-03-09T11:44:24Z</time>
      </trkpt>
      <trkpt lat="43.85726" lon="7.25935">
        <ele>853.7880859375</ele>
        <time>2014-03-09T11:44:30Z</time>
      </trkpt>
      <trkpt lat="43.85734" lon="7.25935">
        <ele>856.19116210938</ele>
        <time>2014-03-09T11:44:38Z</time>
      </trkpt>
      <trkpt lat="43.8574" lon="7.25938">
        <ele>857.63330078125</ele>
        <time>2014-03-09T11:44:45Z</time>
      </trkpt>
      <trkpt lat="43.85743" lon="7.25939">
        <ele>857.63330078125</ele>
        <time>2014-03-09T11:44:47Z</time>
      </trkpt>
      <trkpt lat="43.85749" lon="7.25943">
        <ele>856.19116210938</ele>
        <time>2014-03-09T11:44:51Z</time>
      </trkpt>
      <trkpt lat="43.85758" lon="7.25944">
        <ele>859.0751953125</ele>
        <time>2014-03-09T11:44:58Z</time>
      </trkpt>
      <trkpt lat="43.85764" lon="7.25945">
        <ele>862.92065429688</ele>
        <time>2014-03-09T11:45:04Z</time>
      </trkpt>
      <trkpt lat="43.85765" lon="7.25946">
        <ele>862.92065429688</ele>
        <time>2014-03-09T11:45:05Z</time>
      </trkpt>
      <trkpt lat="43.85775" lon="7.25951">
        <ele>862.43994140625</ele>
        <time>2014-03-09T11:45:12Z</time>
      </trkpt>
      <trkpt lat="43.85783" lon="7.25955">
        <ele>861.95947265625</ele>
        <time>2014-03-09T11:45:20Z</time>
      </trkpt>
      <trkpt lat="43.85787" lon="7.25953">
        <ele>863.4013671875</ele>
        <time>2014-03-09T11:45:26Z</time>
      </trkpt>
      <trkpt lat="43.85794" lon="7.25953">
        <ele>864.36254882812</ele>
        <time>2014-03-09T11:45:34Z</time>
      </trkpt>
      <trkpt lat="43.85802" lon="7.25951">
        <ele>867.24658203125</ele>
        <time>2014-03-09T11:45:43Z</time>
      </trkpt>
      <trkpt lat="43.8581" lon="7.25951">
        <ele>868.20776367188</ele>
        <time>2014-03-09T11:45:51Z</time>
      </trkpt>
      <trkpt lat="43.85811" lon="7.25951">
        <ele>868.20776367188</ele>
        <time>2014-03-09T11:45:52Z</time>
      </trkpt>
      <trkpt lat="43.85824" lon="7.25956">
        <ele>868.20776367188</ele>
        <time>2014-03-09T11:46:00Z</time>
      </trkpt>
      <trkpt lat="43.85829" lon="7.25954">
        <ele>870.61108398438</ele>
        <time>2014-03-09T11:46:05Z</time>
      </trkpt>
      <trkpt lat="43.85833" lon="7.25952">
        <ele>871.572265625</ele>
        <time>2014-03-09T11:46:10Z</time>
      </trkpt>
      <trkpt lat="43.8584" lon="7.25952">
        <ele>873.4951171875</ele>
        <time>2014-03-09T11:46:17Z</time>
      </trkpt>
      <trkpt lat="43.85846" lon="7.25953">
        <ele>874.45629882812</ele>
        <time>2014-03-09T11:46:23Z</time>
      </trkpt>
      <trkpt lat="43.85852" lon="7.25954">
        <ele>875.41748046875</ele>
        <time>2014-03-09T11:46:29Z</time>
      </trkpt>
      <trkpt lat="43.8586" lon="7.25955">
        <ele>878.3017578125</ele>
        <time>2014-03-09T11:46:38Z</time>
      </trkpt>
      <trkpt lat="43.85869" lon="7.25955">
        <ele>878.78247070312</ele>
        <time>2014-03-09T11:46:46Z</time>
      </trkpt>
      <trkpt lat="43.85876" lon="7.25955">
        <ele>879.74365234375</ele>
        <time>2014-03-09T11:46:54Z</time>
      </trkpt>
      <trkpt lat="43.85884" lon="7.25957">
        <ele>881.18579101562</ele>
        <time>2014-03-09T11:47:02Z</time>
      </trkpt>
      <trkpt lat="43.85893" lon="7.2596">
        <ele>882.14697265625</ele>
        <time>2014-03-09T11:47:11Z</time>
      </trkpt>
      <trkpt lat="43.85901" lon="7.25963">
        <ele>882.62768554688</ele>
        <time>2014-03-09T11:47:19Z</time>
      </trkpt>
      <trkpt lat="43.85908" lon="7.25965">
        <ele>884.06958007812</ele>
        <time>2014-03-09T11:47:26Z</time>
      </trkpt>
      <trkpt lat="43.85916" lon="7.25965">
        <ele>885.51147460938</ele>
        <time>2014-03-09T11:47:34Z</time>
      </trkpt>
      <trkpt lat="43.85921" lon="7.25965">
        <ele>886.95336914062</ele>
        <time>2014-03-09T11:47:41Z</time>
      </trkpt>
      <trkpt lat="43.85928" lon="7.25965">
        <ele>888.87622070312</ele>
        <time>2014-03-09T11:47:48Z</time>
      </trkpt>
      <trkpt lat="43.85933" lon="7.25965">
        <ele>890.79858398438</ele>
        <time>2014-03-09T11:47:55Z</time>
      </trkpt>
      <trkpt lat="43.85937" lon="7.25965">
        <ele>892.24096679688</ele>
        <time>2014-03-09T11:48:02Z</time>
      </trkpt>
      <trkpt lat="43.85942" lon="7.25965">
        <ele>893.2021484375</ele>
        <time>2014-03-09T11:48:08Z</time>
      </trkpt>
      <trkpt lat="43.85949" lon="7.25968">
        <ele>894.64404296875</ele>
        <time>2014-03-09T11:48:16Z</time>
      </trkpt>
      <trkpt lat="43.85956" lon="7.2597">
        <ele>895.60546875</ele>
        <time>2014-03-09T11:48:25Z</time>
      </trkpt>
      <trkpt lat="43.85964" lon="7.25971">
        <ele>897.04736328125</ele>
        <time>2014-03-09T11:48:33Z</time>
      </trkpt>
      <trkpt lat="43.85967" lon="7.25973">
        <ele>897.52807617188</ele>
        <time>2014-03-09T11:48:36Z</time>
      </trkpt>
      <trkpt lat="43.85972" lon="7.25974">
        <ele>898.96997070312</ele>
        <time>2014-03-09T11:48:41Z</time>
      </trkpt>
      <trkpt lat="43.85983" lon="7.25976">
        <ele>900.892578125</ele>
        <time>2014-03-09T11:48:51Z</time>
      </trkpt>
      <trkpt lat="43.85992" lon="7.25979">
        <ele>898.96997070312</ele>
        <time>2014-03-09T11:49:01Z</time>
      </trkpt>
      <trkpt lat="43.86001" lon="7.25983">
        <ele>900.892578125</ele>
        <time>2014-03-09T11:49:08Z</time>
      </trkpt>
      <trkpt lat="43.8601" lon="7.25986">
        <ele>903.2958984375</ele>
        <time>2014-03-09T11:49:16Z</time>
      </trkpt>
      <trkpt lat="43.86019" lon="7.25988">
        <ele>905.21850585938</ele>
        <time>2014-03-09T11:49:24Z</time>
      </trkpt>
      <trkpt lat="43.86027" lon="7.25994">
        <ele>904.73779296875</ele>
        <time>2014-03-09T11:49:32Z</time>
      </trkpt>
      <trkpt lat="43.86032" lon="7.25994">
        <ele>905.21850585938</ele>
        <time>2014-03-09T11:49:40Z</time>
      </trkpt>
      <trkpt lat="43.86031" lon="7.25991">
        <ele>904.25732421875</ele>
        <time>2014-03-09T11:49:45Z</time>
      </trkpt>
      <trkpt lat="43.86032" lon="7.25988">
        <ele>905.69921875</ele>
        <time>2014-03-09T11:49:50Z</time>
      </trkpt>
      <trkpt lat="43.86037" lon="7.25988">
        <ele>907.62182617188</ele>
        <time>2014-03-09T11:49:57Z</time>
      </trkpt>
      <trkpt lat="43.86044" lon="7.25991">
        <ele>909.06396484375</ele>
        <time>2014-03-09T11:50:06Z</time>
      </trkpt>
      <trkpt lat="43.86049" lon="7.25996">
        <ele>908.58325195312</ele>
        <time>2014-03-09T11:50:13Z</time>
      </trkpt>
      <trkpt lat="43.86056" lon="7.25999">
        <ele>910.98657226562</ele>
        <time>2014-03-09T11:50:21Z</time>
      </trkpt>
      <trkpt lat="43.86055" lon="7.25996">
        <ele>911.94799804688</ele>
        <time>2014-03-09T11:50:26Z</time>
      </trkpt>
      <trkpt lat="43.86055" lon="7.25993">
        <ele>913.38989257812</ele>
        <time>2014-03-09T11:50:31Z</time>
      </trkpt>
      <trkpt lat="43.86055" lon="7.25991">
        <ele>914.35107421875</ele>
        <time>2014-03-09T11:50:36Z</time>
      </trkpt>
      <trkpt lat="43.86051" lon="7.25985">
        <ele>914.83178710938</ele>
        <time>2014-03-09T11:50:43Z</time>
      </trkpt>
      <trkpt lat="43.86055" lon="7.25981">
        <ele>916.75439453125</ele>
        <time>2014-03-09T11:50:49Z</time>
      </trkpt>
      <trkpt lat="43.86056" lon="7.25981">
        <ele>916.75439453125</ele>
        <time>2014-03-09T11:50:54Z</time>
      </trkpt>
      <trkpt lat="43.86055" lon="7.2598">
        <ele>917.71557617188</ele>
        <time>2014-03-09T11:51:01Z</time>
      </trkpt>
      <trkpt lat="43.86059" lon="7.25978">
        <ele>920.599609375</ele>
        <time>2014-03-09T11:51:07Z</time>
      </trkpt>
      <trkpt lat="43.86069" lon="7.25983">
        <ele>922.52221679688</ele>
        <time>2014-03-09T11:51:16Z</time>
      </trkpt>
      <trkpt lat="43.8608" lon="7.25987">
        <ele>924.92578125</ele>
        <time>2014-03-09T11:51:26Z</time>
      </trkpt>
      <trkpt lat="43.86087" lon="7.25994">
        <ele>924.92578125</ele>
        <time>2014-03-09T11:51:34Z</time>
      </trkpt>
      <trkpt lat="43.86094" lon="7.25999">
        <ele>924.92578125</ele>
        <time>2014-03-09T11:51:42Z</time>
      </trkpt>
      <trkpt lat="43.86103" lon="7.26001">
        <ele>926.36767578125</ele>
        <time>2014-03-09T11:51:51Z</time>
      </trkpt>
      <trkpt lat="43.86111" lon="7.26003">
        <ele>927.8095703125</ele>
        <time>2014-03-09T11:51:59Z</time>
      </trkpt>
      <trkpt lat="43.86119" lon="7.26009">
        <ele>927.8095703125</ele>
        <time>2014-03-09T11:52:08Z</time>
      </trkpt>
      <trkpt lat="43.86123" lon="7.26015">
        <ele>929.73217773438</ele>
        <time>2014-03-09T11:52:16Z</time>
      </trkpt>
      <trkpt lat="43.86124" lon="7.26019">
        <ele>932.13549804688</ele>
        <time>2014-03-09T11:52:24Z</time>
      </trkpt>
      <trkpt lat="43.86126" lon="7.26023">
        <ele>934.05810546875</ele>
        <time>2014-03-09T11:52:30Z</time>
      </trkpt>
      <trkpt lat="43.86129" lon="7.26029">
        <ele>937.42260742188</ele>
        <time>2014-03-09T11:52:38Z</time>
      </trkpt>
      <trkpt lat="43.86132" lon="7.26033">
        <ele>939.82592773438</ele>
        <time>2014-03-09T11:52:47Z</time>
      </trkpt>
      <trkpt lat="43.86139" lon="7.26037">
        <ele>942.2294921875</ele>
        <time>2014-03-09T11:52:57Z</time>
      </trkpt>
      <trkpt lat="43.86144" lon="7.26042">
        <ele>943.67138671875</ele>
        <time>2014-03-09T11:53:07Z</time>
      </trkpt>
      <trkpt lat="43.86149" lon="7.26049">
        <ele>943.67138671875</ele>
        <time>2014-03-09T11:53:18Z</time>
      </trkpt>
      <trkpt lat="43.86153" lon="7.26052">
        <ele>945.59399414062</ele>
        <time>2014-03-09T11:53:25Z</time>
      </trkpt>
      <trkpt lat="43.86157" lon="7.26056">
        <ele>947.03588867188</ele>
        <time>2014-03-09T11:53:32Z</time>
      </trkpt>
      <trkpt lat="43.8616" lon="7.26061">
        <ele>949.919921875</ele>
        <time>2014-03-09T11:53:38Z</time>
      </trkpt>
      <trkpt lat="43.86164" lon="7.26067">
        <ele>953.76513671875</ele>
        <time>2014-03-09T11:53:45Z</time>
      </trkpt>
      <trkpt lat="43.86171" lon="7.26073">
        <ele>956.16845703125</ele>
        <time>2014-03-09T11:53:54Z</time>
      </trkpt>
      <trkpt lat="43.86175" lon="7.26078">
        <ele>958.57177734375</ele>
        <time>2014-03-09T11:54:01Z</time>
      </trkpt>
      <trkpt lat="43.86179" lon="7.26083">
        <ele>960.013671875</ele>
        <time>2014-03-09T11:54:07Z</time>
      </trkpt>
      <trkpt lat="43.86186" lon="7.2609">
        <ele>962.4169921875</ele>
        <time>2014-03-09T11:54:15Z</time>
      </trkpt>
      <trkpt lat="43.8619" lon="7.26095">
        <ele>964.33959960938</ele>
        <time>2014-03-09T11:54:21Z</time>
      </trkpt>
      <trkpt lat="43.86194" lon="7.26099">
        <ele>964.33959960938</ele>
        <time>2014-03-09T11:54:28Z</time>
      </trkpt>
      <trkpt lat="43.86197" lon="7.26108">
        <ele>964.33959960938</ele>
        <time>2014-03-09T11:54:35Z</time>
      </trkpt>
      <trkpt lat="43.86194" lon="7.2611">
        <ele>964.8203125</ele>
        <time>2014-03-09T11:54:39Z</time>
      </trkpt>
      <trkpt lat="43.86187" lon="7.26112">
        <ele>965.30102539062</ele>
        <time>2014-03-09T11:54:48Z</time>
      </trkpt>
      <trkpt lat="43.86179" lon="7.26113">
        <ele>964.8203125</ele>
        <time>2014-03-09T11:54:55Z</time>
      </trkpt>
      <trkpt lat="43.8617" lon="7.2611">
        <ele>965.78173828125</ele>
        <time>2014-03-09T11:55:02Z</time>
      </trkpt>
      <trkpt lat="43.86168" lon="7.26114">
        <ele>967.7041015625</ele>
        <time>2014-03-09T11:55:07Z</time>
      </trkpt>
      <trkpt lat="43.86175" lon="7.26119">
        <ele>970.58813476562</ele>
        <time>2014-03-09T11:55:16Z</time>
      </trkpt>
      <trkpt lat="43.86179" lon="7.26125">
        <ele>972.51098632812</ele>
        <time>2014-03-09T11:55:24Z</time>
      </trkpt>
      <trkpt lat="43.86184" lon="7.26128">
        <ele>974.43359375</ele>
        <time>2014-03-09T11:55:32Z</time>
      </trkpt>
      <trkpt lat="43.86189" lon="7.26135">
        <ele>975.39477539062</ele>
        <time>2014-03-09T11:55:41Z</time>
      </trkpt>
      <trkpt lat="43.86194" lon="7.2614">
        <ele>978.27880859375</ele>
        <time>2014-03-09T11:55:51Z</time>
      </trkpt>
      <trkpt lat="43.86198" lon="7.26145">
        <ele>981.16284179688</ele>
        <time>2014-03-09T11:55:59Z</time>
      </trkpt>
      <trkpt lat="43.86204" lon="7.26154">
        <ele>982.60473632812</ele>
        <time>2014-03-09T11:56:08Z</time>
      </trkpt>
      <trkpt lat="43.86209" lon="7.26161">
        <ele>984.04663085938</ele>
        <time>2014-03-09T11:56:16Z</time>
      </trkpt>
      <trkpt lat="43.86213" lon="7.26167">
        <ele>985.48852539062</ele>
        <time>2014-03-09T11:56:24Z</time>
      </trkpt>
      <trkpt lat="43.86218" lon="7.26173">
        <ele>987.4111328125</ele>
        <time>2014-03-09T11:56:32Z</time>
      </trkpt>
      <trkpt lat="43.86224" lon="7.26182">
        <ele>988.853515625</ele>
        <time>2014-03-09T11:56:41Z</time>
      </trkpt>
      <trkpt lat="43.8623" lon="7.26192">
        <ele>989.333984375</ele>
        <time>2014-03-09T11:56:50Z</time>
      </trkpt>
      <trkpt lat="43.86236" lon="7.26203">
        <ele>989.81469726562</ele>
        <time>2014-03-09T11:57:01Z</time>
      </trkpt>
      <trkpt lat="43.86237" lon="7.26211">
        <ele>987.89184570312</ele>
        <time>2014-03-09T11:57:10Z</time>
      </trkpt>
      <trkpt lat="43.86239" lon="7.26217">
        <ele>987.89184570312</ele>
        <time>2014-03-09T11:57:17Z</time>
      </trkpt>
      <trkpt lat="43.86242" lon="7.26226">
        <ele>992.21801757812</ele>
        <time>2014-03-09T11:57:26Z</time>
      </trkpt>
      <trkpt lat="43.86246" lon="7.26236">
        <ele>996.5439453125</ele>
        <time>2014-03-09T11:57:36Z</time>
      </trkpt>
      <trkpt lat="43.8625" lon="7.26244">
        <ele>999.90844726562</ele>
        <time>2014-03-09T11:57:46Z</time>
      </trkpt>
      <trkpt lat="43.86251" lon="7.26253">
        <ele>1001.3503417969</ele>
        <time>2014-03-09T11:57:55Z</time>
      </trkpt>
      <trkpt lat="43.86253" lon="7.26266">
        <ele>1001.3503417969</ele>
        <time>2014-03-09T11:58:05Z</time>
      </trkpt>
      <trkpt lat="43.86257" lon="7.26274">
        <ele>1000.3891601562</ele>
        <time>2014-03-09T11:58:13Z</time>
      </trkpt>
      <trkpt lat="43.86264" lon="7.26283">
        <ele>1002.3115234375</ele>
        <time>2014-03-09T11:58:22Z</time>
      </trkpt>
      <trkpt lat="43.86273" lon="7.26289">
        <ele>1005.1958007812</ele>
        <time>2014-03-09T11:58:32Z</time>
      </trkpt>
      <trkpt lat="43.86281" lon="7.26295">
        <ele>1007.1184082031</ele>
        <time>2014-03-09T11:58:38Z</time>
      </trkpt>
      <trkpt lat="43.86294" lon="7.26311">
        <ele>1009.041015625</ele>
        <time>2014-03-09T11:58:46Z</time>
      </trkpt>
      <trkpt lat="43.86303" lon="7.26323">
        <ele>1012.4055175781</ele>
        <time>2014-03-09T11:58:53Z</time>
      </trkpt>
      <trkpt lat="43.86313" lon="7.26339">
        <ele>1013.8474121094</ele>
        <time>2014-03-09T11:59:01Z</time>
      </trkpt>
      <trkpt lat="43.86322" lon="7.26349">
        <ele>1013.8474121094</ele>
        <time>2014-03-09T11:59:07Z</time>
      </trkpt>
      <trkpt lat="43.86332" lon="7.26358">
        <ele>1014.328125</ele>
        <time>2014-03-09T11:59:13Z</time>
      </trkpt>
      <trkpt lat="43.8634" lon="7.26375">
        <ele>1013.8474121094</ele>
        <time>2014-03-09T11:59:20Z</time>
      </trkpt>
      <trkpt lat="43.86343" lon="7.2639">
        <ele>1014.8088378906</ele>
        <time>2014-03-09T11:59:27Z</time>
      </trkpt>
      <trkpt lat="43.86347" lon="7.26402">
        <ele>1016.2507324219</ele>
        <time>2014-03-09T11:59:34Z</time>
      </trkpt>
      <trkpt lat="43.8635" lon="7.26411">
        <ele>1018.1733398438</ele>
        <time>2014-03-09T11:59:39Z</time>
      </trkpt>
      <trkpt lat="43.86351" lon="7.26424">
        <ele>1019.6154785156</ele>
        <time>2014-03-09T11:59:46Z</time>
      </trkpt>
      <trkpt lat="43.86355" lon="7.26441">
        <ele>1021.0576171875</ele>
        <time>2014-03-09T11:59:55Z</time>
      </trkpt>
      <trkpt lat="43.86357" lon="7.26456">
        <ele>1022.0187988281</ele>
        <time>2014-03-09T12:00:02Z</time>
      </trkpt>
      <trkpt lat="43.8636" lon="7.26473">
        <ele>1023.4609375</ele>
        <time>2014-03-09T12:00:10Z</time>
      </trkpt>
      <trkpt lat="43.86362" lon="7.26487">
        <ele>1025.3833007812</ele>
        <time>2014-03-09T12:00:17Z</time>
      </trkpt>
      <trkpt lat="43.8636" lon="7.26496">
        <ele>1026.8254394531</ele>
        <time>2014-03-09T12:00:23Z</time>
      </trkpt>
      <trkpt lat="43.86356" lon="7.26502">
        <ele>1027.7866210938</ele>
        <time>2014-03-09T12:00:27Z</time>
      </trkpt>
      <trkpt lat="43.86351" lon="7.26507">
        <ele>1028.748046875</ele>
        <time>2014-03-09T12:00:33Z</time>
      </trkpt>
      <trkpt lat="43.86349" lon="7.26511">
        <ele>1030.6706542969</ele>
        <time>2014-03-09T12:00:38Z</time>
      </trkpt>
      <trkpt lat="43.86351" lon="7.26511">
        <ele>1031.1513671875</ele>
        <time>2014-03-09T12:00:40Z</time>
      </trkpt>
      <trkpt lat="43.86357" lon="7.2651">
        <ele>1031.6318359375</ele>
        <time>2014-03-09T12:00:48Z</time>
      </trkpt>
      <trkpt lat="43.86362" lon="7.26509">
        <ele>1033.5544433594</ele>
        <time>2014-03-09T12:00:56Z</time>
      </trkpt>
      <trkpt lat="43.86363" lon="7.26508">
        <ele>1034.03515625</ele>
        <time>2014-03-09T12:00:57Z</time>
      </trkpt>
      <trkpt lat="43.86374" lon="7.26505">
        <ele>1036.4387207031</ele>
        <time>2014-03-09T12:01:04Z</time>
      </trkpt>
      <trkpt lat="43.86383" lon="7.26501">
        <ele>1037.8806152344</ele>
        <time>2014-03-09T12:01:08Z</time>
      </trkpt>
      <trkpt lat="43.86391" lon="7.26501">
        <ele>1038.8420410156</ele>
        <time>2014-03-09T12:01:14Z</time>
      </trkpt>
      <trkpt lat="43.864" lon="7.26496">
        <ele>1039.8032226562</ele>
        <time>2014-03-09T12:01:20Z</time>
      </trkpt>
      <trkpt lat="43.86411" lon="7.26485">
        <ele>1040.7644042969</ele>
        <time>2014-03-09T12:01:28Z</time>
      </trkpt>
      <trkpt lat="43.86423" lon="7.26478">
        <ele>1041.2451171875</ele>
        <time>2014-03-09T12:01:35Z</time>
      </trkpt>
      <trkpt lat="43.86434" lon="7.26477">
        <ele>1042.6872558594</ele>
        <time>2014-03-09T12:01:40Z</time>
      </trkpt>
      <trkpt lat="43.86448" lon="7.26488">
        <ele>1043.1677246094</ele>
        <time>2014-03-09T12:01:47Z</time>
      </trkpt>
      <trkpt lat="43.86459" lon="7.26498">
        <ele>1042.6872558594</ele>
        <time>2014-03-09T12:01:53Z</time>
      </trkpt>
      <trkpt lat="43.86469" lon="7.26507">
        <ele>1044.6096191406</ele>
        <time>2014-03-09T12:01:59Z</time>
      </trkpt>
      <trkpt lat="43.86477" lon="7.26519">
        <ele>1047.0129394531</ele>
        <time>2014-03-09T12:02:05Z</time>
      </trkpt>
      <trkpt lat="43.86483" lon="7.26524">
        <ele>1048.935546875</ele>
        <time>2014-03-09T12:02:10Z</time>
      </trkpt>
      <trkpt lat="43.86489" lon="7.26528">
        <ele>1051.8195800781</ele>
        <time>2014-03-09T12:02:19Z</time>
      </trkpt>
      <trkpt lat="43.86494" lon="7.26534">
        <ele>1055.6650390625</ele>
        <time>2014-03-09T12:02:28Z</time>
      </trkpt>
      <trkpt lat="43.86501" lon="7.26537">
        <ele>1058.548828125</ele>
        <time>2014-03-09T12:02:36Z</time>
      </trkpt>
      <trkpt lat="43.86504" lon="7.26539">
        <ele>1060.4714355469</ele>
        <time>2014-03-09T12:02:42Z</time>
      </trkpt>
      <trkpt lat="43.86507" lon="7.26543">
        <ele>1061.9135742188</ele>
        <time>2014-03-09T12:02:45Z</time>
      </trkpt>
      <trkpt lat="43.86517" lon="7.26546">
        <ele>1064.7973632812</ele>
        <time>2014-03-09T12:02:51Z</time>
      </trkpt>
      <trkpt lat="43.86521" lon="7.26551">
        <ele>1065.2780761719</ele>
        <time>2014-03-09T12:02:54Z</time>
      </trkpt>
      <trkpt lat="43.86535" lon="7.2656">
        <ele>1063.35546875</ele>
        <time>2014-03-09T12:03:01Z</time>
      </trkpt>
      <trkpt lat="43.86545" lon="7.26563">
        <ele>1065.2780761719</ele>
        <time>2014-03-09T12:03:06Z</time>
      </trkpt>
      <trkpt lat="43.86556" lon="7.26568">
        <ele>1065.7587890625</ele>
        <time>2014-03-09T12:03:12Z</time>
      </trkpt>
      <trkpt lat="43.86565" lon="7.26574">
        <ele>1066.7199707031</ele>
        <time>2014-03-09T12:03:17Z</time>
      </trkpt>
      <trkpt lat="43.86575" lon="7.26579">
        <ele>1068.6428222656</ele>
        <time>2014-03-09T12:03:22Z</time>
      </trkpt>
      <trkpt lat="43.86588" lon="7.26584">
        <ele>1072.0073242188</ele>
        <time>2014-03-09T12:03:29Z</time>
      </trkpt>
      <trkpt lat="43.86599" lon="7.26589">
        <ele>1074.4106445312</ele>
        <time>2014-03-09T12:03:36Z</time>
      </trkpt>
      <trkpt lat="43.8661" lon="7.26589">
        <ele>1075.8525390625</ele>
        <time>2014-03-09T12:03:42Z</time>
      </trkpt>
      <trkpt lat="43.86623" lon="7.26584">
        <ele>1074.4106445312</ele>
        <time>2014-03-09T12:03:49Z</time>
      </trkpt>
      <trkpt lat="43.86636" lon="7.26584">
        <ele>1072.96875</ele>
        <time>2014-03-09T12:03:56Z</time>
      </trkpt>
      <trkpt lat="43.86648" lon="7.26581">
        <ele>1072.96875</ele>
        <time>2014-03-09T12:04:03Z</time>
      </trkpt>
      <trkpt lat="43.86652" lon="7.26576">
        <ele>1074.4106445312</ele>
        <time>2014-03-09T12:04:09Z</time>
      </trkpt>
      <trkpt lat="43.86658" lon="7.26571">
        <ele>1077.2946777344</ele>
        <time>2014-03-09T12:04:17Z</time>
      </trkpt>
      <trkpt lat="43.86666" lon="7.26569">
        <ele>1078.255859375</ele>
        <time>2014-03-09T12:04:26Z</time>
      </trkpt>
      <trkpt lat="43.86671" lon="7.26567">
        <ele>1078.7365722656</ele>
        <time>2014-03-09T12:04:33Z</time>
      </trkpt>
      <trkpt lat="43.86678" lon="7.26566">
        <ele>1080.6591796875</ele>
        <time>2014-03-09T12:04:41Z</time>
      </trkpt>
      <trkpt lat="43.86684" lon="7.26566">
        <ele>1080.6591796875</ele>
        <time>2014-03-09T12:04:47Z</time>
      </trkpt>
      <trkpt lat="43.8669" lon="7.26567">
        <ele>1081.6203613281</ele>
        <time>2014-03-09T12:04:53Z</time>
      </trkpt>
      <trkpt lat="43.86697" lon="7.26567">
        <ele>1082.1010742188</ele>
        <time>2014-03-09T12:05:00Z</time>
      </trkpt>
      <trkpt lat="43.86702" lon="7.26568">
        <ele>1082.5817871094</ele>
        <time>2014-03-09T12:05:04Z</time>
      </trkpt>
      <trkpt lat="43.86705" lon="7.26568">
        <ele>1083.0622558594</ele>
        <time>2014-03-09T12:05:08Z</time>
      </trkpt>
      <trkpt lat="43.86716" lon="7.26573">
        <ele>1084.0239257812</ele>
        <time>2014-03-09T12:05:15Z</time>
      </trkpt>
      <trkpt lat="43.86729" lon="7.26578">
        <ele>1084.9853515625</ele>
        <time>2014-03-09T12:05:21Z</time>
      </trkpt>
      <trkpt lat="43.86742" lon="7.26582">
        <ele>1086.9077148438</ele>
        <time>2014-03-09T12:05:27Z</time>
      </trkpt>
      <trkpt lat="43.86757" lon="7.26585">
        <ele>1089.3110351562</ele>
        <time>2014-03-09T12:05:34Z</time>
      </trkpt>
      <trkpt lat="43.86768" lon="7.26587">
        <ele>1090.2724609375</ele>
        <time>2014-03-09T12:05:41Z</time>
      </trkpt>
      <trkpt lat="43.86782" lon="7.2659">
        <ele>1093.15625</ele>
        <time>2014-03-09T12:05:49Z</time>
      </trkpt>
      <trkpt lat="43.86797" lon="7.26596">
        <ele>1094.1176757812</ele>
        <time>2014-03-09T12:05:56Z</time>
      </trkpt>
      <trkpt lat="43.86803" lon="7.26605">
        <ele>1096.0402832031</ele>
        <time>2014-03-09T12:06:02Z</time>
      </trkpt>
      <trkpt lat="43.86809" lon="7.26615">
        <ele>1093.15625</ele>
        <time>2014-03-09T12:06:11Z</time>
      </trkpt>
      <trkpt lat="43.86814" lon="7.26623">
        <ele>1089.7917480469</ele>
        <time>2014-03-09T12:06:18Z</time>
      </trkpt>
      <trkpt lat="43.86815" lon="7.26629">
        <ele>1090.2724609375</ele>
        <time>2014-03-09T12:06:25Z</time>
      </trkpt>
      <trkpt lat="43.86813" lon="7.26629">
        <ele>1093.15625</ele>
        <time>2014-03-09T12:06:30Z</time>
      </trkpt>
      <trkpt lat="43.8681" lon="7.2663">
        <ele>1092.1950683594</ele>
        <time>2014-03-09T12:06:34Z</time>
      </trkpt>
      <trkpt lat="43.86805" lon="7.26631">
        <ele>1095.5595703125</ele>
        <time>2014-03-09T12:06:40Z</time>
      </trkpt>
      <trkpt lat="43.86806" lon="7.26631">
        <ele>1096.0402832031</ele>
        <time>2014-03-09T12:06:45Z</time>
      </trkpt>
      <trkpt lat="43.86808" lon="7.26632">
        <ele>1096.5209960938</ele>
        <time>2014-03-09T12:06:50Z</time>
      </trkpt>
      <trkpt lat="43.86811" lon="7.26637">
        <ele>1099.4047851562</ele>
        <time>2014-03-09T12:06:57Z</time>
      </trkpt>
      <trkpt lat="43.86816" lon="7.26639">
        <ele>1099.8854980469</ele>
        <time>2014-03-09T12:07:01Z</time>
      </trkpt>
      <trkpt lat="43.86836" lon="7.26646">
        <ele>1100.3664550781</ele>
        <time>2014-03-09T12:07:10Z</time>
      </trkpt>
      <trkpt lat="43.86854" lon="7.26645">
        <ele>1100.3664550781</ele>
        <time>2014-03-09T12:07:17Z</time>
      </trkpt>
      <trkpt lat="43.86872" lon="7.26634">
        <ele>1100.8469238281</ele>
        <time>2014-03-09T12:07:25Z</time>
      </trkpt>
      <trkpt lat="43.86883" lon="7.26619">
        <ele>1102.2888183594</ele>
        <time>2014-03-09T12:07:32Z</time>
      </trkpt>
      <trkpt lat="43.86898" lon="7.266">
        <ele>1102.76953125</ele>
        <time>2014-03-09T12:07:41Z</time>
      </trkpt>
      <trkpt lat="43.86905" lon="7.26589">
        <ele>1102.76953125</ele>
        <time>2014-03-09T12:07:46Z</time>
      </trkpt>
      <trkpt lat="43.86915" lon="7.26568">
        <ele>1099.4047851562</ele>
        <time>2014-03-09T12:07:54Z</time>
      </trkpt>
      <trkpt lat="43.86924" lon="7.26559">
        <ele>1099.4047851562</ele>
        <time>2014-03-09T12:07:59Z</time>
      </trkpt>
      <trkpt lat="43.86945" lon="7.26559">
        <ele>1100.8469238281</ele>
        <time>2014-03-09T12:08:07Z</time>
      </trkpt>
      <trkpt lat="43.86964" lon="7.26564">
        <ele>1102.76953125</ele>
        <time>2014-03-09T12:08:15Z</time>
      </trkpt>
      <trkpt lat="43.86983" lon="7.26566">
        <ele>1103.2502441406</ele>
        <time>2014-03-09T12:08:23Z</time>
      </trkpt>
      <trkpt lat="43.87" lon="7.26559">
        <ele>1104.6921386719</ele>
        <time>2014-03-09T12:08:30Z</time>
      </trkpt>
      <trkpt lat="43.87014" lon="7.26546">
        <ele>1106.6147460938</ele>
        <time>2014-03-09T12:08:37Z</time>
      </trkpt>
      <trkpt lat="43.87033" lon="7.26531">
        <ele>1109.4987792969</ele>
        <time>2014-03-09T12:08:46Z</time>
      </trkpt>
      <trkpt lat="43.87054" lon="7.26526">
        <ele>1111.4213867188</ele>
        <time>2014-03-09T12:08:55Z</time>
      </trkpt>
      <trkpt lat="43.87064" lon="7.26515">
        <ele>1111.9020996094</ele>
        <time>2014-03-09T12:09:01Z</time>
      </trkpt>
      <trkpt lat="43.87065" lon="7.26515">
        <ele>1111.9020996094</ele>
        <time>2014-03-09T12:09:09Z</time>
      </trkpt>
      <trkpt lat="43.87066" lon="7.26513">
        <ele>1115.7473144531</ele>
        <time>2014-03-09T12:10:21Z</time>
      </trkpt>
      <trkpt lat="43.87066" lon="7.26513">
        <ele>1115.7473144531</ele>
        <time>2014-03-09T12:10:22Z</time>
      </trkpt>
      <trkpt lat="43.87067" lon="7.26511">
        <ele>1115.7473144531</ele>
        <time>2014-03-09T12:11:54Z</time>
      </trkpt>
      <trkpt lat="43.87068" lon="7.26511">
        <ele>1115.2666015625</ele>
        <time>2014-03-09T12:12:15Z</time>
      </trkpt>
      <trkpt lat="43.8707" lon="7.26507">
        <ele>1113.8244628906</ele>
        <time>2014-03-09T12:12:48Z</time>
      </trkpt>
      <trkpt lat="43.87077" lon="7.26498">
        <ele>1113.3439941406</ele>
        <time>2014-03-09T12:12:53Z</time>
      </trkpt>
      <trkpt lat="43.87082" lon="7.26479">
        <ele>1113.8244628906</ele>
        <time>2014-03-09T12:12:58Z</time>
      </trkpt>
      <trkpt lat="43.87081" lon="7.26454">
        <ele>1114.3051757812</ele>
        <time>2014-03-09T12:13:04Z</time>
      </trkpt>
      <trkpt lat="43.87078" lon="7.26439">
        <ele>1114.7858886719</ele>
        <time>2014-03-09T12:13:09Z</time>
      </trkpt>
      <trkpt lat="43.87077" lon="7.26427">
        <ele>1114.3051757812</ele>
        <time>2014-03-09T12:13:14Z</time>
      </trkpt>
      <trkpt lat="43.87074" lon="7.26413">
        <ele>1113.8244628906</ele>
        <time>2014-03-09T12:13:19Z</time>
      </trkpt>
      <trkpt lat="43.87069" lon="7.26401">
        <ele>1113.3439941406</ele>
        <time>2014-03-09T12:13:24Z</time>
      </trkpt>
      <trkpt lat="43.87066" lon="7.26387">
        <ele>1113.8244628906</ele>
        <time>2014-03-09T12:13:30Z</time>
      </trkpt>
      <trkpt lat="43.87064" lon="7.2637">
        <ele>1114.3051757812</ele>
        <time>2014-03-09T12:13:37Z</time>
      </trkpt>
      <trkpt lat="43.87061" lon="7.26352">
        <ele>1116.2280273438</ele>
        <time>2014-03-09T12:13:45Z</time>
      </trkpt>
      <trkpt lat="43.87057" lon="7.26342">
        <ele>1119.1120605469</ele>
        <time>2014-03-09T12:13:51Z</time>
      </trkpt>
      <trkpt lat="43.87054" lon="7.26338">
        <ele>1121.5151367188</ele>
        <time>2014-03-09T12:13:55Z</time>
      </trkpt>
      <trkpt lat="43.87051" lon="7.26335">
        <ele>1124.8798828125</ele>
        <time>2014-03-09T12:14:01Z</time>
      </trkpt>
      <trkpt lat="43.87048" lon="7.26327">
        <ele>1127.763671875</ele>
        <time>2014-03-09T12:14:10Z</time>
      </trkpt>
      <trkpt lat="43.87046" lon="7.26318">
        <ele>1128.7250976562</ele>
        <time>2014-03-09T12:14:18Z</time>
      </trkpt>
      <trkpt lat="43.87045" lon="7.26311">
        <ele>1128.7250976562</ele>
        <time>2014-03-09T12:14:23Z</time>
      </trkpt>
      <trkpt lat="43.87045" lon="7.26302">
        <ele>1126.8024902344</ele>
        <time>2014-03-09T12:14:27Z</time>
      </trkpt>
      <trkpt lat="43.87043" lon="7.26291">
        <ele>1126.8024902344</ele>
        <time>2014-03-09T12:14:33Z</time>
      </trkpt>
      <trkpt lat="43.87043" lon="7.26288">
        <ele>1127.283203125</ele>
        <time>2014-03-09T12:14:34Z</time>
      </trkpt>
      <trkpt lat="43.87042" lon="7.26279">
        <ele>1127.763671875</ele>
        <time>2014-03-09T12:14:37Z</time>
      </trkpt>
      <trkpt lat="43.87043" lon="7.26268">
        <ele>1129.2055664062</ele>
        <time>2014-03-09T12:14:41Z</time>
      </trkpt>
      <trkpt lat="43.87045" lon="7.26254">
        <ele>1130.1669921875</ele>
        <time>2014-03-09T12:14:46Z</time>
      </trkpt>
      <trkpt lat="43.87043" lon="7.26237">
        <ele>1126.3217773438</ele>
        <time>2014-03-09T12:14:51Z</time>
      </trkpt>
      <trkpt lat="43.87043" lon="7.26213">
        <ele>1120.5539550781</ele>
        <time>2014-03-09T12:14:55Z</time>
      </trkpt>
      <trkpt lat="43.87043" lon="7.26202">
        <ele>1119.5927734375</ele>
        <time>2014-03-09T12:14:56Z</time>
      </trkpt>
      <trkpt lat="43.87048" lon="7.26156">
        <ele>1114.3051757812</ele>
        <time>2014-03-09T12:15:01Z</time>
      </trkpt>
      <trkpt lat="43.87053" lon="7.26136">
        <ele>1109.4987792969</ele>
        <time>2014-03-09T12:15:03Z</time>
      </trkpt>
      <trkpt lat="43.87059" lon="7.26103">
        <ele>1105.1728515625</ele>
        <time>2014-03-09T12:15:06Z</time>
      </trkpt>
      <trkpt lat="43.87068" lon="7.26077">
        <ele>1100.8469238281</ele>
        <time>2014-03-09T12:15:10Z</time>
      </trkpt>
      <trkpt lat="43.87087" lon="7.26047">
        <ele>1096.0402832031</ele>
        <time>2014-03-09T12:15:14Z</time>
      </trkpt>
      <trkpt lat="43.8709" lon="7.2604">
        <ele>1095.0788574219</ele>
        <time>2014-03-09T12:15:15Z</time>
      </trkpt>
      <trkpt lat="43.87108" lon="7.26">
        <ele>1087.869140625</ele>
        <time>2014-03-09T12:15:20Z</time>
      </trkpt>
      <trkpt lat="43.87114" lon="7.25985">
        <ele>1084.5046386719</ele>
        <time>2014-03-09T12:15:22Z</time>
      </trkpt>
      <trkpt lat="43.87126" lon="7.25957">
        <ele>1078.255859375</ele>
        <time>2014-03-09T12:15:27Z</time>
      </trkpt>
      <trkpt lat="43.87124" lon="7.2595">
        <ele>1075.3718261719</ele>
        <time>2014-03-09T12:15:30Z</time>
      </trkpt>
      <trkpt lat="43.87122" lon="7.25952">
        <ele>1074.4106445312</ele>
        <time>2014-03-09T12:15:36Z</time>
      </trkpt>
      <trkpt lat="43.87122" lon="7.25949">
        <ele>1070.0847167969</ele>
        <time>2014-03-09T12:16:00Z</time>
      </trkpt>
      <trkpt lat="43.87123" lon="7.25951">
        <ele>1076.8139648438</ele>
        <time>2014-03-09T12:17:38Z</time>
      </trkpt>
      <trkpt lat="43.87123" lon="7.25951">
        <ele>1076.8139648438</ele>
        <time>2014-03-09T12:17:39Z</time>
      </trkpt>
      <trkpt lat="43.87125" lon="7.2595">
        <ele>1076.3332519531</ele>
        <time>2014-03-09T12:17:54Z</time>
      </trkpt>
      <trkpt lat="43.87125" lon="7.2595">
        <ele>1076.3332519531</ele>
        <time>2014-03-09T12:17:57Z</time>
      </trkpt>
      <trkpt lat="43.87125" lon="7.2595">
        <ele>1076.3332519531</ele>
        <time>2014-03-09T12:17:58Z</time>
      </trkpt>
      <trkpt lat="43.87125" lon="7.2595">
        <ele>1076.3332519531</ele>
        <time>2014-03-09T12:18:01Z</time>
      </trkpt>
      <trkpt lat="43.87123" lon="7.25951">
        <ele>1077.2946777344</ele>
        <time>2014-03-09T12:18:06Z</time>
      </trkpt>
      <trkpt lat="43.87123" lon="7.25951">
        <ele>1077.7751464844</ele>
        <time>2014-03-09T12:18:07Z</time>
      </trkpt>
      <trkpt lat="43.8712" lon="7.25952">
        <ele>1080.6591796875</ele>
        <time>2014-03-09T12:19:01Z</time>
      </trkpt>
      <trkpt lat="43.87122" lon="7.25948">
        <ele>1076.8139648438</ele>
        <time>2014-03-09T12:19:30Z</time>
      </trkpt>
      <trkpt lat="43.87127" lon="7.25933">
        <ele>1077.7751464844</ele>
        <time>2014-03-09T12:19:34Z</time>
      </trkpt>
      <trkpt lat="43.87137" lon="7.25917">
        <ele>1079.6977539062</ele>
        <time>2014-03-09T12:19:40Z</time>
      </trkpt>
      <trkpt lat="43.87147" lon="7.25899">
        <ele>1082.1010742188</ele>
        <time>2014-03-09T12:19:47Z</time>
      </trkpt>
      <trkpt lat="43.87152" lon="7.25891">
        <ele>1084.9853515625</ele>
        <time>2014-03-09T12:19:53Z</time>
      </trkpt>
      <trkpt lat="43.87153" lon="7.2589">
        <ele>1085.4658203125</ele>
        <time>2014-03-09T12:19:54Z</time>
      </trkpt>
      <trkpt lat="43.87157" lon="7.25885">
        <ele>1084.9853515625</ele>
        <time>2014-03-09T12:19:58Z</time>
      </trkpt>
      <trkpt lat="43.87157" lon="7.25883">
        <ele>1084.9853515625</ele>
        <time>2014-03-09T12:19:59Z</time>
      </trkpt>
      <trkpt lat="43.87158" lon="7.25882">
        <ele>1084.9853515625</ele>
        <time>2014-03-09T12:20:00Z</time>
      </trkpt>
      <trkpt lat="43.87162" lon="7.25875">
        <ele>1087.3884277344</ele>
        <time>2014-03-09T12:20:04Z</time>
      </trkpt>
      <trkpt lat="43.87164" lon="7.25874">
        <ele>1088.3498535156</ele>
        <time>2014-03-09T12:20:05Z</time>
      </trkpt>
      <trkpt lat="43.87172" lon="7.25865">
        <ele>1090.2724609375</ele>
        <time>2014-03-09T12:20:12Z</time>
      </trkpt>
      <trkpt lat="43.87185" lon="7.25855">
        <ele>1090.2724609375</ele>
        <time>2014-03-09T12:20:19Z</time>
      </trkpt>
      <trkpt lat="43.87194" lon="7.25846">
        <ele>1091.2336425781</ele>
        <time>2014-03-09T12:20:26Z</time>
      </trkpt>
      <trkpt lat="43.87207" lon="7.25838">
        <ele>1092.67578125</ele>
        <time>2014-03-09T12:20:32Z</time>
      </trkpt>
      <trkpt lat="43.87218" lon="7.25828">
        <ele>1094.5981445312</ele>
        <time>2014-03-09T12:20:39Z</time>
      </trkpt>
      <trkpt lat="43.87223" lon="7.25823">
        <ele>1096.5209960938</ele>
        <time>2014-03-09T12:20:47Z</time>
      </trkpt>
      <trkpt lat="43.87226" lon="7.2582">
        <ele>1097.0014648438</ele>
        <time>2014-03-09T12:20:52Z</time>
      </trkpt>
      <trkpt lat="43.8723" lon="7.25816">
        <ele>1097.962890625</ele>
        <time>2014-03-09T12:21:00Z</time>
      </trkpt>
      <trkpt lat="43.87235" lon="7.25812">
        <ele>1100.8469238281</ele>
        <time>2014-03-09T12:21:08Z</time>
      </trkpt>
      <trkpt lat="43.87241" lon="7.25807">
        <ele>1102.2888183594</ele>
        <time>2014-03-09T12:21:16Z</time>
      </trkpt>
      <trkpt lat="43.87245" lon="7.258">
        <ele>1103.7309570312</ele>
        <time>2014-03-09T12:21:23Z</time>
      </trkpt>
      <trkpt lat="43.87247" lon="7.25794">
        <ele>1103.2502441406</ele>
        <time>2014-03-09T12:21:30Z</time>
      </trkpt>
      <trkpt lat="43.87252" lon="7.25785">
        <ele>1105.6535644531</ele>
        <time>2014-03-09T12:21:38Z</time>
      </trkpt>
      <trkpt lat="43.87257" lon="7.25776">
        <ele>1106.6147460938</ele>
        <time>2014-03-09T12:21:47Z</time>
      </trkpt>
      <trkpt lat="43.87261" lon="7.25771">
        <ele>1110.4599609375</ele>
        <time>2014-03-09T12:21:55Z</time>
      </trkpt>
      <trkpt lat="43.87264" lon="7.25765">
        <ele>1113.3439941406</ele>
        <time>2014-03-09T12:22:03Z</time>
      </trkpt>
      <trkpt lat="43.87267" lon="7.25759">
        <ele>1115.2666015625</ele>
        <time>2014-03-09T12:22:10Z</time>
      </trkpt>
      <trkpt lat="43.87268" lon="7.25754">
        <ele>1116.2280273438</ele>
        <time>2014-03-09T12:22:16Z</time>
      </trkpt>
      <trkpt lat="43.87272" lon="7.25747">
        <ele>1114.7858886719</ele>
        <time>2014-03-09T12:22:24Z</time>
      </trkpt>
      <trkpt lat="43.87273" lon="7.25744">
        <ele>1114.3051757812</ele>
        <time>2014-03-09T12:22:31Z</time>
      </trkpt>
      <trkpt lat="43.87275" lon="7.25738">
        <ele>1116.2280273438</ele>
        <time>2014-03-09T12:22:38Z</time>
      </trkpt>
      <trkpt lat="43.87275" lon="7.25735">
        <ele>1116.2280273438</ele>
        <time>2014-03-09T12:22:44Z</time>
      </trkpt>
      <trkpt lat="43.87276" lon="7.25731">
        <ele>1117.669921875</ele>
        <time>2014-03-09T12:22:49Z</time>
      </trkpt>
      <trkpt lat="43.87278" lon="7.25723">
        <ele>1120.0732421875</ele>
        <time>2014-03-09T12:22:58Z</time>
      </trkpt>
      <trkpt lat="43.87277" lon="7.2572">
        <ele>1120.5539550781</ele>
        <time>2014-03-09T12:23:04Z</time>
      </trkpt>
      <trkpt lat="43.87275" lon="7.25721">
        <ele>1120.0732421875</ele>
        <time>2014-03-09T12:23:09Z</time>
      </trkpt>
      <trkpt lat="43.87265" lon="7.25721">
        <ele>1118.6313476562</ele>
        <time>2014-03-09T12:23:13Z</time>
      </trkpt>
      <trkpt lat="43.87252" lon="7.2572">
        <ele>1120.0732421875</ele>
        <time>2014-03-09T12:23:18Z</time>
      </trkpt>
      <trkpt lat="43.87241" lon="7.25724">
        <ele>1121.0346679688</ele>
        <time>2014-03-09T12:23:24Z</time>
      </trkpt>
      <trkpt lat="43.87233" lon="7.25725">
        <ele>1122.4765625</ele>
        <time>2014-03-09T12:23:28Z</time>
      </trkpt>
      <trkpt lat="43.87229" lon="7.25725">
        <ele>1122.9572753906</ele>
        <time>2014-03-09T12:23:37Z</time>
      </trkpt>
      <trkpt lat="43.87225" lon="7.25726">
        <ele>1124.3991699219</ele>
        <time>2014-03-09T12:23:45Z</time>
      </trkpt>
      <trkpt lat="43.8722" lon="7.2573">
        <ele>1125.8410644531</ele>
        <time>2014-03-09T12:23:51Z</time>
      </trkpt>
      <trkpt lat="43.87214" lon="7.25733">
        <ele>1126.3217773438</ele>
        <time>2014-03-09T12:23:59Z</time>
      </trkpt>
      <trkpt lat="43.87213" lon="7.25734">
        <ele>1125.8410644531</ele>
        <time>2014-03-09T12:24:00Z</time>
      </trkpt>
      <trkpt lat="43.87203" lon="7.25739">
        <ele>1127.763671875</ele>
        <time>2014-03-09T12:24:07Z</time>
      </trkpt>
      <trkpt lat="43.87201" lon="7.25739">
        <ele>1127.763671875</ele>
        <time>2014-03-09T12:24:08Z</time>
      </trkpt>
      <trkpt lat="43.87191" lon="7.2574">
        <ele>1129.6862792969</ele>
        <time>2014-03-09T12:24:13Z</time>
      </trkpt>
      <trkpt lat="43.8718" lon="7.25743">
        <ele>1129.6862792969</ele>
        <time>2014-03-09T12:24:19Z</time>
      </trkpt>
      <trkpt lat="43.87173" lon="7.25747">
        <ele>1129.6862792969</ele>
        <time>2014-03-09T12:24:22Z</time>
      </trkpt>
      <trkpt lat="43.87159" lon="7.25748">
        <ele>1130.1669921875</ele>
        <time>2014-03-09T12:24:28Z</time>
      </trkpt>
      <trkpt lat="43.87149" lon="7.25754">
        <ele>1132.08984375</ele>
        <time>2014-03-09T12:24:34Z</time>
      </trkpt>
      <trkpt lat="43.87141" lon="7.25753">
        <ele>1133.5317382812</ele>
        <time>2014-03-09T12:24:39Z</time>
      </trkpt>
      <trkpt lat="43.87136" lon="7.25752">
        <ele>1134.0124511719</ele>
        <time>2014-03-09T12:24:45Z</time>
      </trkpt>
      <trkpt lat="43.8712" lon="7.2575">
        <ele>1132.5705566406</ele>
        <time>2014-03-09T12:24:51Z</time>
      </trkpt>
      <trkpt lat="43.87107" lon="7.25746">
        <ele>1134.4931640625</ele>
        <time>2014-03-09T12:24:56Z</time>
      </trkpt>
      <trkpt lat="43.87105" lon="7.25745">
        <ele>1135.4543457031</ele>
        <time>2014-03-09T12:24:59Z</time>
      </trkpt>
      <trkpt lat="43.87104" lon="7.25739">
        <ele>1137.8576660156</ele>
        <time>2014-03-09T12:25:07Z</time>
      </trkpt>
      <trkpt lat="43.87101" lon="7.25734">
        <ele>1138.3383789062</ele>
        <time>2014-03-09T12:25:14Z</time>
      </trkpt>
      <trkpt lat="43.87096" lon="7.25729">
        <ele>1138.3383789062</ele>
        <time>2014-03-09T12:25:19Z</time>
      </trkpt>
      <trkpt lat="43.87091" lon="7.25723">
        <ele>1139.2995605469</ele>
        <time>2014-03-09T12:25:24Z</time>
      </trkpt>
      <trkpt lat="43.87083" lon="7.25716">
        <ele>1139.2995605469</ele>
        <time>2014-03-09T12:25:28Z</time>
      </trkpt>
      <trkpt lat="43.87074" lon="7.25706">
        <ele>1139.2995605469</ele>
        <time>2014-03-09T12:25:33Z</time>
      </trkpt>
      <trkpt lat="43.87064" lon="7.25701">
        <ele>1137.376953125</ele>
        <time>2014-03-09T12:25:36Z</time>
      </trkpt>
      <trkpt lat="43.87051" lon="7.25703">
        <ele>1135.9350585938</ele>
        <time>2014-03-09T12:25:41Z</time>
      </trkpt>
      <trkpt lat="43.8704" lon="7.25698">
        <ele>1133.0510253906</ele>
        <time>2014-03-09T12:25:46Z</time>
      </trkpt>
      <trkpt lat="43.87038" lon="7.25697">
        <ele>1132.5705566406</ele>
        <time>2014-03-09T12:25:47Z</time>
      </trkpt>
      <trkpt lat="43.87035" lon="7.25696">
        <ele>1132.08984375</ele>
        <time>2014-03-09T12:25:50Z</time>
      </trkpt>
      <trkpt lat="43.87032" lon="7.25696">
        <ele>1132.08984375</ele>
        <time>2014-03-09T12:25:55Z</time>
      </trkpt>
      <trkpt lat="43.87023" lon="7.25684">
        <ele>1129.6862792969</ele>
        <time>2014-03-09T12:26:01Z</time>
      </trkpt>
      <trkpt lat="43.87011" lon="7.25678">
        <ele>1127.283203125</ele>
        <time>2014-03-09T12:26:05Z</time>
      </trkpt>
      <trkpt lat="43.87002" lon="7.25678">
        <ele>1124.8798828125</ele>
        <time>2014-03-09T12:26:09Z</time>
      </trkpt>
      <trkpt lat="43.86998" lon="7.25666">
        <ele>1121.0346679688</ele>
        <time>2014-03-09T12:26:14Z</time>
      </trkpt>
      <trkpt lat="43.86992" lon="7.25658">
        <ele>1117.669921875</ele>
        <time>2014-03-09T12:26:18Z</time>
      </trkpt>
      <trkpt lat="43.86981" lon="7.25651">
        <ele>1114.3051757812</ele>
        <time>2014-03-09T12:26:22Z</time>
      </trkpt>
      <trkpt lat="43.86972" lon="7.25643">
        <ele>1112.3825683594</ele>
        <time>2014-03-09T12:26:26Z</time>
      </trkpt>
      <trkpt lat="43.86967" lon="7.25637">
        <ele>1112.3825683594</ele>
        <time>2014-03-09T12:26:29Z</time>
      </trkpt>
      <trkpt lat="43.86958" lon="7.2563">
        <ele>1111.4213867188</ele>
        <time>2014-03-09T12:26:33Z</time>
      </trkpt>
      <trkpt lat="43.86953" lon="7.2562">
        <ele>1109.0180664062</ele>
        <time>2014-03-09T12:26:37Z</time>
      </trkpt>
      <trkpt lat="43.86948" lon="7.25615">
        <ele>1109.4987792969</ele>
        <time>2014-03-09T12:26:42Z</time>
      </trkpt>
      <trkpt lat="43.86944" lon="7.25613">
        <ele>1110.4599609375</ele>
        <time>2014-03-09T12:26:48Z</time>
      </trkpt>
      <trkpt lat="43.8694" lon="7.25611">
        <ele>1109.9792480469</ele>
        <time>2014-03-09T12:26:55Z</time>
      </trkpt>
      <trkpt lat="43.86937" lon="7.25608">
        <ele>1109.4987792969</ele>
        <time>2014-03-09T12:27:00Z</time>
      </trkpt>
      <trkpt lat="43.86929" lon="7.25602">
        <ele>1109.9792480469</ele>
        <time>2014-03-09T12:27:05Z</time>
      </trkpt>
      <trkpt lat="43.86927" lon="7.256">
        <ele>1111.4213867188</ele>
        <time>2014-03-09T12:27:09Z</time>
      </trkpt>
      <trkpt lat="43.86924" lon="7.25598">
        <ele>1113.8244628906</ele>
        <time>2014-03-09T12:27:14Z</time>
      </trkpt>
      <trkpt lat="43.86921" lon="7.25597">
        <ele>1114.3051757812</ele>
        <time>2014-03-09T12:27:18Z</time>
      </trkpt>
      <trkpt lat="43.86919" lon="7.25594">
        <ele>1116.7087402344</ele>
        <time>2014-03-09T12:27:24Z</time>
      </trkpt>
      <trkpt lat="43.86919" lon="7.25589">
        <ele>1116.7087402344</ele>
        <time>2014-03-09T12:27:30Z</time>
      </trkpt>
      <trkpt lat="43.86917" lon="7.25582">
        <ele>1116.7087402344</ele>
        <time>2014-03-09T12:27:36Z</time>
      </trkpt>
      <trkpt lat="43.86916" lon="7.25574">
        <ele>1115.7473144531</ele>
        <time>2014-03-09T12:27:42Z</time>
      </trkpt>
      <trkpt lat="43.86914" lon="7.25568">
        <ele>1117.669921875</ele>
        <time>2014-03-09T12:27:50Z</time>
      </trkpt>
      <trkpt lat="43.86914" lon="7.25561">
        <ele>1119.1120605469</ele>
        <time>2014-03-09T12:27:57Z</time>
      </trkpt>
      <trkpt lat="43.86915" lon="7.25556">
        <ele>1121.5151367188</ele>
        <time>2014-03-09T12:28:04Z</time>
      </trkpt>
      <trkpt lat="43.86917" lon="7.25553">
        <ele>1122.4765625</ele>
        <time>2014-03-09T12:28:10Z</time>
      </trkpt>
      <trkpt lat="43.86914" lon="7.25549">
        <ele>1122.4765625</ele>
        <time>2014-03-09T12:28:16Z</time>
      </trkpt>
      <trkpt lat="43.86909" lon="7.2555">
        <ele>1121.9958496094</ele>
        <time>2014-03-09T12:28:22Z</time>
      </trkpt>
      <trkpt lat="43.86905" lon="7.25546">
        <ele>1121.9958496094</ele>
        <time>2014-03-09T12:28:28Z</time>
      </trkpt>
      <trkpt lat="43.869" lon="7.25546">
        <ele>1120.0732421875</ele>
        <time>2014-03-09T12:28:35Z</time>
      </trkpt>
      <trkpt lat="43.86897" lon="7.2554">
        <ele>1120.5539550781</ele>
        <time>2014-03-09T12:28:41Z</time>
      </trkpt>
      <trkpt lat="43.86892" lon="7.25538">
        <ele>1119.5927734375</ele>
        <time>2014-03-09T12:28:46Z</time>
      </trkpt>
      <trkpt lat="43.86889" lon="7.25536">
        <ele>1119.5927734375</ele>
        <time>2014-03-09T12:28:48Z</time>
      </trkpt>
      <trkpt lat="43.86887" lon="7.25531">
        <ele>1119.1120605469</ele>
        <time>2014-03-09T12:28:50Z</time>
      </trkpt>
      <trkpt lat="43.86882" lon="7.25524">
        <ele>1118.6313476562</ele>
        <time>2014-03-09T12:28:55Z</time>
      </trkpt>
      <trkpt lat="43.86881" lon="7.25523">
        <ele>1119.5927734375</ele>
        <time>2014-03-09T12:29:02Z</time>
      </trkpt>
      <trkpt lat="43.8688" lon="7.25522">
        <ele>1119.5927734375</ele>
        <time>2014-03-09T12:29:07Z</time>
      </trkpt>
      <trkpt lat="43.86879" lon="7.25518">
        <ele>1119.5927734375</ele>
        <time>2014-03-09T12:29:13Z</time>
      </trkpt>
      <trkpt lat="43.86876" lon="7.25506">
        <ele>1118.6313476562</ele>
        <time>2014-03-09T12:29:17Z</time>
      </trkpt>
      <trkpt lat="43.86875" lon="7.25504">
        <ele>1118.1506347656</ele>
        <time>2014-03-09T12:29:20Z</time>
      </trkpt>
      <trkpt lat="43.86874" lon="7.25505">
        <ele>1117.669921875</ele>
        <time>2014-03-09T12:29:25Z</time>
      </trkpt>
      <trkpt lat="43.86872" lon="7.25506">
        <ele>1116.7087402344</ele>
        <time>2014-03-09T12:29:31Z</time>
      </trkpt>
      <trkpt lat="43.86872" lon="7.25506">
        <ele>1116.2280273438</ele>
        <time>2014-03-09T12:29:36Z</time>
      </trkpt>
      <trkpt lat="43.86868" lon="7.25505">
        <ele>1115.7473144531</ele>
        <time>2014-03-09T12:29:43Z</time>
      </trkpt>
      <trkpt lat="43.86867" lon="7.25508">
        <ele>1115.7473144531</ele>
        <time>2014-03-09T12:29:45Z</time>
      </trkpt>
      <trkpt lat="43.86865" lon="7.25513">
        <ele>1115.2666015625</ele>
        <time>2014-03-09T12:29:48Z</time>
      </trkpt>
      <trkpt lat="43.86863" lon="7.25515">
        <ele>1114.7858886719</ele>
        <time>2014-03-09T12:29:56Z</time>
      </trkpt>
      <trkpt lat="43.86861" lon="7.25514">
        <ele>1113.8244628906</ele>
        <time>2014-03-09T12:30:05Z</time>
      </trkpt>
      <trkpt lat="43.8686" lon="7.25514">
        <ele>1112.86328125</ele>
        <time>2014-03-09T12:30:12Z</time>
      </trkpt>
      <trkpt lat="43.86859" lon="7.25514">
        <ele>1113.8244628906</ele>
        <time>2014-03-09T12:30:20Z</time>
      </trkpt>
      <trkpt lat="43.86857" lon="7.25513">
        <ele>1113.3439941406</ele>
        <time>2014-03-09T12:30:25Z</time>
      </trkpt>
      <trkpt lat="43.86851" lon="7.25506">
        <ele>1110.4599609375</ele>
        <time>2014-03-09T12:30:31Z</time>
      </trkpt>
      <trkpt lat="43.86847" lon="7.25498">
        <ele>1109.0180664062</ele>
        <time>2014-03-09T12:30:36Z</time>
      </trkpt>
      <trkpt lat="43.86846" lon="7.25498">
        <ele>1109.0180664062</ele>
        <time>2014-03-09T12:30:37Z</time>
      </trkpt>
      <trkpt lat="43.86838" lon="7.25484">
        <ele>1104.2116699219</ele>
        <time>2014-03-09T12:30:43Z</time>
      </trkpt>
      <trkpt lat="43.86839" lon="7.25471">
        <ele>1102.76953125</ele>
        <time>2014-03-09T12:30:47Z</time>
      </trkpt>
      <trkpt lat="43.86835" lon="7.25463">
        <ele>1100.8469238281</ele>
        <time>2014-03-09T12:30:50Z</time>
      </trkpt>
      <trkpt lat="43.86834" lon="7.25454">
        <ele>1098.9240722656</ele>
        <time>2014-03-09T12:30:54Z</time>
      </trkpt>
      <trkpt lat="43.86833" lon="7.25445">
        <ele>1097.962890625</ele>
        <time>2014-03-09T12:30:59Z</time>
      </trkpt>
      <trkpt lat="43.86835" lon="7.25435">
        <ele>1097.4821777344</ele>
        <time>2014-03-09T12:31:03Z</time>
      </trkpt>
      <trkpt lat="43.86837" lon="7.2542">
        <ele>1095.5595703125</ele>
        <time>2014-03-09T12:31:08Z</time>
      </trkpt>
      <trkpt lat="43.86839" lon="7.25406">
        <ele>1093.15625</ele>
        <time>2014-03-09T12:31:12Z</time>
      </trkpt>
      <trkpt lat="43.86837" lon="7.254">
        <ele>1091.2336425781</ele>
        <time>2014-03-09T12:31:15Z</time>
      </trkpt>
      <trkpt lat="43.86835" lon="7.25386">
        <ele>1087.869140625</ele>
        <time>2014-03-09T12:31:20Z</time>
      </trkpt>
      <trkpt lat="43.86831" lon="7.25379">
        <ele>1084.5046386719</ele>
        <time>2014-03-09T12:31:24Z</time>
      </trkpt>
      <trkpt lat="43.86828" lon="7.25375">
        <ele>1082.1010742188</ele>
        <time>2014-03-09T12:31:27Z</time>
      </trkpt>
      <trkpt lat="43.86826" lon="7.25371">
        <ele>1080.6591796875</ele>
        <time>2014-03-09T12:31:29Z</time>
      </trkpt>
      <trkpt lat="43.86823" lon="7.25363">
        <ele>1079.2170410156</ele>
        <time>2014-03-09T12:31:31Z</time>
      </trkpt>
      <trkpt lat="43.86824" lon="7.25344">
        <ele>1075.8525390625</ele>
        <time>2014-03-09T12:31:36Z</time>
      </trkpt>
      <trkpt lat="43.86821" lon="7.25334">
        <ele>1073.4494628906</ele>
        <time>2014-03-09T12:31:40Z</time>
      </trkpt>
      <trkpt lat="43.86823" lon="7.25328">
        <ele>1071.5266113281</ele>
        <time>2014-03-09T12:31:46Z</time>
      </trkpt>
      <trkpt lat="43.86819" lon="7.25322">
        <ele>1069.6042480469</ele>
        <time>2014-03-09T12:31:50Z</time>
      </trkpt>
      <trkpt lat="43.86818" lon="7.25312">
        <ele>1067.2006835938</ele>
        <time>2014-03-09T12:31:54Z</time>
      </trkpt>
      <trkpt lat="43.86826" lon="7.25303">
        <ele>1065.2780761719</ele>
        <time>2014-03-09T12:31:58Z</time>
      </trkpt>
      <trkpt lat="43.86835" lon="7.25298">
        <ele>1063.35546875</ele>
        <time>2014-03-09T12:32:02Z</time>
      </trkpt>
      <trkpt lat="43.86839" lon="7.2529">
        <ele>1061.9135742188</ele>
        <time>2014-03-09T12:32:05Z</time>
      </trkpt>
      <trkpt lat="43.86843" lon="7.25283">
        <ele>1059.0295410156</ele>
        <time>2014-03-09T12:32:09Z</time>
      </trkpt>
      <trkpt lat="43.86843" lon="7.25278">
        <ele>1057.1069335938</ele>
        <time>2014-03-09T12:32:14Z</time>
      </trkpt>
      <trkpt lat="43.86846" lon="7.25271">
        <ele>1055.6650390625</ele>
        <time>2014-03-09T12:32:18Z</time>
      </trkpt>
      <trkpt lat="43.8684" lon="7.25268">
        <ele>1054.7036132812</ele>
        <time>2014-03-09T12:32:21Z</time>
      </trkpt>
      <trkpt lat="43.86831" lon="7.25264">
        <ele>1052.7810058594</ele>
        <time>2014-03-09T12:32:25Z</time>
      </trkpt>
      <trkpt lat="43.86827" lon="7.25262">
        <ele>1051.8195800781</ele>
        <time>2014-03-09T12:32:26Z</time>
      </trkpt>
      <trkpt lat="43.8682" lon="7.25249">
        <ele>1047.9743652344</ele>
        <time>2014-03-09T12:32:31Z</time>
      </trkpt>
      <trkpt lat="43.86818" lon="7.25242">
        <ele>1045.5710449219</ele>
        <time>2014-03-09T12:32:34Z</time>
      </trkpt>
      <trkpt lat="43.86823" lon="7.25233">
        <ele>1042.6872558594</ele>
        <time>2014-03-09T12:32:38Z</time>
      </trkpt>
      <trkpt lat="43.86824" lon="7.2523">
        <ele>1041.7258300781</ele>
        <time>2014-03-09T12:32:39Z</time>
      </trkpt>
      <trkpt lat="43.86827" lon="7.25223">
        <ele>1039.3225097656</ele>
        <time>2014-03-09T12:32:43Z</time>
      </trkpt>
      <trkpt lat="43.86835" lon="7.25214">
        <ele>1036.9191894531</ele>
        <time>2014-03-09T12:32:48Z</time>
      </trkpt>
      <trkpt lat="43.8684" lon="7.2521">
        <ele>1035.4770507812</ele>
        <time>2014-03-09T12:32:50Z</time>
      </trkpt>
      <trkpt lat="43.8685" lon="7.25207">
        <ele>1033.5544433594</ele>
        <time>2014-03-09T12:32:55Z</time>
      </trkpt>
      <trkpt lat="43.86856" lon="7.25208">
        <ele>1032.5932617188</ele>
        <time>2014-03-09T12:32:57Z</time>
      </trkpt>
      <trkpt lat="43.86873" lon="7.25206">
        <ele>1029.228515625</ele>
        <time>2014-03-09T12:33:02Z</time>
      </trkpt>
      <trkpt lat="43.86877" lon="7.25204">
        <ele>1027.3061523438</ele>
        <time>2014-03-09T12:33:04Z</time>
      </trkpt>
      <trkpt lat="43.86885" lon="7.25207">
        <ele>1021.0576171875</ele>
        <time>2014-03-09T12:33:09Z</time>
      </trkpt>
      <trkpt lat="43.86888" lon="7.25198">
        <ele>1014.8088378906</ele>
        <time>2014-03-09T12:33:13Z</time>
      </trkpt>
      <trkpt lat="43.86893" lon="7.25175">
        <ele>1009.5217285156</ele>
        <time>2014-03-09T12:33:18Z</time>
      </trkpt>
      <trkpt lat="43.86905" lon="7.25162">
        <ele>1001.8310546875</ele>
        <time>2014-03-09T12:33:22Z</time>
      </trkpt>
      <trkpt lat="43.86908" lon="7.25159">
        <ele>1000.3891601562</ele>
        <time>2014-03-09T12:33:23Z</time>
      </trkpt>
      <trkpt lat="43.86918" lon="7.25152">
        <ele>996.5439453125</ele>
        <time>2014-03-09T12:33:28Z</time>
      </trkpt>
      <trkpt lat="43.86929" lon="7.25144">
        <ele>994.140625</ele>
        <time>2014-03-09T12:33:32Z</time>
      </trkpt>
      <trkpt lat="43.86937" lon="7.25138">
        <ele>991.25659179688</ele>
        <time>2014-03-09T12:33:36Z</time>
      </trkpt>
      <trkpt lat="43.86943" lon="7.25136">
        <ele>988.853515625</ele>
        <time>2014-03-09T12:33:38Z</time>
      </trkpt>
      <trkpt lat="43.86954" lon="7.25127">
        <ele>988.853515625</ele>
        <time>2014-03-09T12:33:42Z</time>
      </trkpt>
      <trkpt lat="43.86956" lon="7.25122">
        <ele>987.89184570312</ele>
        <time>2014-03-09T12:33:44Z</time>
      </trkpt>
      <trkpt lat="43.86951" lon="7.25111">
        <ele>987.4111328125</ele>
        <time>2014-03-09T12:33:49Z</time>
      </trkpt>
      <trkpt lat="43.86938" lon="7.25099">
        <ele>985.96923828125</ele>
        <time>2014-03-09T12:33:55Z</time>
      </trkpt>
      <trkpt lat="43.86926" lon="7.25095">
        <ele>985.96923828125</ele>
        <time>2014-03-09T12:33:59Z</time>
      </trkpt>
      <trkpt lat="43.86913" lon="7.25085">
        <ele>985.96923828125</ele>
        <time>2014-03-09T12:34:03Z</time>
      </trkpt>
      <trkpt lat="43.869" lon="7.25075">
        <ele>985.00805664062</ele>
        <time>2014-03-09T12:34:07Z</time>
      </trkpt>
      <trkpt lat="43.86896" lon="7.25058">
        <ele>978.75952148438</ele>
        <time>2014-03-09T12:34:12Z</time>
      </trkpt>
      <trkpt lat="43.86895" lon="7.25055">
        <ele>978.27880859375</ele>
        <time>2014-03-09T12:34:13Z</time>
      </trkpt>
      <trkpt lat="43.86891" lon="7.25044">
        <ele>976.8369140625</ele>
        <time>2014-03-09T12:34:16Z</time>
      </trkpt>
      <trkpt lat="43.86881" lon="7.25028">
        <ele>976.35620117188</ele>
        <time>2014-03-09T12:34:21Z</time>
      </trkpt>
      <trkpt lat="43.86872" lon="7.25005">
        <ele>978.27880859375</ele>
        <time>2014-03-09T12:34:26Z</time>
      </trkpt>
      <trkpt lat="43.86862" lon="7.25001">
        <ele>978.75952148438</ele>
        <time>2014-03-09T12:34:31Z</time>
      </trkpt>
      <trkpt lat="43.86854" lon="7.2499">
        <ele>980.68212890625</ele>
        <time>2014-03-09T12:34:34Z</time>
      </trkpt>
      <trkpt lat="43.86843" lon="7.24954">
        <ele>978.75952148438</ele>
        <time>2014-03-09T12:34:39Z</time>
      </trkpt>
      <trkpt lat="43.8684" lon="7.24942">
        <ele>979.23999023438</ele>
        <time>2014-03-09T12:34:41Z</time>
      </trkpt>
      <trkpt lat="43.86844" lon="7.24923">
        <ele>975.39477539062</ele>
        <time>2014-03-09T12:34:45Z</time>
      </trkpt>
      <trkpt lat="43.86854" lon="7.24896">
        <ele>970.107421875</ele>
        <time>2014-03-09T12:34:50Z</time>
      </trkpt>
      <trkpt lat="43.8687" lon="7.24872">
        <ele>962.4169921875</ele>
        <time>2014-03-09T12:34:55Z</time>
      </trkpt>
      <trkpt lat="43.8688" lon="7.24863">
        <ele>959.533203125</ele>
        <time>2014-03-09T12:34:58Z</time>
      </trkpt>
      <trkpt lat="43.86905" lon="7.24858">
        <ele>954.72631835938</ele>
        <time>2014-03-09T12:35:03Z</time>
      </trkpt>
      <trkpt lat="43.86911" lon="7.24856">
        <ele>955.20703125</ele>
        <time>2014-03-09T12:35:04Z</time>
      </trkpt>
      <trkpt lat="43.8693" lon="7.24844">
        <ele>954.24584960938</ele>
        <time>2014-03-09T12:35:08Z</time>
      </trkpt>
      <trkpt lat="43.86938" lon="7.24822">
        <ele>953.76513671875</ele>
        <time>2014-03-09T12:35:13Z</time>
      </trkpt>
      <trkpt lat="43.86928" lon="7.24804">
        <ele>952.8037109375</ele>
        <time>2014-03-09T12:35:17Z</time>
      </trkpt>
      <trkpt lat="43.86908" lon="7.24784">
        <ele>948.47778320312</ele>
        <time>2014-03-09T12:35:23Z</time>
      </trkpt>
      <trkpt lat="43.86903" lon="7.24782">
        <ele>947.03588867188</ele>
        <time>2014-03-09T12:35:25Z</time>
      </trkpt>
      <trkpt lat="43.8689" lon="7.24775">
        <ele>945.11328125</ele>
        <time>2014-03-09T12:35:30Z</time>
      </trkpt>
      <trkpt lat="43.86882" lon="7.24765">
        <ele>943.19067382812</ele>
        <time>2014-03-09T12:35:35Z</time>
      </trkpt>
      <trkpt lat="43.8688" lon="7.24762">
        <ele>942.2294921875</ele>
        <time>2014-03-09T12:35:36Z</time>
      </trkpt>
      <trkpt lat="43.86868" lon="7.24752">
        <ele>938.38403320312</ele>
        <time>2014-03-09T12:35:41Z</time>
      </trkpt>
      <trkpt lat="43.86863" lon="7.24749">
        <ele>937.42260742188</ele>
        <time>2014-03-09T12:35:43Z</time>
      </trkpt>
      <trkpt lat="43.86863" lon="7.24744">
        <ele>935.98071289062</ele>
        <time>2014-03-09T12:35:46Z</time>
      </trkpt>
      <trkpt lat="43.86859" lon="7.24737">
        <ele>934.05810546875</ele>
        <time>2014-03-09T12:35:50Z</time>
      </trkpt>
      <trkpt lat="43.86855" lon="7.24732">
        <ele>932.6162109375</ele>
        <time>2014-03-09T12:35:53Z</time>
      </trkpt>
      <trkpt lat="43.86854" lon="7.24722">
        <ele>929.73217773438</ele>
        <time>2014-03-09T12:35:58Z</time>
      </trkpt>
      <trkpt lat="43.86853" lon="7.24715">
        <ele>927.8095703125</ele>
        <time>2014-03-09T12:36:02Z</time>
      </trkpt>
      <trkpt lat="43.86848" lon="7.24704">
        <ele>924.92578125</ele>
        <time>2014-03-09T12:36:07Z</time>
      </trkpt>
      <trkpt lat="43.86846" lon="7.24698">
        <ele>923.48364257812</ele>
        <time>2014-03-09T12:36:11Z</time>
      </trkpt>
      <trkpt lat="43.86848" lon="7.24692">
        <ele>921.56079101562</ele>
        <time>2014-03-09T12:36:16Z</time>
      </trkpt>
      <trkpt lat="43.86842" lon="7.24686">
        <ele>918.67700195312</ele>
        <time>2014-03-09T12:36:20Z</time>
      </trkpt>
      <trkpt lat="43.86836" lon="7.2468">
        <ele>916.75439453125</ele>
        <time>2014-03-09T12:36:23Z</time>
      </trkpt>
      <trkpt lat="43.86824" lon="7.24674">
        <ele>914.35107421875</ele>
        <time>2014-03-09T12:36:27Z</time>
      </trkpt>
      <trkpt lat="43.86813" lon="7.24661">
        <ele>909.54467773438</ele>
        <time>2014-03-09T12:36:33Z</time>
      </trkpt>
      <trkpt lat="43.86808" lon="7.24654">
        <ele>906.66040039062</ele>
        <time>2014-03-09T12:36:36Z</time>
      </trkpt>
      <trkpt lat="43.868" lon="7.2465">
        <ele>903.77661132812</ele>
        <time>2014-03-09T12:36:39Z</time>
      </trkpt>
      <trkpt lat="43.86791" lon="7.24644">
        <ele>901.37329101562</ele>
        <time>2014-03-09T12:36:42Z</time>
      </trkpt>
      <trkpt lat="43.86772" lon="7.24632">
        <ele>896.08618164062</ele>
        <time>2014-03-09T12:36:48Z</time>
      </trkpt>
      <trkpt lat="43.86756" lon="7.24621">
        <ele>890.79858398438</ele>
        <time>2014-03-09T12:36:53Z</time>
      </trkpt>
      <trkpt lat="43.86738" lon="7.2461">
        <ele>885.9921875</ele>
        <time>2014-03-09T12:36:58Z</time>
      </trkpt>
      <trkpt lat="43.86722" lon="7.24601">
        <ele>882.14697265625</ele>
        <time>2014-03-09T12:37:02Z</time>
      </trkpt>
      <trkpt lat="43.86715" lon="7.24597">
        <ele>880.705078125</ele>
        <time>2014-03-09T12:37:04Z</time>
      </trkpt>
      <trkpt lat="43.867" lon="7.24588">
        <ele>876.85986328125</ele>
        <time>2014-03-09T12:37:08Z</time>
      </trkpt>
      <trkpt lat="43.86692" lon="7.24584">
        <ele>874.93701171875</ele>
        <time>2014-03-09T12:37:10Z</time>
      </trkpt>
      <trkpt lat="43.86681" lon="7.2458">
        <ele>870.61108398438</ele>
        <time>2014-03-09T12:37:15Z</time>
      </trkpt>
      <trkpt lat="43.8667" lon="7.24575">
        <ele>866.76586914062</ele>
        <time>2014-03-09T12:37:20Z</time>
      </trkpt>
      <trkpt lat="43.86667" lon="7.24574">
        <ele>866.28515625</ele>
        <time>2014-03-09T12:37:24Z</time>
      </trkpt>
      <trkpt lat="43.86662" lon="7.24568">
        <ele>864.36254882812</ele>
        <time>2014-03-09T12:37:29Z</time>
      </trkpt>
      <trkpt lat="43.86654" lon="7.24559">
        <ele>861.47875976562</ele>
        <time>2014-03-09T12:37:33Z</time>
      </trkpt>
      <trkpt lat="43.86642" lon="7.2455">
        <ele>858.59448242188</ele>
        <time>2014-03-09T12:37:37Z</time>
      </trkpt>
      <trkpt lat="43.86628" lon="7.24546">
        <ele>854.74926757812</ele>
        <time>2014-03-09T12:37:41Z</time>
      </trkpt>
      <trkpt lat="43.86618" lon="7.24543">
        <ele>851.384765625</ele>
        <time>2014-03-09T12:37:45Z</time>
      </trkpt>
      <trkpt lat="43.86613" lon="7.24542">
        <ele>848.9814453125</ele>
        <time>2014-03-09T12:37:47Z</time>
      </trkpt>
      <trkpt lat="43.86597" lon="7.24543">
        <ele>844.65551757812</ele>
        <time>2014-03-09T12:37:52Z</time>
      </trkpt>
      <trkpt lat="43.86584" lon="7.24545">
        <ele>840.81005859375</ele>
        <time>2014-03-09T12:37:56Z</time>
      </trkpt>
      <trkpt lat="43.86581" lon="7.24543">
        <ele>839.84887695312</ele>
        <time>2014-03-09T12:37:57Z</time>
      </trkpt>
      <trkpt lat="43.86576" lon="7.2453">
        <ele>836.484375</ele>
        <time>2014-03-09T12:38:01Z</time>
      </trkpt>
      <trkpt lat="43.86572" lon="7.24519">
        <ele>835.04248046875</ele>
        <time>2014-03-09T12:38:04Z</time>
      </trkpt>
      <trkpt lat="43.86566" lon="7.24509">
        <ele>832.63916015625</ele>
        <time>2014-03-09T12:38:07Z</time>
      </trkpt>
      <trkpt lat="43.86559" lon="7.24497">
        <ele>830.71655273438</ele>
        <time>2014-03-09T12:38:10Z</time>
      </trkpt>
      <trkpt lat="43.86551" lon="7.2448">
        <ele>826.87109375</ele>
        <time>2014-03-09T12:38:14Z</time>
      </trkpt>
      <trkpt lat="43.8655" lon="7.24475">
        <ele>825.90966796875</ele>
        <time>2014-03-09T12:38:15Z</time>
      </trkpt>
      <trkpt lat="43.86546" lon="7.24465">
        <ele>823.98706054688</ele>
        <time>2014-03-09T12:38:17Z</time>
      </trkpt>
      <trkpt lat="43.86552" lon="7.24451">
        <ele>820.14184570312</ele>
        <time>2014-03-09T12:38:21Z</time>
      </trkpt>
      <trkpt lat="43.86562" lon="7.24442">
        <ele>817.73852539062</ele>
        <time>2014-03-09T12:38:25Z</time>
      </trkpt>
      <trkpt lat="43.86576" lon="7.24432">
        <ele>815.33544921875</ele>
        <time>2014-03-09T12:38:29Z</time>
      </trkpt>
      <trkpt lat="43.8658" lon="7.24429">
        <ele>814.85473632812</ele>
        <time>2014-03-09T12:38:30Z</time>
      </trkpt>
      <trkpt lat="43.86591" lon="7.24414">
        <ele>811.00927734375</ele>
        <time>2014-03-09T12:38:35Z</time>
      </trkpt>
      <trkpt lat="43.86592" lon="7.24409">
        <ele>809.5673828125</ele>
        <time>2014-03-09T12:38:37Z</time>
      </trkpt>
      <trkpt lat="43.86587" lon="7.24402">
        <ele>807.64477539062</ele>
        <time>2014-03-09T12:38:42Z</time>
      </trkpt>
      <trkpt lat="43.86584" lon="7.244">
        <ele>806.68334960938</ele>
        <time>2014-03-09T12:38:43Z</time>
      </trkpt>
      <trkpt lat="43.86569" lon="7.2439">
        <ele>804.7607421875</ele>
        <time>2014-03-09T12:38:48Z</time>
      </trkpt>
      <trkpt lat="43.86555" lon="7.24382">
        <ele>801.876953125</ele>
        <time>2014-03-09T12:38:53Z</time>
      </trkpt>
      <trkpt lat="43.86551" lon="7.2438">
        <ele>801.39624023438</ele>
        <time>2014-03-09T12:38:55Z</time>
      </trkpt>
      <trkpt lat="43.86543" lon="7.24382">
        <ele>798.99291992188</ele>
        <time>2014-03-09T12:39:00Z</time>
      </trkpt>
      <trkpt lat="43.86537" lon="7.24381">
        <ele>795.1474609375</ele>
        <time>2014-03-09T12:39:04Z</time>
      </trkpt>
      <trkpt lat="43.86528" lon="7.24362">
        <ele>792.263671875</ele>
        <time>2014-03-09T12:39:09Z</time>
      </trkpt>
      <trkpt lat="43.86526" lon="7.24338">
        <ele>789.37963867188</ele>
        <time>2014-03-09T12:39:14Z</time>
      </trkpt>
      <trkpt lat="43.86527" lon="7.24334">
        <ele>788.89916992188</ele>
        <time>2014-03-09T12:39:15Z</time>
      </trkpt>
      <trkpt lat="43.86524" lon="7.24317">
        <ele>785.53442382812</ele>
        <time>2014-03-09T12:39:20Z</time>
      </trkpt>
      <trkpt lat="43.86523" lon="7.24297">
        <ele>781.20874023438</ele>
        <time>2014-03-09T12:39:25Z</time>
      </trkpt>
      <trkpt lat="43.86525" lon="7.24292">
        <ele>780.24731445312</ele>
        <time>2014-03-09T12:39:26Z</time>
      </trkpt>
      <trkpt lat="43.86526" lon="7.24267">
        <ele>773.03735351562</ele>
        <time>2014-03-09T12:39:32Z</time>
      </trkpt>
      <trkpt lat="43.86526" lon="7.2426">
        <ele>771.11474609375</ele>
        <time>2014-03-09T12:39:34Z</time>
      </trkpt>
      <trkpt lat="43.86523" lon="7.2423">
        <ele>762.943359375</ele>
        <time>2014-03-09T12:39:41Z</time>
      </trkpt>
      <trkpt lat="43.86523" lon="7.24226">
        <ele>761.50146484375</ele>
        <time>2014-03-09T12:39:42Z</time>
      </trkpt>
      <trkpt lat="43.8652" lon="7.24203">
        <ele>756.21411132812</ele>
        <time>2014-03-09T12:39:47Z</time>
      </trkpt>
      <trkpt lat="43.86526" lon="7.24198">
        <ele>754.77221679688</ele>
        <time>2014-03-09T12:39:50Z</time>
      </trkpt>
      <trkpt lat="43.86541" lon="7.24193">
        <ele>752.849609375</ele>
        <time>2014-03-09T12:39:54Z</time>
      </trkpt>
      <trkpt lat="43.86578" lon="7.24178">
        <ele>748.52368164062</ele>
        <time>2014-03-09T12:40:00Z</time>
      </trkpt>
      <trkpt lat="43.86596" lon="7.24166">
        <ele>746.12036132812</ele>
        <time>2014-03-09T12:40:03Z</time>
      </trkpt>
      <trkpt lat="43.86621" lon="7.2415">
        <ele>743.236328125</ele>
        <time>2014-03-09T12:40:07Z</time>
      </trkpt>
      <trkpt lat="43.86634" lon="7.24151">
        <ele>742.755859375</ele>
        <time>2014-03-09T12:40:11Z</time>
      </trkpt>
      <trkpt lat="43.8664" lon="7.24158">
        <ele>742.755859375</ele>
        <time>2014-03-09T12:40:15Z</time>
      </trkpt>
      <trkpt lat="43.86652" lon="7.24162">
        <ele>742.27514648438</ele>
        <time>2014-03-09T12:40:19Z</time>
      </trkpt>
      <trkpt lat="43.86662" lon="7.24172">
        <ele>740.3525390625</ele>
        <time>2014-03-09T12:40:24Z</time>
      </trkpt>
      <trkpt lat="43.86673" lon="7.24178">
        <ele>739.87182617188</ele>
        <time>2014-03-09T12:40:29Z</time>
      </trkpt>
      <trkpt lat="43.86688" lon="7.24182">
        <ele>738.91064453125</ele>
        <time>2014-03-09T12:40:34Z</time>
      </trkpt>
      <trkpt lat="43.86698" lon="7.24182">
        <ele>738.42993164062</ele>
        <time>2014-03-09T12:40:38Z</time>
      </trkpt>
      <trkpt lat="43.86702" lon="7.24183">
        <ele>738.91064453125</ele>
        <time>2014-03-09T12:40:42Z</time>
      </trkpt>
      <trkpt lat="43.86709" lon="7.24184">
        <ele>737.94921875</ele>
        <time>2014-03-09T12:40:47Z</time>
      </trkpt>
      <trkpt lat="43.86739" lon="7.24186">
        <ele>738.42993164062</ele>
        <time>2014-03-09T12:40:54Z</time>
      </trkpt>
      <trkpt lat="43.86757" lon="7.24181">
        <ele>736.98779296875</ele>
        <time>2014-03-09T12:40:58Z</time>
      </trkpt>
      <trkpt lat="43.86781" lon="7.24189">
        <ele>736.50732421875</ele>
        <time>2014-03-09T12:41:03Z</time>
      </trkpt>
      <trkpt lat="43.868" lon="7.24205">
        <ele>735.0654296875</ele>
        <time>2014-03-09T12:41:08Z</time>
      </trkpt>
      <trkpt lat="43.86815" lon="7.2422">
        <ele>735.0654296875</ele>
        <time>2014-03-09T12:41:12Z</time>
      </trkpt>
      <trkpt lat="43.86826" lon="7.24228">
        <ele>734.10400390625</ele>
        <time>2014-03-09T12:41:15Z</time>
      </trkpt>
      <trkpt lat="43.8685" lon="7.24236">
        <ele>733.62329101562</ele>
        <time>2014-03-09T12:41:20Z</time>
      </trkpt>
      <trkpt lat="43.86868" lon="7.24248">
        <ele>734.10400390625</ele>
        <time>2014-03-09T12:41:25Z</time>
      </trkpt>
      <trkpt lat="43.86888" lon="7.24254">
        <ele>733.142578125</ele>
        <time>2014-03-09T12:41:31Z</time>
      </trkpt>
      <trkpt lat="43.86903" lon="7.24262">
        <ele>733.62329101562</ele>
        <time>2014-03-09T12:41:35Z</time>
      </trkpt>
      <trkpt lat="43.86918" lon="7.24272">
        <ele>733.142578125</ele>
        <time>2014-03-09T12:41:39Z</time>
      </trkpt>
      <trkpt lat="43.86926" lon="7.24274">
        <ele>732.662109375</ele>
        <time>2014-03-09T12:41:41Z</time>
      </trkpt>
      <trkpt lat="43.86944" lon="7.24284">
        <ele>733.142578125</ele>
        <time>2014-03-09T12:41:46Z</time>
      </trkpt>
      <trkpt lat="43.86946" lon="7.24286">
        <ele>733.62329101562</ele>
        <time>2014-03-09T12:41:47Z</time>
      </trkpt>
      <trkpt lat="43.8695" lon="7.24291">
        <ele>734.10400390625</ele>
        <time>2014-03-09T12:41:49Z</time>
      </trkpt>
      <trkpt lat="43.86956" lon="7.24294">
        <ele>735.5458984375</ele>
        <time>2014-03-09T12:41:54Z</time>
      </trkpt>
      <trkpt lat="43.86958" lon="7.24294">
        <ele>736.50732421875</ele>
        <time>2014-03-09T12:41:59Z</time>
      </trkpt>
      <trkpt lat="43.86969" lon="7.24298">
        <ele>734.58471679688</ele>
        <time>2014-03-09T12:42:04Z</time>
      </trkpt>
      <trkpt lat="43.86984" lon="7.24304">
        <ele>731.21997070312</ele>
        <time>2014-03-09T12:42:10Z</time>
      </trkpt>
      <trkpt lat="43.86987" lon="7.24307">
        <ele>730.7392578125</ele>
        <time>2014-03-09T12:42:12Z</time>
      </trkpt>
      <trkpt lat="43.86997" lon="7.24309">
        <ele>732.18139648438</ele>
        <time>2014-03-09T12:42:19Z</time>
      </trkpt>
      <trkpt lat="43.87005" lon="7.24311">
        <ele>731.21997070312</ele>
        <time>2014-03-09T12:42:24Z</time>
      </trkpt>
      <trkpt lat="43.87015" lon="7.24311">
        <ele>734.10400390625</ele>
        <time>2014-03-09T12:42:31Z</time>
      </trkpt>
      <trkpt lat="43.87021" lon="7.24312">
        <ele>736.50732421875</ele>
        <time>2014-03-09T12:42:37Z</time>
      </trkpt>
      <trkpt lat="43.87027" lon="7.24312">
        <ele>738.91064453125</ele>
        <time>2014-03-09T12:42:45Z</time>
      </trkpt>
      <trkpt lat="43.87038" lon="7.24312">
        <ele>740.3525390625</ele>
        <time>2014-03-09T12:42:54Z</time>
      </trkpt>
      <trkpt lat="43.87045" lon="7.24315">
        <ele>743.236328125</ele>
        <time>2014-03-09T12:43:02Z</time>
      </trkpt>
      <trkpt lat="43.8705" lon="7.24318">
        <ele>743.71704101562</ele>
        <time>2014-03-09T12:43:07Z</time>
      </trkpt>
      <trkpt lat="43.87056" lon="7.24321">
        <ele>743.236328125</ele>
        <time>2014-03-09T12:43:11Z</time>
      </trkpt>
      <trkpt lat="43.8707" lon="7.24307">
        <ele>742.27514648438</ele>
        <time>2014-03-09T12:43:17Z</time>
      </trkpt>
      <trkpt lat="43.87077" lon="7.24299">
        <ele>741.31372070312</ele>
        <time>2014-03-09T12:43:20Z</time>
      </trkpt>
      <trkpt lat="43.87077" lon="7.24289">
        <ele>741.31372070312</ele>
        <time>2014-03-09T12:43:23Z</time>
      </trkpt>
      <trkpt lat="43.87085" lon="7.24273">
        <ele>738.91064453125</ele>
        <time>2014-03-09T12:43:29Z</time>
      </trkpt>
      <trkpt lat="43.87087" lon="7.24272">
        <ele>738.42993164062</ele>
        <time>2014-03-09T12:43:30Z</time>
      </trkpt>
      <trkpt lat="43.87096" lon="7.24253">
        <ele>735.5458984375</ele>
        <time>2014-03-09T12:43:36Z</time>
      </trkpt>
      <trkpt lat="43.87104" lon="7.24231">
        <ele>731.70043945312</ele>
        <time>2014-03-09T12:43:41Z</time>
      </trkpt>
      <trkpt lat="43.87105" lon="7.24226">
        <ele>730.25854492188</ele>
        <time>2014-03-09T12:43:42Z</time>
      </trkpt>
      <trkpt lat="43.87104" lon="7.24203">
        <ele>724.01000976562</ele>
        <time>2014-03-09T12:43:47Z</time>
      </trkpt>
      <trkpt lat="43.87104" lon="7.24199">
        <ele>723.048828125</ele>
        <time>2014-03-09T12:43:48Z</time>
      </trkpt>
      <trkpt lat="43.87093" lon="7.24187">
        <ele>716.80029296875</ele>
        <time>2014-03-09T12:43:53Z</time>
      </trkpt>
      <trkpt lat="43.87091" lon="7.24176">
        <ele>713.435546875</ele>
        <time>2014-03-09T12:43:58Z</time>
      </trkpt>
      <trkpt lat="43.87096" lon="7.24163">
        <ele>708.62890625</ele>
        <time>2014-03-09T12:44:02Z</time>
      </trkpt>
      <trkpt lat="43.87104" lon="7.2415">
        <ele>704.30322265625</ele>
        <time>2014-03-09T12:44:06Z</time>
      </trkpt>
      <trkpt lat="43.87114" lon="7.24147">
        <ele>699.97705078125</ele>
        <time>2014-03-09T12:44:10Z</time>
      </trkpt>
      <trkpt lat="43.87113" lon="7.24144">
        <ele>698.53491210938</ele>
        <time>2014-03-09T12:44:12Z</time>
      </trkpt>
      <trkpt lat="43.87107" lon="7.2414">
        <ele>696.1318359375</ele>
        <time>2014-03-09T12:44:15Z</time>
      </trkpt>
      <trkpt lat="43.87104" lon="7.2413">
        <ele>692.76733398438</ele>
        <time>2014-03-09T12:44:19Z</time>
      </trkpt>
      <trkpt lat="43.87103" lon="7.24123">
        <ele>690.36401367188</ele>
        <time>2014-03-09T12:44:22Z</time>
      </trkpt>
      <trkpt lat="43.87091" lon="7.24112">
        <ele>686.0380859375</ele>
        <time>2014-03-09T12:44:27Z</time>
      </trkpt>
      <trkpt lat="43.87083" lon="7.241">
        <ele>681.7119140625</ele>
        <time>2014-03-09T12:44:32Z</time>
      </trkpt>
      <trkpt lat="43.87084" lon="7.24093">
        <ele>679.78930664062</ele>
        <time>2014-03-09T12:44:35Z</time>
      </trkpt>
      <trkpt lat="43.87079" lon="7.24086">
        <ele>677.38623046875</ele>
        <time>2014-03-09T12:44:39Z</time>
      </trkpt>
      <trkpt lat="43.8707" lon="7.24077">
        <ele>673.06030273438</ele>
        <time>2014-03-09T12:44:43Z</time>
      </trkpt>
      <trkpt lat="43.87063" lon="7.2407">
        <ele>670.17626953125</ele>
        <time>2014-03-09T12:44:46Z</time>
      </trkpt>
      <trkpt lat="43.87048" lon="7.24061">
        <ele>666.8115234375</ele>
        <time>2014-03-09T12:44:51Z</time>
      </trkpt>
      <trkpt lat="43.87036" lon="7.24045">
        <ele>663.44702148438</ele>
        <time>2014-03-09T12:44:56Z</time>
      </trkpt>
      <trkpt lat="43.87033" lon="7.24046">
        <ele>662.96630859375</ele>
        <time>2014-03-09T12:44:57Z</time>
      </trkpt>
      <trkpt lat="43.87028" lon="7.24051">
        <ele>663.44702148438</ele>
        <time>2014-03-09T12:45:04Z</time>
      </trkpt>
      <trkpt lat="43.87026" lon="7.24051">
        <ele>663.44702148438</ele>
        <time>2014-03-09T12:45:08Z</time>
      </trkpt>
      <trkpt lat="43.87022" lon="7.24049">
        <ele>663.44702148438</ele>
        <time>2014-03-09T12:45:10Z</time>
      </trkpt>
      <trkpt lat="43.87014" lon="7.24053">
        <ele>663.92749023438</ele>
        <time>2014-03-09T12:45:14Z</time>
      </trkpt>
      <trkpt lat="43.87006" lon="7.24057">
        <ele>663.92749023438</ele>
        <time>2014-03-09T12:45:19Z</time>
      </trkpt>
      <trkpt lat="43.87" lon="7.24063">
        <ele>664.408203125</ele>
        <time>2014-03-09T12:45:26Z</time>
      </trkpt>
      <trkpt lat="43.86993" lon="7.24071">
        <ele>665.85034179688</ele>
        <time>2014-03-09T12:45:34Z</time>
      </trkpt>
      <trkpt lat="43.86986" lon="7.24076">
        <ele>664.408203125</ele>
        <time>2014-03-09T12:45:40Z</time>
      </trkpt>
      <trkpt lat="43.86979" lon="7.24082">
        <ele>662.96630859375</ele>
        <time>2014-03-09T12:45:43Z</time>
      </trkpt>
      <trkpt lat="43.86968" lon="7.24093">
        <ele>660.56298828125</ele>
        <time>2014-03-09T12:45:48Z</time>
      </trkpt>
      <trkpt lat="43.8696" lon="7.24096">
        <ele>660.56298828125</ele>
        <time>2014-03-09T12:45:50Z</time>
      </trkpt>
      <trkpt lat="43.86955" lon="7.24097">
        <ele>660.08227539062</ele>
        <time>2014-03-09T12:45:52Z</time>
      </trkpt>
      <trkpt lat="43.8695" lon="7.241">
        <ele>659.60180664062</ele>
        <time>2014-03-09T12:45:59Z</time>
      </trkpt>
      <trkpt lat="43.86949" lon="7.241">
        <ele>659.60180664062</ele>
        <time>2014-03-09T12:46:00Z</time>
      </trkpt>
      <trkpt lat="43.86943" lon="7.24094">
        <ele>662.00512695312</ele>
        <time>2014-03-09T12:46:04Z</time>
      </trkpt>
      <trkpt lat="43.8693" lon="7.24091">
        <ele>661.5244140625</ele>
        <time>2014-03-09T12:46:09Z</time>
      </trkpt>
      <trkpt lat="43.86917" lon="7.24086">
        <ele>661.5244140625</ele>
        <time>2014-03-09T12:46:13Z</time>
      </trkpt>
      <trkpt lat="43.86908" lon="7.24071">
        <ele>660.56298828125</ele>
        <time>2014-03-09T12:46:18Z</time>
      </trkpt>
      <trkpt lat="43.86896" lon="7.24046">
        <ele>658.64038085938</ele>
        <time>2014-03-09T12:46:23Z</time>
      </trkpt>
      <trkpt lat="43.86879" lon="7.24024">
        <ele>659.12109375</ele>
        <time>2014-03-09T12:46:27Z</time>
      </trkpt>
      <trkpt lat="43.8686" lon="7.24006">
        <ele>660.08227539062</ele>
        <time>2014-03-09T12:46:31Z</time>
      </trkpt>
      <trkpt lat="43.86849" lon="7.2399">
        <ele>660.08227539062</ele>
        <time>2014-03-09T12:46:34Z</time>
      </trkpt>
      <trkpt lat="43.86851" lon="7.23977">
        <ele>656.23706054688</ele>
        <time>2014-03-09T12:46:39Z</time>
      </trkpt>
      <trkpt lat="43.86859" lon="7.2396">
        <ele>655.75659179688</ele>
        <time>2014-03-09T12:46:44Z</time>
      </trkpt>
      <trkpt lat="43.86861" lon="7.23954">
        <ele>655.75659179688</ele>
        <time>2014-03-09T12:46:46Z</time>
      </trkpt>
      <trkpt lat="43.86869" lon="7.23939">
        <ele>650.46923828125</ele>
        <time>2014-03-09T12:46:53Z</time>
      </trkpt>
      <trkpt lat="43.86873" lon="7.23928">
        <ele>649.02709960938</ele>
        <time>2014-03-09T12:46:57Z</time>
      </trkpt>
      <trkpt lat="43.86877" lon="7.23919">
        <ele>647.1044921875</ele>
        <time>2014-03-09T12:47:00Z</time>
      </trkpt>
      <trkpt lat="43.86878" lon="7.23909">
        <ele>647.58520507812</ele>
        <time>2014-03-09T12:47:02Z</time>
      </trkpt>
      <trkpt lat="43.8688" lon="7.23884">
        <ele>650.46923828125</ele>
        <time>2014-03-09T12:47:07Z</time>
      </trkpt>
      <trkpt lat="43.86879" lon="7.23868">
        <ele>651.9111328125</ele>
        <time>2014-03-09T12:47:11Z</time>
      </trkpt>
      <trkpt lat="43.86879" lon="7.2385">
        <ele>649.98852539062</ele>
        <time>2014-03-09T12:47:16Z</time>
      </trkpt>
      <trkpt lat="43.86877" lon="7.23827">
        <ele>650.46923828125</ele>
        <time>2014-03-09T12:47:22Z</time>
      </trkpt>
      <trkpt lat="43.86872" lon="7.23806">
        <ele>651.43041992188</ele>
        <time>2014-03-09T12:47:27Z</time>
      </trkpt>
      <trkpt lat="43.86862" lon="7.23783">
        <ele>652.39184570312</ele>
        <time>2014-03-09T12:47:32Z</time>
      </trkpt>
      <trkpt lat="43.86852" lon="7.23762">
        <ele>653.35327148438</ele>
        <time>2014-03-09T12:47:37Z</time>
      </trkpt>
      <trkpt lat="43.86849" lon="7.23745">
        <ele>653.35327148438</ele>
        <time>2014-03-09T12:47:41Z</time>
      </trkpt>
      <trkpt lat="43.86841" lon="7.23736">
        <ele>655.27587890625</ele>
        <time>2014-03-09T12:47:46Z</time>
      </trkpt>
      <trkpt lat="43.86832" lon="7.23722">
        <ele>660.56298828125</ele>
        <time>2014-03-09T12:47:52Z</time>
      </trkpt>
      <trkpt lat="43.86829" lon="7.23698">
        <ele>663.92749023438</ele>
        <time>2014-03-09T12:47:59Z</time>
      </trkpt>
      <trkpt lat="43.86821" lon="7.23677">
        <ele>664.408203125</ele>
        <time>2014-03-09T12:48:04Z</time>
      </trkpt>
      <trkpt lat="43.86807" lon="7.23653">
        <ele>662.96630859375</ele>
        <time>2014-03-09T12:48:08Z</time>
      </trkpt>
      <trkpt lat="43.86797" lon="7.23641">
        <ele>661.5244140625</ele>
        <time>2014-03-09T12:48:11Z</time>
      </trkpt>
      <trkpt lat="43.86779" lon="7.23617">
        <ele>660.56298828125</ele>
        <time>2014-03-09T12:48:17Z</time>
      </trkpt>
      <trkpt lat="43.86773" lon="7.23599">
        <ele>659.12109375</ele>
        <time>2014-03-09T12:48:21Z</time>
      </trkpt>
      <trkpt lat="43.86765" lon="7.23587">
        <ele>658.64038085938</ele>
        <time>2014-03-09T12:48:24Z</time>
      </trkpt>
      <trkpt lat="43.86755" lon="7.23585">
        <ele>658.15991210938</ele>
        <time>2014-03-09T12:48:26Z</time>
      </trkpt>
      <trkpt lat="43.86749" lon="7.23582">
        <ele>657.19848632812</ele>
        <time>2014-03-09T12:48:28Z</time>
      </trkpt>
      <trkpt lat="43.86744" lon="7.23566">
        <ele>655.27587890625</ele>
        <time>2014-03-09T12:48:33Z</time>
      </trkpt>
      <trkpt lat="43.86742" lon="7.23558">
        <ele>653.833984375</ele>
        <time>2014-03-09T12:48:37Z</time>
      </trkpt>
      <trkpt lat="43.86739" lon="7.23553">
        <ele>654.79516601562</ele>
        <time>2014-03-09T12:48:43Z</time>
      </trkpt>
      <trkpt lat="43.86739" lon="7.23544">
        <ele>655.27587890625</ele>
        <time>2014-03-09T12:48:50Z</time>
      </trkpt>
      <trkpt lat="43.86736" lon="7.23538">
        <ele>658.64038085938</ele>
        <time>2014-03-09T12:48:55Z</time>
      </trkpt>
      <trkpt lat="43.86739" lon="7.23527">
        <ele>657.67919921875</ele>
        <time>2014-03-09T12:49:01Z</time>
      </trkpt>
      <trkpt lat="43.86741" lon="7.23523">
        <ele>657.67919921875</ele>
        <time>2014-03-09T12:49:03Z</time>
      </trkpt>
      <trkpt lat="43.86745" lon="7.23505">
        <ele>656.23706054688</ele>
        <time>2014-03-09T12:49:11Z</time>
      </trkpt>
      <trkpt lat="43.86747" lon="7.23492">
        <ele>656.23706054688</ele>
        <time>2014-03-09T12:49:16Z</time>
      </trkpt>
      <trkpt lat="43.86749" lon="7.23486">
        <ele>656.23706054688</ele>
        <time>2014-03-09T12:49:18Z</time>
      </trkpt>
      <trkpt lat="43.86754" lon="7.23465">
        <ele>660.56298828125</ele>
        <time>2014-03-09T12:49:25Z</time>
      </trkpt>
      <trkpt lat="43.8676" lon="7.23443">
        <ele>660.08227539062</ele>
        <time>2014-03-09T12:49:32Z</time>
      </trkpt>
      <trkpt lat="43.86761" lon="7.23432">
        <ele>662.48559570312</ele>
        <time>2014-03-09T12:49:37Z</time>
      </trkpt>
      <trkpt lat="43.86763" lon="7.23422">
        <ele>663.92749023438</ele>
        <time>2014-03-09T12:49:44Z</time>
      </trkpt>
      <trkpt lat="43.86765" lon="7.2341">
        <ele>666.33081054688</ele>
        <time>2014-03-09T12:49:52Z</time>
      </trkpt>
      <trkpt lat="43.86765" lon="7.23401">
        <ele>667.77270507812</ele>
        <time>2014-03-09T12:50:01Z</time>
      </trkpt>
      <trkpt lat="43.86764" lon="7.23393">
        <ele>667.77270507812</ele>
        <time>2014-03-09T12:50:07Z</time>
      </trkpt>
      <trkpt lat="43.86765" lon="7.23389">
        <ele>667.77270507812</ele>
        <time>2014-03-09T12:50:10Z</time>
      </trkpt>
      <trkpt lat="43.86764" lon="7.23377">
        <ele>671.6181640625</ele>
        <time>2014-03-09T12:50:19Z</time>
      </trkpt>
      <trkpt lat="43.86763" lon="7.23376">
        <ele>672.09887695312</ele>
        <time>2014-03-09T12:50:20Z</time>
      </trkpt>
      <trkpt lat="43.86758" lon="7.23373">
        <ele>675.46337890625</ele>
        <time>2014-03-09T12:50:29Z</time>
      </trkpt>
      <trkpt lat="43.86754" lon="7.23365">
        <ele>676.90551757812</ele>
        <time>2014-03-09T12:50:35Z</time>
      </trkpt>
      <trkpt lat="43.86752" lon="7.23362">
        <ele>677.86669921875</ele>
        <time>2014-03-09T12:50:38Z</time>
      </trkpt>
      <trkpt lat="43.86749" lon="7.23356">
        <ele>677.38623046875</ele>
        <time>2014-03-09T12:50:44Z</time>
      </trkpt>
      <trkpt lat="43.86749" lon="7.23343">
        <ele>676.4248046875</ele>
        <time>2014-03-09T12:50:48Z</time>
      </trkpt>
      <trkpt lat="43.8675" lon="7.23332">
        <ele>674.98291015625</ele>
        <time>2014-03-09T12:50:51Z</time>
      </trkpt>
      <trkpt lat="43.8676" lon="7.23321">
        <ele>674.021484375</ele>
        <time>2014-03-09T12:50:55Z</time>
      </trkpt>
      <trkpt lat="43.86761" lon="7.23317">
        <ele>674.021484375</ele>
        <time>2014-03-09T12:50:56Z</time>
      </trkpt>
      <trkpt lat="43.86757" lon="7.23299">
        <ele>672.57958984375</ele>
        <time>2014-03-09T12:51:01Z</time>
      </trkpt>
      <trkpt lat="43.86758" lon="7.23286">
        <ele>671.6181640625</ele>
        <time>2014-03-09T12:51:04Z</time>
      </trkpt>
      <trkpt lat="43.86751" lon="7.23277">
        <ele>669.21508789062</ele>
        <time>2014-03-09T12:51:07Z</time>
      </trkpt>
      <trkpt lat="43.86736" lon="7.23279">
        <ele>665.85034179688</ele>
        <time>2014-03-09T12:51:11Z</time>
      </trkpt>
      <trkpt lat="43.86716" lon="7.23287">
        <ele>660.56298828125</ele>
        <time>2014-03-09T12:51:18Z</time>
      </trkpt>
      <trkpt lat="43.86701" lon="7.23293">
        <ele>656.23706054688</ele>
        <time>2014-03-09T12:51:23Z</time>
      </trkpt>
      <trkpt lat="43.86699" lon="7.23296">
        <ele>655.27587890625</ele>
        <time>2014-03-09T12:51:24Z</time>
      </trkpt>
      <trkpt lat="43.86691" lon="7.233">
        <ele>652.87255859375</ele>
        <time>2014-03-09T12:51:28Z</time>
      </trkpt>
      <trkpt lat="43.8668" lon="7.23302">
        <ele>649.98852539062</ele>
        <time>2014-03-09T12:51:31Z</time>
      </trkpt>
      <trkpt lat="43.86676" lon="7.23304">
        <ele>649.02709960938</ele>
        <time>2014-03-09T12:51:32Z</time>
      </trkpt>
      <trkpt lat="43.86659" lon="7.2331">
        <ele>645.66259765625</ele>
        <time>2014-03-09T12:51:35Z</time>
      </trkpt>
      <trkpt lat="43.86637" lon="7.23316">
        <ele>641.33666992188</ele>
        <time>2014-03-09T12:51:39Z</time>
      </trkpt>
      <trkpt lat="43.86631" lon="7.23316">
        <ele>639.89477539062</ele>
        <time>2014-03-09T12:51:41Z</time>
      </trkpt>
      <trkpt lat="43.8662" lon="7.23314">
        <ele>637.0107421875</ele>
        <time>2014-03-09T12:51:46Z</time>
      </trkpt>
      <trkpt lat="43.86621" lon="7.23308">
        <ele>635.56860351562</ele>
        <time>2014-03-09T12:51:50Z</time>
      </trkpt>
      <trkpt lat="43.86618" lon="7.23304">
        <ele>635.08813476562</ele>
        <time>2014-03-09T12:51:54Z</time>
      </trkpt>
      <trkpt lat="43.86603" lon="7.233">
        <ele>633.64599609375</ele>
        <time>2014-03-09T12:51:58Z</time>
      </trkpt>
      <trkpt lat="43.86589" lon="7.23291">
        <ele>631.72338867188</ele>
        <time>2014-03-09T12:52:02Z</time>
      </trkpt>
      <trkpt lat="43.86575" lon="7.23285">
        <ele>628.35888671875</ele>
        <time>2014-03-09T12:52:06Z</time>
      </trkpt>
      <trkpt lat="43.86568" lon="7.23283">
        <ele>625.95556640625</ele>
        <time>2014-03-09T12:52:08Z</time>
      </trkpt>
      <trkpt lat="43.86563" lon="7.23271">
        <ele>621.62963867188</ele>
        <time>2014-03-09T12:52:12Z</time>
      </trkpt>
      <trkpt lat="43.8656" lon="7.23264">
        <ele>619.70703125</ele>
        <time>2014-03-09T12:52:14Z</time>
      </trkpt>
      <trkpt lat="43.86547" lon="7.23243">
        <ele>616.34228515625</ele>
        <time>2014-03-09T12:52:18Z</time>
      </trkpt>
      <trkpt lat="43.86538" lon="7.23227">
        <ele>614.41967773438</ele>
        <time>2014-03-09T12:52:20Z</time>
      </trkpt>
      <trkpt lat="43.86531" lon="7.23202">
        <ele>611.53588867188</ele>
        <time>2014-03-09T12:52:24Z</time>
      </trkpt>
      <trkpt lat="43.86532" lon="7.23194">
        <ele>611.05517578125</ele>
        <time>2014-03-09T12:52:26Z</time>
      </trkpt>
      <trkpt lat="43.86528" lon="7.23177">
        <ele>610.09375</ele>
        <time>2014-03-09T12:52:30Z</time>
      </trkpt>
      <trkpt lat="43.86522" lon="7.23172">
        <ele>609.61328125</ele>
        <time>2014-03-09T12:52:32Z</time>
      </trkpt>
      <trkpt lat="43.86514" lon="7.23173">
        <ele>610.57446289062</ele>
        <time>2014-03-09T12:52:36Z</time>
      </trkpt>
      <trkpt lat="43.86493" lon="7.23175">
        <ele>611.05517578125</ele>
        <time>2014-03-09T12:52:42Z</time>
      </trkpt>
      <trkpt lat="43.86477" lon="7.23172">
        <ele>610.57446289062</ele>
        <time>2014-03-09T12:52:46Z</time>
      </trkpt>
      <trkpt lat="43.86465" lon="7.23172">
        <ele>610.09375</ele>
        <time>2014-03-09T12:52:48Z</time>
      </trkpt>
      <trkpt lat="43.86443" lon="7.23172">
        <ele>608.65185546875</ele>
        <time>2014-03-09T12:52:53Z</time>
      </trkpt>
      <trkpt lat="43.86428" lon="7.23159">
        <ele>606.72924804688</ele>
        <time>2014-03-09T12:52:56Z</time>
      </trkpt>
      <trkpt lat="43.86412" lon="7.23146">
        <ele>604.806640625</ele>
        <time>2014-03-09T12:52:59Z</time>
      </trkpt>
      <trkpt lat="43.86398" lon="7.23121">
        <ele>600.96118164062</ele>
        <time>2014-03-09T12:53:03Z</time>
      </trkpt>
      <trkpt lat="43.86386" lon="7.23101">
        <ele>599.51928710938</ele>
        <time>2014-03-09T12:53:06Z</time>
      </trkpt>
      <trkpt lat="43.86374" lon="7.23081">
        <ele>596.63549804688</ele>
        <time>2014-03-09T12:53:10Z</time>
      </trkpt>
      <trkpt lat="43.86377" lon="7.2306">
        <ele>594.23217773438</ele>
        <time>2014-03-09T12:53:13Z</time>
      </trkpt>
      <trkpt lat="43.86379" lon="7.23052">
        <ele>593.27075195312</ele>
        <time>2014-03-09T12:53:14Z</time>
      </trkpt>
      <trkpt lat="43.86393" lon="7.23017">
        <ele>587.9833984375</ele>
        <time>2014-03-09T12:53:19Z</time>
      </trkpt>
      <trkpt lat="43.86391" lon="7.22998">
        <ele>584.13818359375</ele>
        <time>2014-03-09T12:53:23Z</time>
      </trkpt>
      <trkpt lat="43.864" lon="7.22989">
        <ele>581.73486328125</ele>
        <time>2014-03-09T12:53:28Z</time>
      </trkpt>
      <trkpt lat="43.86407" lon="7.22995">
        <ele>579.33154296875</ele>
        <time>2014-03-09T12:53:31Z</time>
      </trkpt>
      <trkpt lat="43.86411" lon="7.22996">
        <ele>577.8896484375</ele>
        <time>2014-03-09T12:53:33Z</time>
      </trkpt>
      <trkpt lat="43.86422" lon="7.22992">
        <ele>572.6025390625</ele>
        <time>2014-03-09T12:53:37Z</time>
      </trkpt>
      <trkpt lat="43.86433" lon="7.22989">
        <ele>568.2763671875</ele>
        <time>2014-03-09T12:53:41Z</time>
      </trkpt>
      <trkpt lat="43.8644" lon="7.22995">
        <ele>567.31518554688</ele>
        <time>2014-03-09T12:53:43Z</time>
      </trkpt>
      <trkpt lat="43.86455" lon="7.23002">
        <ele>562.9892578125</ele>
        <time>2014-03-09T12:53:46Z</time>
      </trkpt>
      <trkpt lat="43.86469" lon="7.2299">
        <ele>555.779296875</ele>
        <time>2014-03-09T12:53:51Z</time>
      </trkpt>
      <trkpt lat="43.86486" lon="7.22983">
        <ele>546.16625976562</ele>
        <time>2014-03-09T12:53:56Z</time>
      </trkpt>
      <trkpt lat="43.8649" lon="7.22979">
        <ele>544.72424316406</ele>
        <time>2014-03-09T12:53:57Z</time>
      </trkpt>
      <trkpt lat="43.86512" lon="7.22982">
        <ele>538.47570800781</ele>
        <time>2014-03-09T12:54:02Z</time>
      </trkpt>
      <trkpt lat="43.8652" lon="7.22983">
        <ele>537.51428222656</ele>
        <time>2014-03-09T12:54:04Z</time>
      </trkpt>
      <trkpt lat="43.86538" lon="7.22967">
        <ele>539.91760253906</ele>
        <time>2014-03-09T12:54:11Z</time>
      </trkpt>
      <trkpt lat="43.86549" lon="7.22961">
        <ele>540.39831542969</ele>
        <time>2014-03-09T12:54:15Z</time>
      </trkpt>
      <trkpt lat="43.86551" lon="7.22951">
        <ele>537.03369140625</ele>
        <time>2014-03-09T12:54:20Z</time>
      </trkpt>
      <trkpt lat="43.8655" lon="7.22952">
        <ele>535.11096191406</ele>
        <time>2014-03-09T12:54:21Z</time>
      </trkpt>
      <trkpt lat="43.86545" lon="7.22944">
        <ele>530.30444335938</ele>
        <time>2014-03-09T12:54:26Z</time>
      </trkpt>
      <trkpt lat="43.86547" lon="7.22941">
        <ele>528.86254882812</ele>
        <time>2014-03-09T12:54:27Z</time>
      </trkpt>
      <trkpt lat="43.86561" lon="7.22927">
        <ele>524.05578613281</ele>
        <time>2014-03-09T12:54:32Z</time>
      </trkpt>
      <trkpt lat="43.8657" lon="7.22919">
        <ele>519.72985839844</ele>
        <time>2014-03-09T12:54:36Z</time>
      </trkpt>
      <trkpt lat="43.8657" lon="7.22918">
        <ele>518.7685546875</ele>
        <time>2014-03-09T12:54:37Z</time>
      </trkpt>
      <trkpt lat="43.8657" lon="7.22898">
        <ele>513.96203613281</ele>
        <time>2014-03-09T12:54:44Z</time>
      </trkpt>
      <trkpt lat="43.86573" lon="7.2288">
        <ele>513.00073242188</ele>
        <time>2014-03-09T12:54:50Z</time>
      </trkpt>
      <trkpt lat="43.86572" lon="7.22866">
        <ele>512.52001953125</ele>
        <time>2014-03-09T12:54:55Z</time>
      </trkpt>
      <trkpt lat="43.86573" lon="7.22855">
        <ele>511.55871582031</ele>
        <time>2014-03-09T12:54:59Z</time>
      </trkpt>
      <trkpt lat="43.86575" lon="7.2284">
        <ele>512.03942871094</ele>
        <time>2014-03-09T12:55:05Z</time>
      </trkpt>
      <trkpt lat="43.86573" lon="7.22827">
        <ele>514.44262695312</ele>
        <time>2014-03-09T12:55:10Z</time>
      </trkpt>
      <trkpt lat="43.86575" lon="7.22814">
        <ele>515.88464355469</ele>
        <time>2014-03-09T12:55:15Z</time>
      </trkpt>
      <trkpt lat="43.86575" lon="7.22809">
        <ele>517.32666015625</ele>
        <time>2014-03-09T12:55:17Z</time>
      </trkpt>
      <trkpt lat="43.86576" lon="7.22797">
        <ele>520.69128417969</ele>
        <time>2014-03-09T12:55:22Z</time>
      </trkpt>
      <trkpt lat="43.86572" lon="7.22788">
        <ele>525.01721191406</ele>
        <time>2014-03-09T12:55:27Z</time>
      </trkpt>
      <trkpt lat="43.86565" lon="7.22776">
        <ele>528.86254882812</ele>
        <time>2014-03-09T12:55:33Z</time>
      </trkpt>
      <trkpt lat="43.86553" lon="7.22774">
        <ele>533.18835449219</ele>
        <time>2014-03-09T12:55:40Z</time>
      </trkpt>
      <trkpt lat="43.8653" lon="7.22775">
        <ele>534.14965820312</ele>
        <time>2014-03-09T12:55:49Z</time>
      </trkpt>
      <trkpt lat="43.86512" lon="7.22776">
        <ele>534.63037109375</ele>
        <time>2014-03-09T12:55:56Z</time>
      </trkpt>
      <trkpt lat="43.86491" lon="7.22778">
        <ele>535.59155273438</ele>
        <time>2014-03-09T12:56:03Z</time>
      </trkpt>
      <trkpt lat="43.86473" lon="7.22783">
        <ele>536.55310058594</ele>
        <time>2014-03-09T12:56:09Z</time>
      </trkpt>
      <trkpt lat="43.86452" lon="7.22789">
        <ele>537.03369140625</ele>
        <time>2014-03-09T12:56:16Z</time>
      </trkpt>
      <trkpt lat="43.86425" lon="7.22796">
        <ele>537.51428222656</ele>
        <time>2014-03-09T12:56:24Z</time>
      </trkpt>
      <trkpt lat="43.864" lon="7.228">
        <ele>538.47570800781</ele>
        <time>2014-03-09T12:56:30Z</time>
      </trkpt>
      <trkpt lat="43.86395" lon="7.22801">
        <ele>538.95629882812</ele>
        <time>2014-03-09T12:56:31Z</time>
      </trkpt>
      <trkpt lat="43.86383" lon="7.22804">
        <ele>538.47570800781</ele>
        <time>2014-03-09T12:56:36Z</time>
      </trkpt>
      <trkpt lat="43.86381" lon="7.22806">
        <ele>539.43688964844</ele>
        <time>2014-03-09T12:56:39Z</time>
      </trkpt>
      <trkpt lat="43.86377" lon="7.22813">
        <ele>538.95629882812</ele>
        <time>2014-03-09T12:56:48Z</time>
      </trkpt>
      <trkpt lat="43.86373" lon="7.22818">
        <ele>540.39831542969</ele>
        <time>2014-03-09T12:56:55Z</time>
      </trkpt>
      <trkpt lat="43.86369" lon="7.22822">
        <ele>539.91760253906</ele>
        <time>2014-03-09T12:57:02Z</time>
      </trkpt>
      <trkpt lat="43.86367" lon="7.22823">
        <ele>539.91760253906</ele>
        <time>2014-03-09T12:57:04Z</time>
      </trkpt>
      <trkpt lat="43.86353" lon="7.22827">
        <ele>538.95629882812</ele>
        <time>2014-03-09T12:57:09Z</time>
      </trkpt>
      <trkpt lat="43.86346" lon="7.22832">
        <ele>538.47570800781</ele>
        <time>2014-03-09T12:57:11Z</time>
      </trkpt>
      <trkpt lat="43.8633" lon="7.2284">
        <ele>537.03369140625</ele>
        <time>2014-03-09T12:57:16Z</time>
      </trkpt>
      <trkpt lat="43.8632" lon="7.22851">
        <ele>534.14965820312</ele>
        <time>2014-03-09T12:57:21Z</time>
      </trkpt>
      <trkpt lat="43.86311" lon="7.2286">
        <ele>532.22705078125</ele>
        <time>2014-03-09T12:57:24Z</time>
      </trkpt>
      <trkpt lat="43.86309" lon="7.22868">
        <ele>531.74633789062</ele>
        <time>2014-03-09T12:57:32Z</time>
      </trkpt>
      <trkpt lat="43.86308" lon="7.22877">
        <ele>530.30444335938</ele>
        <time>2014-03-09T12:57:38Z</time>
      </trkpt>
      <trkpt lat="43.86307" lon="7.2288">
        <ele>530.30444335938</ele>
        <time>2014-03-09T12:57:41Z</time>
      </trkpt>
      <trkpt lat="43.86301" lon="7.2289">
        <ele>531.26574707031</ele>
        <time>2014-03-09T12:57:49Z</time>
      </trkpt>
      <trkpt lat="43.86299" lon="7.22893">
        <ele>532.70776367188</ele>
        <time>2014-03-09T12:57:52Z</time>
      </trkpt>
      <trkpt lat="43.86296" lon="7.22899">
        <ele>534.63037109375</ele>
        <time>2014-03-09T12:57:57Z</time>
      </trkpt>
      <trkpt lat="43.86292" lon="7.22908">
        <ele>537.99499511719</ele>
        <time>2014-03-09T12:58:05Z</time>
      </trkpt>
      <trkpt lat="43.86288" lon="7.22919">
        <ele>538.95629882812</ele>
        <time>2014-03-09T12:58:12Z</time>
      </trkpt>
      <trkpt lat="43.86288" lon="7.22931">
        <ele>540.87890625</ele>
        <time>2014-03-09T12:58:20Z</time>
      </trkpt>
      <trkpt lat="43.86287" lon="7.22946">
        <ele>542.32092285156</ele>
        <time>2014-03-09T12:58:29Z</time>
      </trkpt>
      <trkpt lat="43.86287" lon="7.22955">
        <ele>542.80151367188</ele>
        <time>2014-03-09T12:58:35Z</time>
      </trkpt>
      <trkpt lat="43.86282" lon="7.22963">
        <ele>541.84020996094</ele>
        <time>2014-03-09T12:58:39Z</time>
      </trkpt>
      <trkpt lat="43.86278" lon="7.22975">
        <ele>540.87890625</ele>
        <time>2014-03-09T12:58:42Z</time>
      </trkpt>
      <trkpt lat="43.86267" lon="7.22986">
        <ele>539.91760253906</ele>
        <time>2014-03-09T12:58:46Z</time>
      </trkpt>
      <trkpt lat="43.8625" lon="7.22986">
        <ele>539.91760253906</ele>
        <time>2014-03-09T12:58:51Z</time>
      </trkpt>
      <trkpt lat="43.86242" lon="7.22976">
        <ele>538.47570800781</ele>
        <time>2014-03-09T12:58:55Z</time>
      </trkpt>
      <trkpt lat="43.86233" lon="7.22969">
        <ele>536.07238769531</ele>
        <time>2014-03-09T12:58:59Z</time>
      </trkpt>
      <trkpt lat="43.86225" lon="7.22969">
        <ele>534.14965820312</ele>
        <time>2014-03-09T12:59:02Z</time>
      </trkpt>
      <trkpt lat="43.86221" lon="7.22973">
        <ele>531.26574707031</ele>
        <time>2014-03-09T12:59:05Z</time>
      </trkpt>
      <trkpt lat="43.86217" lon="7.22983">
        <ele>530.30444335938</ele>
        <time>2014-03-09T12:59:08Z</time>
      </trkpt>
      <trkpt lat="43.86214" lon="7.2301">
        <ele>528.3818359375</ele>
        <time>2014-03-09T12:59:13Z</time>
      </trkpt>
      <trkpt lat="43.86202" lon="7.23016">
        <ele>526.45910644531</ele>
        <time>2014-03-09T12:59:17Z</time>
      </trkpt>
      <trkpt lat="43.862" lon="7.23017">
        <ele>526.45910644531</ele>
        <time>2014-03-09T12:59:18Z</time>
      </trkpt>
      <trkpt lat="43.8619" lon="7.23016">
        <ele>524.05578613281</ele>
        <time>2014-03-09T12:59:23Z</time>
      </trkpt>
      <trkpt lat="43.86176" lon="7.23019">
        <ele>521.17199707031</ele>
        <time>2014-03-09T12:59:27Z</time>
      </trkpt>
      <trkpt lat="43.86157" lon="7.23017">
        <ele>521.65258789062</ele>
        <time>2014-03-09T12:59:32Z</time>
      </trkpt>
      <trkpt lat="43.86155" lon="7.23017">
        <ele>522.61389160156</ele>
        <time>2014-03-09T12:59:33Z</time>
      </trkpt>
    </trkseg>
  </trk>
</gpx>